<?xml version="1.0" encoding="UTF-8" standalone="no" ?>
<gpx xmlns="http://www.topografix.com/GPX/1/1" xmlns:xsi="http://www.w3.org/2001/XMLSchema-instance" xsi:schemaLocation="http://www.topografix.com/GPX/1/1 http://www.topografix.com/GPX/1/1/gpx.xsd" version="1.1" creator="VisuGPX - https://www.visugpx.com">
  <metadata>
    <name>Pèlerinage en Dordogne J1</name>
    <desc><![CDATA[Souillac / Sarlat / Coux et Bigaroque]]></desc>
  </metadata>
  <trk>
    <name><![CDATA[Sur les routes de Dordogne PART 1]]></name>
    <trkseg>
      <trkpt lat="44.87549" lon="1.22693">
        <ele>191</ele>
        <time>2015-10-03T08:52:32Z</time>
      </trkpt>
      <trkpt lat="44.87544" lon="1.22707">
        <ele>191</ele>
        <time>2015-10-03T08:52:35Z</time>
      </trkpt>
      <trkpt lat="44.87537" lon="1.2273">
        <ele>190.8</ele>
        <time>2015-10-03T08:52:39Z</time>
      </trkpt>
      <trkpt lat="44.87534" lon="1.22742">
        <ele>191</ele>
        <time>2015-10-03T08:52:41Z</time>
      </trkpt>
      <trkpt lat="44.87529" lon="1.22769">
        <ele>191</ele>
        <time>2015-10-03T08:52:45Z</time>
      </trkpt>
      <trkpt lat="44.87524" lon="1.22829">
        <ele>191.8</ele>
        <time>2015-10-03T08:52:53Z</time>
      </trkpt>
      <trkpt lat="44.87524" lon="1.22836">
        <ele>192</ele>
        <time>2015-10-03T08:52:54Z</time>
      </trkpt>
      <trkpt lat="44.87522" lon="1.22879">
        <ele>193</ele>
        <time>2015-10-03T08:53:00Z</time>
      </trkpt>
      <trkpt lat="44.87522" lon="1.22886">
        <ele>192.8</ele>
        <time>2015-10-03T08:53:01Z</time>
      </trkpt>
      <trkpt lat="44.87519" lon="1.22929">
        <ele>194</ele>
        <time>2015-10-03T08:53:07Z</time>
      </trkpt>
      <trkpt lat="44.87516" lon="1.22944">
        <ele>194.2</ele>
        <time>2015-10-03T08:53:09Z</time>
      </trkpt>
      <trkpt lat="44.87508" lon="1.22977">
        <ele>195</ele>
        <time>2015-10-03T08:53:14Z</time>
      </trkpt>
      <trkpt lat="44.87507" lon="1.22983">
        <ele>195.2</ele>
        <time>2015-10-03T08:53:15Z</time>
      </trkpt>
      <trkpt lat="44.87497" lon="1.23016">
        <ele>195.6</ele>
        <time>2015-10-03T08:53:21Z</time>
      </trkpt>
      <trkpt lat="44.87491" lon="1.23021">
        <ele>195.2</ele>
        <time>2015-10-03T08:53:23Z</time>
      </trkpt>
      <trkpt lat="44.87488" lon="1.23021">
        <ele>195</ele>
        <time>2015-10-03T08:53:24Z</time>
      </trkpt>
      <trkpt lat="44.87472" lon="1.23028">
        <ele>195</ele>
        <time>2015-10-03T08:53:28Z</time>
      </trkpt>
      <trkpt lat="44.87467" lon="1.23047">
        <ele>195</ele>
        <time>2015-10-03T08:53:31Z</time>
      </trkpt>
      <trkpt lat="44.87472" lon="1.23065">
        <ele>194.8</ele>
        <time>2015-10-03T08:53:34Z</time>
      </trkpt>
      <trkpt lat="44.87475" lon="1.2307">
        <ele>194.8</ele>
        <time>2015-10-03T08:53:35Z</time>
      </trkpt>
      <trkpt lat="44.87477" lon="1.23076">
        <ele>194.8</ele>
        <time>2015-10-03T08:53:36Z</time>
      </trkpt>
      <trkpt lat="44.87477" lon="1.23092">
        <ele>194.6</ele>
        <time>2015-10-03T08:53:38Z</time>
      </trkpt>
      <trkpt lat="44.87477" lon="1.23108">
        <ele>194.4</ele>
        <time>2015-10-03T08:53:40Z</time>
      </trkpt>
      <trkpt lat="44.87474" lon="1.23141">
        <ele>194</ele>
        <time>2015-10-03T08:53:44Z</time>
      </trkpt>
      <trkpt lat="44.87473" lon="1.23157">
        <ele>194</ele>
        <time>2015-10-03T08:53:46Z</time>
      </trkpt>
      <trkpt lat="44.87471" lon="1.23165">
        <ele>193.6</ele>
        <time>2015-10-03T08:53:48Z</time>
      </trkpt>
      <trkpt lat="44.8747" lon="1.23167">
        <ele>193.6</ele>
        <time>2015-10-03T08:53:49Z</time>
      </trkpt>
      <trkpt lat="44.87464" lon="1.23169">
        <ele>193.6</ele>
        <time>2015-10-03T08:53:52Z</time>
      </trkpt>
      <trkpt lat="44.87457" lon="1.23172">
        <ele>193</ele>
        <time>2015-10-03T08:53:55Z</time>
      </trkpt>
      <trkpt lat="44.87456" lon="1.23175">
        <ele>193</ele>
        <time>2015-10-03T08:53:57Z</time>
      </trkpt>
      <trkpt lat="44.87456" lon="1.23174">
        <ele>192.8</ele>
        <time>2015-10-03T08:53:58Z</time>
      </trkpt>
      <trkpt lat="44.87456" lon="1.23176">
        <ele>192.6</ele>
        <time>2015-10-03T08:54:00Z</time>
      </trkpt>
      <trkpt lat="44.87456" lon="1.23176">
        <ele>192.6</ele>
        <time>2015-10-03T08:54:01Z</time>
      </trkpt>
      <trkpt lat="44.87457" lon="1.23178">
        <ele>192.8</ele>
        <time>2015-10-03T08:54:07Z</time>
      </trkpt>
      <trkpt lat="44.87452" lon="1.2318">
        <ele>192.2</ele>
        <time>2015-10-03T08:54:22Z</time>
      </trkpt>
      <trkpt lat="44.87452" lon="1.23179">
        <ele>192</ele>
        <time>2015-10-03T08:54:24Z</time>
      </trkpt>
      <trkpt lat="44.8745" lon="1.23183">
        <ele>191.8</ele>
        <time>2015-10-03T08:54:36Z</time>
      </trkpt>
      <trkpt lat="44.87447" lon="1.23192">
        <ele>191.6</ele>
        <time>2015-10-03T08:54:38Z</time>
      </trkpt>
      <trkpt lat="44.87443" lon="1.23209">
        <ele>190.2</ele>
        <time>2015-10-03T08:54:40Z</time>
      </trkpt>
      <trkpt lat="44.87441" lon="1.23218">
        <ele>189.4</ele>
        <time>2015-10-03T08:54:41Z</time>
      </trkpt>
      <trkpt lat="44.87438" lon="1.23227">
        <ele>189</ele>
        <time>2015-10-03T08:54:42Z</time>
      </trkpt>
      <trkpt lat="44.87423" lon="1.23269">
        <ele>188.8</ele>
        <time>2015-10-03T08:54:47Z</time>
      </trkpt>
      <trkpt lat="44.87409" lon="1.23301">
        <ele>188.6</ele>
        <time>2015-10-03T08:54:52Z</time>
      </trkpt>
      <trkpt lat="44.87392" lon="1.23341">
        <ele>189</ele>
        <time>2015-10-03T08:54:58Z</time>
      </trkpt>
      <trkpt lat="44.87371" lon="1.23387">
        <ele>189</ele>
        <time>2015-10-03T08:55:04Z</time>
      </trkpt>
      <trkpt lat="44.87345" lon="1.23446">
        <ele>188.6</ele>
        <time>2015-10-03T08:55:11Z</time>
      </trkpt>
      <trkpt lat="44.87313" lon="1.23515">
        <ele>188.2</ele>
        <time>2015-10-03T08:55:19Z</time>
      </trkpt>
      <trkpt lat="44.8731" lon="1.23522">
        <ele>188</ele>
        <time>2015-10-03T08:55:20Z</time>
      </trkpt>
      <trkpt lat="44.87292" lon="1.23565">
        <ele>188</ele>
        <time>2015-10-03T08:55:25Z</time>
      </trkpt>
      <trkpt lat="44.87281" lon="1.23593">
        <ele>188</ele>
        <time>2015-10-03T08:55:28Z</time>
      </trkpt>
      <trkpt lat="44.87249" lon="1.23669">
        <ele>187.2</ele>
        <time>2015-10-03T08:55:36Z</time>
      </trkpt>
      <trkpt lat="44.87241" lon="1.23687">
        <ele>186.8</ele>
        <time>2015-10-03T08:55:38Z</time>
      </trkpt>
      <trkpt lat="44.87214" lon="1.23752">
        <ele>186</ele>
        <time>2015-10-03T08:55:45Z</time>
      </trkpt>
      <trkpt lat="44.87206" lon="1.2377">
        <ele>185.8</ele>
        <time>2015-10-03T08:55:47Z</time>
      </trkpt>
      <trkpt lat="44.87182" lon="1.23824">
        <ele>184.8</ele>
        <time>2015-10-03T08:55:53Z</time>
      </trkpt>
      <trkpt lat="44.87178" lon="1.23834">
        <ele>185</ele>
        <time>2015-10-03T08:55:54Z</time>
      </trkpt>
      <trkpt lat="44.8715" lon="1.23899">
        <ele>184</ele>
        <time>2015-10-03T08:56:01Z</time>
      </trkpt>
      <trkpt lat="44.87142" lon="1.23918">
        <ele>183.8</ele>
        <time>2015-10-03T08:56:03Z</time>
      </trkpt>
      <trkpt lat="44.87115" lon="1.23984">
        <ele>182.8</ele>
        <time>2015-10-03T08:56:10Z</time>
      </trkpt>
      <trkpt lat="44.87108" lon="1.24002">
        <ele>182.6</ele>
        <time>2015-10-03T08:56:12Z</time>
      </trkpt>
      <trkpt lat="44.8708" lon="1.24069">
        <ele>181.8</ele>
        <time>2015-10-03T08:56:19Z</time>
      </trkpt>
      <trkpt lat="44.87063" lon="1.24106">
        <ele>181.6</ele>
        <time>2015-10-03T08:56:23Z</time>
      </trkpt>
      <trkpt lat="44.87034" lon="1.24158">
        <ele>180.8</ele>
        <time>2015-10-03T08:56:29Z</time>
      </trkpt>
      <trkpt lat="44.87024" lon="1.24175">
        <ele>180.4</ele>
        <time>2015-10-03T08:56:31Z</time>
      </trkpt>
      <trkpt lat="44.86986" lon="1.24231">
        <ele>179.6</ele>
        <time>2015-10-03T08:56:38Z</time>
      </trkpt>
      <trkpt lat="44.86981" lon="1.24238">
        <ele>179.2</ele>
        <time>2015-10-03T08:56:39Z</time>
      </trkpt>
      <trkpt lat="44.86949" lon="1.24284">
        <ele>179</ele>
        <time>2015-10-03T08:56:45Z</time>
      </trkpt>
      <trkpt lat="44.86937" lon="1.24299">
        <ele>178.6</ele>
        <time>2015-10-03T08:56:47Z</time>
      </trkpt>
      <trkpt lat="44.86926" lon="1.24313">
        <ele>178.2</ele>
        <time>2015-10-03T08:56:49Z</time>
      </trkpt>
      <trkpt lat="44.86893" lon="1.24362">
        <ele>177.6</ele>
        <time>2015-10-03T08:56:55Z</time>
      </trkpt>
      <trkpt lat="44.86878" lon="1.24383">
        <ele>177.2</ele>
        <time>2015-10-03T08:56:58Z</time>
      </trkpt>
      <trkpt lat="44.86846" lon="1.24429">
        <ele>176.4</ele>
        <time>2015-10-03T08:57:04Z</time>
      </trkpt>
      <trkpt lat="44.86819" lon="1.24469">
        <ele>176</ele>
        <time>2015-10-03T08:57:09Z</time>
      </trkpt>
      <trkpt lat="44.86803" lon="1.24493">
        <ele>175.8</ele>
        <time>2015-10-03T08:57:12Z</time>
      </trkpt>
      <trkpt lat="44.86778" lon="1.24531">
        <ele>174.8</ele>
        <time>2015-10-03T08:57:17Z</time>
      </trkpt>
      <trkpt lat="44.86767" lon="1.24545">
        <ele>174.8</ele>
        <time>2015-10-03T08:57:19Z</time>
      </trkpt>
      <trkpt lat="44.86735" lon="1.24591">
        <ele>173.8</ele>
        <time>2015-10-03T08:57:25Z</time>
      </trkpt>
      <trkpt lat="44.86724" lon="1.24606">
        <ele>173.8</ele>
        <time>2015-10-03T08:57:27Z</time>
      </trkpt>
      <trkpt lat="44.86685" lon="1.2466">
        <ele>172.8</ele>
        <time>2015-10-03T08:57:34Z</time>
      </trkpt>
      <trkpt lat="44.86641" lon="1.24723">
        <ele>171.8</ele>
        <time>2015-10-03T08:57:42Z</time>
      </trkpt>
      <trkpt lat="44.86636" lon="1.2473">
        <ele>171.6</ele>
        <time>2015-10-03T08:57:43Z</time>
      </trkpt>
      <trkpt lat="44.86595" lon="1.24789">
        <ele>170.8</ele>
        <time>2015-10-03T08:57:51Z</time>
      </trkpt>
      <trkpt lat="44.86589" lon="1.24795">
        <ele>170.8</ele>
        <time>2015-10-03T08:57:52Z</time>
      </trkpt>
      <trkpt lat="44.86584" lon="1.24801">
        <ele>170.6</ele>
        <time>2015-10-03T08:57:53Z</time>
      </trkpt>
      <trkpt lat="44.86541" lon="1.24844">
        <ele>169.6</ele>
        <time>2015-10-03T08:58:00Z</time>
      </trkpt>
      <trkpt lat="44.86534" lon="1.2485">
        <ele>169.4</ele>
        <time>2015-10-03T08:58:01Z</time>
      </trkpt>
      <trkpt lat="44.86494" lon="1.24888">
        <ele>168.8</ele>
        <time>2015-10-03T08:58:07Z</time>
      </trkpt>
      <trkpt lat="44.8647" lon="1.24907">
        <ele>168.4</ele>
        <time>2015-10-03T08:58:11Z</time>
      </trkpt>
      <trkpt lat="44.86457" lon="1.24915">
        <ele>167.8</ele>
        <time>2015-10-03T08:58:13Z</time>
      </trkpt>
      <trkpt lat="44.86437" lon="1.24928">
        <ele>167.4</ele>
        <time>2015-10-03T08:58:16Z</time>
      </trkpt>
      <trkpt lat="44.86417" lon="1.2494">
        <ele>167.4</ele>
        <time>2015-10-03T08:58:19Z</time>
      </trkpt>
      <trkpt lat="44.86371" lon="1.24968">
        <ele>166.4</ele>
        <time>2015-10-03T08:58:26Z</time>
      </trkpt>
      <trkpt lat="44.86365" lon="1.24971">
        <ele>166.4</ele>
        <time>2015-10-03T08:58:27Z</time>
      </trkpt>
      <trkpt lat="44.86326" lon="1.2499">
        <ele>165.4</ele>
        <time>2015-10-03T08:58:33Z</time>
      </trkpt>
      <trkpt lat="44.8632" lon="1.24993">
        <ele>165.2</ele>
        <time>2015-10-03T08:58:34Z</time>
      </trkpt>
      <trkpt lat="44.86272" lon="1.25018">
        <ele>164.6</ele>
        <time>2015-10-03T08:58:41Z</time>
      </trkpt>
      <trkpt lat="44.86252" lon="1.25028">
        <ele>164</ele>
        <time>2015-10-03T08:58:44Z</time>
      </trkpt>
      <trkpt lat="44.86236" lon="1.25037">
        <ele>163.8</ele>
        <time>2015-10-03T08:58:47Z</time>
      </trkpt>
      <trkpt lat="44.8619" lon="1.25064">
        <ele>162.8</ele>
        <time>2015-10-03T08:58:55Z</time>
      </trkpt>
      <trkpt lat="44.86173" lon="1.25076">
        <ele>162.4</ele>
        <time>2015-10-03T08:58:58Z</time>
      </trkpt>
      <trkpt lat="44.86137" lon="1.25095">
        <ele>161.8</ele>
        <time>2015-10-03T08:59:03Z</time>
      </trkpt>
      <trkpt lat="44.86118" lon="1.25101">
        <ele>161.4</ele>
        <time>2015-10-03T08:59:05Z</time>
      </trkpt>
      <trkpt lat="44.86066" lon="1.2512">
        <ele>160.6</ele>
        <time>2015-10-03T08:59:11Z</time>
      </trkpt>
      <trkpt lat="44.86049" lon="1.25126">
        <ele>160.2</ele>
        <time>2015-10-03T08:59:13Z</time>
      </trkpt>
      <trkpt lat="44.86005" lon="1.25148">
        <ele>159.4</ele>
        <time>2015-10-03T08:59:19Z</time>
      </trkpt>
      <trkpt lat="44.85992" lon="1.25155">
        <ele>159.4</ele>
        <time>2015-10-03T08:59:21Z</time>
      </trkpt>
      <trkpt lat="44.85939" lon="1.25191">
        <ele>158.6</ele>
        <time>2015-10-03T08:59:29Z</time>
      </trkpt>
      <trkpt lat="44.85933" lon="1.25197">
        <ele>158.2</ele>
        <time>2015-10-03T08:59:30Z</time>
      </trkpt>
      <trkpt lat="44.85902" lon="1.25229">
        <ele>157.8</ele>
        <time>2015-10-03T08:59:35Z</time>
      </trkpt>
      <trkpt lat="44.85867" lon="1.25272">
        <ele>157.2</ele>
        <time>2015-10-03T08:59:41Z</time>
      </trkpt>
      <trkpt lat="44.85845" lon="1.25303">
        <ele>156.4</ele>
        <time>2015-10-03T08:59:45Z</time>
      </trkpt>
      <trkpt lat="44.85835" lon="1.25318">
        <ele>156.2</ele>
        <time>2015-10-03T08:59:47Z</time>
      </trkpt>
      <trkpt lat="44.85804" lon="1.25365">
        <ele>155.4</ele>
        <time>2015-10-03T08:59:53Z</time>
      </trkpt>
      <trkpt lat="44.85794" lon="1.25381">
        <ele>155</ele>
        <time>2015-10-03T08:59:55Z</time>
      </trkpt>
      <trkpt lat="44.85769" lon="1.25421">
        <ele>154.4</ele>
        <time>2015-10-03T09:00:00Z</time>
      </trkpt>
      <trkpt lat="44.85744" lon="1.2546">
        <ele>154</ele>
        <time>2015-10-03T09:00:05Z</time>
      </trkpt>
      <trkpt lat="44.85729" lon="1.25483">
        <ele>153.6</ele>
        <time>2015-10-03T09:00:08Z</time>
      </trkpt>
      <trkpt lat="44.85704" lon="1.25521">
        <ele>153</ele>
        <time>2015-10-03T09:00:13Z</time>
      </trkpt>
      <trkpt lat="44.85694" lon="1.25537">
        <ele>152.8</ele>
        <time>2015-10-03T09:00:15Z</time>
      </trkpt>
      <trkpt lat="44.85653" lon="1.25599">
        <ele>152</ele>
        <time>2015-10-03T09:00:23Z</time>
      </trkpt>
      <trkpt lat="44.85648" lon="1.25607">
        <ele>152</ele>
        <time>2015-10-03T09:00:24Z</time>
      </trkpt>
      <trkpt lat="44.85617" lon="1.25659">
        <ele>151</ele>
        <time>2015-10-03T09:00:31Z</time>
      </trkpt>
      <trkpt lat="44.85608" lon="1.25673">
        <ele>150.6</ele>
        <time>2015-10-03T09:00:33Z</time>
      </trkpt>
      <trkpt lat="44.85585" lon="1.25708">
        <ele>148.6</ele>
        <time>2015-10-03T09:00:38Z</time>
      </trkpt>
      <trkpt lat="44.85581" lon="1.25714">
        <ele>149.2</ele>
        <time>2015-10-03T09:00:39Z</time>
      </trkpt>
      <trkpt lat="44.85572" lon="1.25728">
        <ele>150.6</ele>
        <time>2015-10-03T09:00:41Z</time>
      </trkpt>
      <trkpt lat="44.85568" lon="1.25735">
        <ele>149.4</ele>
        <time>2015-10-03T09:00:42Z</time>
      </trkpt>
      <trkpt lat="44.85534" lon="1.2578">
        <ele>148.4</ele>
        <time>2015-10-03T09:00:48Z</time>
      </trkpt>
      <trkpt lat="44.85524" lon="1.25796">
        <ele>148.2</ele>
        <time>2015-10-03T09:00:50Z</time>
      </trkpt>
      <trkpt lat="44.8549" lon="1.25842">
        <ele>147.4</ele>
        <time>2015-10-03T09:00:56Z</time>
      </trkpt>
      <trkpt lat="44.85479" lon="1.25858">
        <ele>147</ele>
        <time>2015-10-03T09:00:58Z</time>
      </trkpt>
      <trkpt lat="44.85442" lon="1.25911">
        <ele>146.6</ele>
        <time>2015-10-03T09:01:05Z</time>
      </trkpt>
      <trkpt lat="44.85422" lon="1.25942">
        <ele>146</ele>
        <time>2015-10-03T09:01:09Z</time>
      </trkpt>
      <trkpt lat="44.85404" lon="1.25972">
        <ele>145.4</ele>
        <time>2015-10-03T09:01:13Z</time>
      </trkpt>
      <trkpt lat="44.85374" lon="1.26021">
        <ele>144.8</ele>
        <time>2015-10-03T09:01:20Z</time>
      </trkpt>
      <trkpt lat="44.85371" lon="1.26029">
        <ele>144.6</ele>
        <time>2015-10-03T09:01:21Z</time>
      </trkpt>
      <trkpt lat="44.85354" lon="1.26073">
        <ele>143.8</ele>
        <time>2015-10-03T09:01:27Z</time>
      </trkpt>
      <trkpt lat="44.85333" lon="1.26124">
        <ele>143</ele>
        <time>2015-10-03T09:01:33Z</time>
      </trkpt>
      <trkpt lat="44.8532" lon="1.2616">
        <ele>142.8</ele>
        <time>2015-10-03T09:01:37Z</time>
      </trkpt>
      <trkpt lat="44.85306" lon="1.26195">
        <ele>142</ele>
        <time>2015-10-03T09:01:41Z</time>
      </trkpt>
      <trkpt lat="44.85299" lon="1.26223">
        <ele>141.6</ele>
        <time>2015-10-03T09:01:44Z</time>
      </trkpt>
      <trkpt lat="44.85294" lon="1.26251">
        <ele>141.4</ele>
        <time>2015-10-03T09:01:47Z</time>
      </trkpt>
      <trkpt lat="44.85294" lon="1.26303">
        <ele>140.6</ele>
        <time>2015-10-03T09:01:52Z</time>
      </trkpt>
      <trkpt lat="44.85293" lon="1.26385">
        <ele>139.6</ele>
        <time>2015-10-03T09:02:00Z</time>
      </trkpt>
      <trkpt lat="44.85288" lon="1.2647">
        <ele>138.6</ele>
        <time>2015-10-03T09:02:08Z</time>
      </trkpt>
      <trkpt lat="44.85289" lon="1.26481">
        <ele>138.6</ele>
        <time>2015-10-03T09:02:09Z</time>
      </trkpt>
      <trkpt lat="44.85293" lon="1.26552">
        <ele>137.6</ele>
        <time>2015-10-03T09:02:16Z</time>
      </trkpt>
      <trkpt lat="44.85294" lon="1.26562">
        <ele>137.6</ele>
        <time>2015-10-03T09:02:17Z</time>
      </trkpt>
      <trkpt lat="44.85297" lon="1.26628">
        <ele>136.8</ele>
        <time>2015-10-03T09:02:23Z</time>
      </trkpt>
      <trkpt lat="44.85301" lon="1.26661">
        <ele>136.4</ele>
        <time>2015-10-03T09:02:26Z</time>
      </trkpt>
      <trkpt lat="44.85302" lon="1.26704">
        <ele>136.2</ele>
        <time>2015-10-03T09:02:30Z</time>
      </trkpt>
      <trkpt lat="44.85302" lon="1.26746">
        <ele>135.4</ele>
        <time>2015-10-03T09:02:34Z</time>
      </trkpt>
      <trkpt lat="44.85301" lon="1.268">
        <ele>135</ele>
        <time>2015-10-03T09:02:38Z</time>
      </trkpt>
      <trkpt lat="44.85299" lon="1.26875">
        <ele>134.2</ele>
        <time>2015-10-03T09:02:44Z</time>
      </trkpt>
      <trkpt lat="44.85298" lon="1.26885">
        <ele>134.2</ele>
        <time>2015-10-03T09:02:45Z</time>
      </trkpt>
      <trkpt lat="44.85284" lon="1.26961">
        <ele>133.4</ele>
        <time>2015-10-03T09:02:53Z</time>
      </trkpt>
      <trkpt lat="44.8528" lon="1.26971">
        <ele>133.2</ele>
        <time>2015-10-03T09:02:54Z</time>
      </trkpt>
      <trkpt lat="44.85262" lon="1.27017">
        <ele>132.4</ele>
        <time>2015-10-03T09:02:59Z</time>
      </trkpt>
      <trkpt lat="44.85244" lon="1.27052">
        <ele>132</ele>
        <time>2015-10-03T09:03:03Z</time>
      </trkpt>
      <trkpt lat="44.85233" lon="1.27069">
        <ele>131.8</ele>
        <time>2015-10-03T09:03:05Z</time>
      </trkpt>
      <trkpt lat="44.85193" lon="1.27134">
        <ele>130.8</ele>
        <time>2015-10-03T09:03:12Z</time>
      </trkpt>
      <trkpt lat="44.85189" lon="1.27142">
        <ele>130.6</ele>
        <time>2015-10-03T09:03:13Z</time>
      </trkpt>
      <trkpt lat="44.85156" lon="1.27181">
        <ele>129.8</ele>
        <time>2015-10-03T09:03:19Z</time>
      </trkpt>
      <trkpt lat="44.85149" lon="1.27187">
        <ele>129.4</ele>
        <time>2015-10-03T09:03:20Z</time>
      </trkpt>
      <trkpt lat="44.85114" lon="1.27214">
        <ele>128.6</ele>
        <time>2015-10-03T09:03:25Z</time>
      </trkpt>
      <trkpt lat="44.85099" lon="1.27224">
        <ele>128.4</ele>
        <time>2015-10-03T09:03:27Z</time>
      </trkpt>
      <trkpt lat="44.85052" lon="1.27248">
        <ele>127.6</ele>
        <time>2015-10-03T09:03:33Z</time>
      </trkpt>
      <trkpt lat="44.84991" lon="1.27274">
        <ele>126.8</ele>
        <time>2015-10-03T09:03:41Z</time>
      </trkpt>
      <trkpt lat="44.84983" lon="1.27277">
        <ele>126.8</ele>
        <time>2015-10-03T09:03:42Z</time>
      </trkpt>
      <trkpt lat="44.84975" lon="1.27279">
        <ele>126.6</ele>
        <time>2015-10-03T09:03:43Z</time>
      </trkpt>
      <trkpt lat="44.84923" lon="1.27298">
        <ele>126</ele>
        <time>2015-10-03T09:03:50Z</time>
      </trkpt>
      <trkpt lat="44.84894" lon="1.27308">
        <ele>125.4</ele>
        <time>2015-10-03T09:03:54Z</time>
      </trkpt>
      <trkpt lat="44.84879" lon="1.27313">
        <ele>125.6</ele>
        <time>2015-10-03T09:03:56Z</time>
      </trkpt>
      <trkpt lat="44.84828" lon="1.27333">
        <ele>125.4</ele>
        <time>2015-10-03T09:04:04Z</time>
      </trkpt>
      <trkpt lat="44.84786" lon="1.27353">
        <ele>125.6</ele>
        <time>2015-10-03T09:04:11Z</time>
      </trkpt>
      <trkpt lat="44.84758" lon="1.2737">
        <ele>125.8</ele>
        <time>2015-10-03T09:04:16Z</time>
      </trkpt>
      <trkpt lat="44.84747" lon="1.27378">
        <ele>126</ele>
        <time>2015-10-03T09:04:18Z</time>
      </trkpt>
      <trkpt lat="44.84703" lon="1.27414">
        <ele>126.4</ele>
        <time>2015-10-03T09:04:26Z</time>
      </trkpt>
      <trkpt lat="44.84697" lon="1.27419">
        <ele>126.6</ele>
        <time>2015-10-03T09:04:27Z</time>
      </trkpt>
      <trkpt lat="44.84645" lon="1.27458">
        <ele>126.8</ele>
        <time>2015-10-03T09:04:36Z</time>
      </trkpt>
      <trkpt lat="44.84605" lon="1.27484">
        <ele>127.4</ele>
        <time>2015-10-03T09:04:43Z</time>
      </trkpt>
      <trkpt lat="44.84599" lon="1.27487">
        <ele>127.6</ele>
        <time>2015-10-03T09:04:44Z</time>
      </trkpt>
      <trkpt lat="44.84566" lon="1.27506">
        <ele>127.8</ele>
        <time>2015-10-03T09:04:50Z</time>
      </trkpt>
      <trkpt lat="44.84517" lon="1.27522">
        <ele>128.4</ele>
        <time>2015-10-03T09:04:58Z</time>
      </trkpt>
      <trkpt lat="44.84476" lon="1.27535">
        <ele>128.8</ele>
        <time>2015-10-03T09:05:05Z</time>
      </trkpt>
      <trkpt lat="44.8447" lon="1.27536">
        <ele>128.8</ele>
        <time>2015-10-03T09:05:06Z</time>
      </trkpt>
      <trkpt lat="44.84421" lon="1.27538">
        <ele>129.2</ele>
        <time>2015-10-03T09:05:14Z</time>
      </trkpt>
      <trkpt lat="44.84372" lon="1.27536">
        <ele>129.6</ele>
        <time>2015-10-03T09:05:22Z</time>
      </trkpt>
      <trkpt lat="44.84365" lon="1.27536">
        <ele>130</ele>
        <time>2015-10-03T09:05:23Z</time>
      </trkpt>
      <trkpt lat="44.84323" lon="1.27535">
        <ele>130.2</ele>
        <time>2015-10-03T09:05:30Z</time>
      </trkpt>
      <trkpt lat="44.84283" lon="1.27535">
        <ele>130.8</ele>
        <time>2015-10-03T09:05:37Z</time>
      </trkpt>
      <trkpt lat="44.84272" lon="1.27537">
        <ele>131</ele>
        <time>2015-10-03T09:05:39Z</time>
      </trkpt>
      <trkpt lat="44.84249" lon="1.27541">
        <ele>131.2</ele>
        <time>2015-10-03T09:05:43Z</time>
      </trkpt>
      <trkpt lat="44.84209" lon="1.27555">
        <ele>131.8</ele>
        <time>2015-10-03T09:05:50Z</time>
      </trkpt>
      <trkpt lat="44.84165" lon="1.27571">
        <ele>132</ele>
        <time>2015-10-03T09:05:58Z</time>
      </trkpt>
      <trkpt lat="44.84121" lon="1.27583">
        <ele>132.2</ele>
        <time>2015-10-03T09:06:05Z</time>
      </trkpt>
      <trkpt lat="44.84084" lon="1.27592">
        <ele>132.8</ele>
        <time>2015-10-03T09:06:12Z</time>
      </trkpt>
      <trkpt lat="44.8408" lon="1.27593">
        <ele>133</ele>
        <time>2015-10-03T09:06:13Z</time>
      </trkpt>
      <trkpt lat="44.84061" lon="1.27597">
        <ele>133.2</ele>
        <time>2015-10-03T09:06:18Z</time>
      </trkpt>
      <trkpt lat="44.84048" lon="1.27597">
        <ele>133.2</ele>
        <time>2015-10-03T09:06:23Z</time>
      </trkpt>
      <trkpt lat="44.8404" lon="1.27597">
        <ele>133.2</ele>
        <time>2015-10-03T09:06:29Z</time>
      </trkpt>
      <trkpt lat="44.84036" lon="1.27596">
        <ele>133.6</ele>
        <time>2015-10-03T09:07:44Z</time>
      </trkpt>
      <trkpt lat="44.8403" lon="1.27598">
        <ele>133.8</ele>
        <time>2015-10-03T09:07:46Z</time>
      </trkpt>
      <trkpt lat="44.84008" lon="1.27599">
        <ele>134</ele>
        <time>2015-10-03T09:07:52Z</time>
      </trkpt>
      <trkpt lat="44.84003" lon="1.27599">
        <ele>134</ele>
        <time>2015-10-03T09:07:53Z</time>
      </trkpt>
      <trkpt lat="44.83984" lon="1.27597">
        <ele>134</ele>
        <time>2015-10-03T09:07:57Z</time>
      </trkpt>
      <trkpt lat="44.83973" lon="1.27596">
        <ele>134.2</ele>
        <time>2015-10-03T09:07:59Z</time>
      </trkpt>
      <trkpt lat="44.83949" lon="1.2759">
        <ele>134.6</ele>
        <time>2015-10-03T09:08:04Z</time>
      </trkpt>
      <trkpt lat="44.83915" lon="1.2758">
        <ele>134.6</ele>
        <time>2015-10-03T09:08:11Z</time>
      </trkpt>
      <trkpt lat="44.83876" lon="1.27566">
        <ele>134.8</ele>
        <time>2015-10-03T09:08:19Z</time>
      </trkpt>
      <trkpt lat="44.83836" lon="1.27549">
        <ele>135</ele>
        <time>2015-10-03T09:08:27Z</time>
      </trkpt>
      <trkpt lat="44.83812" lon="1.27538">
        <ele>135.4</ele>
        <time>2015-10-03T09:08:31Z</time>
      </trkpt>
      <trkpt lat="44.83793" lon="1.2753">
        <ele>135.2</ele>
        <time>2015-10-03T09:08:34Z</time>
      </trkpt>
      <trkpt lat="44.83738" lon="1.27506">
        <ele>136</ele>
        <time>2015-10-03T09:08:43Z</time>
      </trkpt>
      <trkpt lat="44.83717" lon="1.27498">
        <ele>136.4</ele>
        <time>2015-10-03T09:08:47Z</time>
      </trkpt>
      <trkpt lat="44.83707" lon="1.27495">
        <ele>136.2</ele>
        <time>2015-10-03T09:08:49Z</time>
      </trkpt>
      <trkpt lat="44.83676" lon="1.27482">
        <ele>136.2</ele>
        <time>2015-10-03T09:08:56Z</time>
      </trkpt>
      <trkpt lat="44.83641" lon="1.27467">
        <ele>136.4</ele>
        <time>2015-10-03T09:09:03Z</time>
      </trkpt>
      <trkpt lat="44.83594" lon="1.27447">
        <ele>136.2</ele>
        <time>2015-10-03T09:09:11Z</time>
      </trkpt>
      <trkpt lat="44.83551" lon="1.27429">
        <ele>136.4</ele>
        <time>2015-10-03T09:09:18Z</time>
      </trkpt>
      <trkpt lat="44.83514" lon="1.27413">
        <ele>136.6</ele>
        <time>2015-10-03T09:09:24Z</time>
      </trkpt>
      <trkpt lat="44.83462" lon="1.27391">
        <ele>136.8</ele>
        <time>2015-10-03T09:09:32Z</time>
      </trkpt>
      <trkpt lat="44.83413" lon="1.27371">
        <ele>136.4</ele>
        <time>2015-10-03T09:09:39Z</time>
      </trkpt>
      <trkpt lat="44.83356" lon="1.27348">
        <ele>136.8</ele>
        <time>2015-10-03T09:09:47Z</time>
      </trkpt>
      <trkpt lat="44.83309" lon="1.27331">
        <ele>136.4</ele>
        <time>2015-10-03T09:09:53Z</time>
      </trkpt>
      <trkpt lat="44.83278" lon="1.27322">
        <ele>137</ele>
        <time>2015-10-03T09:09:58Z</time>
      </trkpt>
      <trkpt lat="44.83273" lon="1.27321">
        <ele>137</ele>
        <time>2015-10-03T09:10:01Z</time>
      </trkpt>
      <trkpt lat="44.83262" lon="1.27321">
        <ele>136.8</ele>
        <time>2015-10-03T09:10:05Z</time>
      </trkpt>
      <trkpt lat="44.83252" lon="1.27321">
        <ele>136.6</ele>
        <time>2015-10-03T09:10:07Z</time>
      </trkpt>
      <trkpt lat="44.83216" lon="1.27323">
        <ele>136.4</ele>
        <time>2015-10-03T09:10:13Z</time>
      </trkpt>
      <trkpt lat="44.83169" lon="1.27335">
        <ele>136.8</ele>
        <time>2015-10-03T09:10:20Z</time>
      </trkpt>
      <trkpt lat="44.83122" lon="1.2736">
        <ele>136</ele>
        <time>2015-10-03T09:10:27Z</time>
      </trkpt>
      <trkpt lat="44.83084" lon="1.27394">
        <ele>135.6</ele>
        <time>2015-10-03T09:10:33Z</time>
      </trkpt>
      <trkpt lat="44.8306" lon="1.27419">
        <ele>135.2</ele>
        <time>2015-10-03T09:10:37Z</time>
      </trkpt>
      <trkpt lat="44.83039" lon="1.27448">
        <ele>134.8</ele>
        <time>2015-10-03T09:10:41Z</time>
      </trkpt>
      <trkpt lat="44.83012" lon="1.27497">
        <ele>134.4</ele>
        <time>2015-10-03T09:10:47Z</time>
      </trkpt>
      <trkpt lat="44.82995" lon="1.27533">
        <ele>134.2</ele>
        <time>2015-10-03T09:10:51Z</time>
      </trkpt>
      <trkpt lat="44.82978" lon="1.2757">
        <ele>133.8</ele>
        <time>2015-10-03T09:10:55Z</time>
      </trkpt>
      <trkpt lat="44.82949" lon="1.27636">
        <ele>133.2</ele>
        <time>2015-10-03T09:11:02Z</time>
      </trkpt>
      <trkpt lat="44.82944" lon="1.27645">
        <ele>133.2</ele>
        <time>2015-10-03T09:11:03Z</time>
      </trkpt>
      <trkpt lat="44.82914" lon="1.27708">
        <ele>132.6</ele>
        <time>2015-10-03T09:11:10Z</time>
      </trkpt>
      <trkpt lat="44.82885" lon="1.2777">
        <ele>132.2</ele>
        <time>2015-10-03T09:11:17Z</time>
      </trkpt>
      <trkpt lat="44.82864" lon="1.27812">
        <ele>132.2</ele>
        <time>2015-10-03T09:11:22Z</time>
      </trkpt>
      <trkpt lat="44.82856" lon="1.2783">
        <ele>132</ele>
        <time>2015-10-03T09:11:24Z</time>
      </trkpt>
      <trkpt lat="44.82827" lon="1.27904">
        <ele>131.4</ele>
        <time>2015-10-03T09:11:31Z</time>
      </trkpt>
      <trkpt lat="44.82818" lon="1.27923">
        <ele>131</ele>
        <time>2015-10-03T09:11:33Z</time>
      </trkpt>
      <trkpt lat="44.82813" lon="1.27933">
        <ele>131</ele>
        <time>2015-10-03T09:11:34Z</time>
      </trkpt>
      <trkpt lat="44.82788" lon="1.27991">
        <ele>130</ele>
        <time>2015-10-03T09:11:40Z</time>
      </trkpt>
      <trkpt lat="44.82774" lon="1.28019">
        <ele>130</ele>
        <time>2015-10-03T09:11:43Z</time>
      </trkpt>
      <trkpt lat="44.82758" lon="1.28057">
        <ele>129</ele>
        <time>2015-10-03T09:11:47Z</time>
      </trkpt>
      <trkpt lat="44.82743" lon="1.28083">
        <ele>128.6</ele>
        <time>2015-10-03T09:11:50Z</time>
      </trkpt>
      <trkpt lat="44.82719" lon="1.28125">
        <ele>128</ele>
        <time>2015-10-03T09:11:55Z</time>
      </trkpt>
      <trkpt lat="44.82704" lon="1.28148">
        <ele>127.2</ele>
        <time>2015-10-03T09:11:58Z</time>
      </trkpt>
      <trkpt lat="44.82696" lon="1.28157">
        <ele>126.8</ele>
        <time>2015-10-03T09:12:00Z</time>
      </trkpt>
      <trkpt lat="44.82694" lon="1.28159">
        <ele>126.8</ele>
        <time>2015-10-03T09:12:01Z</time>
      </trkpt>
      <trkpt lat="44.82694" lon="1.2816">
        <ele>126.6</ele>
        <time>2015-10-03T09:12:04Z</time>
      </trkpt>
      <trkpt lat="44.82698" lon="1.28155">
        <ele>126.6</ele>
        <time>2015-10-03T09:12:08Z</time>
      </trkpt>
      <trkpt lat="44.827" lon="1.28153">
        <ele>126.6</ele>
        <time>2015-10-03T09:12:09Z</time>
      </trkpt>
      <trkpt lat="44.82702" lon="1.28152">
        <ele>126.6</ele>
        <time>2015-10-03T09:12:10Z</time>
      </trkpt>
      <trkpt lat="44.82713" lon="1.28138">
        <ele>126.8</ele>
        <time>2015-10-03T09:12:15Z</time>
      </trkpt>
      <trkpt lat="44.82735" lon="1.28106">
        <ele>127.6</ele>
        <time>2015-10-03T09:12:22Z</time>
      </trkpt>
      <trkpt lat="44.82744" lon="1.28091">
        <ele>128</ele>
        <time>2015-10-03T09:12:25Z</time>
      </trkpt>
      <trkpt lat="44.8275" lon="1.28082">
        <ele>128.2</ele>
        <time>2015-10-03T09:12:27Z</time>
      </trkpt>
      <trkpt lat="44.82756" lon="1.28073">
        <ele>128.2</ele>
        <time>2015-10-03T09:12:29Z</time>
      </trkpt>
      <trkpt lat="44.8276" lon="1.28064">
        <ele>128.4</ele>
        <time>2015-10-03T09:12:31Z</time>
      </trkpt>
      <trkpt lat="44.82764" lon="1.28055">
        <ele>128.6</ele>
        <time>2015-10-03T09:12:34Z</time>
      </trkpt>
      <trkpt lat="44.82766" lon="1.28054">
        <ele>128.6</ele>
        <time>2015-10-03T09:12:35Z</time>
      </trkpt>
      <trkpt lat="44.82769" lon="1.28056">
        <ele>128.6</ele>
        <time>2015-10-03T09:12:38Z</time>
      </trkpt>
      <trkpt lat="44.8277" lon="1.28056">
        <ele>128.8</ele>
        <time>2015-10-03T09:12:39Z</time>
      </trkpt>
      <trkpt lat="44.82774" lon="1.28059">
        <ele>129.2</ele>
        <time>2015-10-03T09:12:41Z</time>
      </trkpt>
      <trkpt lat="44.82777" lon="1.28065">
        <ele>129.6</ele>
        <time>2015-10-03T09:12:43Z</time>
      </trkpt>
      <trkpt lat="44.82784" lon="1.28072">
        <ele>130.6</ele>
        <time>2015-10-03T09:12:46Z</time>
      </trkpt>
      <trkpt lat="44.82788" lon="1.28076">
        <ele>131.2</ele>
        <time>2015-10-03T09:12:48Z</time>
      </trkpt>
      <trkpt lat="44.82796" lon="1.28087">
        <ele>131.6</ele>
        <time>2015-10-03T09:12:52Z</time>
      </trkpt>
      <trkpt lat="44.828" lon="1.28092">
        <ele>131.6</ele>
        <time>2015-10-03T09:12:54Z</time>
      </trkpt>
      <trkpt lat="44.82805" lon="1.28113">
        <ele>131.4</ele>
        <time>2015-10-03T09:12:59Z</time>
      </trkpt>
      <trkpt lat="44.82805" lon="1.28123">
        <ele>130.6</ele>
        <time>2015-10-03T09:13:01Z</time>
      </trkpt>
      <trkpt lat="44.82806" lon="1.28142">
        <ele>130.8</ele>
        <time>2015-10-03T09:13:05Z</time>
      </trkpt>
      <trkpt lat="44.82806" lon="1.28147">
        <ele>132.4</ele>
        <time>2015-10-03T09:13:06Z</time>
      </trkpt>
      <trkpt lat="44.82806" lon="1.2816">
        <ele>131.2</ele>
        <time>2015-10-03T09:13:09Z</time>
      </trkpt>
      <trkpt lat="44.82805" lon="1.28176">
        <ele>130.8</ele>
        <time>2015-10-03T09:13:13Z</time>
      </trkpt>
      <trkpt lat="44.82805" lon="1.28179">
        <ele>130.8</ele>
        <time>2015-10-03T09:13:18Z</time>
      </trkpt>
      <trkpt lat="44.82805" lon="1.28196">
        <ele>131</ele>
        <time>2015-10-03T09:13:46Z</time>
      </trkpt>
      <trkpt lat="44.82806" lon="1.28199">
        <ele>130.8</ele>
        <time>2015-10-03T09:13:47Z</time>
      </trkpt>
      <trkpt lat="44.82809" lon="1.28236">
        <ele>131</ele>
        <time>2015-10-03T09:13:52Z</time>
      </trkpt>
      <trkpt lat="44.82818" lon="1.28302">
        <ele>131.2</ele>
        <time>2015-10-03T09:14:00Z</time>
      </trkpt>
      <trkpt lat="44.8283" lon="1.2836">
        <ele>131.8</ele>
        <time>2015-10-03T09:14:07Z</time>
      </trkpt>
      <trkpt lat="44.82847" lon="1.28424">
        <ele>130.8</ele>
        <time>2015-10-03T09:14:15Z</time>
      </trkpt>
      <trkpt lat="44.82871" lon="1.28502">
        <ele>130.6</ele>
        <time>2015-10-03T09:14:24Z</time>
      </trkpt>
      <trkpt lat="44.82888" lon="1.28544">
        <ele>131.2</ele>
        <time>2015-10-03T09:14:29Z</time>
      </trkpt>
      <trkpt lat="44.82913" lon="1.28599">
        <ele>131.2</ele>
        <time>2015-10-03T09:14:36Z</time>
      </trkpt>
      <trkpt lat="44.82946" lon="1.28656">
        <ele>131.4</ele>
        <time>2015-10-03T09:14:44Z</time>
      </trkpt>
      <trkpt lat="44.8298" lon="1.28712">
        <ele>131.2</ele>
        <time>2015-10-03T09:14:52Z</time>
      </trkpt>
      <trkpt lat="44.83011" lon="1.28764">
        <ele>130.8</ele>
        <time>2015-10-03T09:14:59Z</time>
      </trkpt>
      <trkpt lat="44.8305" lon="1.28829">
        <ele>131</ele>
        <time>2015-10-03T09:15:07Z</time>
      </trkpt>
      <trkpt lat="44.83055" lon="1.28837">
        <ele>130.8</ele>
        <time>2015-10-03T09:15:08Z</time>
      </trkpt>
      <trkpt lat="44.83092" lon="1.28897">
        <ele>131.2</ele>
        <time>2015-10-03T09:15:15Z</time>
      </trkpt>
      <trkpt lat="44.83097" lon="1.28905">
        <ele>131</ele>
        <time>2015-10-03T09:15:16Z</time>
      </trkpt>
      <trkpt lat="44.83135" lon="1.28966">
        <ele>131.2</ele>
        <time>2015-10-03T09:15:23Z</time>
      </trkpt>
      <trkpt lat="44.83146" lon="1.28982">
        <ele>132</ele>
        <time>2015-10-03T09:15:25Z</time>
      </trkpt>
      <trkpt lat="44.83151" lon="1.2899">
        <ele>132.2</ele>
        <time>2015-10-03T09:15:26Z</time>
      </trkpt>
      <trkpt lat="44.83183" lon="1.29043">
        <ele>132.2</ele>
        <time>2015-10-03T09:15:33Z</time>
      </trkpt>
      <trkpt lat="44.8321" lon="1.29085">
        <ele>132</ele>
        <time>2015-10-03T09:15:40Z</time>
      </trkpt>
      <trkpt lat="44.83217" lon="1.29094">
        <ele>131.8</ele>
        <time>2015-10-03T09:15:43Z</time>
      </trkpt>
      <trkpt lat="44.83224" lon="1.29107">
        <ele>131.6</ele>
        <time>2015-10-03T09:15:47Z</time>
      </trkpt>
      <trkpt lat="44.83227" lon="1.29111">
        <ele>131.6</ele>
        <time>2015-10-03T09:15:48Z</time>
      </trkpt>
      <trkpt lat="44.83239" lon="1.29131">
        <ele>131.4</ele>
        <time>2015-10-03T09:15:52Z</time>
      </trkpt>
      <trkpt lat="44.83242" lon="1.29137">
        <ele>131.4</ele>
        <time>2015-10-03T09:15:53Z</time>
      </trkpt>
      <trkpt lat="44.8325" lon="1.29148">
        <ele>131.4</ele>
        <time>2015-10-03T09:15:55Z</time>
      </trkpt>
      <trkpt lat="44.83266" lon="1.29174">
        <ele>132</ele>
        <time>2015-10-03T09:15:59Z</time>
      </trkpt>
      <trkpt lat="44.83303" lon="1.2923">
        <ele>132.2</ele>
        <time>2015-10-03T09:16:07Z</time>
      </trkpt>
      <trkpt lat="44.83333" lon="1.29274">
        <ele>132.6</ele>
        <time>2015-10-03T09:16:14Z</time>
      </trkpt>
      <trkpt lat="44.83356" lon="1.29311">
        <ele>132.8</ele>
        <time>2015-10-03T09:16:20Z</time>
      </trkpt>
      <trkpt lat="44.83379" lon="1.29347">
        <ele>133</ele>
        <time>2015-10-03T09:16:26Z</time>
      </trkpt>
      <trkpt lat="44.8339" lon="1.29365">
        <ele>133.4</ele>
        <time>2015-10-03T09:16:29Z</time>
      </trkpt>
      <trkpt lat="44.83406" lon="1.29388">
        <ele>133.4</ele>
        <time>2015-10-03T09:16:33Z</time>
      </trkpt>
      <trkpt lat="44.8341" lon="1.29394">
        <ele>133.4</ele>
        <time>2015-10-03T09:16:34Z</time>
      </trkpt>
      <trkpt lat="44.83427" lon="1.29424">
        <ele>134</ele>
        <time>2015-10-03T09:16:39Z</time>
      </trkpt>
      <trkpt lat="44.83449" lon="1.29456">
        <ele>134.4</ele>
        <time>2015-10-03T09:16:44Z</time>
      </trkpt>
      <trkpt lat="44.83458" lon="1.29471">
        <ele>134.2</ele>
        <time>2015-10-03T09:16:46Z</time>
      </trkpt>
      <trkpt lat="44.83486" lon="1.29513">
        <ele>134.8</ele>
        <time>2015-10-03T09:16:52Z</time>
      </trkpt>
      <trkpt lat="44.8349" lon="1.29519">
        <ele>135</ele>
        <time>2015-10-03T09:16:53Z</time>
      </trkpt>
      <trkpt lat="44.83518" lon="1.29564">
        <ele>135</ele>
        <time>2015-10-03T09:17:00Z</time>
      </trkpt>
      <trkpt lat="44.83532" lon="1.29585">
        <ele>135.4</ele>
        <time>2015-10-03T09:17:03Z</time>
      </trkpt>
      <trkpt lat="44.8355" lon="1.29613">
        <ele>135.2</ele>
        <time>2015-10-03T09:17:07Z</time>
      </trkpt>
      <trkpt lat="44.83587" lon="1.29668">
        <ele>135.4</ele>
        <time>2015-10-03T09:17:15Z</time>
      </trkpt>
      <trkpt lat="44.83619" lon="1.29716">
        <ele>135.2</ele>
        <time>2015-10-03T09:17:22Z</time>
      </trkpt>
      <trkpt lat="44.83658" lon="1.29772">
        <ele>135.2</ele>
        <time>2015-10-03T09:17:30Z</time>
      </trkpt>
      <trkpt lat="44.83702" lon="1.29825">
        <ele>134.4</ele>
        <time>2015-10-03T09:17:38Z</time>
      </trkpt>
      <trkpt lat="44.83708" lon="1.29832">
        <ele>134.2</ele>
        <time>2015-10-03T09:17:39Z</time>
      </trkpt>
      <trkpt lat="44.83756" lon="1.29881">
        <ele>133.4</ele>
        <time>2015-10-03T09:17:47Z</time>
      </trkpt>
      <trkpt lat="44.83762" lon="1.29888">
        <ele>133.2</ele>
        <time>2015-10-03T09:17:48Z</time>
      </trkpt>
      <trkpt lat="44.83807" lon="1.29931">
        <ele>132.2</ele>
        <time>2015-10-03T09:17:55Z</time>
      </trkpt>
      <trkpt lat="44.83813" lon="1.29937">
        <ele>132</ele>
        <time>2015-10-03T09:17:56Z</time>
      </trkpt>
      <trkpt lat="44.83862" lon="1.29981">
        <ele>131.2</ele>
        <time>2015-10-03T09:18:03Z</time>
      </trkpt>
      <trkpt lat="44.83911" lon="1.30028">
        <ele>130</ele>
        <time>2015-10-03T09:18:11Z</time>
      </trkpt>
      <trkpt lat="44.83942" lon="1.30054">
        <ele>129.4</ele>
        <time>2015-10-03T09:18:17Z</time>
      </trkpt>
      <trkpt lat="44.83949" lon="1.30059">
        <ele>129</ele>
        <time>2015-10-03T09:18:20Z</time>
      </trkpt>
      <trkpt lat="44.83943" lon="1.30053">
        <ele>131</ele>
        <time>2015-10-03T09:23:47Z</time>
      </trkpt>
      <trkpt lat="44.83942" lon="1.30051">
        <ele>131</ele>
        <time>2015-10-03T09:23:48Z</time>
      </trkpt>
      <trkpt lat="44.83934" lon="1.30042">
        <ele>131.2</ele>
        <time>2015-10-03T09:23:54Z</time>
      </trkpt>
      <trkpt lat="44.83917" lon="1.30024">
        <ele>131.8</ele>
        <time>2015-10-03T09:24:02Z</time>
      </trkpt>
      <trkpt lat="44.83912" lon="1.30019">
        <ele>132</ele>
        <time>2015-10-03T09:24:04Z</time>
      </trkpt>
      <trkpt lat="44.83896" lon="1.30003">
        <ele>132.4</ele>
        <time>2015-10-03T09:24:10Z</time>
      </trkpt>
      <trkpt lat="44.83873" lon="1.29981">
        <ele>132.8</ele>
        <time>2015-10-03T09:24:18Z</time>
      </trkpt>
      <trkpt lat="44.83864" lon="1.29972">
        <ele>133.2</ele>
        <time>2015-10-03T09:24:21Z</time>
      </trkpt>
      <trkpt lat="44.83847" lon="1.29955">
        <ele>133.4</ele>
        <time>2015-10-03T09:24:26Z</time>
      </trkpt>
      <trkpt lat="44.83819" lon="1.29927">
        <ele>134</ele>
        <time>2015-10-03T09:24:34Z</time>
      </trkpt>
      <trkpt lat="44.83816" lon="1.29924">
        <ele>134</ele>
        <time>2015-10-03T09:24:35Z</time>
      </trkpt>
      <trkpt lat="44.83806" lon="1.29913">
        <ele>134.2</ele>
        <time>2015-10-03T09:24:38Z</time>
      </trkpt>
      <trkpt lat="44.838" lon="1.29907">
        <ele>134.2</ele>
        <time>2015-10-03T09:24:40Z</time>
      </trkpt>
      <trkpt lat="44.83772" lon="1.2988">
        <ele>135</ele>
        <time>2015-10-03T09:24:49Z</time>
      </trkpt>
      <trkpt lat="44.83761" lon="1.2987">
        <ele>135.2</ele>
        <time>2015-10-03T09:24:52Z</time>
      </trkpt>
      <trkpt lat="44.83744" lon="1.29851">
        <ele>135.6</ele>
        <time>2015-10-03T09:24:57Z</time>
      </trkpt>
      <trkpt lat="44.83717" lon="1.29821">
        <ele>136</ele>
        <time>2015-10-03T09:25:05Z</time>
      </trkpt>
      <trkpt lat="44.83707" lon="1.29811">
        <ele>136.2</ele>
        <time>2015-10-03T09:25:08Z</time>
      </trkpt>
      <trkpt lat="44.83688" lon="1.29789">
        <ele>136.6</ele>
        <time>2015-10-03T09:25:14Z</time>
      </trkpt>
      <trkpt lat="44.83665" lon="1.29761">
        <ele>136.8</ele>
        <time>2015-10-03T09:25:22Z</time>
      </trkpt>
      <trkpt lat="44.83641" lon="1.29726">
        <ele>137</ele>
        <time>2015-10-03T09:25:30Z</time>
      </trkpt>
      <trkpt lat="44.83611" lon="1.29683">
        <ele>137</ele>
        <time>2015-10-03T09:25:39Z</time>
      </trkpt>
      <trkpt lat="44.83585" lon="1.29645">
        <ele>136.8</ele>
        <time>2015-10-03T09:25:47Z</time>
      </trkpt>
      <trkpt lat="44.83556" lon="1.296">
        <ele>136.6</ele>
        <time>2015-10-03T09:25:56Z</time>
      </trkpt>
      <trkpt lat="44.83526" lon="1.29551">
        <ele>136.2</ele>
        <time>2015-10-03T09:26:06Z</time>
      </trkpt>
      <trkpt lat="44.835" lon="1.2951">
        <ele>136</ele>
        <time>2015-10-03T09:26:15Z</time>
      </trkpt>
      <trkpt lat="44.83473" lon="1.29466">
        <ele>135.4</ele>
        <time>2015-10-03T09:26:23Z</time>
      </trkpt>
      <trkpt lat="44.83466" lon="1.29455">
        <ele>135.2</ele>
        <time>2015-10-03T09:26:25Z</time>
      </trkpt>
      <trkpt lat="44.83444" lon="1.29421">
        <ele>134.8</ele>
        <time>2015-10-03T09:26:31Z</time>
      </trkpt>
      <trkpt lat="44.83418" lon="1.2938">
        <ele>134.2</ele>
        <time>2015-10-03T09:26:39Z</time>
      </trkpt>
      <trkpt lat="44.83395" lon="1.29344">
        <ele>133.6</ele>
        <time>2015-10-03T09:26:46Z</time>
      </trkpt>
      <trkpt lat="44.83389" lon="1.29333">
        <ele>133.6</ele>
        <time>2015-10-03T09:26:48Z</time>
      </trkpt>
      <trkpt lat="44.83375" lon="1.29313">
        <ele>133.2</ele>
        <time>2015-10-03T09:26:52Z</time>
      </trkpt>
      <trkpt lat="44.83369" lon="1.29303">
        <ele>133.2</ele>
        <time>2015-10-03T09:26:54Z</time>
      </trkpt>
      <trkpt lat="44.83353" lon="1.29278">
        <ele>133.4</ele>
        <time>2015-10-03T09:26:58Z</time>
      </trkpt>
      <trkpt lat="44.83315" lon="1.29223">
        <ele>132.4</ele>
        <time>2015-10-03T09:27:07Z</time>
      </trkpt>
      <trkpt lat="44.83291" lon="1.29188">
        <ele>132</ele>
        <time>2015-10-03T09:27:13Z</time>
      </trkpt>
      <trkpt lat="44.83288" lon="1.29182">
        <ele>132</ele>
        <time>2015-10-03T09:27:14Z</time>
      </trkpt>
      <trkpt lat="44.83269" lon="1.2915">
        <ele>131.8</ele>
        <time>2015-10-03T09:27:21Z</time>
      </trkpt>
      <trkpt lat="44.83246" lon="1.2911">
        <ele>131.6</ele>
        <time>2015-10-03T09:27:29Z</time>
      </trkpt>
      <trkpt lat="44.83233" lon="1.29095">
        <ele>131.8</ele>
        <time>2015-10-03T09:27:34Z</time>
      </trkpt>
      <trkpt lat="44.8322" lon="1.29074">
        <ele>131.4</ele>
        <time>2015-10-03T09:27:41Z</time>
      </trkpt>
      <trkpt lat="44.83204" lon="1.29052">
        <ele>131.4</ele>
        <time>2015-10-03T09:27:47Z</time>
      </trkpt>
      <trkpt lat="44.8318" lon="1.29017">
        <ele>131.4</ele>
        <time>2015-10-03T09:27:55Z</time>
      </trkpt>
      <trkpt lat="44.83154" lon="1.28973">
        <ele>131.2</ele>
        <time>2015-10-03T09:28:04Z</time>
      </trkpt>
      <trkpt lat="44.83132" lon="1.28943">
        <ele>131</ele>
        <time>2015-10-03T09:28:10Z</time>
      </trkpt>
      <trkpt lat="44.83129" lon="1.28938">
        <ele>131</ele>
        <time>2015-10-03T09:28:11Z</time>
      </trkpt>
      <trkpt lat="44.83094" lon="1.28884">
        <ele>130.8</ele>
        <time>2015-10-03T09:28:21Z</time>
      </trkpt>
      <trkpt lat="44.83069" lon="1.28845">
        <ele>130.6</ele>
        <time>2015-10-03T09:28:29Z</time>
      </trkpt>
      <trkpt lat="44.8304" lon="1.288">
        <ele>130.6</ele>
        <time>2015-10-03T09:28:38Z</time>
      </trkpt>
      <trkpt lat="44.83037" lon="1.28795">
        <ele>130.6</ele>
        <time>2015-10-03T09:28:39Z</time>
      </trkpt>
      <trkpt lat="44.83012" lon="1.28756">
        <ele>130.6</ele>
        <time>2015-10-03T09:28:47Z</time>
      </trkpt>
      <trkpt lat="44.82989" lon="1.28721">
        <ele>130.4</ele>
        <time>2015-10-03T09:28:54Z</time>
      </trkpt>
      <trkpt lat="44.82971" lon="1.28693">
        <ele>130.2</ele>
        <time>2015-10-03T09:29:00Z</time>
      </trkpt>
      <trkpt lat="44.8294" lon="1.28645">
        <ele>130.2</ele>
        <time>2015-10-03T09:29:09Z</time>
      </trkpt>
      <trkpt lat="44.82911" lon="1.28599">
        <ele>130.2</ele>
        <time>2015-10-03T09:29:18Z</time>
      </trkpt>
      <trkpt lat="44.82904" lon="1.28588">
        <ele>130.2</ele>
        <time>2015-10-03T09:29:20Z</time>
      </trkpt>
      <trkpt lat="44.82892" lon="1.28567">
        <ele>130.2</ele>
        <time>2015-10-03T09:29:24Z</time>
      </trkpt>
      <trkpt lat="44.82879" lon="1.28539">
        <ele>130</ele>
        <time>2015-10-03T09:29:29Z</time>
      </trkpt>
      <trkpt lat="44.82871" lon="1.28521">
        <ele>130</ele>
        <time>2015-10-03T09:29:32Z</time>
      </trkpt>
      <trkpt lat="44.8285" lon="1.28459">
        <ele>130</ele>
        <time>2015-10-03T09:29:42Z</time>
      </trkpt>
      <trkpt lat="44.82835" lon="1.28412">
        <ele>130</ele>
        <time>2015-10-03T09:29:50Z</time>
      </trkpt>
      <trkpt lat="44.82825" lon="1.28369">
        <ele>130.2</ele>
        <time>2015-10-03T09:29:57Z</time>
      </trkpt>
      <trkpt lat="44.82816" lon="1.28317">
        <ele>130.2</ele>
        <time>2015-10-03T09:30:05Z</time>
      </trkpt>
      <trkpt lat="44.82808" lon="1.28256">
        <ele>130.2</ele>
        <time>2015-10-03T09:30:15Z</time>
      </trkpt>
      <trkpt lat="44.82804" lon="1.28203">
        <ele>130.2</ele>
        <time>2015-10-03T09:30:23Z</time>
      </trkpt>
      <trkpt lat="44.82803" lon="1.28141">
        <ele>130</ele>
        <time>2015-10-03T09:30:33Z</time>
      </trkpt>
      <trkpt lat="44.82803" lon="1.28102">
        <ele>130</ele>
        <time>2015-10-03T09:30:40Z</time>
      </trkpt>
      <trkpt lat="44.82802" lon="1.28085">
        <ele>130.2</ele>
        <time>2015-10-03T09:30:45Z</time>
      </trkpt>
      <trkpt lat="44.8279" lon="1.28069">
        <ele>129.8</ele>
        <time>2015-10-03T09:30:51Z</time>
      </trkpt>
      <trkpt lat="44.8278" lon="1.28058">
        <ele>128.8</ele>
        <time>2015-10-03T09:30:54Z</time>
      </trkpt>
      <trkpt lat="44.82774" lon="1.28051">
        <ele>128</ele>
        <time>2015-10-03T09:30:56Z</time>
      </trkpt>
      <trkpt lat="44.8277" lon="1.28047">
        <ele>127.6</ele>
        <time>2015-10-03T09:30:58Z</time>
      </trkpt>
      <trkpt lat="44.82769" lon="1.28045">
        <ele>127.4</ele>
        <time>2015-10-03T09:30:59Z</time>
      </trkpt>
      <trkpt lat="44.82769" lon="1.28039">
        <ele>127.4</ele>
        <time>2015-10-03T09:31:01Z</time>
      </trkpt>
      <trkpt lat="44.8277" lon="1.28034">
        <ele>127.4</ele>
        <time>2015-10-03T09:31:04Z</time>
      </trkpt>
      <trkpt lat="44.82771" lon="1.28032">
        <ele>127.4</ele>
        <time>2015-10-03T09:31:06Z</time>
      </trkpt>
      <trkpt lat="44.8278" lon="1.2802">
        <ele>127.6</ele>
        <time>2015-10-03T09:31:12Z</time>
      </trkpt>
      <trkpt lat="44.82789" lon="1.28">
        <ele>128</ele>
        <time>2015-10-03T09:31:17Z</time>
      </trkpt>
      <trkpt lat="44.82803" lon="1.27968">
        <ele>128.4</ele>
        <time>2015-10-03T09:31:24Z</time>
      </trkpt>
      <trkpt lat="44.82815" lon="1.27944">
        <ele>128.6</ele>
        <time>2015-10-03T09:31:29Z</time>
      </trkpt>
      <trkpt lat="44.82829" lon="1.27916">
        <ele>129</ele>
        <time>2015-10-03T09:31:35Z</time>
      </trkpt>
      <trkpt lat="44.82833" lon="1.27907">
        <ele>129.2</ele>
        <time>2015-10-03T09:31:37Z</time>
      </trkpt>
      <trkpt lat="44.8284" lon="1.27885">
        <ele>129.4</ele>
        <time>2015-10-03T09:31:41Z</time>
      </trkpt>
      <trkpt lat="44.82845" lon="1.2787">
        <ele>129.6</ele>
        <time>2015-10-03T09:31:44Z</time>
      </trkpt>
      <trkpt lat="44.8286" lon="1.27836">
        <ele>130</ele>
        <time>2015-10-03T09:31:51Z</time>
      </trkpt>
      <trkpt lat="44.8288" lon="1.27798">
        <ele>129.8</ele>
        <time>2015-10-03T09:31:59Z</time>
      </trkpt>
      <trkpt lat="44.82882" lon="1.27794">
        <ele>129.8</ele>
        <time>2015-10-03T09:32:00Z</time>
      </trkpt>
      <trkpt lat="44.82893" lon="1.27776">
        <ele>130</ele>
        <time>2015-10-03T09:32:04Z</time>
      </trkpt>
      <trkpt lat="44.82895" lon="1.27772">
        <ele>130</ele>
        <time>2015-10-03T09:32:05Z</time>
      </trkpt>
      <trkpt lat="44.82917" lon="1.27743">
        <ele>130</ele>
        <time>2015-10-03T09:32:13Z</time>
      </trkpt>
      <trkpt lat="44.82923" lon="1.27737">
        <ele>130.2</ele>
        <time>2015-10-03T09:32:15Z</time>
      </trkpt>
      <trkpt lat="44.82932" lon="1.27726">
        <ele>130.2</ele>
        <time>2015-10-03T09:32:18Z</time>
      </trkpt>
      <trkpt lat="44.82934" lon="1.27722">
        <ele>130</ele>
        <time>2015-10-03T09:32:19Z</time>
      </trkpt>
      <trkpt lat="44.82939" lon="1.27712">
        <ele>130.2</ele>
        <time>2015-10-03T09:32:21Z</time>
      </trkpt>
      <trkpt lat="44.82944" lon="1.27703">
        <ele>130.2</ele>
        <time>2015-10-03T09:32:23Z</time>
      </trkpt>
      <trkpt lat="44.82962" lon="1.27673">
        <ele>130.6</ele>
        <time>2015-10-03T09:32:30Z</time>
      </trkpt>
      <trkpt lat="44.82971" lon="1.27653">
        <ele>130.6</ele>
        <time>2015-10-03T09:32:34Z</time>
      </trkpt>
      <trkpt lat="44.82975" lon="1.27644">
        <ele>130.6</ele>
        <time>2015-10-03T09:32:36Z</time>
      </trkpt>
      <trkpt lat="44.82977" lon="1.27639">
        <ele>130.4</ele>
        <time>2015-10-03T09:32:37Z</time>
      </trkpt>
      <trkpt lat="44.82979" lon="1.27634">
        <ele>130.6</ele>
        <time>2015-10-03T09:32:38Z</time>
      </trkpt>
      <trkpt lat="44.82988" lon="1.27615">
        <ele>131</ele>
        <time>2015-10-03T09:32:42Z</time>
      </trkpt>
      <trkpt lat="44.8301" lon="1.27572">
        <ele>131.2</ele>
        <time>2015-10-03T09:32:50Z</time>
      </trkpt>
      <trkpt lat="44.83027" lon="1.27529">
        <ele>131.6</ele>
        <time>2015-10-03T09:32:58Z</time>
      </trkpt>
      <trkpt lat="44.83031" lon="1.27518">
        <ele>131.8</ele>
        <time>2015-10-03T09:33:00Z</time>
      </trkpt>
      <trkpt lat="44.8304" lon="1.27491">
        <ele>132</ele>
        <time>2015-10-03T09:33:05Z</time>
      </trkpt>
      <trkpt lat="44.83042" lon="1.27486">
        <ele>131.8</ele>
        <time>2015-10-03T09:33:06Z</time>
      </trkpt>
      <trkpt lat="44.83048" lon="1.27472">
        <ele>132.2</ele>
        <time>2015-10-03T09:33:09Z</time>
      </trkpt>
      <trkpt lat="44.83055" lon="1.27449">
        <ele>132.4</ele>
        <time>2015-10-03T09:33:13Z</time>
      </trkpt>
      <trkpt lat="44.83057" lon="1.27444">
        <ele>132.2</ele>
        <time>2015-10-03T09:33:14Z</time>
      </trkpt>
      <trkpt lat="44.83069" lon="1.27419">
        <ele>132.4</ele>
        <time>2015-10-03T09:33:19Z</time>
      </trkpt>
      <trkpt lat="44.83097" lon="1.27389">
        <ele>133</ele>
        <time>2015-10-03T09:33:27Z</time>
      </trkpt>
      <trkpt lat="44.83101" lon="1.27386">
        <ele>132.8</ele>
        <time>2015-10-03T09:33:28Z</time>
      </trkpt>
      <trkpt lat="44.83132" lon="1.27358">
        <ele>133.2</ele>
        <time>2015-10-03T09:33:37Z</time>
      </trkpt>
      <trkpt lat="44.83164" lon="1.27338">
        <ele>133.6</ele>
        <time>2015-10-03T09:33:45Z</time>
      </trkpt>
      <trkpt lat="44.83181" lon="1.27331">
        <ele>134</ele>
        <time>2015-10-03T09:33:49Z</time>
      </trkpt>
      <trkpt lat="44.83197" lon="1.27326">
        <ele>134</ele>
        <time>2015-10-03T09:33:53Z</time>
      </trkpt>
      <trkpt lat="44.83235" lon="1.27321">
        <ele>134.2</ele>
        <time>2015-10-03T09:34:02Z</time>
      </trkpt>
      <trkpt lat="44.83271" lon="1.27321">
        <ele>134.4</ele>
        <time>2015-10-03T09:34:11Z</time>
      </trkpt>
      <trkpt lat="44.83278" lon="1.27321">
        <ele>134.4</ele>
        <time>2015-10-03T09:34:15Z</time>
      </trkpt>
      <trkpt lat="44.83291" lon="1.27324">
        <ele>134.4</ele>
        <time>2015-10-03T09:34:20Z</time>
      </trkpt>
      <trkpt lat="44.83315" lon="1.27332">
        <ele>134.4</ele>
        <time>2015-10-03T09:34:27Z</time>
      </trkpt>
      <trkpt lat="44.83337" lon="1.27341">
        <ele>134.4</ele>
        <time>2015-10-03T09:34:33Z</time>
      </trkpt>
      <trkpt lat="44.83366" lon="1.27353">
        <ele>134.2</ele>
        <time>2015-10-03T09:34:40Z</time>
      </trkpt>
      <trkpt lat="44.83397" lon="1.27365">
        <ele>134.2</ele>
        <time>2015-10-03T09:34:47Z</time>
      </trkpt>
      <trkpt lat="44.83435" lon="1.27381">
        <ele>134.2</ele>
        <time>2015-10-03T09:34:55Z</time>
      </trkpt>
      <trkpt lat="44.83483" lon="1.27401">
        <ele>134.2</ele>
        <time>2015-10-03T09:35:05Z</time>
      </trkpt>
      <trkpt lat="44.83526" lon="1.27419">
        <ele>134.2</ele>
        <time>2015-10-03T09:35:14Z</time>
      </trkpt>
      <trkpt lat="44.83574" lon="1.2744">
        <ele>134.2</ele>
        <time>2015-10-03T09:35:24Z</time>
      </trkpt>
      <trkpt lat="44.83618" lon="1.27459">
        <ele>134.2</ele>
        <time>2015-10-03T09:35:33Z</time>
      </trkpt>
      <trkpt lat="44.83665" lon="1.27478">
        <ele>133.2</ele>
        <time>2015-10-03T09:35:43Z</time>
      </trkpt>
      <trkpt lat="44.83667" lon="1.27478">
        <ele>132.8</ele>
        <time>2015-10-03T09:35:44Z</time>
      </trkpt>
      <trkpt lat="44.83668" lon="1.27478">
        <ele>133</ele>
        <time>2015-10-03T09:35:46Z</time>
      </trkpt>
      <trkpt lat="44.83676" lon="1.27481">
        <ele>133.4</ele>
        <time>2015-10-03T09:39:19Z</time>
      </trkpt>
      <trkpt lat="44.83691" lon="1.27488">
        <ele>133.4</ele>
        <time>2015-10-03T09:39:25Z</time>
      </trkpt>
      <trkpt lat="44.83711" lon="1.27496">
        <ele>133.4</ele>
        <time>2015-10-03T09:39:30Z</time>
      </trkpt>
      <trkpt lat="44.83719" lon="1.27499">
        <ele>133.6</ele>
        <time>2015-10-03T09:39:32Z</time>
      </trkpt>
      <trkpt lat="44.83752" lon="1.27513">
        <ele>133.6</ele>
        <time>2015-10-03T09:39:39Z</time>
      </trkpt>
      <trkpt lat="44.83794" lon="1.2753">
        <ele>133</ele>
        <time>2015-10-03T09:39:47Z</time>
      </trkpt>
      <trkpt lat="44.83849" lon="1.27553">
        <ele>132.4</ele>
        <time>2015-10-03T09:39:57Z</time>
      </trkpt>
      <trkpt lat="44.83854" lon="1.27556">
        <ele>132.4</ele>
        <time>2015-10-03T09:39:58Z</time>
      </trkpt>
      <trkpt lat="44.83909" lon="1.27578">
        <ele>132</ele>
        <time>2015-10-03T09:40:08Z</time>
      </trkpt>
      <trkpt lat="44.83919" lon="1.27582">
        <ele>132</ele>
        <time>2015-10-03T09:40:10Z</time>
      </trkpt>
      <trkpt lat="44.83953" lon="1.27592">
        <ele>132.2</ele>
        <time>2015-10-03T09:40:17Z</time>
      </trkpt>
      <trkpt lat="44.83967" lon="1.27595">
        <ele>131.8</ele>
        <time>2015-10-03T09:40:20Z</time>
      </trkpt>
      <trkpt lat="44.8399" lon="1.27598">
        <ele>131.6</ele>
        <time>2015-10-03T09:40:25Z</time>
      </trkpt>
      <trkpt lat="44.84023" lon="1.27598">
        <ele>131.8</ele>
        <time>2015-10-03T09:40:32Z</time>
      </trkpt>
      <trkpt lat="44.84064" lon="1.27594">
        <ele>131.4</ele>
        <time>2015-10-03T09:40:40Z</time>
      </trkpt>
      <trkpt lat="44.84114" lon="1.27584">
        <ele>130.8</ele>
        <time>2015-10-03T09:40:49Z</time>
      </trkpt>
      <trkpt lat="44.8414" lon="1.27573">
        <ele>130.2</ele>
        <time>2015-10-03T09:40:54Z</time>
      </trkpt>
      <trkpt lat="44.84152" lon="1.27569">
        <ele>130.6</ele>
        <time>2015-10-03T09:40:56Z</time>
      </trkpt>
      <trkpt lat="44.84198" lon="1.27553">
        <ele>130</ele>
        <time>2015-10-03T09:41:04Z</time>
      </trkpt>
      <trkpt lat="44.84247" lon="1.27538">
        <ele>129.8</ele>
        <time>2015-10-03T09:41:13Z</time>
      </trkpt>
      <trkpt lat="44.84281" lon="1.27533">
        <ele>129.2</ele>
        <time>2015-10-03T09:41:19Z</time>
      </trkpt>
      <trkpt lat="44.84321" lon="1.27532">
        <ele>128.8</ele>
        <time>2015-10-03T09:41:26Z</time>
      </trkpt>
      <trkpt lat="44.84334" lon="1.27533">
        <ele>128.6</ele>
        <time>2015-10-03T09:41:28Z</time>
      </trkpt>
      <trkpt lat="44.84372" lon="1.27534">
        <ele>128.2</ele>
        <time>2015-10-03T09:41:34Z</time>
      </trkpt>
      <trkpt lat="44.84422" lon="1.27536">
        <ele>127.6</ele>
        <time>2015-10-03T09:41:42Z</time>
      </trkpt>
      <trkpt lat="44.84465" lon="1.27534">
        <ele>127.4</ele>
        <time>2015-10-03T09:41:49Z</time>
      </trkpt>
      <trkpt lat="44.84494" lon="1.2753">
        <ele>126.6</ele>
        <time>2015-10-03T09:41:54Z</time>
      </trkpt>
      <trkpt lat="44.84505" lon="1.27528">
        <ele>126.6</ele>
        <time>2015-10-03T09:41:56Z</time>
      </trkpt>
      <trkpt lat="44.84548" lon="1.27514">
        <ele>126.6</ele>
        <time>2015-10-03T09:42:04Z</time>
      </trkpt>
      <trkpt lat="44.84592" lon="1.27492">
        <ele>126</ele>
        <time>2015-10-03T09:42:12Z</time>
      </trkpt>
      <trkpt lat="44.84641" lon="1.27461">
        <ele>125.4</ele>
        <time>2015-10-03T09:42:21Z</time>
      </trkpt>
      <trkpt lat="44.84646" lon="1.27457">
        <ele>125.6</ele>
        <time>2015-10-03T09:42:22Z</time>
      </trkpt>
      <trkpt lat="44.84684" lon="1.27427">
        <ele>124.4</ele>
        <time>2015-10-03T09:42:30Z</time>
      </trkpt>
      <trkpt lat="44.84689" lon="1.27422">
        <ele>124.4</ele>
        <time>2015-10-03T09:42:31Z</time>
      </trkpt>
      <trkpt lat="44.8473" lon="1.2739">
        <ele>124</ele>
        <time>2015-10-03T09:42:39Z</time>
      </trkpt>
      <trkpt lat="44.84777" lon="1.27358">
        <ele>123.6</ele>
        <time>2015-10-03T09:42:48Z</time>
      </trkpt>
      <trkpt lat="44.84788" lon="1.27352">
        <ele>123</ele>
        <time>2015-10-03T09:42:50Z</time>
      </trkpt>
      <trkpt lat="44.84821" lon="1.27335">
        <ele>123.2</ele>
        <time>2015-10-03T09:42:56Z</time>
      </trkpt>
      <trkpt lat="44.84856" lon="1.27321">
        <ele>123</ele>
        <time>2015-10-03T09:43:03Z</time>
      </trkpt>
      <trkpt lat="44.84889" lon="1.27306">
        <ele>123.2</ele>
        <time>2015-10-03T09:43:10Z</time>
      </trkpt>
      <trkpt lat="44.84923" lon="1.27293">
        <ele>123.4</ele>
        <time>2015-10-03T09:43:17Z</time>
      </trkpt>
      <trkpt lat="44.84952" lon="1.27281">
        <ele>123.6</ele>
        <time>2015-10-03T09:43:24Z</time>
      </trkpt>
      <trkpt lat="44.84978" lon="1.27271">
        <ele>123.4</ele>
        <time>2015-10-03T09:43:30Z</time>
      </trkpt>
      <trkpt lat="44.8499" lon="1.27265">
        <ele>124.8</ele>
        <time>2015-10-03T09:43:33Z</time>
      </trkpt>
      <trkpt lat="44.85" lon="1.27262">
        <ele>124.4</ele>
        <time>2015-10-03T09:43:35Z</time>
      </trkpt>
      <trkpt lat="44.85009" lon="1.27259">
        <ele>124.4</ele>
        <time>2015-10-03T09:43:37Z</time>
      </trkpt>
      <trkpt lat="44.85036" lon="1.27248">
        <ele>124.8</ele>
        <time>2015-10-03T09:43:43Z</time>
      </trkpt>
      <trkpt lat="44.85067" lon="1.27234">
        <ele>125.6</ele>
        <time>2015-10-03T09:43:50Z</time>
      </trkpt>
      <trkpt lat="44.85088" lon="1.27222">
        <ele>126</ele>
        <time>2015-10-03T09:43:55Z</time>
      </trkpt>
      <trkpt lat="44.85092" lon="1.27219">
        <ele>125.6</ele>
        <time>2015-10-03T09:43:56Z</time>
      </trkpt>
      <trkpt lat="44.85102" lon="1.27215">
        <ele>126.2</ele>
        <time>2015-10-03T09:43:58Z</time>
      </trkpt>
      <trkpt lat="44.85134" lon="1.27191">
        <ele>126.4</ele>
        <time>2015-10-03T09:44:06Z</time>
      </trkpt>
      <trkpt lat="44.85165" lon="1.27162">
        <ele>127</ele>
        <time>2015-10-03T09:44:14Z</time>
      </trkpt>
      <trkpt lat="44.85186" lon="1.2714">
        <ele>127.4</ele>
        <time>2015-10-03T09:44:21Z</time>
      </trkpt>
      <trkpt lat="44.85202" lon="1.27117">
        <ele>128</ele>
        <time>2015-10-03T09:44:28Z</time>
      </trkpt>
      <trkpt lat="44.85206" lon="1.27114">
        <ele>128.2</ele>
        <time>2015-10-03T09:44:29Z</time>
      </trkpt>
      <trkpt lat="44.85222" lon="1.27088">
        <ele>128.6</ele>
        <time>2015-10-03T09:44:35Z</time>
      </trkpt>
      <trkpt lat="44.85237" lon="1.27052">
        <ele>129</ele>
        <time>2015-10-03T09:44:42Z</time>
      </trkpt>
      <trkpt lat="44.85238" lon="1.27048">
        <ele>129</ele>
        <time>2015-10-03T09:44:43Z</time>
      </trkpt>
      <trkpt lat="44.85243" lon="1.27032">
        <ele>129.2</ele>
        <time>2015-10-03T09:44:46Z</time>
      </trkpt>
      <trkpt lat="44.85247" lon="1.27018">
        <ele>129.4</ele>
        <time>2015-10-03T09:44:49Z</time>
      </trkpt>
      <trkpt lat="44.85259" lon="1.27003">
        <ele>129.8</ele>
        <time>2015-10-03T09:44:53Z</time>
      </trkpt>
      <trkpt lat="44.85262" lon="1.26998">
        <ele>129.8</ele>
        <time>2015-10-03T09:44:54Z</time>
      </trkpt>
      <trkpt lat="44.85278" lon="1.26965">
        <ele>130</ele>
        <time>2015-10-03T09:45:01Z</time>
      </trkpt>
      <trkpt lat="44.85281" lon="1.2696">
        <ele>130.2</ele>
        <time>2015-10-03T09:45:02Z</time>
      </trkpt>
      <trkpt lat="44.85291" lon="1.26938">
        <ele>130.2</ele>
        <time>2015-10-03T09:45:07Z</time>
      </trkpt>
      <trkpt lat="44.85295" lon="1.26899">
        <ele>130.6</ele>
        <time>2015-10-03T09:45:14Z</time>
      </trkpt>
      <trkpt lat="44.85302" lon="1.26859">
        <ele>131</ele>
        <time>2015-10-03T09:45:21Z</time>
      </trkpt>
      <trkpt lat="44.8531" lon="1.26818">
        <ele>131.2</ele>
        <time>2015-10-03T09:45:27Z</time>
      </trkpt>
      <trkpt lat="44.85312" lon="1.26778">
        <ele>132</ele>
        <time>2015-10-03T09:45:34Z</time>
      </trkpt>
      <trkpt lat="44.85313" lon="1.26749">
        <ele>132.2</ele>
        <time>2015-10-03T09:45:40Z</time>
      </trkpt>
      <trkpt lat="44.85313" lon="1.26736">
        <ele>132.2</ele>
        <time>2015-10-03T09:45:42Z</time>
      </trkpt>
      <trkpt lat="44.85315" lon="1.26717">
        <ele>132.6</ele>
        <time>2015-10-03T09:45:46Z</time>
      </trkpt>
      <trkpt lat="44.85312" lon="1.26681">
        <ele>133</ele>
        <time>2015-10-03T09:45:53Z</time>
      </trkpt>
      <trkpt lat="44.8531" lon="1.26657">
        <ele>133.8</ele>
        <time>2015-10-03T09:45:58Z</time>
      </trkpt>
      <trkpt lat="44.85309" lon="1.26646">
        <ele>133.4</ele>
        <time>2015-10-03T09:46:00Z</time>
      </trkpt>
      <trkpt lat="44.85302" lon="1.2661">
        <ele>133.8</ele>
        <time>2015-10-03T09:46:07Z</time>
      </trkpt>
      <trkpt lat="44.85301" lon="1.26574">
        <ele>134.4</ele>
        <time>2015-10-03T09:46:15Z</time>
      </trkpt>
      <trkpt lat="44.85302" lon="1.26545">
        <ele>134.8</ele>
        <time>2015-10-03T09:46:21Z</time>
      </trkpt>
      <trkpt lat="44.85302" lon="1.2654">
        <ele>134.8</ele>
        <time>2015-10-03T09:46:22Z</time>
      </trkpt>
      <trkpt lat="44.85302" lon="1.26535">
        <ele>135</ele>
        <time>2015-10-03T09:46:23Z</time>
      </trkpt>
      <trkpt lat="44.85301" lon="1.26514">
        <ele>135.2</ele>
        <time>2015-10-03T09:46:27Z</time>
      </trkpt>
      <trkpt lat="44.853" lon="1.26499">
        <ele>135.4</ele>
        <time>2015-10-03T09:46:32Z</time>
      </trkpt>
      <trkpt lat="44.85298" lon="1.2649">
        <ele>135.8</ele>
        <time>2015-10-03T09:46:40Z</time>
      </trkpt>
      <trkpt lat="44.85288" lon="1.26454">
        <ele>135.6</ele>
        <time>2015-10-03T09:46:48Z</time>
      </trkpt>
      <trkpt lat="44.85287" lon="1.26447">
        <ele>136</ele>
        <time>2015-10-03T09:46:50Z</time>
      </trkpt>
      <trkpt lat="44.85289" lon="1.26425">
        <ele>137.4</ele>
        <time>2015-10-03T09:57:00Z</time>
      </trkpt>
      <trkpt lat="44.85291" lon="1.26416">
        <ele>137.4</ele>
        <time>2015-10-03T09:57:03Z</time>
      </trkpt>
      <trkpt lat="44.85301" lon="1.264">
        <ele>136.8</ele>
        <time>2015-10-03T09:57:09Z</time>
      </trkpt>
      <trkpt lat="44.85304" lon="1.26397">
        <ele>136.2</ele>
        <time>2015-10-03T09:57:10Z</time>
      </trkpt>
      <trkpt lat="44.85308" lon="1.26392">
        <ele>137.8</ele>
        <time>2015-10-03T09:57:12Z</time>
      </trkpt>
      <trkpt lat="44.85317" lon="1.26392">
        <ele>137.2</ele>
        <time>2015-10-03T09:57:15Z</time>
      </trkpt>
      <trkpt lat="44.85334" lon="1.26397">
        <ele>138</ele>
        <time>2015-10-03T09:57:19Z</time>
      </trkpt>
      <trkpt lat="44.85354" lon="1.26405">
        <ele>137.2</ele>
        <time>2015-10-03T09:57:23Z</time>
      </trkpt>
      <trkpt lat="44.85368" lon="1.26407">
        <ele>139</ele>
        <time>2015-10-03T09:57:26Z</time>
      </trkpt>
      <trkpt lat="44.85383" lon="1.26397">
        <ele>138.8</ele>
        <time>2015-10-03T09:57:30Z</time>
      </trkpt>
      <trkpt lat="44.85385" lon="1.26395">
        <ele>138</ele>
        <time>2015-10-03T09:57:31Z</time>
      </trkpt>
      <trkpt lat="44.85313" lon="1.26242">
        <ele>139.8</ele>
        <time>2015-10-03T09:57:34Z</time>
      </trkpt>
      <trkpt lat="44.85314" lon="1.26234">
        <ele>139.2</ele>
        <time>2015-10-03T09:57:35Z</time>
      </trkpt>
      <trkpt lat="44.85324" lon="1.26215">
        <ele>139.6</ele>
        <time>2015-10-03T09:57:40Z</time>
      </trkpt>
      <trkpt lat="44.85326" lon="1.26203">
        <ele>140</ele>
        <time>2015-10-03T09:57:42Z</time>
      </trkpt>
      <trkpt lat="44.85331" lon="1.26186">
        <ele>140</ele>
        <time>2015-10-03T09:57:45Z</time>
      </trkpt>
      <trkpt lat="44.85334" lon="1.26159">
        <ele>140.2</ele>
        <time>2015-10-03T09:57:49Z</time>
      </trkpt>
      <trkpt lat="44.85338" lon="1.26136">
        <ele>140.4</ele>
        <time>2015-10-03T09:57:52Z</time>
      </trkpt>
      <trkpt lat="44.85339" lon="1.26128">
        <ele>140.4</ele>
        <time>2015-10-03T09:57:53Z</time>
      </trkpt>
      <trkpt lat="44.85343" lon="1.26111">
        <ele>140.4</ele>
        <time>2015-10-03T09:57:55Z</time>
      </trkpt>
      <trkpt lat="44.85348" lon="1.26089">
        <ele>140.8</ele>
        <time>2015-10-03T09:57:58Z</time>
      </trkpt>
      <trkpt lat="44.85354" lon="1.26066">
        <ele>141</ele>
        <time>2015-10-03T09:58:02Z</time>
      </trkpt>
      <trkpt lat="44.85359" lon="1.26061">
        <ele>141.2</ele>
        <time>2015-10-03T09:58:03Z</time>
      </trkpt>
      <trkpt lat="44.85373" lon="1.26046">
        <ele>141.4</ele>
        <time>2015-10-03T09:58:07Z</time>
      </trkpt>
      <trkpt lat="44.85378" lon="1.26038">
        <ele>141.6</ele>
        <time>2015-10-03T09:58:09Z</time>
      </trkpt>
      <trkpt lat="44.85385" lon="1.26017">
        <ele>141.8</ele>
        <time>2015-10-03T09:58:13Z</time>
      </trkpt>
      <trkpt lat="44.85387" lon="1.26007">
        <ele>142</ele>
        <time>2015-10-03T09:58:15Z</time>
      </trkpt>
      <trkpt lat="44.85391" lon="1.25977">
        <ele>142.2</ele>
        <time>2015-10-03T09:58:21Z</time>
      </trkpt>
      <trkpt lat="44.85394" lon="1.25944">
        <ele>142.4</ele>
        <time>2015-10-03T09:58:27Z</time>
      </trkpt>
      <trkpt lat="44.85419" lon="1.25933">
        <ele>142.6</ele>
        <time>2015-10-03T09:58:31Z</time>
      </trkpt>
      <trkpt lat="44.85433" lon="1.25928">
        <ele>142.6</ele>
        <time>2015-10-03T09:58:33Z</time>
      </trkpt>
      <trkpt lat="44.85456" lon="1.2592">
        <ele>142.8</ele>
        <time>2015-10-03T09:58:36Z</time>
      </trkpt>
      <trkpt lat="44.85462" lon="1.25917">
        <ele>142.8</ele>
        <time>2015-10-03T09:58:37Z</time>
      </trkpt>
      <trkpt lat="44.8549" lon="1.25876">
        <ele>143.2</ele>
        <time>2015-10-03T09:58:44Z</time>
      </trkpt>
      <trkpt lat="44.85514" lon="1.25833">
        <ele>143.6</ele>
        <time>2015-10-03T09:58:52Z</time>
      </trkpt>
      <trkpt lat="44.85527" lon="1.25809">
        <ele>144</ele>
        <time>2015-10-03T09:58:57Z</time>
      </trkpt>
      <trkpt lat="44.85533" lon="1.25792">
        <ele>144</ele>
        <time>2015-10-03T09:59:00Z</time>
      </trkpt>
      <trkpt lat="44.85549" lon="1.25759">
        <ele>144.4</ele>
        <time>2015-10-03T09:59:07Z</time>
      </trkpt>
      <trkpt lat="44.85567" lon="1.25735">
        <ele>144.6</ele>
        <time>2015-10-03T09:59:14Z</time>
      </trkpt>
      <trkpt lat="44.85578" lon="1.25719">
        <ele>145</ele>
        <time>2015-10-03T09:59:18Z</time>
      </trkpt>
      <trkpt lat="44.85584" lon="1.25712">
        <ele>145.2</ele>
        <time>2015-10-03T09:59:20Z</time>
      </trkpt>
      <trkpt lat="44.85593" lon="1.25698">
        <ele>145.2</ele>
        <time>2015-10-03T09:59:24Z</time>
      </trkpt>
      <trkpt lat="44.856" lon="1.25684">
        <ele>145.4</ele>
        <time>2015-10-03T09:59:27Z</time>
      </trkpt>
      <trkpt lat="44.85616" lon="1.25658">
        <ele>145.8</ele>
        <time>2015-10-03T09:59:33Z</time>
      </trkpt>
      <trkpt lat="44.85633" lon="1.25629">
        <ele>146</ele>
        <time>2015-10-03T09:59:39Z</time>
      </trkpt>
      <trkpt lat="44.85636" lon="1.25625">
        <ele>146.2</ele>
        <time>2015-10-03T09:59:40Z</time>
      </trkpt>
      <trkpt lat="44.85655" lon="1.25593">
        <ele>146.4</ele>
        <time>2015-10-03T09:59:46Z</time>
      </trkpt>
      <trkpt lat="44.85682" lon="1.25555">
        <ele>147.2</ele>
        <time>2015-10-03T09:59:54Z</time>
      </trkpt>
      <trkpt lat="44.85685" lon="1.2555">
        <ele>146.8</ele>
        <time>2015-10-03T09:59:55Z</time>
      </trkpt>
      <trkpt lat="44.85705" lon="1.25521">
        <ele>147.4</ele>
        <time>2015-10-03T10:00:02Z</time>
      </trkpt>
      <trkpt lat="44.85729" lon="1.25483">
        <ele>147.8</ele>
        <time>2015-10-03T10:00:11Z</time>
      </trkpt>
      <trkpt lat="44.85738" lon="1.25472">
        <ele>148.2</ele>
        <time>2015-10-03T10:00:14Z</time>
      </trkpt>
      <trkpt lat="44.8575" lon="1.25455">
        <ele>148.2</ele>
        <time>2015-10-03T10:00:18Z</time>
      </trkpt>
      <trkpt lat="44.85773" lon="1.25418">
        <ele>148.6</ele>
        <time>2015-10-03T10:00:26Z</time>
      </trkpt>
      <trkpt lat="44.85797" lon="1.25383">
        <ele>149</ele>
        <time>2015-10-03T10:00:33Z</time>
      </trkpt>
      <trkpt lat="44.85808" lon="1.25368">
        <ele>149.4</ele>
        <time>2015-10-03T10:00:36Z</time>
      </trkpt>
      <trkpt lat="44.85824" lon="1.25346">
        <ele>149.6</ele>
        <time>2015-10-03T10:00:41Z</time>
      </trkpt>
      <trkpt lat="44.85836" lon="1.25328">
        <ele>149.8</ele>
        <time>2015-10-03T10:00:45Z</time>
      </trkpt>
      <trkpt lat="44.85845" lon="1.25315">
        <ele>150.2</ele>
        <time>2015-10-03T10:00:48Z</time>
      </trkpt>
      <trkpt lat="44.85868" lon="1.25279">
        <ele>150.4</ele>
        <time>2015-10-03T10:00:56Z</time>
      </trkpt>
      <trkpt lat="44.85871" lon="1.25275">
        <ele>150.6</ele>
        <time>2015-10-03T10:00:57Z</time>
      </trkpt>
      <trkpt lat="44.85894" lon="1.25252">
        <ele>150.8</ele>
        <time>2015-10-03T10:01:04Z</time>
      </trkpt>
      <trkpt lat="44.85921" lon="1.25224">
        <ele>151.2</ele>
        <time>2015-10-03T10:01:12Z</time>
      </trkpt>
      <trkpt lat="44.85938" lon="1.25206">
        <ele>151.4</ele>
        <time>2015-10-03T10:01:17Z</time>
      </trkpt>
      <trkpt lat="44.85948" lon="1.25198">
        <ele>151.4</ele>
        <time>2015-10-03T10:01:20Z</time>
      </trkpt>
      <trkpt lat="44.85971" lon="1.25174">
        <ele>152</ele>
        <time>2015-10-03T10:01:27Z</time>
      </trkpt>
      <trkpt lat="44.85997" lon="1.25152">
        <ele>152.4</ele>
        <time>2015-10-03T10:01:34Z</time>
      </trkpt>
      <trkpt lat="44.86013" lon="1.25144">
        <ele>152.6</ele>
        <time>2015-10-03T10:01:38Z</time>
      </trkpt>
      <trkpt lat="44.86033" lon="1.25134">
        <ele>152.8</ele>
        <time>2015-10-03T10:01:43Z</time>
      </trkpt>
      <trkpt lat="44.86059" lon="1.2512">
        <ele>153.6</ele>
        <time>2015-10-03T10:01:50Z</time>
      </trkpt>
      <trkpt lat="44.86066" lon="1.25116">
        <ele>153.6</ele>
        <time>2015-10-03T10:01:52Z</time>
      </trkpt>
      <trkpt lat="44.86089" lon="1.25104">
        <ele>154</ele>
        <time>2015-10-03T10:01:58Z</time>
      </trkpt>
      <trkpt lat="44.86115" lon="1.25091">
        <ele>154.4</ele>
        <time>2015-10-03T10:02:05Z</time>
      </trkpt>
      <trkpt lat="44.86124" lon="1.25087">
        <ele>154.6</ele>
        <time>2015-10-03T10:02:07Z</time>
      </trkpt>
      <trkpt lat="44.86137" lon="1.2508">
        <ele>155</ele>
        <time>2015-10-03T10:02:11Z</time>
      </trkpt>
      <trkpt lat="44.86166" lon="1.25065">
        <ele>155.4</ele>
        <time>2015-10-03T10:02:18Z</time>
      </trkpt>
      <trkpt lat="44.86171" lon="1.25063">
        <ele>155.6</ele>
        <time>2015-10-03T10:02:19Z</time>
      </trkpt>
      <trkpt lat="44.86187" lon="1.25056">
        <ele>156</ele>
        <time>2015-10-03T10:02:23Z</time>
      </trkpt>
      <trkpt lat="44.86196" lon="1.25053">
        <ele>156.2</ele>
        <time>2015-10-03T10:02:25Z</time>
      </trkpt>
      <trkpt lat="44.86204" lon="1.2505">
        <ele>156.2</ele>
        <time>2015-10-03T10:02:27Z</time>
      </trkpt>
      <trkpt lat="44.86215" lon="1.25043">
        <ele>156.2</ele>
        <time>2015-10-03T10:02:30Z</time>
      </trkpt>
      <trkpt lat="44.86239" lon="1.25032">
        <ele>156.8</ele>
        <time>2015-10-03T10:02:36Z</time>
      </trkpt>
      <trkpt lat="44.86247" lon="1.25027">
        <ele>156.8</ele>
        <time>2015-10-03T10:02:38Z</time>
      </trkpt>
      <trkpt lat="44.86267" lon="1.25014">
        <ele>157</ele>
        <time>2015-10-03T10:02:44Z</time>
      </trkpt>
      <trkpt lat="44.86298" lon="1.24997">
        <ele>157.4</ele>
        <time>2015-10-03T10:02:52Z</time>
      </trkpt>
      <trkpt lat="44.86322" lon="1.24987">
        <ele>157.6</ele>
        <time>2015-10-03T10:02:58Z</time>
      </trkpt>
      <trkpt lat="44.86329" lon="1.24985">
        <ele>157.8</ele>
        <time>2015-10-03T10:03:00Z</time>
      </trkpt>
      <trkpt lat="44.86332" lon="1.24983">
        <ele>157.8</ele>
        <time>2015-10-03T10:03:01Z</time>
      </trkpt>
      <trkpt lat="44.86356" lon="1.24972">
        <ele>158.2</ele>
        <time>2015-10-03T10:03:07Z</time>
      </trkpt>
      <trkpt lat="44.86372" lon="1.24965">
        <ele>158.8</ele>
        <time>2015-10-03T10:03:11Z</time>
      </trkpt>
      <trkpt lat="44.86384" lon="1.24959">
        <ele>158.8</ele>
        <time>2015-10-03T10:03:14Z</time>
      </trkpt>
      <trkpt lat="44.86416" lon="1.2494">
        <ele>159.2</ele>
        <time>2015-10-03T10:03:22Z</time>
      </trkpt>
      <trkpt lat="44.86446" lon="1.24921">
        <ele>159.8</ele>
        <time>2015-10-03T10:03:30Z</time>
      </trkpt>
      <trkpt lat="44.86457" lon="1.24915">
        <ele>160</ele>
        <time>2015-10-03T10:03:33Z</time>
      </trkpt>
      <trkpt lat="44.8647" lon="1.24906">
        <ele>160</ele>
        <time>2015-10-03T10:03:37Z</time>
      </trkpt>
      <trkpt lat="44.86495" lon="1.24888">
        <ele>160.8</ele>
        <time>2015-10-03T10:03:45Z</time>
      </trkpt>
      <trkpt lat="44.86517" lon="1.24869">
        <ele>161</ele>
        <time>2015-10-03T10:03:51Z</time>
      </trkpt>
      <trkpt lat="44.8652" lon="1.24865">
        <ele>161</ele>
        <time>2015-10-03T10:03:52Z</time>
      </trkpt>
      <trkpt lat="44.86542" lon="1.24845">
        <ele>161.6</ele>
        <time>2015-10-03T10:03:59Z</time>
      </trkpt>
      <trkpt lat="44.8656" lon="1.24825">
        <ele>162</ele>
        <time>2015-10-03T10:04:05Z</time>
      </trkpt>
      <trkpt lat="44.86566" lon="1.24818">
        <ele>162</ele>
        <time>2015-10-03T10:04:07Z</time>
      </trkpt>
      <trkpt lat="44.86579" lon="1.24804">
        <ele>162.2</ele>
        <time>2015-10-03T10:04:12Z</time>
      </trkpt>
      <trkpt lat="44.86592" lon="1.24788">
        <ele>162.6</ele>
        <time>2015-10-03T10:04:17Z</time>
      </trkpt>
      <trkpt lat="44.8661" lon="1.24765">
        <ele>163</ele>
        <time>2015-10-03T10:04:24Z</time>
      </trkpt>
      <trkpt lat="44.86614" lon="1.24759">
        <ele>163.4</ele>
        <time>2015-10-03T10:04:26Z</time>
      </trkpt>
      <trkpt lat="44.86633" lon="1.2473">
        <ele>163.8</ele>
        <time>2015-10-03T10:04:32Z</time>
      </trkpt>
      <trkpt lat="44.86641" lon="1.2472">
        <ele>164.2</ele>
        <time>2015-10-03T10:04:34Z</time>
      </trkpt>
      <trkpt lat="44.86657" lon="1.24696">
        <ele>164.2</ele>
        <time>2015-10-03T10:04:39Z</time>
      </trkpt>
      <trkpt lat="44.86688" lon="1.24657">
        <ele>164.8</ele>
        <time>2015-10-03T10:04:47Z</time>
      </trkpt>
      <trkpt lat="44.86707" lon="1.24629">
        <ele>165.2</ele>
        <time>2015-10-03T10:04:53Z</time>
      </trkpt>
      <trkpt lat="44.86709" lon="1.24625">
        <ele>165.2</ele>
        <time>2015-10-03T10:04:54Z</time>
      </trkpt>
      <trkpt lat="44.86733" lon="1.24594">
        <ele>165.8</ele>
        <time>2015-10-03T10:05:01Z</time>
      </trkpt>
      <trkpt lat="44.86751" lon="1.2457">
        <ele>166.2</ele>
        <time>2015-10-03T10:05:06Z</time>
      </trkpt>
      <trkpt lat="44.86754" lon="1.24566">
        <ele>166.2</ele>
        <time>2015-10-03T10:05:07Z</time>
      </trkpt>
      <trkpt lat="44.86774" lon="1.24538">
        <ele>166.8</ele>
        <time>2015-10-03T10:05:13Z</time>
      </trkpt>
      <trkpt lat="44.86781" lon="1.24527">
        <ele>167</ele>
        <time>2015-10-03T10:05:15Z</time>
      </trkpt>
      <trkpt lat="44.8679" lon="1.24514">
        <ele>167.2</ele>
        <time>2015-10-03T10:05:18Z</time>
      </trkpt>
      <trkpt lat="44.868" lon="1.24498">
        <ele>167.2</ele>
        <time>2015-10-03T10:05:21Z</time>
      </trkpt>
      <trkpt lat="44.86807" lon="1.24488">
        <ele>167.4</ele>
        <time>2015-10-03T10:05:23Z</time>
      </trkpt>
      <trkpt lat="44.86836" lon="1.24448">
        <ele>168</ele>
        <time>2015-10-03T10:05:31Z</time>
      </trkpt>
      <trkpt lat="44.86846" lon="1.24434">
        <ele>168.4</ele>
        <time>2015-10-03T10:05:34Z</time>
      </trkpt>
      <trkpt lat="44.86869" lon="1.24402">
        <ele>168.8</ele>
        <time>2015-10-03T10:05:41Z</time>
      </trkpt>
      <trkpt lat="44.86887" lon="1.24377">
        <ele>169.4</ele>
        <time>2015-10-03T10:05:47Z</time>
      </trkpt>
      <trkpt lat="44.86893" lon="1.24368">
        <ele>169.6</ele>
        <time>2015-10-03T10:05:49Z</time>
      </trkpt>
      <trkpt lat="44.86921" lon="1.24331">
        <ele>170</ele>
        <time>2015-10-03T10:05:58Z</time>
      </trkpt>
      <trkpt lat="44.86933" lon="1.24316">
        <ele>170.4</ele>
        <time>2015-10-03T10:06:02Z</time>
      </trkpt>
      <trkpt lat="44.86936" lon="1.24312">
        <ele>170.4</ele>
        <time>2015-10-03T10:06:03Z</time>
      </trkpt>
      <trkpt lat="44.86946" lon="1.24301">
        <ele>170.8</ele>
        <time>2015-10-03T10:06:06Z</time>
      </trkpt>
      <trkpt lat="44.86965" lon="1.2427">
        <ele>171.2</ele>
        <time>2015-10-03T10:06:13Z</time>
      </trkpt>
      <trkpt lat="44.86975" lon="1.24255">
        <ele>171.6</ele>
        <time>2015-10-03T10:06:16Z</time>
      </trkpt>
      <trkpt lat="44.86987" lon="1.24237">
        <ele>172</ele>
        <time>2015-10-03T10:06:20Z</time>
      </trkpt>
      <trkpt lat="44.87" lon="1.24218">
        <ele>172.2</ele>
        <time>2015-10-03T10:06:24Z</time>
      </trkpt>
      <trkpt lat="44.87011" lon="1.24206">
        <ele>172.4</ele>
        <time>2015-10-03T10:06:27Z</time>
      </trkpt>
      <trkpt lat="44.87034" lon="1.24172">
        <ele>172.6</ele>
        <time>2015-10-03T10:06:34Z</time>
      </trkpt>
      <trkpt lat="44.87061" lon="1.24133">
        <ele>173.4</ele>
        <time>2015-10-03T10:06:42Z</time>
      </trkpt>
      <trkpt lat="44.87066" lon="1.24121">
        <ele>173.6</ele>
        <time>2015-10-03T10:06:44Z</time>
      </trkpt>
      <trkpt lat="44.87077" lon="1.2409">
        <ele>174.4</ele>
        <time>2015-10-03T10:06:49Z</time>
      </trkpt>
      <trkpt lat="44.87093" lon="1.2405">
        <ele>174.6</ele>
        <time>2015-10-03T10:06:56Z</time>
      </trkpt>
      <trkpt lat="44.87098" lon="1.24039">
        <ele>174.6</ele>
        <time>2015-10-03T10:06:58Z</time>
      </trkpt>
      <trkpt lat="44.87114" lon="1.23998">
        <ele>175.2</ele>
        <time>2015-10-03T10:07:06Z</time>
      </trkpt>
      <trkpt lat="44.87124" lon="1.23971">
        <ele>175.4</ele>
        <time>2015-10-03T10:07:11Z</time>
      </trkpt>
      <trkpt lat="44.87127" lon="1.23961">
        <ele>175.6</ele>
        <time>2015-10-03T10:07:13Z</time>
      </trkpt>
      <trkpt lat="44.87129" lon="1.23956">
        <ele>175.6</ele>
        <time>2015-10-03T10:07:14Z</time>
      </trkpt>
      <trkpt lat="44.87144" lon="1.23919">
        <ele>176.4</ele>
        <time>2015-10-03T10:07:23Z</time>
      </trkpt>
      <trkpt lat="44.87153" lon="1.23897">
        <ele>176.8</ele>
        <time>2015-10-03T10:07:28Z</time>
      </trkpt>
      <trkpt lat="44.87159" lon="1.23883">
        <ele>176.8</ele>
        <time>2015-10-03T10:07:31Z</time>
      </trkpt>
      <trkpt lat="44.87173" lon="1.2385">
        <ele>177.2</ele>
        <time>2015-10-03T10:07:38Z</time>
      </trkpt>
      <trkpt lat="44.87185" lon="1.2382">
        <ele>177.4</ele>
        <time>2015-10-03T10:07:45Z</time>
      </trkpt>
      <trkpt lat="44.87193" lon="1.23805">
        <ele>177.8</ele>
        <time>2015-10-03T10:07:49Z</time>
      </trkpt>
      <trkpt lat="44.87199" lon="1.2379">
        <ele>178.2</ele>
        <time>2015-10-03T10:07:52Z</time>
      </trkpt>
      <trkpt lat="44.87214" lon="1.2376">
        <ele>178.8</ele>
        <time>2015-10-03T10:07:58Z</time>
      </trkpt>
      <trkpt lat="44.87225" lon="1.23734">
        <ele>179.2</ele>
        <time>2015-10-03T10:08:03Z</time>
      </trkpt>
      <trkpt lat="44.87242" lon="1.23692">
        <ele>180</ele>
        <time>2015-10-03T10:08:11Z</time>
      </trkpt>
      <trkpt lat="44.87247" lon="1.23683">
        <ele>180</ele>
        <time>2015-10-03T10:08:13Z</time>
      </trkpt>
      <trkpt lat="44.87261" lon="1.23646">
        <ele>180.4</ele>
        <time>2015-10-03T10:08:20Z</time>
      </trkpt>
      <trkpt lat="44.87276" lon="1.23608">
        <ele>181.2</ele>
        <time>2015-10-03T10:08:27Z</time>
      </trkpt>
      <trkpt lat="44.87291" lon="1.2357">
        <ele>181.6</ele>
        <time>2015-10-03T10:08:34Z</time>
      </trkpt>
      <trkpt lat="44.8731" lon="1.23532">
        <ele>182</ele>
        <time>2015-10-03T10:08:41Z</time>
      </trkpt>
      <trkpt lat="44.8732" lon="1.2351">
        <ele>182.4</ele>
        <time>2015-10-03T10:08:45Z</time>
      </trkpt>
      <trkpt lat="44.87331" lon="1.23486">
        <ele>182.4</ele>
        <time>2015-10-03T10:08:49Z</time>
      </trkpt>
      <trkpt lat="44.8735" lon="1.23438">
        <ele>182.8</ele>
        <time>2015-10-03T10:08:57Z</time>
      </trkpt>
      <trkpt lat="44.87359" lon="1.23416">
        <ele>182.8</ele>
        <time>2015-10-03T10:09:01Z</time>
      </trkpt>
      <trkpt lat="44.87363" lon="1.23405">
        <ele>182.8</ele>
        <time>2015-10-03T10:09:03Z</time>
      </trkpt>
      <trkpt lat="44.87385" lon="1.23355">
        <ele>183.2</ele>
        <time>2015-10-03T10:09:12Z</time>
      </trkpt>
      <trkpt lat="44.87387" lon="1.23349">
        <ele>183.4</ele>
        <time>2015-10-03T10:09:13Z</time>
      </trkpt>
      <trkpt lat="44.8739" lon="1.23343">
        <ele>183.2</ele>
        <time>2015-10-03T10:09:14Z</time>
      </trkpt>
      <trkpt lat="44.87401" lon="1.23319">
        <ele>183.2</ele>
        <time>2015-10-03T10:09:18Z</time>
      </trkpt>
      <trkpt lat="44.87418" lon="1.23279">
        <ele>183</ele>
        <time>2015-10-03T10:09:25Z</time>
      </trkpt>
      <trkpt lat="44.87438" lon="1.23228">
        <ele>183</ele>
        <time>2015-10-03T10:09:33Z</time>
      </trkpt>
      <trkpt lat="44.87446" lon="1.23195">
        <ele>183.6</ele>
        <time>2015-10-03T10:09:38Z</time>
      </trkpt>
      <trkpt lat="44.87447" lon="1.23186">
        <ele>184.4</ele>
        <time>2015-10-03T10:09:40Z</time>
      </trkpt>
      <trkpt lat="44.8745" lon="1.23176">
        <ele>185.6</ele>
        <time>2015-10-03T10:09:43Z</time>
      </trkpt>
      <trkpt lat="44.87454" lon="1.23169">
        <ele>186.4</ele>
        <time>2015-10-03T10:09:46Z</time>
      </trkpt>
      <trkpt lat="44.87457" lon="1.23167">
        <ele>186.8</ele>
        <time>2015-10-03T10:09:48Z</time>
      </trkpt>
      <trkpt lat="44.87459" lon="1.23161">
        <ele>186.8</ele>
        <time>2015-10-03T10:09:53Z</time>
      </trkpt>
      <trkpt lat="44.87465" lon="1.2316">
        <ele>187</ele>
        <time>2015-10-03T10:09:58Z</time>
      </trkpt>
      <trkpt lat="44.87467" lon="1.23162">
        <ele>187.2</ele>
        <time>2015-10-03T10:10:00Z</time>
      </trkpt>
      <trkpt lat="44.87467" lon="1.23162">
        <ele>187</ele>
        <time>2015-10-03T10:10:02Z</time>
      </trkpt>
      <trkpt lat="44.87474" lon="1.23161">
        <ele>187</ele>
        <time>2015-10-03T10:10:21Z</time>
      </trkpt>
      <trkpt lat="44.87477" lon="1.23156">
        <ele>187</ele>
        <time>2015-10-03T10:10:23Z</time>
      </trkpt>
      <trkpt lat="44.87478" lon="1.2315">
        <ele>187.2</ele>
        <time>2015-10-03T10:10:25Z</time>
      </trkpt>
      <trkpt lat="44.87479" lon="1.23139">
        <ele>187.2</ele>
        <time>2015-10-03T10:10:29Z</time>
      </trkpt>
      <trkpt lat="44.87482" lon="1.23118">
        <ele>187.2</ele>
        <time>2015-10-03T10:10:37Z</time>
      </trkpt>
      <trkpt lat="44.87484" lon="1.23096">
        <ele>187.6</ele>
        <time>2015-10-03T10:10:43Z</time>
      </trkpt>
      <trkpt lat="44.87485" lon="1.23086">
        <ele>187.8</ele>
        <time>2015-10-03T10:10:46Z</time>
      </trkpt>
      <trkpt lat="44.87485" lon="1.23087">
        <ele>187.6</ele>
        <time>2015-10-03T10:10:48Z</time>
      </trkpt>
      <trkpt lat="44.87485" lon="1.23078">
        <ele>187.6</ele>
        <time>2015-10-03T10:11:10Z</time>
      </trkpt>
      <trkpt lat="44.87489" lon="1.2307">
        <ele>187.6</ele>
        <time>2015-10-03T10:11:12Z</time>
      </trkpt>
      <trkpt lat="44.87503" lon="1.23051">
        <ele>188</ele>
        <time>2015-10-03T10:11:18Z</time>
      </trkpt>
      <trkpt lat="44.87504" lon="1.23033">
        <ele>188.2</ele>
        <time>2015-10-03T10:11:22Z</time>
      </trkpt>
      <trkpt lat="44.87507" lon="1.23006">
        <ele>188.4</ele>
        <time>2015-10-03T10:11:27Z</time>
      </trkpt>
      <trkpt lat="44.87519" lon="1.2295">
        <ele>188</ele>
        <time>2015-10-03T10:11:36Z</time>
      </trkpt>
      <trkpt lat="44.87527" lon="1.22895">
        <ele>186.8</ele>
        <time>2015-10-03T10:11:43Z</time>
      </trkpt>
      <trkpt lat="44.87529" lon="1.22842">
        <ele>185.2</ele>
        <time>2015-10-03T10:11:49Z</time>
      </trkpt>
      <trkpt lat="44.8753" lon="1.22835">
        <ele>185.4</ele>
        <time>2015-10-03T10:11:50Z</time>
      </trkpt>
      <trkpt lat="44.87533" lon="1.22776">
        <ele>184.2</ele>
        <time>2015-10-03T10:11:57Z</time>
      </trkpt>
      <trkpt lat="44.87534" lon="1.22767">
        <ele>184</ele>
        <time>2015-10-03T10:11:58Z</time>
      </trkpt>
      <trkpt lat="44.87544" lon="1.22719">
        <ele>183.6</ele>
        <time>2015-10-03T10:12:04Z</time>
      </trkpt>
      <trkpt lat="44.87555" lon="1.22688">
        <ele>183.2</ele>
        <time>2015-10-03T10:12:08Z</time>
      </trkpt>
      <trkpt lat="44.87562" lon="1.22672">
        <ele>182.8</ele>
        <time>2015-10-03T10:12:10Z</time>
      </trkpt>
      <trkpt lat="44.87575" lon="1.22638">
        <ele>184.6</ele>
        <time>2015-10-03T10:12:15Z</time>
      </trkpt>
      <trkpt lat="44.87577" lon="1.22632">
        <ele>185</ele>
        <time>2015-10-03T10:12:16Z</time>
      </trkpt>
      <trkpt lat="44.87582" lon="1.22622">
        <ele>185.8</ele>
        <time>2015-10-03T10:12:18Z</time>
      </trkpt>
      <trkpt lat="44.87585" lon="1.22617">
        <ele>186</ele>
        <time>2015-10-03T10:12:19Z</time>
      </trkpt>
      <trkpt lat="44.87592" lon="1.22608">
        <ele>186.4</ele>
        <time>2015-10-03T10:12:21Z</time>
      </trkpt>
      <trkpt lat="44.87596" lon="1.22603">
        <ele>186.8</ele>
        <time>2015-10-03T10:12:22Z</time>
      </trkpt>
      <trkpt lat="44.87604" lon="1.22594">
        <ele>188</ele>
        <time>2015-10-03T10:12:24Z</time>
      </trkpt>
      <trkpt lat="44.87617" lon="1.22583">
        <ele>188.4</ele>
        <time>2015-10-03T10:12:27Z</time>
      </trkpt>
      <trkpt lat="44.87625" lon="1.22576">
        <ele>189</ele>
        <time>2015-10-03T10:12:29Z</time>
      </trkpt>
      <trkpt lat="44.8764" lon="1.22563">
        <ele>190</ele>
        <time>2015-10-03T10:12:33Z</time>
      </trkpt>
      <trkpt lat="44.87643" lon="1.22559">
        <ele>190.4</ele>
        <time>2015-10-03T10:12:34Z</time>
      </trkpt>
      <trkpt lat="44.87648" lon="1.2255">
        <ele>190.6</ele>
        <time>2015-10-03T10:12:36Z</time>
      </trkpt>
      <trkpt lat="44.87652" lon="1.22534">
        <ele>191.2</ele>
        <time>2015-10-03T10:12:39Z</time>
      </trkpt>
      <trkpt lat="44.87651" lon="1.22516">
        <ele>191.8</ele>
        <time>2015-10-03T10:12:42Z</time>
      </trkpt>
      <trkpt lat="44.87649" lon="1.22504">
        <ele>192.4</ele>
        <time>2015-10-03T10:12:44Z</time>
      </trkpt>
      <trkpt lat="44.87649" lon="1.22498">
        <ele>192.6</ele>
        <time>2015-10-03T10:12:45Z</time>
      </trkpt>
      <trkpt lat="44.87648" lon="1.22481">
        <ele>193.4</ele>
        <time>2015-10-03T10:12:48Z</time>
      </trkpt>
      <trkpt lat="44.87647" lon="1.22461">
        <ele>194.2</ele>
        <time>2015-10-03T10:12:51Z</time>
      </trkpt>
      <trkpt lat="44.87646" lon="1.22455">
        <ele>194.4</ele>
        <time>2015-10-03T10:12:52Z</time>
      </trkpt>
      <trkpt lat="44.87645" lon="1.22427">
        <ele>195</ele>
        <time>2015-10-03T10:12:57Z</time>
      </trkpt>
      <trkpt lat="44.87645" lon="1.22406">
        <ele>195.4</ele>
        <time>2015-10-03T10:13:01Z</time>
      </trkpt>
      <trkpt lat="44.87646" lon="1.22391">
        <ele>195.6</ele>
        <time>2015-10-03T10:13:04Z</time>
      </trkpt>
      <trkpt lat="44.87649" lon="1.2238">
        <ele>195.4</ele>
        <time>2015-10-03T10:13:06Z</time>
      </trkpt>
      <trkpt lat="44.87652" lon="1.22367">
        <ele>193.2</ele>
        <time>2015-10-03T10:13:08Z</time>
      </trkpt>
      <trkpt lat="44.87655" lon="1.22361">
        <ele>194</ele>
        <time>2015-10-03T10:13:09Z</time>
      </trkpt>
      <trkpt lat="44.87661" lon="1.22346">
        <ele>195.4</ele>
        <time>2015-10-03T10:13:11Z</time>
      </trkpt>
      <trkpt lat="44.87664" lon="1.22338">
        <ele>193.2</ele>
        <time>2015-10-03T10:13:12Z</time>
      </trkpt>
      <trkpt lat="44.87671" lon="1.22321">
        <ele>192.8</ele>
        <time>2015-10-03T10:13:14Z</time>
      </trkpt>
      <trkpt lat="44.87678" lon="1.22303">
        <ele>192</ele>
        <time>2015-10-03T10:13:16Z</time>
      </trkpt>
      <trkpt lat="44.87689" lon="1.22272">
        <ele>190.8</ele>
        <time>2015-10-03T10:13:19Z</time>
      </trkpt>
      <trkpt lat="44.87692" lon="1.22262">
        <ele>190.4</ele>
        <time>2015-10-03T10:13:20Z</time>
      </trkpt>
      <trkpt lat="44.87699" lon="1.2224">
        <ele>189.4</ele>
        <time>2015-10-03T10:13:22Z</time>
      </trkpt>
      <trkpt lat="44.8771" lon="1.22208">
        <ele>188.2</ele>
        <time>2015-10-03T10:13:25Z</time>
      </trkpt>
      <trkpt lat="44.87718" lon="1.22185">
        <ele>186.8</ele>
        <time>2015-10-03T10:13:27Z</time>
      </trkpt>
      <trkpt lat="44.87726" lon="1.22162">
        <ele>185.6</ele>
        <time>2015-10-03T10:13:29Z</time>
      </trkpt>
      <trkpt lat="44.87733" lon="1.22138">
        <ele>184.6</ele>
        <time>2015-10-03T10:13:31Z</time>
      </trkpt>
      <trkpt lat="44.87739" lon="1.22113">
        <ele>183.6</ele>
        <time>2015-10-03T10:13:33Z</time>
      </trkpt>
      <trkpt lat="44.87741" lon="1.22102">
        <ele>183</ele>
        <time>2015-10-03T10:13:34Z</time>
      </trkpt>
      <trkpt lat="44.87743" lon="1.22091">
        <ele>181.8</ele>
        <time>2015-10-03T10:13:35Z</time>
      </trkpt>
      <trkpt lat="44.87747" lon="1.2207">
        <ele>180.6</ele>
        <time>2015-10-03T10:13:37Z</time>
      </trkpt>
      <trkpt lat="44.87751" lon="1.22049">
        <ele>180</ele>
        <time>2015-10-03T10:13:39Z</time>
      </trkpt>
      <trkpt lat="44.87753" lon="1.22039">
        <ele>179.4</ele>
        <time>2015-10-03T10:13:40Z</time>
      </trkpt>
      <trkpt lat="44.87754" lon="1.2203">
        <ele>178.8</ele>
        <time>2015-10-03T10:13:41Z</time>
      </trkpt>
      <trkpt lat="44.87754" lon="1.22021">
        <ele>178.4</ele>
        <time>2015-10-03T10:13:42Z</time>
      </trkpt>
      <trkpt lat="44.87753" lon="1.22015">
        <ele>178</ele>
        <time>2015-10-03T10:13:43Z</time>
      </trkpt>
      <trkpt lat="44.87751" lon="1.21998">
        <ele>177.2</ele>
        <time>2015-10-03T10:13:47Z</time>
      </trkpt>
      <trkpt lat="44.87751" lon="1.21989">
        <ele>177</ele>
        <time>2015-10-03T10:14:09Z</time>
      </trkpt>
      <trkpt lat="44.8776" lon="1.21963">
        <ele>176.6</ele>
        <time>2015-10-03T10:14:17Z</time>
      </trkpt>
      <trkpt lat="44.87766" lon="1.21946">
        <ele>176.2</ele>
        <time>2015-10-03T10:14:21Z</time>
      </trkpt>
      <trkpt lat="44.87767" lon="1.21941">
        <ele>176.2</ele>
        <time>2015-10-03T10:14:22Z</time>
      </trkpt>
      <trkpt lat="44.87775" lon="1.21923">
        <ele>175.6</ele>
        <time>2015-10-03T10:14:27Z</time>
      </trkpt>
      <trkpt lat="44.87785" lon="1.21905">
        <ele>175</ele>
        <time>2015-10-03T10:14:31Z</time>
      </trkpt>
      <trkpt lat="44.87791" lon="1.21895">
        <ele>174.8</ele>
        <time>2015-10-03T10:14:33Z</time>
      </trkpt>
      <trkpt lat="44.87801" lon="1.21878">
        <ele>173.8</ele>
        <time>2015-10-03T10:14:36Z</time>
      </trkpt>
      <trkpt lat="44.87814" lon="1.21862">
        <ele>174</ele>
        <time>2015-10-03T10:14:39Z</time>
      </trkpt>
      <trkpt lat="44.87818" lon="1.21858">
        <ele>173.6</ele>
        <time>2015-10-03T10:14:40Z</time>
      </trkpt>
      <trkpt lat="44.87833" lon="1.21846">
        <ele>172.8</ele>
        <time>2015-10-03T10:14:43Z</time>
      </trkpt>
      <trkpt lat="44.87839" lon="1.21843">
        <ele>172.6</ele>
        <time>2015-10-03T10:14:44Z</time>
      </trkpt>
      <trkpt lat="44.87845" lon="1.21841">
        <ele>172.4</ele>
        <time>2015-10-03T10:14:45Z</time>
      </trkpt>
      <trkpt lat="44.87851" lon="1.21839">
        <ele>172</ele>
        <time>2015-10-03T10:14:46Z</time>
      </trkpt>
      <trkpt lat="44.87864" lon="1.21839">
        <ele>171.6</ele>
        <time>2015-10-03T10:14:48Z</time>
      </trkpt>
      <trkpt lat="44.8787" lon="1.21839">
        <ele>171.4</ele>
        <time>2015-10-03T10:14:49Z</time>
      </trkpt>
      <trkpt lat="44.87889" lon="1.21843">
        <ele>170.4</ele>
        <time>2015-10-03T10:14:52Z</time>
      </trkpt>
      <trkpt lat="44.87901" lon="1.21848">
        <ele>170</ele>
        <time>2015-10-03T10:14:54Z</time>
      </trkpt>
      <trkpt lat="44.87921" lon="1.21858">
        <ele>169.2</ele>
        <time>2015-10-03T10:14:57Z</time>
      </trkpt>
      <trkpt lat="44.87948" lon="1.21873">
        <ele>168.6</ele>
        <time>2015-10-03T10:15:01Z</time>
      </trkpt>
      <trkpt lat="44.87963" lon="1.21878">
        <ele>168.2</ele>
        <time>2015-10-03T10:15:03Z</time>
      </trkpt>
      <trkpt lat="44.87977" lon="1.21878">
        <ele>168</ele>
        <time>2015-10-03T10:15:05Z</time>
      </trkpt>
      <trkpt lat="44.87998" lon="1.21871">
        <ele>167.2</ele>
        <time>2015-10-03T10:15:08Z</time>
      </trkpt>
      <trkpt lat="44.88011" lon="1.21865">
        <ele>167</ele>
        <time>2015-10-03T10:15:10Z</time>
      </trkpt>
      <trkpt lat="44.88045" lon="1.21848">
        <ele>165.8</ele>
        <time>2015-10-03T10:15:15Z</time>
      </trkpt>
      <trkpt lat="44.88079" lon="1.21832">
        <ele>164.6</ele>
        <time>2015-10-03T10:15:20Z</time>
      </trkpt>
      <trkpt lat="44.88116" lon="1.21808">
        <ele>163.4</ele>
        <time>2015-10-03T10:15:26Z</time>
      </trkpt>
      <trkpt lat="44.88123" lon="1.21804">
        <ele>163.2</ele>
        <time>2015-10-03T10:15:27Z</time>
      </trkpt>
      <trkpt lat="44.88147" lon="1.21786">
        <ele>162.2</ele>
        <time>2015-10-03T10:15:31Z</time>
      </trkpt>
      <trkpt lat="44.88152" lon="1.2178">
        <ele>162</ele>
        <time>2015-10-03T10:15:32Z</time>
      </trkpt>
      <trkpt lat="44.88157" lon="1.21774">
        <ele>161.8</ele>
        <time>2015-10-03T10:15:33Z</time>
      </trkpt>
      <trkpt lat="44.88182" lon="1.21748">
        <ele>161</ele>
        <time>2015-10-03T10:15:38Z</time>
      </trkpt>
      <trkpt lat="44.88186" lon="1.21744">
        <ele>160.8</ele>
        <time>2015-10-03T10:15:39Z</time>
      </trkpt>
      <trkpt lat="44.8819" lon="1.21737">
        <ele>160.4</ele>
        <time>2015-10-03T10:15:42Z</time>
      </trkpt>
      <trkpt lat="44.88191" lon="1.21736">
        <ele>160.2</ele>
        <time>2015-10-03T10:15:46Z</time>
      </trkpt>
      <trkpt lat="44.88194" lon="1.21735">
        <ele>160.4</ele>
        <time>2015-10-03T10:15:55Z</time>
      </trkpt>
      <trkpt lat="44.88199" lon="1.21736">
        <ele>160.4</ele>
        <time>2015-10-03T10:15:57Z</time>
      </trkpt>
      <trkpt lat="44.88206" lon="1.21739">
        <ele>160.4</ele>
        <time>2015-10-03T10:16:00Z</time>
      </trkpt>
      <trkpt lat="44.88207" lon="1.2174">
        <ele>160.6</ele>
        <time>2015-10-03T10:16:02Z</time>
      </trkpt>
      <trkpt lat="44.88207" lon="1.21742">
        <ele>159.8</ele>
        <time>2015-10-03T10:16:04Z</time>
      </trkpt>
      <trkpt lat="44.88214" lon="1.21741">
        <ele>160.6</ele>
        <time>2015-10-03T10:16:23Z</time>
      </trkpt>
      <trkpt lat="44.88216" lon="1.21741">
        <ele>160.8</ele>
        <time>2015-10-03T10:16:24Z</time>
      </trkpt>
      <trkpt lat="44.88228" lon="1.21743">
        <ele>161</ele>
        <time>2015-10-03T10:16:27Z</time>
      </trkpt>
      <trkpt lat="44.88236" lon="1.21747">
        <ele>160.8</ele>
        <time>2015-10-03T10:16:29Z</time>
      </trkpt>
      <trkpt lat="44.8826" lon="1.21756">
        <ele>161.2</ele>
        <time>2015-10-03T10:16:35Z</time>
      </trkpt>
      <trkpt lat="44.88272" lon="1.2176">
        <ele>161.4</ele>
        <time>2015-10-03T10:16:38Z</time>
      </trkpt>
      <trkpt lat="44.88281" lon="1.21763">
        <ele>161.6</ele>
        <time>2015-10-03T10:16:40Z</time>
      </trkpt>
      <trkpt lat="44.88301" lon="1.21769">
        <ele>161.8</ele>
        <time>2015-10-03T10:16:45Z</time>
      </trkpt>
      <trkpt lat="44.88312" lon="1.21773">
        <ele>162</ele>
        <time>2015-10-03T10:16:48Z</time>
      </trkpt>
      <trkpt lat="44.88323" lon="1.21775">
        <ele>162.2</ele>
        <time>2015-10-03T10:16:51Z</time>
      </trkpt>
      <trkpt lat="44.88346" lon="1.2177">
        <ele>162.4</ele>
        <time>2015-10-03T10:16:57Z</time>
      </trkpt>
      <trkpt lat="44.88375" lon="1.21763">
        <ele>163</ele>
        <time>2015-10-03T10:17:04Z</time>
      </trkpt>
      <trkpt lat="44.88383" lon="1.2176">
        <ele>163.2</ele>
        <time>2015-10-03T10:17:06Z</time>
      </trkpt>
      <trkpt lat="44.88424" lon="1.21748">
        <ele>163.8</ele>
        <time>2015-10-03T10:17:16Z</time>
      </trkpt>
      <trkpt lat="44.8844" lon="1.21742">
        <ele>164</ele>
        <time>2015-10-03T10:17:20Z</time>
      </trkpt>
      <trkpt lat="44.88454" lon="1.21738">
        <ele>164.2</ele>
        <time>2015-10-03T10:17:23Z</time>
      </trkpt>
      <trkpt lat="44.88479" lon="1.2173">
        <ele>164.6</ele>
        <time>2015-10-03T10:17:29Z</time>
      </trkpt>
      <trkpt lat="44.88512" lon="1.21722">
        <ele>165</ele>
        <time>2015-10-03T10:17:37Z</time>
      </trkpt>
      <trkpt lat="44.88524" lon="1.21718">
        <ele>165</ele>
        <time>2015-10-03T10:17:40Z</time>
      </trkpt>
      <trkpt lat="44.88541" lon="1.21713">
        <ele>165.4</ele>
        <time>2015-10-03T10:17:44Z</time>
      </trkpt>
      <trkpt lat="44.88545" lon="1.21712">
        <ele>165.4</ele>
        <time>2015-10-03T10:17:45Z</time>
      </trkpt>
      <trkpt lat="44.88567" lon="1.21707">
        <ele>166</ele>
        <time>2015-10-03T10:17:50Z</time>
      </trkpt>
      <trkpt lat="44.88585" lon="1.21701">
        <ele>166</ele>
        <time>2015-10-03T10:17:54Z</time>
      </trkpt>
      <trkpt lat="44.88598" lon="1.21697">
        <ele>166.4</ele>
        <time>2015-10-03T10:17:57Z</time>
      </trkpt>
      <trkpt lat="44.88619" lon="1.21691">
        <ele>166.4</ele>
        <time>2015-10-03T10:18:03Z</time>
      </trkpt>
      <trkpt lat="44.88642" lon="1.21685">
        <ele>167</ele>
        <time>2015-10-03T10:18:10Z</time>
      </trkpt>
      <trkpt lat="44.88645" lon="1.21684">
        <ele>167.2</ele>
        <time>2015-10-03T10:18:11Z</time>
      </trkpt>
      <trkpt lat="44.88665" lon="1.21678">
        <ele>167.2</ele>
        <time>2015-10-03T10:18:17Z</time>
      </trkpt>
      <trkpt lat="44.88673" lon="1.21674">
        <ele>167.4</ele>
        <time>2015-10-03T10:18:21Z</time>
      </trkpt>
      <trkpt lat="44.88677" lon="1.21674">
        <ele>167.4</ele>
        <time>2015-10-03T10:18:24Z</time>
      </trkpt>
      <trkpt lat="44.8868" lon="1.21676">
        <ele>167.6</ele>
        <time>2015-10-03T10:18:26Z</time>
      </trkpt>
      <trkpt lat="44.88693" lon="1.21669">
        <ele>168</ele>
        <time>2015-10-03T10:18:30Z</time>
      </trkpt>
      <trkpt lat="44.88704" lon="1.21668">
        <ele>168.2</ele>
        <time>2015-10-03T10:18:34Z</time>
      </trkpt>
      <trkpt lat="44.88712" lon="1.21669">
        <ele>168.4</ele>
        <time>2015-10-03T10:18:37Z</time>
      </trkpt>
      <trkpt lat="44.88722" lon="1.21665">
        <ele>168.6</ele>
        <time>2015-10-03T10:18:42Z</time>
      </trkpt>
      <trkpt lat="44.88725" lon="1.21656">
        <ele>168.6</ele>
        <time>2015-10-03T10:18:47Z</time>
      </trkpt>
      <trkpt lat="44.8873" lon="1.21654">
        <ele>168.8</ele>
        <time>2015-10-03T10:18:52Z</time>
      </trkpt>
      <trkpt lat="44.88742" lon="1.21649">
        <ele>169</ele>
        <time>2015-10-03T10:18:58Z</time>
      </trkpt>
      <trkpt lat="44.88748" lon="1.21647">
        <ele>169.2</ele>
        <time>2015-10-03T10:19:01Z</time>
      </trkpt>
      <trkpt lat="44.88753" lon="1.21645">
        <ele>169.2</ele>
        <time>2015-10-03T10:19:05Z</time>
      </trkpt>
      <trkpt lat="44.88761" lon="1.21644">
        <ele>169.2</ele>
        <time>2015-10-03T10:19:11Z</time>
      </trkpt>
      <trkpt lat="44.88769" lon="1.21636">
        <ele>169.6</ele>
        <time>2015-10-03T10:19:19Z</time>
      </trkpt>
      <trkpt lat="44.88773" lon="1.21632">
        <ele>169.4</ele>
        <time>2015-10-03T10:19:25Z</time>
      </trkpt>
      <trkpt lat="44.88781" lon="1.21631">
        <ele>169.6</ele>
        <time>2015-10-03T10:19:30Z</time>
      </trkpt>
      <trkpt lat="44.88787" lon="1.21629">
        <ele>169.6</ele>
        <time>2015-10-03T10:19:35Z</time>
      </trkpt>
      <trkpt lat="44.88796" lon="1.21625">
        <ele>169.8</ele>
        <time>2015-10-03T10:19:41Z</time>
      </trkpt>
      <trkpt lat="44.88806" lon="1.21621">
        <ele>170</ele>
        <time>2015-10-03T10:19:47Z</time>
      </trkpt>
      <trkpt lat="44.88816" lon="1.21619">
        <ele>170.2</ele>
        <time>2015-10-03T10:19:53Z</time>
      </trkpt>
      <trkpt lat="44.8882" lon="1.21623">
        <ele>170.2</ele>
        <time>2015-10-03T10:20:00Z</time>
      </trkpt>
      <trkpt lat="44.88821" lon="1.21626">
        <ele>169.8</ele>
        <time>2015-10-03T10:20:08Z</time>
      </trkpt>
      <trkpt lat="44.88821" lon="1.21627">
        <ele>169.4</ele>
        <time>2015-10-03T10:20:10Z</time>
      </trkpt>
      <trkpt lat="44.88824" lon="1.21626">
        <ele>169</ele>
        <time>2015-10-03T10:20:17Z</time>
      </trkpt>
      <trkpt lat="44.88825" lon="1.21629">
        <ele>168.8</ele>
        <time>2015-10-03T10:20:21Z</time>
      </trkpt>
      <trkpt lat="44.88829" lon="1.21631">
        <ele>168.6</ele>
        <time>2015-10-03T10:20:28Z</time>
      </trkpt>
      <trkpt lat="44.88837" lon="1.21638">
        <ele>168.4</ele>
        <time>2015-10-03T10:20:34Z</time>
      </trkpt>
      <trkpt lat="44.88838" lon="1.21643">
        <ele>168.4</ele>
        <time>2015-10-03T10:20:42Z</time>
      </trkpt>
      <trkpt lat="44.88846" lon="1.21639">
        <ele>168.4</ele>
        <time>2015-10-03T10:20:57Z</time>
      </trkpt>
      <trkpt lat="44.88847" lon="1.21639">
        <ele>168.4</ele>
        <time>2015-10-03T10:20:58Z</time>
      </trkpt>
      <trkpt lat="44.88849" lon="1.21638">
        <ele>168.4</ele>
        <time>2015-10-03T10:21:05Z</time>
      </trkpt>
      <trkpt lat="44.8885" lon="1.21642">
        <ele>168.4</ele>
        <time>2015-10-03T10:21:09Z</time>
      </trkpt>
      <trkpt lat="44.88853" lon="1.21644">
        <ele>168.2</ele>
        <time>2015-10-03T10:21:16Z</time>
      </trkpt>
      <trkpt lat="44.88856" lon="1.21648">
        <ele>168.4</ele>
        <time>2015-10-03T10:21:25Z</time>
      </trkpt>
      <trkpt lat="44.88868" lon="1.21643">
        <ele>168.2</ele>
        <time>2015-10-03T10:21:38Z</time>
      </trkpt>
      <trkpt lat="44.88871" lon="1.21645">
        <ele>168.4</ele>
        <time>2015-10-03T10:21:43Z</time>
      </trkpt>
      <trkpt lat="44.88873" lon="1.21646">
        <ele>168.8</ele>
        <time>2015-10-03T10:21:51Z</time>
      </trkpt>
      <trkpt lat="44.88886" lon="1.21654">
        <ele>168.4</ele>
        <time>2015-10-03T10:21:59Z</time>
      </trkpt>
      <trkpt lat="44.88888" lon="1.21655">
        <ele>168.2</ele>
        <time>2015-10-03T10:22:05Z</time>
      </trkpt>
      <trkpt lat="44.88893" lon="1.21665">
        <ele>168.4</ele>
        <time>2015-10-03T10:22:21Z</time>
      </trkpt>
      <trkpt lat="44.88894" lon="1.21667">
        <ele>168.2</ele>
        <time>2015-10-03T10:22:28Z</time>
      </trkpt>
      <trkpt lat="44.88895" lon="1.21669">
        <ele>168.2</ele>
        <time>2015-10-03T10:22:37Z</time>
      </trkpt>
      <trkpt lat="44.88893" lon="1.21676">
        <ele>168.2</ele>
        <time>2015-10-03T10:22:44Z</time>
      </trkpt>
      <trkpt lat="44.88893" lon="1.21677">
        <ele>168.2</ele>
        <time>2015-10-03T10:22:51Z</time>
      </trkpt>
      <trkpt lat="44.88896" lon="1.21675">
        <ele>168.2</ele>
        <time>2015-10-03T10:23:00Z</time>
      </trkpt>
      <trkpt lat="44.88899" lon="1.21674">
        <ele>168.2</ele>
        <time>2015-10-03T10:23:09Z</time>
      </trkpt>
      <trkpt lat="44.88924" lon="1.21671">
        <ele>168.4</ele>
        <time>2015-10-03T10:23:17Z</time>
      </trkpt>
      <trkpt lat="44.88929" lon="1.21674">
        <ele>168.6</ele>
        <time>2015-10-03T10:23:26Z</time>
      </trkpt>
      <trkpt lat="44.88937" lon="1.21666">
        <ele>168.8</ele>
        <time>2015-10-03T10:23:33Z</time>
      </trkpt>
      <trkpt lat="44.88941" lon="1.21668">
        <ele>169</ele>
        <time>2015-10-03T10:23:42Z</time>
      </trkpt>
      <trkpt lat="44.88947" lon="1.21669">
        <ele>168.8</ele>
        <time>2015-10-03T10:23:53Z</time>
      </trkpt>
      <trkpt lat="44.88948" lon="1.2167">
        <ele>169.2</ele>
        <time>2015-10-03T10:23:56Z</time>
      </trkpt>
      <trkpt lat="44.88963" lon="1.21663">
        <ele>169</ele>
        <time>2015-10-03T10:24:15Z</time>
      </trkpt>
      <trkpt lat="44.88964" lon="1.21664">
        <ele>169</ele>
        <time>2015-10-03T10:24:16Z</time>
      </trkpt>
      <trkpt lat="44.88967" lon="1.2167">
        <ele>169.2</ele>
        <time>2015-10-03T10:24:24Z</time>
      </trkpt>
      <trkpt lat="44.8897" lon="1.21681">
        <ele>169.4</ele>
        <time>2015-10-03T10:24:29Z</time>
      </trkpt>
      <trkpt lat="44.88968" lon="1.21672">
        <ele>172</ele>
        <time>2015-10-03T10:52:33Z</time>
      </trkpt>
      <trkpt lat="44.88965" lon="1.2167">
        <ele>172</ele>
        <time>2015-10-03T10:52:34Z</time>
      </trkpt>
      <trkpt lat="44.88959" lon="1.21667">
        <ele>171.8</ele>
        <time>2015-10-03T10:52:37Z</time>
      </trkpt>
      <trkpt lat="44.88956" lon="1.21666">
        <ele>171.6</ele>
        <time>2015-10-03T10:52:40Z</time>
      </trkpt>
      <trkpt lat="44.88954" lon="1.21664">
        <ele>171.6</ele>
        <time>2015-10-03T10:52:47Z</time>
      </trkpt>
      <trkpt lat="44.8895" lon="1.2166">
        <ele>171.4</ele>
        <time>2015-10-03T10:52:54Z</time>
      </trkpt>
      <trkpt lat="44.88954" lon="1.21667">
        <ele>171.8</ele>
        <time>2015-10-03T10:53:23Z</time>
      </trkpt>
      <trkpt lat="44.88955" lon="1.21668">
        <ele>171.8</ele>
        <time>2015-10-03T10:53:24Z</time>
      </trkpt>
      <trkpt lat="44.88961" lon="1.21666">
        <ele>171.6</ele>
        <time>2015-10-03T10:53:27Z</time>
      </trkpt>
      <trkpt lat="44.88961" lon="1.21662">
        <ele>171.8</ele>
        <time>2015-10-03T10:53:30Z</time>
      </trkpt>
      <trkpt lat="44.88961" lon="1.21658">
        <ele>172</ele>
        <time>2015-10-03T10:53:32Z</time>
      </trkpt>
      <trkpt lat="44.88964" lon="1.21659">
        <ele>172</ele>
        <time>2015-10-03T10:53:34Z</time>
      </trkpt>
      <trkpt lat="44.8897" lon="1.21664">
        <ele>172.2</ele>
        <time>2015-10-03T10:53:42Z</time>
      </trkpt>
      <trkpt lat="44.88969" lon="1.21639">
        <ele>172</ele>
        <time>2015-10-03T10:53:47Z</time>
      </trkpt>
      <trkpt lat="44.88969" lon="1.21619">
        <ele>172.2</ele>
        <time>2015-10-03T10:53:53Z</time>
      </trkpt>
      <trkpt lat="44.88969" lon="1.21616">
        <ele>172.2</ele>
        <time>2015-10-03T10:53:54Z</time>
      </trkpt>
      <trkpt lat="44.88971" lon="1.21607">
        <ele>172.4</ele>
        <time>2015-10-03T10:53:57Z</time>
      </trkpt>
      <trkpt lat="44.88971" lon="1.21604">
        <ele>172.6</ele>
        <time>2015-10-03T10:53:58Z</time>
      </trkpt>
      <trkpt lat="44.88972" lon="1.21598">
        <ele>173</ele>
        <time>2015-10-03T10:54:00Z</time>
      </trkpt>
      <trkpt lat="44.88975" lon="1.21586">
        <ele>173.6</ele>
        <time>2015-10-03T10:54:06Z</time>
      </trkpt>
      <trkpt lat="44.88973" lon="1.21585">
        <ele>173.6</ele>
        <time>2015-10-03T10:54:11Z</time>
      </trkpt>
      <trkpt lat="44.8897" lon="1.21582">
        <ele>173.6</ele>
        <time>2015-10-03T10:54:12Z</time>
      </trkpt>
      <trkpt lat="44.88969" lon="1.21582">
        <ele>173.4</ele>
        <time>2015-10-03T10:54:14Z</time>
      </trkpt>
      <trkpt lat="44.88968" lon="1.21582">
        <ele>173.4</ele>
        <time>2015-10-03T10:54:16Z</time>
      </trkpt>
      <trkpt lat="44.88967" lon="1.21582">
        <ele>173.4</ele>
        <time>2015-10-03T10:54:18Z</time>
      </trkpt>
      <trkpt lat="44.88958" lon="1.21582">
        <ele>173.2</ele>
        <time>2015-10-03T10:54:22Z</time>
      </trkpt>
      <trkpt lat="44.88944" lon="1.21582">
        <ele>173.2</ele>
        <time>2015-10-03T10:54:29Z</time>
      </trkpt>
      <trkpt lat="44.88932" lon="1.21585">
        <ele>173</ele>
        <time>2015-10-03T10:54:37Z</time>
      </trkpt>
      <trkpt lat="44.88921" lon="1.2159">
        <ele>172.8</ele>
        <time>2015-10-03T10:54:46Z</time>
      </trkpt>
      <trkpt lat="44.88907" lon="1.21592">
        <ele>172.4</ele>
        <time>2015-10-03T10:54:54Z</time>
      </trkpt>
      <trkpt lat="44.88896" lon="1.21596">
        <ele>172.2</ele>
        <time>2015-10-03T10:55:00Z</time>
      </trkpt>
      <trkpt lat="44.88889" lon="1.21599">
        <ele>172</ele>
        <time>2015-10-03T10:55:03Z</time>
      </trkpt>
      <trkpt lat="44.88879" lon="1.21603">
        <ele>171.8</ele>
        <time>2015-10-03T10:55:08Z</time>
      </trkpt>
      <trkpt lat="44.88859" lon="1.21609">
        <ele>171.4</ele>
        <time>2015-10-03T10:55:16Z</time>
      </trkpt>
      <trkpt lat="44.88851" lon="1.21616">
        <ele>171.2</ele>
        <time>2015-10-03T10:55:22Z</time>
      </trkpt>
      <trkpt lat="44.8885" lon="1.21618">
        <ele>171.2</ele>
        <time>2015-10-03T10:55:23Z</time>
      </trkpt>
      <trkpt lat="44.88845" lon="1.2162">
        <ele>171</ele>
        <time>2015-10-03T10:55:26Z</time>
      </trkpt>
      <trkpt lat="44.88836" lon="1.21621">
        <ele>168.6</ele>
        <time>2015-10-03T10:55:31Z</time>
      </trkpt>
      <trkpt lat="44.88835" lon="1.21622">
        <ele>170.2</ele>
        <time>2015-10-03T10:55:32Z</time>
      </trkpt>
      <trkpt lat="44.88832" lon="1.21622">
        <ele>173</ele>
        <time>2015-10-03T10:55:34Z</time>
      </trkpt>
      <trkpt lat="44.88831" lon="1.21623">
        <ele>171.4</ele>
        <time>2015-10-03T10:55:35Z</time>
      </trkpt>
      <trkpt lat="44.88825" lon="1.21623">
        <ele>170.4</ele>
        <time>2015-10-03T10:55:39Z</time>
      </trkpt>
      <trkpt lat="44.8882" lon="1.21624">
        <ele>170.2</ele>
        <time>2015-10-03T10:55:43Z</time>
      </trkpt>
      <trkpt lat="44.88814" lon="1.21625">
        <ele>170.4</ele>
        <time>2015-10-03T10:55:47Z</time>
      </trkpt>
      <trkpt lat="44.88803" lon="1.21623">
        <ele>169.8</ele>
        <time>2015-10-03T10:55:53Z</time>
      </trkpt>
      <trkpt lat="44.88793" lon="1.21627">
        <ele>170.2</ele>
        <time>2015-10-03T10:56:01Z</time>
      </trkpt>
      <trkpt lat="44.88779" lon="1.21632">
        <ele>170</ele>
        <time>2015-10-03T10:56:08Z</time>
      </trkpt>
      <trkpt lat="44.88765" lon="1.21636">
        <ele>169.6</ele>
        <time>2015-10-03T10:56:15Z</time>
      </trkpt>
      <trkpt lat="44.88752" lon="1.21645">
        <ele>169.6</ele>
        <time>2015-10-03T10:56:22Z</time>
      </trkpt>
      <trkpt lat="44.88743" lon="1.21647">
        <ele>169.2</ele>
        <time>2015-10-03T10:56:28Z</time>
      </trkpt>
      <trkpt lat="44.88733" lon="1.21649">
        <ele>169.2</ele>
        <time>2015-10-03T10:56:34Z</time>
      </trkpt>
      <trkpt lat="44.88732" lon="1.2165">
        <ele>169.2</ele>
        <time>2015-10-03T10:56:35Z</time>
      </trkpt>
      <trkpt lat="44.88727" lon="1.21652">
        <ele>169</ele>
        <time>2015-10-03T10:56:39Z</time>
      </trkpt>
      <trkpt lat="44.88724" lon="1.21652">
        <ele>169</ele>
        <time>2015-10-03T10:56:41Z</time>
      </trkpt>
      <trkpt lat="44.88719" lon="1.21648">
        <ele>168.8</ele>
        <time>2015-10-03T10:57:19Z</time>
      </trkpt>
      <trkpt lat="44.88718" lon="1.21641">
        <ele>168.6</ele>
        <time>2015-10-03T10:57:22Z</time>
      </trkpt>
      <trkpt lat="44.8872" lon="1.2163">
        <ele>168.6</ele>
        <time>2015-10-03T10:57:26Z</time>
      </trkpt>
      <trkpt lat="44.88721" lon="1.21624">
        <ele>168.4</ele>
        <time>2015-10-03T10:57:29Z</time>
      </trkpt>
      <trkpt lat="44.8872" lon="1.21622">
        <ele>168.4</ele>
        <time>2015-10-03T10:57:31Z</time>
      </trkpt>
      <trkpt lat="44.88719" lon="1.2162">
        <ele>168.2</ele>
        <time>2015-10-03T10:57:34Z</time>
      </trkpt>
      <trkpt lat="44.8872" lon="1.2162">
        <ele>168</ele>
        <time>2015-10-03T10:57:35Z</time>
      </trkpt>
      <trkpt lat="44.88715" lon="1.21617">
        <ele>167.8</ele>
        <time>2015-10-03T10:57:38Z</time>
      </trkpt>
      <trkpt lat="44.88712" lon="1.21618">
        <ele>167.8</ele>
        <time>2015-10-03T10:57:39Z</time>
      </trkpt>
      <trkpt lat="44.88697" lon="1.2162">
        <ele>167.4</ele>
        <time>2015-10-03T10:57:43Z</time>
      </trkpt>
      <trkpt lat="44.88693" lon="1.2162">
        <ele>167.4</ele>
        <time>2015-10-03T10:57:44Z</time>
      </trkpt>
      <trkpt lat="44.88689" lon="1.21621">
        <ele>167</ele>
        <time>2015-10-03T10:57:45Z</time>
      </trkpt>
      <trkpt lat="44.8867" lon="1.21625">
        <ele>166.8</ele>
        <time>2015-10-03T10:57:49Z</time>
      </trkpt>
      <trkpt lat="44.88666" lon="1.21626">
        <ele>166.8</ele>
        <time>2015-10-03T10:57:50Z</time>
      </trkpt>
      <trkpt lat="44.88638" lon="1.21636">
        <ele>166.4</ele>
        <time>2015-10-03T10:57:56Z</time>
      </trkpt>
      <trkpt lat="44.88618" lon="1.21642">
        <ele>166</ele>
        <time>2015-10-03T10:58:00Z</time>
      </trkpt>
      <trkpt lat="44.88602" lon="1.21646">
        <ele>166.2</ele>
        <time>2015-10-03T10:58:03Z</time>
      </trkpt>
      <trkpt lat="44.88593" lon="1.21648">
        <ele>166</ele>
        <time>2015-10-03T10:58:05Z</time>
      </trkpt>
      <trkpt lat="44.88589" lon="1.21648">
        <ele>165.8</ele>
        <time>2015-10-03T10:58:06Z</time>
      </trkpt>
      <trkpt lat="44.88584" lon="1.21646">
        <ele>165.8</ele>
        <time>2015-10-03T10:58:08Z</time>
      </trkpt>
      <trkpt lat="44.88573" lon="1.21644">
        <ele>166.6</ele>
        <time>2015-10-03T10:58:13Z</time>
      </trkpt>
      <trkpt lat="44.88558" lon="1.21642">
        <ele>167.2</ele>
        <time>2015-10-03T10:58:18Z</time>
      </trkpt>
      <trkpt lat="44.88555" lon="1.21642">
        <ele>167.4</ele>
        <time>2015-10-03T10:58:19Z</time>
      </trkpt>
      <trkpt lat="44.88533" lon="1.21637">
        <ele>167.8</ele>
        <time>2015-10-03T10:58:26Z</time>
      </trkpt>
      <trkpt lat="44.88529" lon="1.21637">
        <ele>168.2</ele>
        <time>2015-10-03T10:58:27Z</time>
      </trkpt>
      <trkpt lat="44.88513" lon="1.21634">
        <ele>169</ele>
        <time>2015-10-03T10:58:32Z</time>
      </trkpt>
      <trkpt lat="44.8851" lon="1.21633">
        <ele>169.4</ele>
        <time>2015-10-03T10:58:33Z</time>
      </trkpt>
      <trkpt lat="44.88504" lon="1.21632">
        <ele>168.2</ele>
        <time>2015-10-03T10:58:36Z</time>
      </trkpt>
      <trkpt lat="44.885" lon="1.2163">
        <ele>169.2</ele>
        <time>2015-10-03T10:58:38Z</time>
      </trkpt>
      <trkpt lat="44.88493" lon="1.21629">
        <ele>169.8</ele>
        <time>2015-10-03T10:58:41Z</time>
      </trkpt>
      <trkpt lat="44.88482" lon="1.21626">
        <ele>170</ele>
        <time>2015-10-03T10:58:45Z</time>
      </trkpt>
      <trkpt lat="44.8846" lon="1.21623">
        <ele>170.4</ele>
        <time>2015-10-03T10:58:51Z</time>
      </trkpt>
      <trkpt lat="44.88434" lon="1.21618">
        <ele>170.6</ele>
        <time>2015-10-03T10:58:58Z</time>
      </trkpt>
      <trkpt lat="44.88416" lon="1.21614">
        <ele>170.4</ele>
        <time>2015-10-03T10:59:03Z</time>
      </trkpt>
      <trkpt lat="44.88388" lon="1.21608">
        <ele>170.4</ele>
        <time>2015-10-03T10:59:10Z</time>
      </trkpt>
      <trkpt lat="44.88359" lon="1.21606">
        <ele>170.2</ele>
        <time>2015-10-03T10:59:17Z</time>
      </trkpt>
      <trkpt lat="44.88344" lon="1.21601">
        <ele>170</ele>
        <time>2015-10-03T10:59:23Z</time>
      </trkpt>
      <trkpt lat="44.88329" lon="1.21599">
        <ele>170</ele>
        <time>2015-10-03T10:59:28Z</time>
      </trkpt>
      <trkpt lat="44.88321" lon="1.21599">
        <ele>169.4</ele>
        <time>2015-10-03T10:59:30Z</time>
      </trkpt>
      <trkpt lat="44.88306" lon="1.21597">
        <ele>169</ele>
        <time>2015-10-03T10:59:33Z</time>
      </trkpt>
      <trkpt lat="44.8829" lon="1.21594">
        <ele>168.6</ele>
        <time>2015-10-03T10:59:36Z</time>
      </trkpt>
      <trkpt lat="44.88266" lon="1.2159">
        <ele>167.8</ele>
        <time>2015-10-03T10:59:40Z</time>
      </trkpt>
      <trkpt lat="44.8826" lon="1.21588">
        <ele>167.4</ele>
        <time>2015-10-03T10:59:41Z</time>
      </trkpt>
      <trkpt lat="44.88226" lon="1.21581">
        <ele>166.2</ele>
        <time>2015-10-03T10:59:46Z</time>
      </trkpt>
      <trkpt lat="44.88219" lon="1.2158">
        <ele>166.2</ele>
        <time>2015-10-03T10:59:47Z</time>
      </trkpt>
      <trkpt lat="44.88197" lon="1.21577">
        <ele>165.2</ele>
        <time>2015-10-03T10:59:50Z</time>
      </trkpt>
      <trkpt lat="44.88165" lon="1.21572">
        <ele>164.4</ele>
        <time>2015-10-03T10:59:55Z</time>
      </trkpt>
      <trkpt lat="44.88158" lon="1.21571">
        <ele>164.2</ele>
        <time>2015-10-03T10:59:56Z</time>
      </trkpt>
      <trkpt lat="44.88108" lon="1.21561">
        <ele>163.4</ele>
        <time>2015-10-03T11:00:04Z</time>
      </trkpt>
      <trkpt lat="44.88083" lon="1.21557">
        <ele>163.2</ele>
        <time>2015-10-03T11:00:08Z</time>
      </trkpt>
      <trkpt lat="44.88057" lon="1.21554">
        <ele>162.6</ele>
        <time>2015-10-03T11:00:12Z</time>
      </trkpt>
      <trkpt lat="44.88037" lon="1.21555">
        <ele>162</ele>
        <time>2015-10-03T11:00:15Z</time>
      </trkpt>
      <trkpt lat="44.88023" lon="1.21558">
        <ele>161.6</ele>
        <time>2015-10-03T11:00:17Z</time>
      </trkpt>
      <trkpt lat="44.87984" lon="1.21574">
        <ele>161</ele>
        <time>2015-10-03T11:00:23Z</time>
      </trkpt>
      <trkpt lat="44.87977" lon="1.21578">
        <ele>161</ele>
        <time>2015-10-03T11:00:24Z</time>
      </trkpt>
      <trkpt lat="44.87947" lon="1.21599">
        <ele>160</ele>
        <time>2015-10-03T11:00:29Z</time>
      </trkpt>
      <trkpt lat="44.87941" lon="1.21603">
        <ele>159.6</ele>
        <time>2015-10-03T11:00:30Z</time>
      </trkpt>
      <trkpt lat="44.87921" lon="1.21616">
        <ele>158.8</ele>
        <time>2015-10-03T11:00:34Z</time>
      </trkpt>
      <trkpt lat="44.87916" lon="1.21619">
        <ele>158.4</ele>
        <time>2015-10-03T11:00:35Z</time>
      </trkpt>
      <trkpt lat="44.87902" lon="1.21618">
        <ele>158.2</ele>
        <time>2015-10-03T11:00:38Z</time>
      </trkpt>
      <trkpt lat="44.87898" lon="1.21617">
        <ele>158.4</ele>
        <time>2015-10-03T11:00:39Z</time>
      </trkpt>
      <trkpt lat="44.87889" lon="1.21612">
        <ele>158.2</ele>
        <time>2015-10-03T11:00:42Z</time>
      </trkpt>
      <trkpt lat="44.87887" lon="1.2161">
        <ele>158.2</ele>
        <time>2015-10-03T11:00:43Z</time>
      </trkpt>
      <trkpt lat="44.87874" lon="1.21597">
        <ele>158.8</ele>
        <time>2015-10-03T11:00:48Z</time>
      </trkpt>
      <trkpt lat="44.87859" lon="1.2157">
        <ele>159</ele>
        <time>2015-10-03T11:00:54Z</time>
      </trkpt>
      <trkpt lat="44.87854" lon="1.21561">
        <ele>159.8</ele>
        <time>2015-10-03T11:00:56Z</time>
      </trkpt>
      <trkpt lat="44.87843" lon="1.21541">
        <ele>159.8</ele>
        <time>2015-10-03T11:01:01Z</time>
      </trkpt>
      <trkpt lat="44.87839" lon="1.21537">
        <ele>160</ele>
        <time>2015-10-03T11:01:02Z</time>
      </trkpt>
      <trkpt lat="44.87827" lon="1.21521">
        <ele>160.4</ele>
        <time>2015-10-03T11:01:06Z</time>
      </trkpt>
      <trkpt lat="44.87826" lon="1.21515">
        <ele>160.4</ele>
        <time>2015-10-03T11:01:07Z</time>
      </trkpt>
      <trkpt lat="44.87822" lon="1.21496">
        <ele>160.8</ele>
        <time>2015-10-03T11:01:10Z</time>
      </trkpt>
      <trkpt lat="44.87818" lon="1.2148">
        <ele>161.6</ele>
        <time>2015-10-03T11:01:13Z</time>
      </trkpt>
      <trkpt lat="44.87814" lon="1.21466">
        <ele>161.8</ele>
        <time>2015-10-03T11:01:16Z</time>
      </trkpt>
      <trkpt lat="44.8781" lon="1.21455">
        <ele>162</ele>
        <time>2015-10-03T11:01:18Z</time>
      </trkpt>
      <trkpt lat="44.87807" lon="1.2145">
        <ele>162</ele>
        <time>2015-10-03T11:01:19Z</time>
      </trkpt>
      <trkpt lat="44.87793" lon="1.21429">
        <ele>162.8</ele>
        <time>2015-10-03T11:01:24Z</time>
      </trkpt>
      <trkpt lat="44.8779" lon="1.21426">
        <ele>162.8</ele>
        <time>2015-10-03T11:01:25Z</time>
      </trkpt>
      <trkpt lat="44.87779" lon="1.21413">
        <ele>163.4</ele>
        <time>2015-10-03T11:01:29Z</time>
      </trkpt>
      <trkpt lat="44.87766" lon="1.21402">
        <ele>163.8</ele>
        <time>2015-10-03T11:01:34Z</time>
      </trkpt>
      <trkpt lat="44.87759" lon="1.21396">
        <ele>164.2</ele>
        <time>2015-10-03T11:01:36Z</time>
      </trkpt>
      <trkpt lat="44.87742" lon="1.21382">
        <ele>165.2</ele>
        <time>2015-10-03T11:01:41Z</time>
      </trkpt>
      <trkpt lat="44.87726" lon="1.21359">
        <ele>166.4</ele>
        <time>2015-10-03T11:01:47Z</time>
      </trkpt>
      <trkpt lat="44.87717" lon="1.2134">
        <ele>166.8</ele>
        <time>2015-10-03T11:01:51Z</time>
      </trkpt>
      <trkpt lat="44.87706" lon="1.21336">
        <ele>167.4</ele>
        <time>2015-10-03T11:01:54Z</time>
      </trkpt>
      <trkpt lat="44.87702" lon="1.21336">
        <ele>167.4</ele>
        <time>2015-10-03T11:01:55Z</time>
      </trkpt>
      <trkpt lat="44.8769" lon="1.2134">
        <ele>168</ele>
        <time>2015-10-03T11:01:58Z</time>
      </trkpt>
      <trkpt lat="44.87687" lon="1.21341">
        <ele>168</ele>
        <time>2015-10-03T11:01:59Z</time>
      </trkpt>
      <trkpt lat="44.87683" lon="1.2134">
        <ele>168.2</ele>
        <time>2015-10-03T11:02:00Z</time>
      </trkpt>
      <trkpt lat="44.87675" lon="1.21337">
        <ele>168.8</ele>
        <time>2015-10-03T11:02:02Z</time>
      </trkpt>
      <trkpt lat="44.87671" lon="1.21335">
        <ele>169</ele>
        <time>2015-10-03T11:02:03Z</time>
      </trkpt>
      <trkpt lat="44.87657" lon="1.21326">
        <ele>169.8</ele>
        <time>2015-10-03T11:02:07Z</time>
      </trkpt>
      <trkpt lat="44.87651" lon="1.21321">
        <ele>170.2</ele>
        <time>2015-10-03T11:02:09Z</time>
      </trkpt>
      <trkpt lat="44.87642" lon="1.21315">
        <ele>171</ele>
        <time>2015-10-03T11:02:12Z</time>
      </trkpt>
      <trkpt lat="44.87632" lon="1.21308">
        <ele>171.4</ele>
        <time>2015-10-03T11:02:15Z</time>
      </trkpt>
      <trkpt lat="44.87625" lon="1.21303">
        <ele>171.8</ele>
        <time>2015-10-03T11:02:17Z</time>
      </trkpt>
      <trkpt lat="44.87621" lon="1.213">
        <ele>172</ele>
        <time>2015-10-03T11:02:18Z</time>
      </trkpt>
      <trkpt lat="44.87605" lon="1.2129">
        <ele>172.8</ele>
        <time>2015-10-03T11:02:23Z</time>
      </trkpt>
      <trkpt lat="44.876" lon="1.21285">
        <ele>173</ele>
        <time>2015-10-03T11:02:25Z</time>
      </trkpt>
      <trkpt lat="44.87596" lon="1.21273">
        <ele>173.8</ele>
        <time>2015-10-03T11:02:28Z</time>
      </trkpt>
      <trkpt lat="44.87595" lon="1.21259">
        <ele>174</ele>
        <time>2015-10-03T11:02:32Z</time>
      </trkpt>
      <trkpt lat="44.87593" lon="1.21257">
        <ele>174</ele>
        <time>2015-10-03T11:02:33Z</time>
      </trkpt>
      <trkpt lat="44.87591" lon="1.21257">
        <ele>174.2</ele>
        <time>2015-10-03T11:02:34Z</time>
      </trkpt>
      <trkpt lat="44.87586" lon="1.21261">
        <ele>174</ele>
        <time>2015-10-03T11:02:37Z</time>
      </trkpt>
      <trkpt lat="44.87578" lon="1.21268">
        <ele>173.6</ele>
        <time>2015-10-03T11:02:40Z</time>
      </trkpt>
      <trkpt lat="44.87572" lon="1.21271">
        <ele>173.6</ele>
        <time>2015-10-03T11:02:42Z</time>
      </trkpt>
      <trkpt lat="44.87562" lon="1.21266">
        <ele>173.2</ele>
        <time>2015-10-03T11:02:46Z</time>
      </trkpt>
      <trkpt lat="44.87556" lon="1.21261">
        <ele>173.4</ele>
        <time>2015-10-03T11:03:24Z</time>
      </trkpt>
      <trkpt lat="44.87551" lon="1.21258">
        <ele>173.4</ele>
        <time>2015-10-03T11:03:26Z</time>
      </trkpt>
      <trkpt lat="44.87544" lon="1.21253">
        <ele>173</ele>
        <time>2015-10-03T11:03:28Z</time>
      </trkpt>
      <trkpt lat="44.87527" lon="1.21242">
        <ele>171.8</ele>
        <time>2015-10-03T11:03:33Z</time>
      </trkpt>
      <trkpt lat="44.87524" lon="1.2124">
        <ele>173</ele>
        <time>2015-10-03T11:03:34Z</time>
      </trkpt>
      <trkpt lat="44.87501" lon="1.21226">
        <ele>172.2</ele>
        <time>2015-10-03T11:03:40Z</time>
      </trkpt>
      <trkpt lat="44.87488" lon="1.21219">
        <ele>172</ele>
        <time>2015-10-03T11:03:43Z</time>
      </trkpt>
      <trkpt lat="44.8747" lon="1.21207">
        <ele>171.2</ele>
        <time>2015-10-03T11:03:47Z</time>
      </trkpt>
      <trkpt lat="44.87465" lon="1.21205">
        <ele>171</ele>
        <time>2015-10-03T11:03:48Z</time>
      </trkpt>
      <trkpt lat="44.87441" lon="1.21191">
        <ele>170</ele>
        <time>2015-10-03T11:03:53Z</time>
      </trkpt>
      <trkpt lat="44.87436" lon="1.21187">
        <ele>169.6</ele>
        <time>2015-10-03T11:03:54Z</time>
      </trkpt>
      <trkpt lat="44.87415" lon="1.21173">
        <ele>168.6</ele>
        <time>2015-10-03T11:03:58Z</time>
      </trkpt>
      <trkpt lat="44.87404" lon="1.21166">
        <ele>168.2</ele>
        <time>2015-10-03T11:04:00Z</time>
      </trkpt>
      <trkpt lat="44.87386" lon="1.21155">
        <ele>167.2</ele>
        <time>2015-10-03T11:04:03Z</time>
      </trkpt>
      <trkpt lat="44.87364" lon="1.21142">
        <ele>166</ele>
        <time>2015-10-03T11:04:07Z</time>
      </trkpt>
      <trkpt lat="44.87344" lon="1.2113">
        <ele>164.8</ele>
        <time>2015-10-03T11:04:11Z</time>
      </trkpt>
      <trkpt lat="44.87334" lon="1.21124">
        <ele>164.2</ele>
        <time>2015-10-03T11:04:13Z</time>
      </trkpt>
      <trkpt lat="44.87317" lon="1.21114">
        <ele>163.6</ele>
        <time>2015-10-03T11:04:16Z</time>
      </trkpt>
      <trkpt lat="44.87288" lon="1.21094">
        <ele>162.6</ele>
        <time>2015-10-03T11:04:21Z</time>
      </trkpt>
      <trkpt lat="44.87277" lon="1.21082">
        <ele>161.4</ele>
        <time>2015-10-03T11:04:23Z</time>
      </trkpt>
      <trkpt lat="44.87272" lon="1.21075">
        <ele>161</ele>
        <time>2015-10-03T11:04:24Z</time>
      </trkpt>
      <trkpt lat="44.87267" lon="1.21067">
        <ele>160.8</ele>
        <time>2015-10-03T11:04:25Z</time>
      </trkpt>
      <trkpt lat="44.87259" lon="1.21049">
        <ele>160</ele>
        <time>2015-10-03T11:04:27Z</time>
      </trkpt>
      <trkpt lat="44.87248" lon="1.21021">
        <ele>158.8</ele>
        <time>2015-10-03T11:04:30Z</time>
      </trkpt>
      <trkpt lat="44.87244" lon="1.21012">
        <ele>158.4</ele>
        <time>2015-10-03T11:04:31Z</time>
      </trkpt>
      <trkpt lat="44.87236" lon="1.20995">
        <ele>157.6</ele>
        <time>2015-10-03T11:04:33Z</time>
      </trkpt>
      <trkpt lat="44.87219" lon="1.20971">
        <ele>156.4</ele>
        <time>2015-10-03T11:04:36Z</time>
      </trkpt>
      <trkpt lat="44.87198" lon="1.20953">
        <ele>155</ele>
        <time>2015-10-03T11:04:39Z</time>
      </trkpt>
      <trkpt lat="44.8719" lon="1.20948">
        <ele>154.4</ele>
        <time>2015-10-03T11:04:40Z</time>
      </trkpt>
      <trkpt lat="44.87182" lon="1.20943">
        <ele>153.8</ele>
        <time>2015-10-03T11:04:41Z</time>
      </trkpt>
      <trkpt lat="44.87159" lon="1.20928">
        <ele>152.6</ele>
        <time>2015-10-03T11:04:44Z</time>
      </trkpt>
      <trkpt lat="44.87153" lon="1.20919">
        <ele>152.4</ele>
        <time>2015-10-03T11:04:45Z</time>
      </trkpt>
      <trkpt lat="44.87142" lon="1.20903">
        <ele>152.4</ele>
        <time>2015-10-03T11:04:47Z</time>
      </trkpt>
      <trkpt lat="44.87134" lon="1.20887">
        <ele>152.6</ele>
        <time>2015-10-03T11:04:49Z</time>
      </trkpt>
      <trkpt lat="44.8713" lon="1.20871">
        <ele>152.6</ele>
        <time>2015-10-03T11:04:51Z</time>
      </trkpt>
      <trkpt lat="44.87126" lon="1.20857">
        <ele>152.8</ele>
        <time>2015-10-03T11:04:53Z</time>
      </trkpt>
      <trkpt lat="44.87117" lon="1.2082">
        <ele>153.6</ele>
        <time>2015-10-03T11:04:59Z</time>
      </trkpt>
      <trkpt lat="44.87116" lon="1.20814">
        <ele>153.8</ele>
        <time>2015-10-03T11:05:00Z</time>
      </trkpt>
      <trkpt lat="44.87113" lon="1.20803">
        <ele>154</ele>
        <time>2015-10-03T11:05:02Z</time>
      </trkpt>
      <trkpt lat="44.87108" lon="1.20781">
        <ele>154.6</ele>
        <time>2015-10-03T11:05:06Z</time>
      </trkpt>
      <trkpt lat="44.87105" lon="1.20772">
        <ele>154.8</ele>
        <time>2015-10-03T11:05:08Z</time>
      </trkpt>
      <trkpt lat="44.87099" lon="1.20749">
        <ele>155.2</ele>
        <time>2015-10-03T11:05:13Z</time>
      </trkpt>
      <trkpt lat="44.87094" lon="1.20729">
        <ele>155.8</ele>
        <time>2015-10-03T11:05:17Z</time>
      </trkpt>
      <trkpt lat="44.8709" lon="1.20714">
        <ele>155.8</ele>
        <time>2015-10-03T11:05:20Z</time>
      </trkpt>
      <trkpt lat="44.87075" lon="1.20668">
        <ele>156.2</ele>
        <time>2015-10-03T11:05:29Z</time>
      </trkpt>
      <trkpt lat="44.87057" lon="1.20628">
        <ele>156.6</ele>
        <time>2015-10-03T11:05:37Z</time>
      </trkpt>
      <trkpt lat="44.87052" lon="1.20619">
        <ele>156.8</ele>
        <time>2015-10-03T11:05:39Z</time>
      </trkpt>
      <trkpt lat="44.87034" lon="1.20588">
        <ele>157.2</ele>
        <time>2015-10-03T11:05:46Z</time>
      </trkpt>
      <trkpt lat="44.87014" lon="1.20562">
        <ele>157.8</ele>
        <time>2015-10-03T11:05:53Z</time>
      </trkpt>
      <trkpt lat="44.87012" lon="1.20559">
        <ele>158</ele>
        <time>2015-10-03T11:05:54Z</time>
      </trkpt>
      <trkpt lat="44.86989" lon="1.20533">
        <ele>158.4</ele>
        <time>2015-10-03T11:06:02Z</time>
      </trkpt>
      <trkpt lat="44.86974" lon="1.20518">
        <ele>158.8</ele>
        <time>2015-10-03T11:06:07Z</time>
      </trkpt>
      <trkpt lat="44.86962" lon="1.20507">
        <ele>159</ele>
        <time>2015-10-03T11:06:11Z</time>
      </trkpt>
      <trkpt lat="44.86937" lon="1.2049">
        <ele>160</ele>
        <time>2015-10-03T11:06:19Z</time>
      </trkpt>
      <trkpt lat="44.86934" lon="1.20488">
        <ele>160</ele>
        <time>2015-10-03T11:06:20Z</time>
      </trkpt>
      <trkpt lat="44.86915" lon="1.20478">
        <ele>160.6</ele>
        <time>2015-10-03T11:06:27Z</time>
      </trkpt>
      <trkpt lat="44.86906" lon="1.20475">
        <ele>161</ele>
        <time>2015-10-03T11:06:30Z</time>
      </trkpt>
      <trkpt lat="44.86891" lon="1.20469">
        <ele>161.8</ele>
        <time>2015-10-03T11:06:35Z</time>
      </trkpt>
      <trkpt lat="44.86882" lon="1.20466">
        <ele>162.2</ele>
        <time>2015-10-03T11:06:38Z</time>
      </trkpt>
      <trkpt lat="44.86864" lon="1.20462">
        <ele>163</ele>
        <time>2015-10-03T11:06:44Z</time>
      </trkpt>
      <trkpt lat="44.86861" lon="1.20462">
        <ele>163.2</ele>
        <time>2015-10-03T11:06:45Z</time>
      </trkpt>
      <trkpt lat="44.86841" lon="1.2046">
        <ele>164</ele>
        <time>2015-10-03T11:06:52Z</time>
      </trkpt>
      <trkpt lat="44.8683" lon="1.20459">
        <ele>164.8</ele>
        <time>2015-10-03T11:06:56Z</time>
      </trkpt>
      <trkpt lat="44.86816" lon="1.20456">
        <ele>165.4</ele>
        <time>2015-10-03T11:07:01Z</time>
      </trkpt>
      <trkpt lat="44.86808" lon="1.20455">
        <ele>165.8</ele>
        <time>2015-10-03T11:07:04Z</time>
      </trkpt>
      <trkpt lat="44.86791" lon="1.20453">
        <ele>166.8</ele>
        <time>2015-10-03T11:07:10Z</time>
      </trkpt>
      <trkpt lat="44.86788" lon="1.20452">
        <ele>166.8</ele>
        <time>2015-10-03T11:07:11Z</time>
      </trkpt>
      <trkpt lat="44.8677" lon="1.20451">
        <ele>168</ele>
        <time>2015-10-03T11:07:17Z</time>
      </trkpt>
      <trkpt lat="44.86758" lon="1.20449">
        <ele>168.8</ele>
        <time>2015-10-03T11:07:21Z</time>
      </trkpt>
      <trkpt lat="44.86752" lon="1.20448">
        <ele>169.2</ele>
        <time>2015-10-03T11:07:23Z</time>
      </trkpt>
      <trkpt lat="44.86736" lon="1.20447">
        <ele>170.4</ele>
        <time>2015-10-03T11:07:28Z</time>
      </trkpt>
      <trkpt lat="44.86733" lon="1.20447">
        <ele>170.4</ele>
        <time>2015-10-03T11:07:29Z</time>
      </trkpt>
      <trkpt lat="44.86723" lon="1.20444">
        <ele>171.4</ele>
        <time>2015-10-03T11:07:34Z</time>
      </trkpt>
      <trkpt lat="44.86722" lon="1.20443">
        <ele>171.6</ele>
        <time>2015-10-03T11:07:35Z</time>
      </trkpt>
      <trkpt lat="44.8672" lon="1.20442">
        <ele>171.6</ele>
        <time>2015-10-03T11:07:36Z</time>
      </trkpt>
      <trkpt lat="44.86718" lon="1.20442">
        <ele>171.8</ele>
        <time>2015-10-03T11:07:40Z</time>
      </trkpt>
      <trkpt lat="44.86717" lon="1.20442">
        <ele>172.8</ele>
        <time>2015-10-03T11:08:53Z</time>
      </trkpt>
      <trkpt lat="44.86713" lon="1.20444">
        <ele>173</ele>
        <time>2015-10-03T11:08:55Z</time>
      </trkpt>
      <trkpt lat="44.86702" lon="1.20443">
        <ele>174</ele>
        <time>2015-10-03T11:08:59Z</time>
      </trkpt>
      <trkpt lat="44.86699" lon="1.20443">
        <ele>174.2</ele>
        <time>2015-10-03T11:09:00Z</time>
      </trkpt>
      <trkpt lat="44.86691" lon="1.20443">
        <ele>175</ele>
        <time>2015-10-03T11:09:03Z</time>
      </trkpt>
      <trkpt lat="44.86681" lon="1.20443">
        <ele>175.8</ele>
        <time>2015-10-03T11:09:07Z</time>
      </trkpt>
      <trkpt lat="44.86679" lon="1.20442">
        <ele>176</ele>
        <time>2015-10-03T11:09:08Z</time>
      </trkpt>
      <trkpt lat="44.8667" lon="1.2044">
        <ele>177</ele>
        <time>2015-10-03T11:09:13Z</time>
      </trkpt>
      <trkpt lat="44.8666" lon="1.20437">
        <ele>178.2</ele>
        <time>2015-10-03T11:09:19Z</time>
      </trkpt>
      <trkpt lat="44.86651" lon="1.20433">
        <ele>179.2</ele>
        <time>2015-10-03T11:09:25Z</time>
      </trkpt>
      <trkpt lat="44.86649" lon="1.20432">
        <ele>179.4</ele>
        <time>2015-10-03T11:09:26Z</time>
      </trkpt>
      <trkpt lat="44.86639" lon="1.20429">
        <ele>180.4</ele>
        <time>2015-10-03T11:09:32Z</time>
      </trkpt>
      <trkpt lat="44.8663" lon="1.20424">
        <ele>181.4</ele>
        <time>2015-10-03T11:09:37Z</time>
      </trkpt>
      <trkpt lat="44.86626" lon="1.20422">
        <ele>181.6</ele>
        <time>2015-10-03T11:09:39Z</time>
      </trkpt>
      <trkpt lat="44.86619" lon="1.2042">
        <ele>182.4</ele>
        <time>2015-10-03T11:09:43Z</time>
      </trkpt>
      <trkpt lat="44.86614" lon="1.20417">
        <ele>183</ele>
        <time>2015-10-03T11:09:46Z</time>
      </trkpt>
      <trkpt lat="44.86609" lon="1.20414">
        <ele>183.4</ele>
        <time>2015-10-03T11:09:49Z</time>
      </trkpt>
      <trkpt lat="44.86604" lon="1.20409">
        <ele>184</ele>
        <time>2015-10-03T11:09:52Z</time>
      </trkpt>
      <trkpt lat="44.86599" lon="1.20403">
        <ele>184.6</ele>
        <time>2015-10-03T11:09:56Z</time>
      </trkpt>
      <trkpt lat="44.86592" lon="1.204">
        <ele>185.4</ele>
        <time>2015-10-03T11:10:00Z</time>
      </trkpt>
      <trkpt lat="44.86588" lon="1.20396">
        <ele>185.8</ele>
        <time>2015-10-03T11:10:03Z</time>
      </trkpt>
      <trkpt lat="44.86581" lon="1.2039">
        <ele>186.6</ele>
        <time>2015-10-03T11:10:08Z</time>
      </trkpt>
      <trkpt lat="44.86579" lon="1.20386">
        <ele>187</ele>
        <time>2015-10-03T11:10:10Z</time>
      </trkpt>
      <trkpt lat="44.86572" lon="1.20375">
        <ele>188</ele>
        <time>2015-10-03T11:10:16Z</time>
      </trkpt>
      <trkpt lat="44.8657" lon="1.20373">
        <ele>188.2</ele>
        <time>2015-10-03T11:10:17Z</time>
      </trkpt>
      <trkpt lat="44.86564" lon="1.20363">
        <ele>189.4</ele>
        <time>2015-10-03T11:10:22Z</time>
      </trkpt>
      <trkpt lat="44.86559" lon="1.20354">
        <ele>190</ele>
        <time>2015-10-03T11:10:27Z</time>
      </trkpt>
      <trkpt lat="44.86558" lon="1.20351">
        <ele>190.4</ele>
        <time>2015-10-03T11:10:29Z</time>
      </trkpt>
      <trkpt lat="44.86555" lon="1.20342">
        <ele>191.2</ele>
        <time>2015-10-03T11:10:34Z</time>
      </trkpt>
      <trkpt lat="44.86552" lon="1.20337">
        <ele>191.6</ele>
        <time>2015-10-03T11:10:36Z</time>
      </trkpt>
      <trkpt lat="44.86548" lon="1.20328">
        <ele>192.2</ele>
        <time>2015-10-03T11:10:40Z</time>
      </trkpt>
      <trkpt lat="44.86546" lon="1.20325">
        <ele>192.6</ele>
        <time>2015-10-03T11:10:41Z</time>
      </trkpt>
      <trkpt lat="44.86541" lon="1.20314">
        <ele>193.8</ele>
        <time>2015-10-03T11:10:45Z</time>
      </trkpt>
      <trkpt lat="44.86537" lon="1.20308">
        <ele>194.2</ele>
        <time>2015-10-03T11:10:47Z</time>
      </trkpt>
      <trkpt lat="44.86531" lon="1.20299">
        <ele>195</ele>
        <time>2015-10-03T11:10:50Z</time>
      </trkpt>
      <trkpt lat="44.86523" lon="1.20286">
        <ele>196.2</ele>
        <time>2015-10-03T11:10:54Z</time>
      </trkpt>
      <trkpt lat="44.86514" lon="1.20276">
        <ele>197.2</ele>
        <time>2015-10-03T11:10:58Z</time>
      </trkpt>
      <trkpt lat="44.86507" lon="1.20266">
        <ele>198.2</ele>
        <time>2015-10-03T11:11:02Z</time>
      </trkpt>
      <trkpt lat="44.86504" lon="1.20263">
        <ele>198.4</ele>
        <time>2015-10-03T11:11:04Z</time>
      </trkpt>
      <trkpt lat="44.86502" lon="1.20261">
        <ele>198.8</ele>
        <time>2015-10-03T11:11:08Z</time>
      </trkpt>
      <trkpt lat="44.86497" lon="1.20257">
        <ele>199.8</ele>
        <time>2015-10-03T11:11:47Z</time>
      </trkpt>
      <trkpt lat="44.86494" lon="1.20255">
        <ele>200.2</ele>
        <time>2015-10-03T11:11:49Z</time>
      </trkpt>
      <trkpt lat="44.86486" lon="1.20248">
        <ele>201</ele>
        <time>2015-10-03T11:11:53Z</time>
      </trkpt>
      <trkpt lat="44.86484" lon="1.20247">
        <ele>201.4</ele>
        <time>2015-10-03T11:11:54Z</time>
      </trkpt>
      <trkpt lat="44.86479" lon="1.20242">
        <ele>202</ele>
        <time>2015-10-03T11:11:57Z</time>
      </trkpt>
      <trkpt lat="44.8647" lon="1.20239">
        <ele>202.8</ele>
        <time>2015-10-03T11:12:02Z</time>
      </trkpt>
      <trkpt lat="44.86467" lon="1.20239">
        <ele>203.2</ele>
        <time>2015-10-03T11:12:04Z</time>
      </trkpt>
      <trkpt lat="44.86457" lon="1.20238">
        <ele>204</ele>
        <time>2015-10-03T11:12:09Z</time>
      </trkpt>
      <trkpt lat="44.86455" lon="1.20238">
        <ele>204.2</ele>
        <time>2015-10-03T11:12:10Z</time>
      </trkpt>
      <trkpt lat="44.8644" lon="1.20237">
        <ele>205.4</ele>
        <time>2015-10-03T11:12:17Z</time>
      </trkpt>
      <trkpt lat="44.86429" lon="1.20235">
        <ele>206.4</ele>
        <time>2015-10-03T11:12:24Z</time>
      </trkpt>
      <trkpt lat="44.86428" lon="1.20234">
        <ele>206.4</ele>
        <time>2015-10-03T11:12:25Z</time>
      </trkpt>
      <trkpt lat="44.86427" lon="1.20234">
        <ele>206.8</ele>
        <time>2015-10-03T11:12:33Z</time>
      </trkpt>
      <trkpt lat="44.86426" lon="1.20232">
        <ele>207</ele>
        <time>2015-10-03T11:12:40Z</time>
      </trkpt>
      <trkpt lat="44.86426" lon="1.20232">
        <ele>207.2</ele>
        <time>2015-10-03T11:12:41Z</time>
      </trkpt>
      <trkpt lat="44.86423" lon="1.20231">
        <ele>206</ele>
        <time>2015-10-03T11:17:25Z</time>
      </trkpt>
      <trkpt lat="44.86418" lon="1.20232">
        <ele>206.4</ele>
        <time>2015-10-03T11:17:27Z</time>
      </trkpt>
      <trkpt lat="44.86411" lon="1.20232">
        <ele>207</ele>
        <time>2015-10-03T11:17:30Z</time>
      </trkpt>
      <trkpt lat="44.86402" lon="1.20229">
        <ele>207.4</ele>
        <time>2015-10-03T11:17:34Z</time>
      </trkpt>
      <trkpt lat="44.86391" lon="1.20224">
        <ele>208.4</ele>
        <time>2015-10-03T11:17:40Z</time>
      </trkpt>
      <trkpt lat="44.86387" lon="1.20222">
        <ele>209</ele>
        <time>2015-10-03T11:17:42Z</time>
      </trkpt>
      <trkpt lat="44.8638" lon="1.20217">
        <ele>209.8</ele>
        <time>2015-10-03T11:17:46Z</time>
      </trkpt>
      <trkpt lat="44.86373" lon="1.20211">
        <ele>210.6</ele>
        <time>2015-10-03T11:17:50Z</time>
      </trkpt>
      <trkpt lat="44.8637" lon="1.20208">
        <ele>211</ele>
        <time>2015-10-03T11:17:52Z</time>
      </trkpt>
      <trkpt lat="44.86359" lon="1.202">
        <ele>210.6</ele>
        <time>2015-10-03T11:17:58Z</time>
      </trkpt>
      <trkpt lat="44.86356" lon="1.20198">
        <ele>212.4</ele>
        <time>2015-10-03T11:18:00Z</time>
      </trkpt>
      <trkpt lat="44.86348" lon="1.2019">
        <ele>213.2</ele>
        <time>2015-10-03T11:18:05Z</time>
      </trkpt>
      <trkpt lat="44.86344" lon="1.20187">
        <ele>213.4</ele>
        <time>2015-10-03T11:18:07Z</time>
      </trkpt>
      <trkpt lat="44.86339" lon="1.20184">
        <ele>214.8</ele>
        <time>2015-10-03T11:18:10Z</time>
      </trkpt>
      <trkpt lat="44.86332" lon="1.2018">
        <ele>214.8</ele>
        <time>2015-10-03T11:18:14Z</time>
      </trkpt>
      <trkpt lat="44.86326" lon="1.20175">
        <ele>216</ele>
        <time>2015-10-03T11:18:18Z</time>
      </trkpt>
      <trkpt lat="44.8632" lon="1.20169">
        <ele>215.8</ele>
        <time>2015-10-03T11:18:22Z</time>
      </trkpt>
      <trkpt lat="44.86308" lon="1.20161">
        <ele>217</ele>
        <time>2015-10-03T11:18:29Z</time>
      </trkpt>
      <trkpt lat="44.86305" lon="1.2016">
        <ele>217.4</ele>
        <time>2015-10-03T11:18:30Z</time>
      </trkpt>
      <trkpt lat="44.86293" lon="1.20148">
        <ele>218.4</ele>
        <time>2015-10-03T11:18:34Z</time>
      </trkpt>
      <trkpt lat="44.8629" lon="1.20147">
        <ele>218.8</ele>
        <time>2015-10-03T11:18:35Z</time>
      </trkpt>
      <trkpt lat="44.86282" lon="1.2014">
        <ele>219.8</ele>
        <time>2015-10-03T11:18:38Z</time>
      </trkpt>
      <trkpt lat="44.86268" lon="1.20132">
        <ele>220.8</ele>
        <time>2015-10-03T11:18:42Z</time>
      </trkpt>
      <trkpt lat="44.86258" lon="1.20125">
        <ele>222</ele>
        <time>2015-10-03T11:18:46Z</time>
      </trkpt>
      <trkpt lat="44.86247" lon="1.2012">
        <ele>223</ele>
        <time>2015-10-03T11:18:49Z</time>
      </trkpt>
      <trkpt lat="44.8624" lon="1.20118">
        <ele>223.6</ele>
        <time>2015-10-03T11:18:51Z</time>
      </trkpt>
      <trkpt lat="44.86234" lon="1.20117">
        <ele>224.2</ele>
        <time>2015-10-03T11:18:53Z</time>
      </trkpt>
      <trkpt lat="44.86225" lon="1.20115">
        <ele>225.2</ele>
        <time>2015-10-03T11:18:56Z</time>
      </trkpt>
      <trkpt lat="44.86222" lon="1.20115">
        <ele>225.2</ele>
        <time>2015-10-03T11:18:57Z</time>
      </trkpt>
      <trkpt lat="44.86208" lon="1.20116">
        <ele>226.6</ele>
        <time>2015-10-03T11:19:01Z</time>
      </trkpt>
      <trkpt lat="44.86197" lon="1.20118">
        <ele>227.4</ele>
        <time>2015-10-03T11:19:04Z</time>
      </trkpt>
      <trkpt lat="44.86191" lon="1.20119">
        <ele>227.8</ele>
        <time>2015-10-03T11:19:06Z</time>
      </trkpt>
      <trkpt lat="44.86175" lon="1.20124">
        <ele>229</ele>
        <time>2015-10-03T11:19:11Z</time>
      </trkpt>
      <trkpt lat="44.86172" lon="1.20124">
        <ele>229.2</ele>
        <time>2015-10-03T11:19:12Z</time>
      </trkpt>
      <trkpt lat="44.8616" lon="1.20126">
        <ele>230.2</ele>
        <time>2015-10-03T11:19:16Z</time>
      </trkpt>
      <trkpt lat="44.86151" lon="1.20125">
        <ele>230.8</ele>
        <time>2015-10-03T11:19:19Z</time>
      </trkpt>
      <trkpt lat="44.86145" lon="1.20123">
        <ele>231.2</ele>
        <time>2015-10-03T11:19:21Z</time>
      </trkpt>
      <trkpt lat="44.86134" lon="1.2012">
        <ele>232.4</ele>
        <time>2015-10-03T11:19:25Z</time>
      </trkpt>
      <trkpt lat="44.86127" lon="1.20117">
        <ele>233</ele>
        <time>2015-10-03T11:19:28Z</time>
      </trkpt>
      <trkpt lat="44.86124" lon="1.20115">
        <ele>233.4</ele>
        <time>2015-10-03T11:19:29Z</time>
      </trkpt>
      <trkpt lat="44.86112" lon="1.2011">
        <ele>234.4</ele>
        <time>2015-10-03T11:19:34Z</time>
      </trkpt>
      <trkpt lat="44.86109" lon="1.20109">
        <ele>234.8</ele>
        <time>2015-10-03T11:19:35Z</time>
      </trkpt>
      <trkpt lat="44.86098" lon="1.20105">
        <ele>235.6</ele>
        <time>2015-10-03T11:19:39Z</time>
      </trkpt>
      <trkpt lat="44.86084" lon="1.201">
        <ele>236.8</ele>
        <time>2015-10-03T11:19:44Z</time>
      </trkpt>
      <trkpt lat="44.86081" lon="1.20099">
        <ele>237</ele>
        <time>2015-10-03T11:19:45Z</time>
      </trkpt>
      <trkpt lat="44.86076" lon="1.20097">
        <ele>237.8</ele>
        <time>2015-10-03T11:19:47Z</time>
      </trkpt>
      <trkpt lat="44.86065" lon="1.20094">
        <ele>238.6</ele>
        <time>2015-10-03T11:19:51Z</time>
      </trkpt>
      <trkpt lat="44.86059" lon="1.20093">
        <ele>239</ele>
        <time>2015-10-03T11:19:53Z</time>
      </trkpt>
      <trkpt lat="44.86047" lon="1.20094">
        <ele>239.8</ele>
        <time>2015-10-03T11:19:58Z</time>
      </trkpt>
      <trkpt lat="44.86045" lon="1.20095">
        <ele>240</ele>
        <time>2015-10-03T11:19:59Z</time>
      </trkpt>
      <trkpt lat="44.86032" lon="1.20097">
        <ele>241</ele>
        <time>2015-10-03T11:20:05Z</time>
      </trkpt>
      <trkpt lat="44.8603" lon="1.20097">
        <ele>241.2</ele>
        <time>2015-10-03T11:20:06Z</time>
      </trkpt>
      <trkpt lat="44.86019" lon="1.20101">
        <ele>242.2</ele>
        <time>2015-10-03T11:20:11Z</time>
      </trkpt>
      <trkpt lat="44.86015" lon="1.20103">
        <ele>242.6</ele>
        <time>2015-10-03T11:20:13Z</time>
      </trkpt>
      <trkpt lat="44.86009" lon="1.20106">
        <ele>243.2</ele>
        <time>2015-10-03T11:20:16Z</time>
      </trkpt>
      <trkpt lat="44.85999" lon="1.20113">
        <ele>244.2</ele>
        <time>2015-10-03T11:20:21Z</time>
      </trkpt>
      <trkpt lat="44.85996" lon="1.20115">
        <ele>244.4</ele>
        <time>2015-10-03T11:20:22Z</time>
      </trkpt>
      <trkpt lat="44.85982" lon="1.20126">
        <ele>245.8</ele>
        <time>2015-10-03T11:20:29Z</time>
      </trkpt>
      <trkpt lat="44.85972" lon="1.20134">
        <ele>246.8</ele>
        <time>2015-10-03T11:20:34Z</time>
      </trkpt>
      <trkpt lat="44.85964" lon="1.2014">
        <ele>247.4</ele>
        <time>2015-10-03T11:20:38Z</time>
      </trkpt>
      <trkpt lat="44.8596" lon="1.20143">
        <ele>247.8</ele>
        <time>2015-10-03T11:20:40Z</time>
      </trkpt>
      <trkpt lat="44.85947" lon="1.20152">
        <ele>248.8</ele>
        <time>2015-10-03T11:20:46Z</time>
      </trkpt>
      <trkpt lat="44.85938" lon="1.20159">
        <ele>249.6</ele>
        <time>2015-10-03T11:20:50Z</time>
      </trkpt>
      <trkpt lat="44.85937" lon="1.20161">
        <ele>250</ele>
        <time>2015-10-03T11:20:51Z</time>
      </trkpt>
      <trkpt lat="44.85926" lon="1.20171">
        <ele>251.2</ele>
        <time>2015-10-03T11:20:56Z</time>
      </trkpt>
      <trkpt lat="44.85922" lon="1.20174">
        <ele>251.4</ele>
        <time>2015-10-03T11:20:58Z</time>
      </trkpt>
      <trkpt lat="44.85916" lon="1.20181">
        <ele>252.2</ele>
        <time>2015-10-03T11:21:01Z</time>
      </trkpt>
      <trkpt lat="44.85908" lon="1.20191">
        <ele>253.6</ele>
        <time>2015-10-03T11:21:05Z</time>
      </trkpt>
      <trkpt lat="44.85902" lon="1.20199">
        <ele>254</ele>
        <time>2015-10-03T11:21:08Z</time>
      </trkpt>
      <trkpt lat="44.85895" lon="1.20209">
        <ele>254.8</ele>
        <time>2015-10-03T11:21:12Z</time>
      </trkpt>
      <trkpt lat="44.85892" lon="1.20212">
        <ele>255.2</ele>
        <time>2015-10-03T11:21:14Z</time>
      </trkpt>
      <trkpt lat="44.85889" lon="1.20214">
        <ele>255.4</ele>
        <time>2015-10-03T11:21:16Z</time>
      </trkpt>
      <trkpt lat="44.85886" lon="1.20218">
        <ele>255.8</ele>
        <time>2015-10-03T11:21:19Z</time>
      </trkpt>
      <trkpt lat="44.85886" lon="1.20219">
        <ele>256</ele>
        <time>2015-10-03T11:21:20Z</time>
      </trkpt>
      <trkpt lat="44.85886" lon="1.20219">
        <ele>255.8</ele>
        <time>2015-10-03T11:21:21Z</time>
      </trkpt>
      <trkpt lat="44.85885" lon="1.20227">
        <ele>256.4</ele>
        <time>2015-10-03T11:23:01Z</time>
      </trkpt>
      <trkpt lat="44.85883" lon="1.20232">
        <ele>256.8</ele>
        <time>2015-10-03T11:23:03Z</time>
      </trkpt>
      <trkpt lat="44.8588" lon="1.20238">
        <ele>257.2</ele>
        <time>2015-10-03T11:23:06Z</time>
      </trkpt>
      <trkpt lat="44.85877" lon="1.20246">
        <ele>257.4</ele>
        <time>2015-10-03T11:23:09Z</time>
      </trkpt>
      <trkpt lat="44.85869" lon="1.20262">
        <ele>258.4</ele>
        <time>2015-10-03T11:23:16Z</time>
      </trkpt>
      <trkpt lat="44.85868" lon="1.20264">
        <ele>258.4</ele>
        <time>2015-10-03T11:23:17Z</time>
      </trkpt>
      <trkpt lat="44.85859" lon="1.20282">
        <ele>259</ele>
        <time>2015-10-03T11:23:25Z</time>
      </trkpt>
      <trkpt lat="44.85852" lon="1.20295">
        <ele>259.4</ele>
        <time>2015-10-03T11:23:31Z</time>
      </trkpt>
      <trkpt lat="44.85847" lon="1.20303">
        <ele>259.4</ele>
        <time>2015-10-03T11:23:35Z</time>
      </trkpt>
      <trkpt lat="44.85835" lon="1.20319">
        <ele>260</ele>
        <time>2015-10-03T11:23:43Z</time>
      </trkpt>
      <trkpt lat="44.85828" lon="1.20326">
        <ele>260</ele>
        <time>2015-10-03T11:23:48Z</time>
      </trkpt>
      <trkpt lat="44.85827" lon="1.20329">
        <ele>260</ele>
        <time>2015-10-03T11:23:49Z</time>
      </trkpt>
      <trkpt lat="44.85825" lon="1.20338">
        <ele>260.2</ele>
        <time>2015-10-03T11:23:52Z</time>
      </trkpt>
      <trkpt lat="44.85824" lon="1.20348">
        <ele>260.4</ele>
        <time>2015-10-03T11:23:55Z</time>
      </trkpt>
      <trkpt lat="44.85814" lon="1.20363">
        <ele>261</ele>
        <time>2015-10-03T11:24:01Z</time>
      </trkpt>
      <trkpt lat="44.85808" lon="1.2037">
        <ele>261.4</ele>
        <time>2015-10-03T11:24:04Z</time>
      </trkpt>
      <trkpt lat="44.858" lon="1.20378">
        <ele>262.2</ele>
        <time>2015-10-03T11:24:07Z</time>
      </trkpt>
      <trkpt lat="44.85796" lon="1.20383">
        <ele>262.6</ele>
        <time>2015-10-03T11:24:09Z</time>
      </trkpt>
      <trkpt lat="44.85786" lon="1.20391">
        <ele>262.6</ele>
        <time>2015-10-03T11:24:13Z</time>
      </trkpt>
      <trkpt lat="44.85773" lon="1.20405">
        <ele>263.4</ele>
        <time>2015-10-03T11:24:20Z</time>
      </trkpt>
      <trkpt lat="44.85772" lon="1.20405">
        <ele>263.6</ele>
        <time>2015-10-03T11:24:21Z</time>
      </trkpt>
      <trkpt lat="44.85772" lon="1.20406">
        <ele>263.4</ele>
        <time>2015-10-03T11:24:24Z</time>
      </trkpt>
      <trkpt lat="44.85771" lon="1.20406">
        <ele>263.2</ele>
        <time>2015-10-03T11:28:11Z</time>
      </trkpt>
      <trkpt lat="44.85767" lon="1.20412">
        <ele>263.6</ele>
        <time>2015-10-03T11:28:13Z</time>
      </trkpt>
      <trkpt lat="44.85751" lon="1.20425">
        <ele>263.8</ele>
        <time>2015-10-03T11:28:19Z</time>
      </trkpt>
      <trkpt lat="44.85728" lon="1.20442">
        <ele>263.6</ele>
        <time>2015-10-03T11:28:26Z</time>
      </trkpt>
      <trkpt lat="44.85703" lon="1.20459">
        <ele>263.6</ele>
        <time>2015-10-03T11:28:32Z</time>
      </trkpt>
      <trkpt lat="44.85695" lon="1.20464">
        <ele>263.2</ele>
        <time>2015-10-03T11:28:34Z</time>
      </trkpt>
      <trkpt lat="44.85686" lon="1.20469">
        <ele>263.4</ele>
        <time>2015-10-03T11:28:36Z</time>
      </trkpt>
      <trkpt lat="44.85664" lon="1.2048">
        <ele>263.2</ele>
        <time>2015-10-03T11:28:41Z</time>
      </trkpt>
      <trkpt lat="44.85622" lon="1.20498">
        <ele>263</ele>
        <time>2015-10-03T11:28:50Z</time>
      </trkpt>
      <trkpt lat="44.85597" lon="1.20511">
        <ele>262.4</ele>
        <time>2015-10-03T11:28:56Z</time>
      </trkpt>
      <trkpt lat="44.85588" lon="1.20514">
        <ele>262.4</ele>
        <time>2015-10-03T11:28:58Z</time>
      </trkpt>
      <trkpt lat="44.8555" lon="1.20531">
        <ele>261.2</ele>
        <time>2015-10-03T11:29:06Z</time>
      </trkpt>
      <trkpt lat="44.85524" lon="1.20539">
        <ele>260.2</ele>
        <time>2015-10-03T11:29:10Z</time>
      </trkpt>
      <trkpt lat="44.8551" lon="1.20541">
        <ele>259.6</ele>
        <time>2015-10-03T11:29:12Z</time>
      </trkpt>
      <trkpt lat="44.85496" lon="1.20541">
        <ele>259.2</ele>
        <time>2015-10-03T11:29:14Z</time>
      </trkpt>
      <trkpt lat="44.85467" lon="1.20538">
        <ele>258.8</ele>
        <time>2015-10-03T11:29:18Z</time>
      </trkpt>
      <trkpt lat="44.85426" lon="1.2053">
        <ele>259.2</ele>
        <time>2015-10-03T11:29:25Z</time>
      </trkpt>
      <trkpt lat="44.85406" lon="1.20525">
        <ele>259.8</ele>
        <time>2015-10-03T11:29:30Z</time>
      </trkpt>
      <trkpt lat="44.85378" lon="1.20519">
        <ele>259.6</ele>
        <time>2015-10-03T11:29:38Z</time>
      </trkpt>
      <trkpt lat="44.85349" lon="1.20511">
        <ele>258.6</ele>
        <time>2015-10-03T11:29:44Z</time>
      </trkpt>
      <trkpt lat="44.85323" lon="1.20505">
        <ele>258</ele>
        <time>2015-10-03T11:29:48Z</time>
      </trkpt>
      <trkpt lat="44.85316" lon="1.20503">
        <ele>257.6</ele>
        <time>2015-10-03T11:29:49Z</time>
      </trkpt>
      <trkpt lat="44.85294" lon="1.20496">
        <ele>257</ele>
        <time>2015-10-03T11:29:52Z</time>
      </trkpt>
      <trkpt lat="44.85278" lon="1.20493">
        <ele>256.8</ele>
        <time>2015-10-03T11:29:54Z</time>
      </trkpt>
      <trkpt lat="44.85237" lon="1.20479">
        <ele>257.2</ele>
        <time>2015-10-03T11:30:00Z</time>
      </trkpt>
      <trkpt lat="44.85213" lon="1.20472">
        <ele>258.4</ele>
        <time>2015-10-03T11:30:04Z</time>
      </trkpt>
      <trkpt lat="44.85204" lon="1.20469">
        <ele>259</ele>
        <time>2015-10-03T11:30:06Z</time>
      </trkpt>
      <trkpt lat="44.85195" lon="1.20467">
        <ele>259.4</ele>
        <time>2015-10-03T11:30:08Z</time>
      </trkpt>
      <trkpt lat="44.85183" lon="1.20465">
        <ele>260.6</ele>
        <time>2015-10-03T11:30:11Z</time>
      </trkpt>
      <trkpt lat="44.85175" lon="1.20463">
        <ele>261.2</ele>
        <time>2015-10-03T11:30:13Z</time>
      </trkpt>
      <trkpt lat="44.85168" lon="1.20462">
        <ele>261.8</ele>
        <time>2015-10-03T11:30:15Z</time>
      </trkpt>
      <trkpt lat="44.85153" lon="1.20457">
        <ele>262.8</ele>
        <time>2015-10-03T11:30:19Z</time>
      </trkpt>
      <trkpt lat="44.85149" lon="1.20456">
        <ele>263</ele>
        <time>2015-10-03T11:30:20Z</time>
      </trkpt>
      <trkpt lat="44.8513" lon="1.20452">
        <ele>263.8</ele>
        <time>2015-10-03T11:30:25Z</time>
      </trkpt>
      <trkpt lat="44.85122" lon="1.20452">
        <ele>264</ele>
        <time>2015-10-03T11:30:27Z</time>
      </trkpt>
      <trkpt lat="44.85119" lon="1.20451">
        <ele>264</ele>
        <time>2015-10-03T11:30:28Z</time>
      </trkpt>
      <trkpt lat="44.85105" lon="1.20446">
        <ele>264</ele>
        <time>2015-10-03T11:30:32Z</time>
      </trkpt>
      <trkpt lat="44.85083" lon="1.20439">
        <ele>263.6</ele>
        <time>2015-10-03T11:30:37Z</time>
      </trkpt>
      <trkpt lat="44.85078" lon="1.20437">
        <ele>263.4</ele>
        <time>2015-10-03T11:30:38Z</time>
      </trkpt>
      <trkpt lat="44.85067" lon="1.20434">
        <ele>263</ele>
        <time>2015-10-03T11:30:40Z</time>
      </trkpt>
      <trkpt lat="44.85043" lon="1.20427">
        <ele>262</ele>
        <time>2015-10-03T11:30:44Z</time>
      </trkpt>
      <trkpt lat="44.85037" lon="1.20425">
        <ele>261.8</ele>
        <time>2015-10-03T11:30:45Z</time>
      </trkpt>
      <trkpt lat="44.84994" lon="1.20413">
        <ele>261.4</ele>
        <time>2015-10-03T11:30:52Z</time>
      </trkpt>
      <trkpt lat="44.84964" lon="1.20404">
        <ele>261.4</ele>
        <time>2015-10-03T11:30:58Z</time>
      </trkpt>
      <trkpt lat="44.84938" lon="1.20397">
        <ele>261.8</ele>
        <time>2015-10-03T11:31:05Z</time>
      </trkpt>
      <trkpt lat="44.84921" lon="1.20392">
        <ele>262.6</ele>
        <time>2015-10-03T11:31:10Z</time>
      </trkpt>
      <trkpt lat="44.84915" lon="1.20391">
        <ele>263</ele>
        <time>2015-10-03T11:31:12Z</time>
      </trkpt>
      <trkpt lat="44.84901" lon="1.20386">
        <ele>263.8</ele>
        <time>2015-10-03T11:31:16Z</time>
      </trkpt>
      <trkpt lat="44.84895" lon="1.20384">
        <ele>264.2</ele>
        <time>2015-10-03T11:31:18Z</time>
      </trkpt>
      <trkpt lat="44.8488" lon="1.20379">
        <ele>265.2</ele>
        <time>2015-10-03T11:31:23Z</time>
      </trkpt>
      <trkpt lat="44.84864" lon="1.20375">
        <ele>266.4</ele>
        <time>2015-10-03T11:31:28Z</time>
      </trkpt>
      <trkpt lat="44.84861" lon="1.20374">
        <ele>266.8</ele>
        <time>2015-10-03T11:31:29Z</time>
      </trkpt>
      <trkpt lat="44.84849" lon="1.2037">
        <ele>267.6</ele>
        <time>2015-10-03T11:31:33Z</time>
      </trkpt>
      <trkpt lat="44.84839" lon="1.20367">
        <ele>268.2</ele>
        <time>2015-10-03T11:31:36Z</time>
      </trkpt>
      <trkpt lat="44.84836" lon="1.20366">
        <ele>268.6</ele>
        <time>2015-10-03T11:31:37Z</time>
      </trkpt>
      <trkpt lat="44.84824" lon="1.20365">
        <ele>269.6</ele>
        <time>2015-10-03T11:31:41Z</time>
      </trkpt>
      <trkpt lat="44.84814" lon="1.20361">
        <ele>270.2</ele>
        <time>2015-10-03T11:31:44Z</time>
      </trkpt>
      <trkpt lat="44.84805" lon="1.20358">
        <ele>270.8</ele>
        <time>2015-10-03T11:31:47Z</time>
      </trkpt>
      <trkpt lat="44.84796" lon="1.20353">
        <ele>271.6</ele>
        <time>2015-10-03T11:31:50Z</time>
      </trkpt>
      <trkpt lat="44.84793" lon="1.20352">
        <ele>271.8</ele>
        <time>2015-10-03T11:31:51Z</time>
      </trkpt>
      <trkpt lat="44.84778" lon="1.20343">
        <ele>272.8</ele>
        <time>2015-10-03T11:31:56Z</time>
      </trkpt>
      <trkpt lat="44.84775" lon="1.20341">
        <ele>273</ele>
        <time>2015-10-03T11:31:57Z</time>
      </trkpt>
      <trkpt lat="44.84763" lon="1.20333">
        <ele>273.8</ele>
        <time>2015-10-03T11:32:03Z</time>
      </trkpt>
      <trkpt lat="44.84756" lon="1.20327">
        <ele>274.2</ele>
        <time>2015-10-03T11:32:07Z</time>
      </trkpt>
      <trkpt lat="44.84753" lon="1.20321">
        <ele>274.4</ele>
        <time>2015-10-03T11:32:09Z</time>
      </trkpt>
      <trkpt lat="44.84746" lon="1.20314">
        <ele>275</ele>
        <time>2015-10-03T11:32:14Z</time>
      </trkpt>
      <trkpt lat="44.84745" lon="1.2031">
        <ele>275.2</ele>
        <time>2015-10-03T11:32:16Z</time>
      </trkpt>
      <trkpt lat="44.84745" lon="1.20309">
        <ele>275.2</ele>
        <time>2015-10-03T11:32:17Z</time>
      </trkpt>
      <trkpt lat="44.84744" lon="1.20305">
        <ele>275.2</ele>
        <time>2015-10-03T11:32:19Z</time>
      </trkpt>
      <trkpt lat="44.84738" lon="1.20303">
        <ele>275.4</ele>
        <time>2015-10-03T11:32:23Z</time>
      </trkpt>
      <trkpt lat="44.84731" lon="1.20301">
        <ele>275.8</ele>
        <time>2015-10-03T11:32:27Z</time>
      </trkpt>
      <trkpt lat="44.84728" lon="1.20293">
        <ele>276</ele>
        <time>2015-10-03T11:32:31Z</time>
      </trkpt>
      <trkpt lat="44.84721" lon="1.20294">
        <ele>276.2</ele>
        <time>2015-10-03T11:32:35Z</time>
      </trkpt>
      <trkpt lat="44.84719" lon="1.2029">
        <ele>276.2</ele>
        <time>2015-10-03T11:32:37Z</time>
      </trkpt>
      <trkpt lat="44.84718" lon="1.20288">
        <ele>276.2</ele>
        <time>2015-10-03T11:32:38Z</time>
      </trkpt>
      <trkpt lat="44.84718" lon="1.20286">
        <ele>276.4</ele>
        <time>2015-10-03T11:32:39Z</time>
      </trkpt>
      <trkpt lat="44.84711" lon="1.2028">
        <ele>276.6</ele>
        <time>2015-10-03T11:32:43Z</time>
      </trkpt>
      <trkpt lat="44.84709" lon="1.20279">
        <ele>276.6</ele>
        <time>2015-10-03T11:32:44Z</time>
      </trkpt>
      <trkpt lat="44.84706" lon="1.20275">
        <ele>276.6</ele>
        <time>2015-10-03T11:32:46Z</time>
      </trkpt>
      <trkpt lat="44.84708" lon="1.20274">
        <ele>276.6</ele>
        <time>2015-10-03T11:32:48Z</time>
      </trkpt>
      <trkpt lat="44.84714" lon="1.20283">
        <ele>276.4</ele>
        <time>2015-10-03T11:32:52Z</time>
      </trkpt>
      <trkpt lat="44.8472" lon="1.20288">
        <ele>276.2</ele>
        <time>2015-10-03T11:32:56Z</time>
      </trkpt>
      <trkpt lat="44.84715" lon="1.20281">
        <ele>276.4</ele>
        <time>2015-10-03T11:32:59Z</time>
      </trkpt>
      <trkpt lat="44.84704" lon="1.20274">
        <ele>276.8</ele>
        <time>2015-10-03T11:33:05Z</time>
      </trkpt>
      <trkpt lat="44.84694" lon="1.20261">
        <ele>277</ele>
        <time>2015-10-03T11:33:11Z</time>
      </trkpt>
      <trkpt lat="44.84687" lon="1.2025">
        <ele>277.2</ele>
        <time>2015-10-03T11:33:16Z</time>
      </trkpt>
      <trkpt lat="44.84685" lon="1.20249">
        <ele>277.2</ele>
        <time>2015-10-03T11:33:17Z</time>
      </trkpt>
      <trkpt lat="44.84683" lon="1.20249">
        <ele>277.2</ele>
        <time>2015-10-03T11:33:18Z</time>
      </trkpt>
      <trkpt lat="44.84679" lon="1.20245">
        <ele>277.4</ele>
        <time>2015-10-03T11:33:20Z</time>
      </trkpt>
      <trkpt lat="44.84675" lon="1.20241">
        <ele>277.4</ele>
        <time>2015-10-03T11:33:22Z</time>
      </trkpt>
      <trkpt lat="44.84664" lon="1.2023">
        <ele>277.6</ele>
        <time>2015-10-03T11:33:27Z</time>
      </trkpt>
      <trkpt lat="44.84638" lon="1.20211">
        <ele>277.4</ele>
        <time>2015-10-03T11:33:35Z</time>
      </trkpt>
      <trkpt lat="44.8463" lon="1.20207">
        <ele>277</ele>
        <time>2015-10-03T11:33:37Z</time>
      </trkpt>
      <trkpt lat="44.84608" lon="1.20197">
        <ele>276.2</ele>
        <time>2015-10-03T11:33:42Z</time>
      </trkpt>
      <trkpt lat="44.84577" lon="1.20181">
        <ele>275.4</ele>
        <time>2015-10-03T11:33:48Z</time>
      </trkpt>
      <trkpt lat="44.84571" lon="1.20179">
        <ele>275.2</ele>
        <time>2015-10-03T11:33:49Z</time>
      </trkpt>
      <trkpt lat="44.84553" lon="1.20169">
        <ele>274</ele>
        <time>2015-10-03T11:33:52Z</time>
      </trkpt>
      <trkpt lat="44.8454" lon="1.20163">
        <ele>273.6</ele>
        <time>2015-10-03T11:33:54Z</time>
      </trkpt>
      <trkpt lat="44.84511" lon="1.20148">
        <ele>273</ele>
        <time>2015-10-03T11:33:58Z</time>
      </trkpt>
      <trkpt lat="44.84497" lon="1.20141">
        <ele>272.4</ele>
        <time>2015-10-03T11:34:00Z</time>
      </trkpt>
      <trkpt lat="44.84473" lon="1.20129">
        <ele>271.6</ele>
        <time>2015-10-03T11:34:03Z</time>
      </trkpt>
      <trkpt lat="44.84447" lon="1.20116">
        <ele>270.6</ele>
        <time>2015-10-03T11:34:06Z</time>
      </trkpt>
      <trkpt lat="44.84438" lon="1.20111">
        <ele>270.4</ele>
        <time>2015-10-03T11:34:07Z</time>
      </trkpt>
      <trkpt lat="44.84411" lon="1.20097">
        <ele>269.2</ele>
        <time>2015-10-03T11:34:10Z</time>
      </trkpt>
      <trkpt lat="44.84359" lon="1.2007">
        <ele>268</ele>
        <time>2015-10-03T11:34:16Z</time>
      </trkpt>
      <trkpt lat="44.84322" lon="1.20053">
        <ele>267.8</ele>
        <time>2015-10-03T11:34:21Z</time>
      </trkpt>
      <trkpt lat="44.84304" lon="1.20057">
        <ele>267.4</ele>
        <time>2015-10-03T11:34:24Z</time>
      </trkpt>
      <trkpt lat="44.84289" lon="1.20066">
        <ele>267</ele>
        <time>2015-10-03T11:34:27Z</time>
      </trkpt>
      <trkpt lat="44.84286" lon="1.20069">
        <ele>267</ele>
        <time>2015-10-03T11:34:28Z</time>
      </trkpt>
      <trkpt lat="44.84284" lon="1.2007">
        <ele>266.6</ele>
        <time>2015-10-03T11:34:29Z</time>
      </trkpt>
      <trkpt lat="44.84283" lon="1.20073">
        <ele>266.2</ele>
        <time>2015-10-03T11:34:31Z</time>
      </trkpt>
      <trkpt lat="44.84285" lon="1.20074">
        <ele>266.2</ele>
        <time>2015-10-03T11:34:33Z</time>
      </trkpt>
      <trkpt lat="44.84292" lon="1.20067">
        <ele>266.4</ele>
        <time>2015-10-03T11:34:38Z</time>
      </trkpt>
      <trkpt lat="44.84302" lon="1.20062">
        <ele>266.6</ele>
        <time>2015-10-03T11:34:42Z</time>
      </trkpt>
      <trkpt lat="44.84307" lon="1.20048">
        <ele>267</ele>
        <time>2015-10-03T11:34:46Z</time>
      </trkpt>
      <trkpt lat="44.84302" lon="1.20038">
        <ele>266.8</ele>
        <time>2015-10-03T11:34:49Z</time>
      </trkpt>
      <trkpt lat="44.84294" lon="1.20033">
        <ele>266.6</ele>
        <time>2015-10-03T11:34:52Z</time>
      </trkpt>
      <trkpt lat="44.84289" lon="1.20029">
        <ele>266.4</ele>
        <time>2015-10-03T11:34:54Z</time>
      </trkpt>
      <trkpt lat="44.84283" lon="1.20023">
        <ele>266</ele>
        <time>2015-10-03T11:34:58Z</time>
      </trkpt>
      <trkpt lat="44.84281" lon="1.20022">
        <ele>266</ele>
        <time>2015-10-03T11:34:59Z</time>
      </trkpt>
      <trkpt lat="44.84271" lon="1.2002">
        <ele>265.6</ele>
        <time>2015-10-03T11:35:05Z</time>
      </trkpt>
      <trkpt lat="44.84272" lon="1.2002">
        <ele>265.6</ele>
        <time>2015-10-03T11:35:09Z</time>
      </trkpt>
      <trkpt lat="44.84274" lon="1.20023">
        <ele>265.8</ele>
        <time>2015-10-03T11:35:13Z</time>
      </trkpt>
      <trkpt lat="44.84276" lon="1.20024">
        <ele>265.8</ele>
        <time>2015-10-03T11:35:15Z</time>
      </trkpt>
      <trkpt lat="44.84277" lon="1.20022">
        <ele>266</ele>
        <time>2015-10-03T11:35:17Z</time>
      </trkpt>
      <trkpt lat="44.84277" lon="1.20021">
        <ele>266</ele>
        <time>2015-10-03T11:35:19Z</time>
      </trkpt>
      <trkpt lat="44.84271" lon="1.2002">
        <ele>265.6</ele>
        <time>2015-10-03T11:35:49Z</time>
      </trkpt>
      <trkpt lat="44.84269" lon="1.20017">
        <ele>265.6</ele>
        <time>2015-10-03T11:35:51Z</time>
      </trkpt>
      <trkpt lat="44.84265" lon="1.20013">
        <ele>265.4</ele>
        <time>2015-10-03T11:35:54Z</time>
      </trkpt>
      <trkpt lat="44.84258" lon="1.20009">
        <ele>265</ele>
        <time>2015-10-03T11:35:57Z</time>
      </trkpt>
      <trkpt lat="44.84256" lon="1.20008">
        <ele>264.8</ele>
        <time>2015-10-03T11:35:58Z</time>
      </trkpt>
      <trkpt lat="44.8424" lon="1.20003">
        <ele>264</ele>
        <time>2015-10-03T11:36:03Z</time>
      </trkpt>
      <trkpt lat="44.84235" lon="1.20001">
        <ele>263.8</ele>
        <time>2015-10-03T11:36:04Z</time>
      </trkpt>
      <trkpt lat="44.84214" lon="1.19993">
        <ele>262.8</ele>
        <time>2015-10-03T11:36:08Z</time>
      </trkpt>
      <trkpt lat="44.84208" lon="1.19989">
        <ele>262.6</ele>
        <time>2015-10-03T11:36:09Z</time>
      </trkpt>
      <trkpt lat="44.8419" lon="1.19978">
        <ele>261.4</ele>
        <time>2015-10-03T11:36:12Z</time>
      </trkpt>
      <trkpt lat="44.84179" lon="1.19968">
        <ele>261</ele>
        <time>2015-10-03T11:36:14Z</time>
      </trkpt>
      <trkpt lat="44.84142" lon="1.19932">
        <ele>260.2</ele>
        <time>2015-10-03T11:36:20Z</time>
      </trkpt>
      <trkpt lat="44.84103" lon="1.19888">
        <ele>259.2</ele>
        <time>2015-10-03T11:36:26Z</time>
      </trkpt>
      <trkpt lat="44.84096" lon="1.19881">
        <ele>259</ele>
        <time>2015-10-03T11:36:27Z</time>
      </trkpt>
      <trkpt lat="44.84051" lon="1.19829">
        <ele>258.8</ele>
        <time>2015-10-03T11:36:34Z</time>
      </trkpt>
      <trkpt lat="44.84039" lon="1.19815">
        <ele>259.2</ele>
        <time>2015-10-03T11:36:36Z</time>
      </trkpt>
      <trkpt lat="44.84013" lon="1.19786">
        <ele>260</ele>
        <time>2015-10-03T11:36:41Z</time>
      </trkpt>
      <trkpt lat="44.84009" lon="1.19781">
        <ele>260.2</ele>
        <time>2015-10-03T11:36:42Z</time>
      </trkpt>
      <trkpt lat="44.83989" lon="1.1976">
        <ele>261</ele>
        <time>2015-10-03T11:36:47Z</time>
      </trkpt>
      <trkpt lat="44.83987" lon="1.19757">
        <ele>261.4</ele>
        <time>2015-10-03T11:36:48Z</time>
      </trkpt>
      <trkpt lat="44.83978" lon="1.19748">
        <ele>262.6</ele>
        <time>2015-10-03T11:36:51Z</time>
      </trkpt>
      <trkpt lat="44.83975" lon="1.19745">
        <ele>263</ele>
        <time>2015-10-03T11:36:52Z</time>
      </trkpt>
      <trkpt lat="44.83969" lon="1.19738">
        <ele>263.8</ele>
        <time>2015-10-03T11:36:54Z</time>
      </trkpt>
      <trkpt lat="44.83959" lon="1.19725">
        <ele>265</ele>
        <time>2015-10-03T11:36:58Z</time>
      </trkpt>
      <trkpt lat="44.83956" lon="1.19722">
        <ele>265</ele>
        <time>2015-10-03T11:36:59Z</time>
      </trkpt>
      <trkpt lat="44.83945" lon="1.1971">
        <ele>266.2</ele>
        <time>2015-10-03T11:37:03Z</time>
      </trkpt>
      <trkpt lat="44.83938" lon="1.19702">
        <ele>267</ele>
        <time>2015-10-03T11:37:06Z</time>
      </trkpt>
      <trkpt lat="44.83935" lon="1.197">
        <ele>267.2</ele>
        <time>2015-10-03T11:37:08Z</time>
      </trkpt>
      <trkpt lat="44.83932" lon="1.19694">
        <ele>267.4</ele>
        <time>2015-10-03T11:37:11Z</time>
      </trkpt>
      <trkpt lat="44.83927" lon="1.19689">
        <ele>267.8</ele>
        <time>2015-10-03T11:37:14Z</time>
      </trkpt>
      <trkpt lat="44.83923" lon="1.19684">
        <ele>268.2</ele>
        <time>2015-10-03T11:37:17Z</time>
      </trkpt>
      <trkpt lat="44.83922" lon="1.19683">
        <ele>268.2</ele>
        <time>2015-10-03T11:37:18Z</time>
      </trkpt>
      <trkpt lat="44.83917" lon="1.19676">
        <ele>268.4</ele>
        <time>2015-10-03T11:37:23Z</time>
      </trkpt>
      <trkpt lat="44.8391" lon="1.19668">
        <ele>268.4</ele>
        <time>2015-10-03T11:37:30Z</time>
      </trkpt>
      <trkpt lat="44.83907" lon="1.19665">
        <ele>267.8</ele>
        <time>2015-10-03T11:37:38Z</time>
      </trkpt>
      <trkpt lat="44.83904" lon="1.19662">
        <ele>267.4</ele>
        <time>2015-10-03T11:37:46Z</time>
      </trkpt>
      <trkpt lat="44.83895" lon="1.19659">
        <ele>267.2</ele>
        <time>2015-10-03T11:39:19Z</time>
      </trkpt>
      <trkpt lat="44.83889" lon="1.19655">
        <ele>267.2</ele>
        <time>2015-10-03T11:39:20Z</time>
      </trkpt>
      <trkpt lat="44.83885" lon="1.1965">
        <ele>267</ele>
        <time>2015-10-03T11:39:21Z</time>
      </trkpt>
      <trkpt lat="44.83868" lon="1.19631">
        <ele>266</ele>
        <time>2015-10-03T11:39:25Z</time>
      </trkpt>
      <trkpt lat="44.83863" lon="1.19626">
        <ele>265.4</ele>
        <time>2015-10-03T11:39:26Z</time>
      </trkpt>
      <trkpt lat="44.83853" lon="1.19614">
        <ele>265</ele>
        <time>2015-10-03T11:39:28Z</time>
      </trkpt>
      <trkpt lat="44.83841" lon="1.19601">
        <ele>263.8</ele>
        <time>2015-10-03T11:39:30Z</time>
      </trkpt>
      <trkpt lat="44.83835" lon="1.19595">
        <ele>263</ele>
        <time>2015-10-03T11:39:31Z</time>
      </trkpt>
      <trkpt lat="44.83829" lon="1.19588">
        <ele>262.2</ele>
        <time>2015-10-03T11:39:32Z</time>
      </trkpt>
      <trkpt lat="44.83801" lon="1.19559">
        <ele>260.8</ele>
        <time>2015-10-03T11:39:36Z</time>
      </trkpt>
      <trkpt lat="44.83793" lon="1.19551">
        <ele>260</ele>
        <time>2015-10-03T11:39:37Z</time>
      </trkpt>
      <trkpt lat="44.83784" lon="1.19542">
        <ele>259.6</ele>
        <time>2015-10-03T11:39:38Z</time>
      </trkpt>
      <trkpt lat="44.83766" lon="1.19524">
        <ele>257.8</ele>
        <time>2015-10-03T11:39:40Z</time>
      </trkpt>
      <trkpt lat="44.83748" lon="1.19507">
        <ele>256.6</ele>
        <time>2015-10-03T11:39:42Z</time>
      </trkpt>
      <trkpt lat="44.83739" lon="1.19498">
        <ele>256.4</ele>
        <time>2015-10-03T11:39:43Z</time>
      </trkpt>
      <trkpt lat="44.83706" lon="1.19466">
        <ele>255.6</ele>
        <time>2015-10-03T11:39:47Z</time>
      </trkpt>
      <trkpt lat="44.8369" lon="1.19452">
        <ele>255</ele>
        <time>2015-10-03T11:39:49Z</time>
      </trkpt>
      <trkpt lat="44.83666" lon="1.19429">
        <ele>256.4</ele>
        <time>2015-10-03T11:39:53Z</time>
      </trkpt>
      <trkpt lat="44.83656" lon="1.19416">
        <ele>256.8</ele>
        <time>2015-10-03T11:39:57Z</time>
      </trkpt>
      <trkpt lat="44.83651" lon="1.19412">
        <ele>256.8</ele>
        <time>2015-10-03T11:40:02Z</time>
      </trkpt>
      <trkpt lat="44.83652" lon="1.19402">
        <ele>256.6</ele>
        <time>2015-10-03T11:40:47Z</time>
      </trkpt>
      <trkpt lat="44.83653" lon="1.19396">
        <ele>256.6</ele>
        <time>2015-10-03T11:40:49Z</time>
      </trkpt>
      <trkpt lat="44.83652" lon="1.19392">
        <ele>256.2</ele>
        <time>2015-10-03T11:40:53Z</time>
      </trkpt>
      <trkpt lat="44.83652" lon="1.19382">
        <ele>256</ele>
        <time>2015-10-03T11:41:09Z</time>
      </trkpt>
      <trkpt lat="44.83652" lon="1.19378">
        <ele>256</ele>
        <time>2015-10-03T11:41:10Z</time>
      </trkpt>
      <trkpt lat="44.8365" lon="1.19371">
        <ele>255.6</ele>
        <time>2015-10-03T11:41:12Z</time>
      </trkpt>
      <trkpt lat="44.83648" lon="1.19358">
        <ele>255.2</ele>
        <time>2015-10-03T11:41:16Z</time>
      </trkpt>
      <trkpt lat="44.83647" lon="1.19349">
        <ele>254.4</ele>
        <time>2015-10-03T11:41:20Z</time>
      </trkpt>
      <trkpt lat="44.83645" lon="1.19343">
        <ele>254.2</ele>
        <time>2015-10-03T11:41:22Z</time>
      </trkpt>
      <trkpt lat="44.8364" lon="1.1933">
        <ele>253.4</ele>
        <time>2015-10-03T11:41:26Z</time>
      </trkpt>
      <trkpt lat="44.83638" lon="1.19325">
        <ele>253.2</ele>
        <time>2015-10-03T11:41:27Z</time>
      </trkpt>
      <trkpt lat="44.8363" lon="1.19299">
        <ele>252.2</ele>
        <time>2015-10-03T11:41:31Z</time>
      </trkpt>
      <trkpt lat="44.83621" lon="1.19276">
        <ele>251.2</ele>
        <time>2015-10-03T11:41:34Z</time>
      </trkpt>
      <trkpt lat="44.83612" lon="1.1926">
        <ele>250</ele>
        <time>2015-10-03T11:41:36Z</time>
      </trkpt>
      <trkpt lat="44.83599" lon="1.19235">
        <ele>248.6</ele>
        <time>2015-10-03T11:41:39Z</time>
      </trkpt>
      <trkpt lat="44.83594" lon="1.19214">
        <ele>247</ele>
        <time>2015-10-03T11:41:41Z</time>
      </trkpt>
      <trkpt lat="44.83596" lon="1.19177">
        <ele>245.8</ele>
        <time>2015-10-03T11:41:44Z</time>
      </trkpt>
      <trkpt lat="44.836" lon="1.19166">
        <ele>244.6</ele>
        <time>2015-10-03T11:41:45Z</time>
      </trkpt>
      <trkpt lat="44.83612" lon="1.19146">
        <ele>243.4</ele>
        <time>2015-10-03T11:41:47Z</time>
      </trkpt>
      <trkpt lat="44.83626" lon="1.19128">
        <ele>242.2</ele>
        <time>2015-10-03T11:41:49Z</time>
      </trkpt>
      <trkpt lat="44.83638" lon="1.19108">
        <ele>240.8</ele>
        <time>2015-10-03T11:41:51Z</time>
      </trkpt>
      <trkpt lat="44.83643" lon="1.19098">
        <ele>239.8</ele>
        <time>2015-10-03T11:41:52Z</time>
      </trkpt>
      <trkpt lat="44.83652" lon="1.19074">
        <ele>238.6</ele>
        <time>2015-10-03T11:41:54Z</time>
      </trkpt>
      <trkpt lat="44.83659" lon="1.19052">
        <ele>237.4</ele>
        <time>2015-10-03T11:41:56Z</time>
      </trkpt>
      <trkpt lat="44.83668" lon="1.19033">
        <ele>235.8</ele>
        <time>2015-10-03T11:41:58Z</time>
      </trkpt>
      <trkpt lat="44.83674" lon="1.19026">
        <ele>234.6</ele>
        <time>2015-10-03T11:41:59Z</time>
      </trkpt>
      <trkpt lat="44.83682" lon="1.19022">
        <ele>233.8</ele>
        <time>2015-10-03T11:42:00Z</time>
      </trkpt>
      <trkpt lat="44.83692" lon="1.19018">
        <ele>232.8</ele>
        <time>2015-10-03T11:42:01Z</time>
      </trkpt>
      <trkpt lat="44.83709" lon="1.19021">
        <ele>231.4</ele>
        <time>2015-10-03T11:42:03Z</time>
      </trkpt>
      <trkpt lat="44.83727" lon="1.1903">
        <ele>230.4</ele>
        <time>2015-10-03T11:42:05Z</time>
      </trkpt>
      <trkpt lat="44.83736" lon="1.19036">
        <ele>229.4</ele>
        <time>2015-10-03T11:42:06Z</time>
      </trkpt>
      <trkpt lat="44.83753" lon="1.19045">
        <ele>228</ele>
        <time>2015-10-03T11:42:08Z</time>
      </trkpt>
      <trkpt lat="44.8377" lon="1.1905">
        <ele>226.8</ele>
        <time>2015-10-03T11:42:10Z</time>
      </trkpt>
      <trkpt lat="44.83776" lon="1.19048">
        <ele>226.8</ele>
        <time>2015-10-03T11:42:11Z</time>
      </trkpt>
      <trkpt lat="44.8379" lon="1.19041">
        <ele>224.8</ele>
        <time>2015-10-03T11:42:13Z</time>
      </trkpt>
      <trkpt lat="44.83797" lon="1.19033">
        <ele>224.4</ele>
        <time>2015-10-03T11:42:14Z</time>
      </trkpt>
      <trkpt lat="44.83803" lon="1.19024">
        <ele>223.6</ele>
        <time>2015-10-03T11:42:15Z</time>
      </trkpt>
      <trkpt lat="44.83815" lon="1.19003">
        <ele>222.2</ele>
        <time>2015-10-03T11:42:17Z</time>
      </trkpt>
      <trkpt lat="44.8382" lon="1.18993">
        <ele>221.4</ele>
        <time>2015-10-03T11:42:18Z</time>
      </trkpt>
      <trkpt lat="44.83824" lon="1.18982">
        <ele>220.8</ele>
        <time>2015-10-03T11:42:19Z</time>
      </trkpt>
      <trkpt lat="44.83829" lon="1.18958">
        <ele>219.2</ele>
        <time>2015-10-03T11:42:21Z</time>
      </trkpt>
      <trkpt lat="44.83832" lon="1.18947">
        <ele>218.4</ele>
        <time>2015-10-03T11:42:22Z</time>
      </trkpt>
      <trkpt lat="44.83837" lon="1.18939">
        <ele>217</ele>
        <time>2015-10-03T11:42:23Z</time>
      </trkpt>
      <trkpt lat="44.83844" lon="1.18934">
        <ele>216.4</ele>
        <time>2015-10-03T11:42:24Z</time>
      </trkpt>
      <trkpt lat="44.83852" lon="1.18933">
        <ele>215.4</ele>
        <time>2015-10-03T11:42:25Z</time>
      </trkpt>
      <trkpt lat="44.83866" lon="1.18931">
        <ele>214</ele>
        <time>2015-10-03T11:42:27Z</time>
      </trkpt>
      <trkpt lat="44.83879" lon="1.18923">
        <ele>212.8</ele>
        <time>2015-10-03T11:42:29Z</time>
      </trkpt>
      <trkpt lat="44.83884" lon="1.18917">
        <ele>212.4</ele>
        <time>2015-10-03T11:42:30Z</time>
      </trkpt>
      <trkpt lat="44.83889" lon="1.1891">
        <ele>211.6</ele>
        <time>2015-10-03T11:42:31Z</time>
      </trkpt>
      <trkpt lat="44.83901" lon="1.18886">
        <ele>210.4</ele>
        <time>2015-10-03T11:42:34Z</time>
      </trkpt>
      <trkpt lat="44.83906" lon="1.18866">
        <ele>209.2</ele>
        <time>2015-10-03T11:42:36Z</time>
      </trkpt>
      <trkpt lat="44.83908" lon="1.18855">
        <ele>208.8</ele>
        <time>2015-10-03T11:42:37Z</time>
      </trkpt>
      <trkpt lat="44.83911" lon="1.18843">
        <ele>208.2</ele>
        <time>2015-10-03T11:42:38Z</time>
      </trkpt>
      <trkpt lat="44.83913" lon="1.18832">
        <ele>207.6</ele>
        <time>2015-10-03T11:42:39Z</time>
      </trkpt>
      <trkpt lat="44.83922" lon="1.18788">
        <ele>206.4</ele>
        <time>2015-10-03T11:42:42Z</time>
      </trkpt>
      <trkpt lat="44.83925" lon="1.18773">
        <ele>205.8</ele>
        <time>2015-10-03T11:42:43Z</time>
      </trkpt>
      <trkpt lat="44.83927" lon="1.18743">
        <ele>204.8</ele>
        <time>2015-10-03T11:42:45Z</time>
      </trkpt>
      <trkpt lat="44.83928" lon="1.18727">
        <ele>204.2</ele>
        <time>2015-10-03T11:42:46Z</time>
      </trkpt>
      <trkpt lat="44.83928" lon="1.18712">
        <ele>203.6</ele>
        <time>2015-10-03T11:42:47Z</time>
      </trkpt>
      <trkpt lat="44.83927" lon="1.18696">
        <ele>203.2</ele>
        <time>2015-10-03T11:42:48Z</time>
      </trkpt>
      <trkpt lat="44.83927" lon="1.18665">
        <ele>202</ele>
        <time>2015-10-03T11:42:50Z</time>
      </trkpt>
      <trkpt lat="44.83925" lon="1.18621">
        <ele>200.4</ele>
        <time>2015-10-03T11:42:53Z</time>
      </trkpt>
      <trkpt lat="44.83924" lon="1.18593">
        <ele>198.8</ele>
        <time>2015-10-03T11:42:55Z</time>
      </trkpt>
      <trkpt lat="44.83924" lon="1.18566">
        <ele>198</ele>
        <time>2015-10-03T11:42:57Z</time>
      </trkpt>
      <trkpt lat="44.83923" lon="1.18539">
        <ele>197.6</ele>
        <time>2015-10-03T11:42:59Z</time>
      </trkpt>
      <trkpt lat="44.83917" lon="1.18501">
        <ele>196</ele>
        <time>2015-10-03T11:43:02Z</time>
      </trkpt>
      <trkpt lat="44.83906" lon="1.18455">
        <ele>194.8</ele>
        <time>2015-10-03T11:43:06Z</time>
      </trkpt>
      <trkpt lat="44.83898" lon="1.18433">
        <ele>194.6</ele>
        <time>2015-10-03T11:43:08Z</time>
      </trkpt>
      <trkpt lat="44.83886" lon="1.18405">
        <ele>193.8</ele>
        <time>2015-10-03T11:43:11Z</time>
      </trkpt>
      <trkpt lat="44.83877" lon="1.18387">
        <ele>193.8</ele>
        <time>2015-10-03T11:43:13Z</time>
      </trkpt>
      <trkpt lat="44.83863" lon="1.18361">
        <ele>192.8</ele>
        <time>2015-10-03T11:43:16Z</time>
      </trkpt>
      <trkpt lat="44.83847" lon="1.18335">
        <ele>191.6</ele>
        <time>2015-10-03T11:43:19Z</time>
      </trkpt>
      <trkpt lat="44.83841" lon="1.18328">
        <ele>191.2</ele>
        <time>2015-10-03T11:43:20Z</time>
      </trkpt>
      <trkpt lat="44.83827" lon="1.18313">
        <ele>190</ele>
        <time>2015-10-03T11:43:22Z</time>
      </trkpt>
      <trkpt lat="44.83805" lon="1.18295">
        <ele>190</ele>
        <time>2015-10-03T11:43:25Z</time>
      </trkpt>
      <trkpt lat="44.83774" lon="1.18275">
        <ele>188.6</ele>
        <time>2015-10-03T11:43:29Z</time>
      </trkpt>
      <trkpt lat="44.83758" lon="1.18268">
        <ele>187.8</ele>
        <time>2015-10-03T11:43:31Z</time>
      </trkpt>
      <trkpt lat="44.8375" lon="1.18264">
        <ele>187.4</ele>
        <time>2015-10-03T11:43:32Z</time>
      </trkpt>
      <trkpt lat="44.83719" lon="1.18245">
        <ele>186</ele>
        <time>2015-10-03T11:43:36Z</time>
      </trkpt>
      <trkpt lat="44.83713" lon="1.18238">
        <ele>185.8</ele>
        <time>2015-10-03T11:43:37Z</time>
      </trkpt>
      <trkpt lat="44.837" lon="1.18225">
        <ele>184.8</ele>
        <time>2015-10-03T11:43:39Z</time>
      </trkpt>
      <trkpt lat="44.83681" lon="1.18203">
        <ele>183.6</ele>
        <time>2015-10-03T11:43:42Z</time>
      </trkpt>
      <trkpt lat="44.83673" lon="1.18196">
        <ele>183</ele>
        <time>2015-10-03T11:43:43Z</time>
      </trkpt>
      <trkpt lat="44.83666" lon="1.1819">
        <ele>182.2</ele>
        <time>2015-10-03T11:43:44Z</time>
      </trkpt>
      <trkpt lat="44.83658" lon="1.18186">
        <ele>182</ele>
        <time>2015-10-03T11:43:45Z</time>
      </trkpt>
      <trkpt lat="44.83643" lon="1.18179">
        <ele>181</ele>
        <time>2015-10-03T11:43:47Z</time>
      </trkpt>
      <trkpt lat="44.83635" lon="1.18177">
        <ele>180.2</ele>
        <time>2015-10-03T11:43:48Z</time>
      </trkpt>
      <trkpt lat="44.83627" lon="1.18177">
        <ele>179</ele>
        <time>2015-10-03T11:43:49Z</time>
      </trkpt>
      <trkpt lat="44.83618" lon="1.18178">
        <ele>178.4</ele>
        <time>2015-10-03T11:43:50Z</time>
      </trkpt>
      <trkpt lat="44.83608" lon="1.1818">
        <ele>177.6</ele>
        <time>2015-10-03T11:43:51Z</time>
      </trkpt>
      <trkpt lat="44.83598" lon="1.18181">
        <ele>177</ele>
        <time>2015-10-03T11:43:52Z</time>
      </trkpt>
      <trkpt lat="44.83587" lon="1.18183">
        <ele>176</ele>
        <time>2015-10-03T11:43:53Z</time>
      </trkpt>
      <trkpt lat="44.83576" lon="1.18183">
        <ele>175</ele>
        <time>2015-10-03T11:43:54Z</time>
      </trkpt>
      <trkpt lat="44.83566" lon="1.18183">
        <ele>174</ele>
        <time>2015-10-03T11:43:55Z</time>
      </trkpt>
      <trkpt lat="44.83555" lon="1.18182">
        <ele>173</ele>
        <time>2015-10-03T11:43:56Z</time>
      </trkpt>
      <trkpt lat="44.83534" lon="1.18177">
        <ele>171</ele>
        <time>2015-10-03T11:43:58Z</time>
      </trkpt>
      <trkpt lat="44.83524" lon="1.18175">
        <ele>170.2</ele>
        <time>2015-10-03T11:43:59Z</time>
      </trkpt>
      <trkpt lat="44.83514" lon="1.18172">
        <ele>169</ele>
        <time>2015-10-03T11:44:00Z</time>
      </trkpt>
      <trkpt lat="44.83496" lon="1.1816">
        <ele>167.2</ele>
        <time>2015-10-03T11:44:02Z</time>
      </trkpt>
      <trkpt lat="44.83487" lon="1.18152">
        <ele>166.6</ele>
        <time>2015-10-03T11:44:03Z</time>
      </trkpt>
      <trkpt lat="44.83479" lon="1.18144">
        <ele>165.4</ele>
        <time>2015-10-03T11:44:04Z</time>
      </trkpt>
      <trkpt lat="44.83462" lon="1.18125">
        <ele>164.2</ele>
        <time>2015-10-03T11:44:06Z</time>
      </trkpt>
      <trkpt lat="44.83458" lon="1.18107">
        <ele>163.4</ele>
        <time>2015-10-03T11:44:07Z</time>
      </trkpt>
      <trkpt lat="44.83455" lon="1.18089">
        <ele>162.6</ele>
        <time>2015-10-03T11:44:08Z</time>
      </trkpt>
      <trkpt lat="44.83445" lon="1.18057">
        <ele>160.6</ele>
        <time>2015-10-03T11:44:10Z</time>
      </trkpt>
      <trkpt lat="44.83434" lon="1.18033">
        <ele>158.6</ele>
        <time>2015-10-03T11:44:12Z</time>
      </trkpt>
      <trkpt lat="44.83415" lon="1.18002">
        <ele>157</ele>
        <time>2015-10-03T11:44:15Z</time>
      </trkpt>
      <trkpt lat="44.83408" lon="1.17994">
        <ele>156.4</ele>
        <time>2015-10-03T11:44:16Z</time>
      </trkpt>
      <trkpt lat="44.83399" lon="1.1799">
        <ele>155.6</ele>
        <time>2015-10-03T11:44:17Z</time>
      </trkpt>
      <trkpt lat="44.83381" lon="1.17986">
        <ele>154.4</ele>
        <time>2015-10-03T11:44:19Z</time>
      </trkpt>
      <trkpt lat="44.83371" lon="1.17983">
        <ele>153.4</ele>
        <time>2015-10-03T11:44:20Z</time>
      </trkpt>
      <trkpt lat="44.8335" lon="1.17978">
        <ele>151.4</ele>
        <time>2015-10-03T11:44:22Z</time>
      </trkpt>
      <trkpt lat="44.83329" lon="1.17971">
        <ele>149.8</ele>
        <time>2015-10-03T11:44:24Z</time>
      </trkpt>
      <trkpt lat="44.8332" lon="1.17967">
        <ele>149</ele>
        <time>2015-10-03T11:44:25Z</time>
      </trkpt>
      <trkpt lat="44.83312" lon="1.17965">
        <ele>148</ele>
        <time>2015-10-03T11:44:26Z</time>
      </trkpt>
      <trkpt lat="44.833" lon="1.17964">
        <ele>146.2</ele>
        <time>2015-10-03T11:44:28Z</time>
      </trkpt>
      <trkpt lat="44.83288" lon="1.17967">
        <ele>145.2</ele>
        <time>2015-10-03T11:44:31Z</time>
      </trkpt>
      <trkpt lat="44.83286" lon="1.17969">
        <ele>143.6</ele>
        <time>2015-10-03T11:44:32Z</time>
      </trkpt>
      <trkpt lat="44.83279" lon="1.17972">
        <ele>145.4</ele>
        <time>2015-10-03T11:44:34Z</time>
      </trkpt>
      <trkpt lat="44.83274" lon="1.17975">
        <ele>144</ele>
        <time>2015-10-03T11:44:36Z</time>
      </trkpt>
      <trkpt lat="44.83271" lon="1.17977">
        <ele>142.8</ele>
        <time>2015-10-03T11:44:37Z</time>
      </trkpt>
      <trkpt lat="44.83263" lon="1.17981">
        <ele>142.4</ele>
        <time>2015-10-03T11:44:41Z</time>
      </trkpt>
      <trkpt lat="44.83256" lon="1.17987">
        <ele>141.6</ele>
        <time>2015-10-03T11:44:46Z</time>
      </trkpt>
      <trkpt lat="44.83255" lon="1.17988">
        <ele>141.6</ele>
        <time>2015-10-03T11:44:47Z</time>
      </trkpt>
      <trkpt lat="44.83249" lon="1.17992">
        <ele>141.2</ele>
        <time>2015-10-03T11:44:52Z</time>
      </trkpt>
      <trkpt lat="44.83245" lon="1.17996">
        <ele>140.6</ele>
        <time>2015-10-03T11:44:55Z</time>
      </trkpt>
      <trkpt lat="44.83241" lon="1.17997">
        <ele>140.2</ele>
        <time>2015-10-03T11:44:58Z</time>
      </trkpt>
      <trkpt lat="44.83234" lon="1.18003">
        <ele>139.4</ele>
        <time>2015-10-03T11:45:02Z</time>
      </trkpt>
      <trkpt lat="44.83232" lon="1.18006">
        <ele>139.2</ele>
        <time>2015-10-03T11:45:03Z</time>
      </trkpt>
      <trkpt lat="44.83218" lon="1.18015">
        <ele>138.2</ele>
        <time>2015-10-03T11:45:07Z</time>
      </trkpt>
      <trkpt lat="44.83213" lon="1.18017">
        <ele>137.6</ele>
        <time>2015-10-03T11:45:08Z</time>
      </trkpt>
      <trkpt lat="44.83205" lon="1.18023">
        <ele>136.8</ele>
        <time>2015-10-03T11:45:10Z</time>
      </trkpt>
      <trkpt lat="44.83195" lon="1.18026">
        <ele>136.4</ele>
        <time>2015-10-03T11:45:12Z</time>
      </trkpt>
      <trkpt lat="44.83191" lon="1.18026">
        <ele>135.8</ele>
        <time>2015-10-03T11:45:13Z</time>
      </trkpt>
      <trkpt lat="44.83181" lon="1.1802">
        <ele>135.4</ele>
        <time>2015-10-03T11:45:15Z</time>
      </trkpt>
      <trkpt lat="44.83166" lon="1.1801">
        <ele>135</ele>
        <time>2015-10-03T11:45:18Z</time>
      </trkpt>
      <trkpt lat="44.8316" lon="1.18007">
        <ele>135.2</ele>
        <time>2015-10-03T11:45:19Z</time>
      </trkpt>
      <trkpt lat="44.83154" lon="1.18005">
        <ele>134.8</ele>
        <time>2015-10-03T11:45:20Z</time>
      </trkpt>
      <trkpt lat="44.83143" lon="1.18">
        <ele>134.6</ele>
        <time>2015-10-03T11:45:22Z</time>
      </trkpt>
      <trkpt lat="44.8313" lon="1.17995">
        <ele>134.4</ele>
        <time>2015-10-03T11:45:24Z</time>
      </trkpt>
      <trkpt lat="44.83117" lon="1.17992">
        <ele>134.2</ele>
        <time>2015-10-03T11:45:26Z</time>
      </trkpt>
      <trkpt lat="44.83097" lon="1.17991">
        <ele>133.8</ele>
        <time>2015-10-03T11:45:29Z</time>
      </trkpt>
      <trkpt lat="44.83084" lon="1.17992">
        <ele>133.6</ele>
        <time>2015-10-03T11:45:31Z</time>
      </trkpt>
      <trkpt lat="44.83044" lon="1.17995">
        <ele>132.6</ele>
        <time>2015-10-03T11:45:37Z</time>
      </trkpt>
      <trkpt lat="44.8303" lon="1.17996">
        <ele>132</ele>
        <time>2015-10-03T11:45:39Z</time>
      </trkpt>
      <trkpt lat="44.83008" lon="1.17999">
        <ele>131.6</ele>
        <time>2015-10-03T11:45:42Z</time>
      </trkpt>
      <trkpt lat="44.82981" lon="1.18001">
        <ele>130.6</ele>
        <time>2015-10-03T11:45:46Z</time>
      </trkpt>
      <trkpt lat="44.82974" lon="1.18001">
        <ele>130</ele>
        <time>2015-10-03T11:45:47Z</time>
      </trkpt>
      <trkpt lat="44.82959" lon="1.17998">
        <ele>129.2</ele>
        <time>2015-10-03T11:45:49Z</time>
      </trkpt>
      <trkpt lat="44.82951" lon="1.17995">
        <ele>128.6</ele>
        <time>2015-10-03T11:45:50Z</time>
      </trkpt>
      <trkpt lat="44.82943" lon="1.17991">
        <ele>128.2</ele>
        <time>2015-10-03T11:45:51Z</time>
      </trkpt>
      <trkpt lat="44.82927" lon="1.17983">
        <ele>126.8</ele>
        <time>2015-10-03T11:45:53Z</time>
      </trkpt>
      <trkpt lat="44.82911" lon="1.17973">
        <ele>125.6</ele>
        <time>2015-10-03T11:45:55Z</time>
      </trkpt>
      <trkpt lat="44.82895" lon="1.17964">
        <ele>124.4</ele>
        <time>2015-10-03T11:45:57Z</time>
      </trkpt>
      <trkpt lat="44.82873" lon="1.17951">
        <ele>123</ele>
        <time>2015-10-03T11:46:00Z</time>
      </trkpt>
      <trkpt lat="44.82858" lon="1.17943">
        <ele>121.4</ele>
        <time>2015-10-03T11:46:02Z</time>
      </trkpt>
      <trkpt lat="44.82851" lon="1.1794">
        <ele>120.6</ele>
        <time>2015-10-03T11:46:03Z</time>
      </trkpt>
      <trkpt lat="44.82843" lon="1.17937">
        <ele>120.4</ele>
        <time>2015-10-03T11:46:04Z</time>
      </trkpt>
      <trkpt lat="44.82826" lon="1.17933">
        <ele>119.4</ele>
        <time>2015-10-03T11:46:06Z</time>
      </trkpt>
      <trkpt lat="44.82808" lon="1.17929">
        <ele>118.2</ele>
        <time>2015-10-03T11:46:08Z</time>
      </trkpt>
      <trkpt lat="44.8279" lon="1.17926">
        <ele>116.6</ele>
        <time>2015-10-03T11:46:10Z</time>
      </trkpt>
      <trkpt lat="44.82773" lon="1.17923">
        <ele>115</ele>
        <time>2015-10-03T11:46:12Z</time>
      </trkpt>
      <trkpt lat="44.82758" lon="1.17922">
        <ele>113.6</ele>
        <time>2015-10-03T11:46:14Z</time>
      </trkpt>
      <trkpt lat="44.82745" lon="1.1792">
        <ele>112.4</ele>
        <time>2015-10-03T11:46:16Z</time>
      </trkpt>
      <trkpt lat="44.82728" lon="1.17918">
        <ele>111.2</ele>
        <time>2015-10-03T11:46:19Z</time>
      </trkpt>
      <trkpt lat="44.8272" lon="1.17914">
        <ele>110.4</ele>
        <time>2015-10-03T11:46:21Z</time>
      </trkpt>
      <trkpt lat="44.82717" lon="1.17912">
        <ele>109.8</ele>
        <time>2015-10-03T11:46:22Z</time>
      </trkpt>
      <trkpt lat="44.82715" lon="1.17909">
        <ele>109.4</ele>
        <time>2015-10-03T11:46:23Z</time>
      </trkpt>
      <trkpt lat="44.82714" lon="1.17902">
        <ele>108.4</ele>
        <time>2015-10-03T11:46:25Z</time>
      </trkpt>
      <trkpt lat="44.82713" lon="1.17894">
        <ele>107.6</ele>
        <time>2015-10-03T11:46:27Z</time>
      </trkpt>
      <trkpt lat="44.82712" lon="1.17884">
        <ele>107.2</ele>
        <time>2015-10-03T11:46:29Z</time>
      </trkpt>
      <trkpt lat="44.82712" lon="1.1787">
        <ele>106</ele>
        <time>2015-10-03T11:46:33Z</time>
      </trkpt>
      <trkpt lat="44.8271" lon="1.17864">
        <ele>105.8</ele>
        <time>2015-10-03T11:46:37Z</time>
      </trkpt>
      <trkpt lat="44.82706" lon="1.17858">
        <ele>105.6</ele>
        <time>2015-10-03T11:49:09Z</time>
      </trkpt>
      <trkpt lat="44.82706" lon="1.1786">
        <ele>105.4</ele>
        <time>2015-10-03T11:49:11Z</time>
      </trkpt>
      <trkpt lat="44.82705" lon="1.17867">
        <ele>105.4</ele>
        <time>2015-10-03T11:49:17Z</time>
      </trkpt>
      <trkpt lat="44.82702" lon="1.17881">
        <ele>105.2</ele>
        <time>2015-10-03T11:49:23Z</time>
      </trkpt>
      <trkpt lat="44.82696" lon="1.17907">
        <ele>105.2</ele>
        <time>2015-10-03T11:49:30Z</time>
      </trkpt>
      <trkpt lat="44.82689" lon="1.17925">
        <ele>105</ele>
        <time>2015-10-03T11:49:34Z</time>
      </trkpt>
      <trkpt lat="44.82681" lon="1.17946">
        <ele>104.8</ele>
        <time>2015-10-03T11:49:38Z</time>
      </trkpt>
      <trkpt lat="44.8267" lon="1.17973">
        <ele>104.4</ele>
        <time>2015-10-03T11:49:43Z</time>
      </trkpt>
      <trkpt lat="44.82665" lon="1.1799">
        <ele>103.8</ele>
        <time>2015-10-03T11:49:46Z</time>
      </trkpt>
      <trkpt lat="44.82651" lon="1.18029">
        <ele>103.6</ele>
        <time>2015-10-03T11:49:53Z</time>
      </trkpt>
      <trkpt lat="44.82647" lon="1.1804">
        <ele>103.4</ele>
        <time>2015-10-03T11:49:57Z</time>
      </trkpt>
      <trkpt lat="44.82643" lon="1.18052">
        <ele>103.6</ele>
        <time>2015-10-03T11:51:22Z</time>
      </trkpt>
      <trkpt lat="44.82638" lon="1.18071">
        <ele>103.6</ele>
        <time>2015-10-03T11:51:28Z</time>
      </trkpt>
      <trkpt lat="44.82631" lon="1.18093">
        <ele>103.6</ele>
        <time>2015-10-03T11:51:35Z</time>
      </trkpt>
      <trkpt lat="44.82627" lon="1.18112">
        <ele>103.4</ele>
        <time>2015-10-03T11:51:40Z</time>
      </trkpt>
      <trkpt lat="44.82616" lon="1.18141">
        <ele>103.4</ele>
        <time>2015-10-03T11:51:48Z</time>
      </trkpt>
      <trkpt lat="44.82605" lon="1.18172">
        <ele>103.4</ele>
        <time>2015-10-03T11:51:56Z</time>
      </trkpt>
      <trkpt lat="44.82591" lon="1.18205">
        <ele>103.4</ele>
        <time>2015-10-03T11:52:05Z</time>
      </trkpt>
      <trkpt lat="44.8258" lon="1.18232">
        <ele>103.4</ele>
        <time>2015-10-03T11:52:13Z</time>
      </trkpt>
      <trkpt lat="44.8257" lon="1.18259">
        <ele>103.6</ele>
        <time>2015-10-03T11:52:22Z</time>
      </trkpt>
      <trkpt lat="44.82563" lon="1.18276">
        <ele>103.6</ele>
        <time>2015-10-03T11:52:29Z</time>
      </trkpt>
      <trkpt lat="44.82556" lon="1.1829">
        <ele>103.6</ele>
        <time>2015-10-03T11:52:37Z</time>
      </trkpt>
      <trkpt lat="44.82552" lon="1.18303">
        <ele>103.6</ele>
        <time>2015-10-03T11:52:43Z</time>
      </trkpt>
      <trkpt lat="44.82549" lon="1.1831">
        <ele>103.6</ele>
        <time>2015-10-03T11:52:48Z</time>
      </trkpt>
      <trkpt lat="44.82549" lon="1.18311">
        <ele>103.6</ele>
        <time>2015-10-03T11:52:51Z</time>
      </trkpt>
      <trkpt lat="44.82553" lon="1.18306">
        <ele>103.8</ele>
        <time>2015-10-03T11:53:41Z</time>
      </trkpt>
      <trkpt lat="44.82554" lon="1.18304">
        <ele>103.8</ele>
        <time>2015-10-03T11:53:42Z</time>
      </trkpt>
      <trkpt lat="44.82564" lon="1.18281">
        <ele>104</ele>
        <time>2015-10-03T11:53:50Z</time>
      </trkpt>
      <trkpt lat="44.82577" lon="1.1825">
        <ele>104</ele>
        <time>2015-10-03T11:54:00Z</time>
      </trkpt>
      <trkpt lat="44.82588" lon="1.18223">
        <ele>104.2</ele>
        <time>2015-10-03T11:54:08Z</time>
      </trkpt>
      <trkpt lat="44.82593" lon="1.1821">
        <ele>104.2</ele>
        <time>2015-10-03T11:54:14Z</time>
      </trkpt>
      <trkpt lat="44.82592" lon="1.18212">
        <ele>104.2</ele>
        <time>2015-10-03T11:54:23Z</time>
      </trkpt>
      <trkpt lat="44.82593" lon="1.18212">
        <ele>104</ele>
        <time>2015-10-03T11:54:26Z</time>
      </trkpt>
      <trkpt lat="44.82596" lon="1.18206">
        <ele>104.4</ele>
        <time>2015-10-03T11:54:43Z</time>
      </trkpt>
      <trkpt lat="44.82598" lon="1.18202">
        <ele>104.2</ele>
        <time>2015-10-03T11:54:45Z</time>
      </trkpt>
      <trkpt lat="44.82601" lon="1.18195">
        <ele>104.4</ele>
        <time>2015-10-03T11:54:51Z</time>
      </trkpt>
      <trkpt lat="44.82604" lon="1.18184">
        <ele>105.4</ele>
        <time>2015-10-03T11:56:51Z</time>
      </trkpt>
      <trkpt lat="44.82606" lon="1.18178">
        <ele>105.4</ele>
        <time>2015-10-03T11:56:53Z</time>
      </trkpt>
      <trkpt lat="44.82617" lon="1.18152">
        <ele>105.6</ele>
        <time>2015-10-03T11:57:00Z</time>
      </trkpt>
      <trkpt lat="44.82624" lon="1.18132">
        <ele>105.4</ele>
        <time>2015-10-03T11:57:07Z</time>
      </trkpt>
      <trkpt lat="44.82629" lon="1.18114">
        <ele>105.4</ele>
        <time>2015-10-03T11:57:13Z</time>
      </trkpt>
      <trkpt lat="44.82636" lon="1.18096">
        <ele>105.6</ele>
        <time>2015-10-03T11:57:20Z</time>
      </trkpt>
      <trkpt lat="44.82637" lon="1.18095">
        <ele>105.6</ele>
        <time>2015-10-03T11:57:21Z</time>
      </trkpt>
      <trkpt lat="44.82638" lon="1.18094">
        <ele>105.6</ele>
        <time>2015-10-03T11:57:24Z</time>
      </trkpt>
      <trkpt lat="44.82638" lon="1.18094">
        <ele>105.6</ele>
        <time>2015-10-03T11:57:25Z</time>
      </trkpt>
      <trkpt lat="44.82648" lon="1.18086">
        <ele>108.6</ele>
        <time>2015-10-03T12:03:52Z</time>
      </trkpt>
      <trkpt lat="44.82667" lon="1.18088">
        <ele>108.6</ele>
        <time>2015-10-03T12:04:03Z</time>
      </trkpt>
      <trkpt lat="44.82681" lon="1.18088">
        <ele>108.4</ele>
        <time>2015-10-03T12:04:14Z</time>
      </trkpt>
      <trkpt lat="44.82655" lon="1.18094">
        <ele>108.6</ele>
        <time>2015-10-03T12:05:09Z</time>
      </trkpt>
      <trkpt lat="44.82655" lon="1.18087">
        <ele>108.2</ele>
        <time>2015-10-03T12:05:12Z</time>
      </trkpt>
      <trkpt lat="44.82647" lon="1.1809">
        <ele>108.2</ele>
        <time>2015-10-03T12:15:42Z</time>
      </trkpt>
      <trkpt lat="44.82647" lon="1.1809">
        <ele>107.6</ele>
        <time>2015-10-03T12:19:29Z</time>
      </trkpt>
      <trkpt lat="44.82647" lon="1.1809">
        <ele>107.8</ele>
        <time>2015-10-03T12:24:11Z</time>
      </trkpt>
      <trkpt lat="44.82647" lon="1.1809">
        <ele>108.8</ele>
        <time>2015-10-03T12:26:45Z</time>
      </trkpt>
      <trkpt lat="44.82647" lon="1.1809">
        <ele>108.4</ele>
        <time>2015-10-03T12:30:04Z</time>
      </trkpt>
      <trkpt lat="44.82647" lon="1.1809">
        <ele>107.2</ele>
        <time>2015-10-03T12:32:37Z</time>
      </trkpt>
      <trkpt lat="44.82647" lon="1.1809">
        <ele>108.6</ele>
        <time>2015-10-03T12:32:40Z</time>
      </trkpt>
      <trkpt lat="44.82647" lon="1.1809">
        <ele>107.4</ele>
        <time>2015-10-03T12:33:56Z</time>
      </trkpt>
      <trkpt lat="44.82647" lon="1.1809">
        <ele>108</ele>
        <time>2015-10-03T12:37:56Z</time>
      </trkpt>
      <trkpt lat="44.82647" lon="1.1809">
        <ele>108.6</ele>
        <time>2015-10-03T12:38:21Z</time>
      </trkpt>
      <trkpt lat="44.82647" lon="1.1809">
        <ele>107.4</ele>
        <time>2015-10-03T12:39:04Z</time>
      </trkpt>
      <trkpt lat="44.82647" lon="1.1809">
        <ele>107.4</ele>
        <time>2015-10-03T12:47:00Z</time>
      </trkpt>
      <trkpt lat="44.82647" lon="1.1809">
        <ele>107.6</ele>
        <time>2015-10-03T12:51:48Z</time>
      </trkpt>
      <trkpt lat="44.82647" lon="1.1809">
        <ele>108.8</ele>
        <time>2015-10-03T12:51:51Z</time>
      </trkpt>
      <trkpt lat="44.82647" lon="1.1809">
        <ele>107.8</ele>
        <time>2015-10-03T12:51:55Z</time>
      </trkpt>
      <trkpt lat="44.82657" lon="1.181">
        <ele>108</ele>
        <time>2015-10-03T12:52:53Z</time>
      </trkpt>
      <trkpt lat="44.82645" lon="1.18116">
        <ele>105.6</ele>
        <time>2015-10-03T13:03:40Z</time>
      </trkpt>
      <trkpt lat="44.82636" lon="1.18097">
        <ele>104.2</ele>
        <time>2015-10-03T13:20:11Z</time>
      </trkpt>
      <trkpt lat="44.8264" lon="1.18088">
        <ele>104</ele>
        <time>2015-10-03T13:20:14Z</time>
      </trkpt>
      <trkpt lat="44.8265" lon="1.18059">
        <ele>104.4</ele>
        <time>2015-10-03T13:20:22Z</time>
      </trkpt>
      <trkpt lat="44.82661" lon="1.18024">
        <ele>104.4</ele>
        <time>2015-10-03T13:20:30Z</time>
      </trkpt>
      <trkpt lat="44.82672" lon="1.17988">
        <ele>103.8</ele>
        <time>2015-10-03T13:20:37Z</time>
      </trkpt>
      <trkpt lat="44.82686" lon="1.17951">
        <ele>105.2</ele>
        <time>2015-10-03T13:20:45Z</time>
      </trkpt>
      <trkpt lat="44.82698" lon="1.17913">
        <ele>106</ele>
        <time>2015-10-03T13:20:53Z</time>
      </trkpt>
      <trkpt lat="44.82701" lon="1.17903">
        <ele>106.4</ele>
        <time>2015-10-03T13:20:55Z</time>
      </trkpt>
      <trkpt lat="44.8271" lon="1.17875">
        <ele>106.6</ele>
        <time>2015-10-03T13:21:01Z</time>
      </trkpt>
      <trkpt lat="44.82714" lon="1.17842">
        <ele>107.2</ele>
        <time>2015-10-03T13:21:07Z</time>
      </trkpt>
      <trkpt lat="44.82711" lon="1.17807">
        <ele>106.8</ele>
        <time>2015-10-03T13:21:13Z</time>
      </trkpt>
      <trkpt lat="44.82703" lon="1.17757">
        <ele>106.8</ele>
        <time>2015-10-03T13:21:21Z</time>
      </trkpt>
      <trkpt lat="44.82686" lon="1.17704">
        <ele>106.6</ele>
        <time>2015-10-03T13:21:30Z</time>
      </trkpt>
      <trkpt lat="44.8267" lon="1.17658">
        <ele>106.8</ele>
        <time>2015-10-03T13:21:38Z</time>
      </trkpt>
      <trkpt lat="44.82649" lon="1.17613">
        <ele>107</ele>
        <time>2015-10-03T13:21:46Z</time>
      </trkpt>
      <trkpt lat="44.82646" lon="1.17608">
        <ele>107</ele>
        <time>2015-10-03T13:21:47Z</time>
      </trkpt>
      <trkpt lat="44.82625" lon="1.17586">
        <ele>106.8</ele>
        <time>2015-10-03T13:21:52Z</time>
      </trkpt>
      <trkpt lat="44.82599" lon="1.17553">
        <ele>106.8</ele>
        <time>2015-10-03T13:21:59Z</time>
      </trkpt>
      <trkpt lat="44.82596" lon="1.17548">
        <ele>106.8</ele>
        <time>2015-10-03T13:22:00Z</time>
      </trkpt>
      <trkpt lat="44.8259" lon="1.17538">
        <ele>106.8</ele>
        <time>2015-10-03T13:22:02Z</time>
      </trkpt>
      <trkpt lat="44.82581" lon="1.17529">
        <ele>106.6</ele>
        <time>2015-10-03T13:22:04Z</time>
      </trkpt>
      <trkpt lat="44.82547" lon="1.17485">
        <ele>106.2</ele>
        <time>2015-10-03T13:22:13Z</time>
      </trkpt>
      <trkpt lat="44.82544" lon="1.17479">
        <ele>106.2</ele>
        <time>2015-10-03T13:22:14Z</time>
      </trkpt>
      <trkpt lat="44.82536" lon="1.17446">
        <ele>105.8</ele>
        <time>2015-10-03T13:22:19Z</time>
      </trkpt>
      <trkpt lat="44.82528" lon="1.17379">
        <ele>106.6</ele>
        <time>2015-10-03T13:22:29Z</time>
      </trkpt>
      <trkpt lat="44.8252" lon="1.17313">
        <ele>106.6</ele>
        <time>2015-10-03T13:22:39Z</time>
      </trkpt>
      <trkpt lat="44.82519" lon="1.17306">
        <ele>104.4</ele>
        <time>2015-10-03T13:22:40Z</time>
      </trkpt>
      <trkpt lat="44.82518" lon="1.173">
        <ele>106.4</ele>
        <time>2015-10-03T13:22:41Z</time>
      </trkpt>
      <trkpt lat="44.82516" lon="1.17287">
        <ele>108</ele>
        <time>2015-10-03T13:22:43Z</time>
      </trkpt>
      <trkpt lat="44.82515" lon="1.1728">
        <ele>106.6</ele>
        <time>2015-10-03T13:22:44Z</time>
      </trkpt>
      <trkpt lat="44.82511" lon="1.17247">
        <ele>106.6</ele>
        <time>2015-10-03T13:22:49Z</time>
      </trkpt>
      <trkpt lat="44.82505" lon="1.17194">
        <ele>106.6</ele>
        <time>2015-10-03T13:22:57Z</time>
      </trkpt>
      <trkpt lat="44.82497" lon="1.17147">
        <ele>106.6</ele>
        <time>2015-10-03T13:23:04Z</time>
      </trkpt>
      <trkpt lat="44.82485" lon="1.17096">
        <ele>106.8</ele>
        <time>2015-10-03T13:23:12Z</time>
      </trkpt>
      <trkpt lat="44.82481" lon="1.17077">
        <ele>107.2</ele>
        <time>2015-10-03T13:23:15Z</time>
      </trkpt>
      <trkpt lat="44.82472" lon="1.17032">
        <ele>107.2</ele>
        <time>2015-10-03T13:23:22Z</time>
      </trkpt>
      <trkpt lat="44.8246" lon="1.16981">
        <ele>107.4</ele>
        <time>2015-10-03T13:23:30Z</time>
      </trkpt>
      <trkpt lat="44.82437" lon="1.1691">
        <ele>107.2</ele>
        <time>2015-10-03T13:23:41Z</time>
      </trkpt>
      <trkpt lat="44.8242" lon="1.1686">
        <ele>107.6</ele>
        <time>2015-10-03T13:23:49Z</time>
      </trkpt>
      <trkpt lat="44.82405" lon="1.16814">
        <ele>107.4</ele>
        <time>2015-10-03T13:23:56Z</time>
      </trkpt>
      <trkpt lat="44.82394" lon="1.16766">
        <ele>107.6</ele>
        <time>2015-10-03T13:24:03Z</time>
      </trkpt>
      <trkpt lat="44.8239" lon="1.16752">
        <ele>107.6</ele>
        <time>2015-10-03T13:24:05Z</time>
      </trkpt>
      <trkpt lat="44.82369" lon="1.16703">
        <ele>107.4</ele>
        <time>2015-10-03T13:24:13Z</time>
      </trkpt>
      <trkpt lat="44.82344" lon="1.16649">
        <ele>107.4</ele>
        <time>2015-10-03T13:24:22Z</time>
      </trkpt>
      <trkpt lat="44.8232" lon="1.166">
        <ele>106.8</ele>
        <time>2015-10-03T13:24:30Z</time>
      </trkpt>
      <trkpt lat="44.82309" lon="1.16576">
        <ele>106.6</ele>
        <time>2015-10-03T13:24:34Z</time>
      </trkpt>
      <trkpt lat="44.82297" lon="1.16551">
        <ele>106.6</ele>
        <time>2015-10-03T13:24:38Z</time>
      </trkpt>
      <trkpt lat="44.82271" lon="1.16498">
        <ele>106.6</ele>
        <time>2015-10-03T13:24:46Z</time>
      </trkpt>
      <trkpt lat="44.82244" lon="1.16428">
        <ele>106.4</ele>
        <time>2015-10-03T13:24:56Z</time>
      </trkpt>
      <trkpt lat="44.82228" lon="1.16373">
        <ele>106.2</ele>
        <time>2015-10-03T13:25:04Z</time>
      </trkpt>
      <trkpt lat="44.82225" lon="1.1636">
        <ele>106.2</ele>
        <time>2015-10-03T13:25:06Z</time>
      </trkpt>
      <trkpt lat="44.82217" lon="1.16325">
        <ele>106.2</ele>
        <time>2015-10-03T13:25:11Z</time>
      </trkpt>
      <trkpt lat="44.82202" lon="1.16259">
        <ele>106.4</ele>
        <time>2015-10-03T13:25:20Z</time>
      </trkpt>
      <trkpt lat="44.82193" lon="1.16212">
        <ele>106.2</ele>
        <time>2015-10-03T13:25:27Z</time>
      </trkpt>
      <trkpt lat="44.82182" lon="1.16142">
        <ele>106.4</ele>
        <time>2015-10-03T13:25:37Z</time>
      </trkpt>
      <trkpt lat="44.82182" lon="1.16135">
        <ele>106.4</ele>
        <time>2015-10-03T13:25:38Z</time>
      </trkpt>
      <trkpt lat="44.8218" lon="1.16101">
        <ele>106.6</ele>
        <time>2015-10-03T13:25:43Z</time>
      </trkpt>
      <trkpt lat="44.82178" lon="1.16044">
        <ele>107.4</ele>
        <time>2015-10-03T13:25:52Z</time>
      </trkpt>
      <trkpt lat="44.82178" lon="1.16038">
        <ele>107.6</ele>
        <time>2015-10-03T13:25:53Z</time>
      </trkpt>
      <trkpt lat="44.82178" lon="1.16002">
        <ele>107.8</ele>
        <time>2015-10-03T13:25:59Z</time>
      </trkpt>
      <trkpt lat="44.82179" lon="1.1599">
        <ele>108.2</ele>
        <time>2015-10-03T13:26:01Z</time>
      </trkpt>
      <trkpt lat="44.82183" lon="1.15967">
        <ele>108.8</ele>
        <time>2015-10-03T13:26:05Z</time>
      </trkpt>
      <trkpt lat="44.82193" lon="1.15929">
        <ele>109.8</ele>
        <time>2015-10-03T13:26:12Z</time>
      </trkpt>
      <trkpt lat="44.82214" lon="1.15879">
        <ele>110.6</ele>
        <time>2015-10-03T13:26:22Z</time>
      </trkpt>
      <trkpt lat="44.82219" lon="1.15871">
        <ele>110.8</ele>
        <time>2015-10-03T13:26:24Z</time>
      </trkpt>
      <trkpt lat="44.82232" lon="1.1585">
        <ele>111.4</ele>
        <time>2015-10-03T13:26:29Z</time>
      </trkpt>
      <trkpt lat="44.82259" lon="1.1581">
        <ele>112</ele>
        <time>2015-10-03T13:26:39Z</time>
      </trkpt>
      <trkpt lat="44.82286" lon="1.15771">
        <ele>112.8</ele>
        <time>2015-10-03T13:26:49Z</time>
      </trkpt>
      <trkpt lat="44.82289" lon="1.15768">
        <ele>113</ele>
        <time>2015-10-03T13:26:50Z</time>
      </trkpt>
      <trkpt lat="44.82312" lon="1.15741">
        <ele>113.4</ele>
        <time>2015-10-03T13:26:58Z</time>
      </trkpt>
      <trkpt lat="44.8233" lon="1.15721">
        <ele>114</ele>
        <time>2015-10-03T13:27:04Z</time>
      </trkpt>
      <trkpt lat="44.82338" lon="1.15712">
        <ele>115.6</ele>
        <time>2015-10-03T13:27:07Z</time>
      </trkpt>
      <trkpt lat="44.82341" lon="1.15709">
        <ele>115.6</ele>
        <time>2015-10-03T13:27:08Z</time>
      </trkpt>
      <trkpt lat="44.82347" lon="1.15703">
        <ele>114.4</ele>
        <time>2015-10-03T13:27:10Z</time>
      </trkpt>
      <trkpt lat="44.82365" lon="1.15679">
        <ele>115.2</ele>
        <time>2015-10-03T13:27:17Z</time>
      </trkpt>
      <trkpt lat="44.82373" lon="1.15668">
        <ele>115.2</ele>
        <time>2015-10-03T13:27:20Z</time>
      </trkpt>
      <trkpt lat="44.82379" lon="1.15659">
        <ele>115.2</ele>
        <time>2015-10-03T13:27:22Z</time>
      </trkpt>
      <trkpt lat="44.82403" lon="1.15624">
        <ele>114.8</ele>
        <time>2015-10-03T13:27:30Z</time>
      </trkpt>
      <trkpt lat="44.82424" lon="1.15596">
        <ele>114.6</ele>
        <time>2015-10-03T13:27:37Z</time>
      </trkpt>
      <trkpt lat="44.82451" lon="1.15565">
        <ele>114.6</ele>
        <time>2015-10-03T13:27:45Z</time>
      </trkpt>
      <trkpt lat="44.82489" lon="1.15528">
        <ele>114.6</ele>
        <time>2015-10-03T13:27:54Z</time>
      </trkpt>
      <trkpt lat="44.82525" lon="1.15497">
        <ele>114.6</ele>
        <time>2015-10-03T13:28:02Z</time>
      </trkpt>
      <trkpt lat="44.82564" lon="1.15473">
        <ele>114.4</ele>
        <time>2015-10-03T13:28:10Z</time>
      </trkpt>
      <trkpt lat="44.82611" lon="1.15451">
        <ele>113.6</ele>
        <time>2015-10-03T13:28:19Z</time>
      </trkpt>
      <trkpt lat="44.82632" lon="1.15442">
        <ele>113.4</ele>
        <time>2015-10-03T13:28:23Z</time>
      </trkpt>
      <trkpt lat="44.82658" lon="1.1543">
        <ele>113.4</ele>
        <time>2015-10-03T13:28:28Z</time>
      </trkpt>
      <trkpt lat="44.82712" lon="1.15408">
        <ele>112.6</ele>
        <time>2015-10-03T13:28:38Z</time>
      </trkpt>
      <trkpt lat="44.82723" lon="1.15403">
        <ele>112.4</ele>
        <time>2015-10-03T13:28:40Z</time>
      </trkpt>
      <trkpt lat="44.82729" lon="1.15401">
        <ele>112.4</ele>
        <time>2015-10-03T13:28:41Z</time>
      </trkpt>
      <trkpt lat="44.8278" lon="1.15379">
        <ele>111.4</ele>
        <time>2015-10-03T13:28:51Z</time>
      </trkpt>
      <trkpt lat="44.82785" lon="1.15377">
        <ele>111.2</ele>
        <time>2015-10-03T13:28:52Z</time>
      </trkpt>
      <trkpt lat="44.82819" lon="1.15362">
        <ele>111</ele>
        <time>2015-10-03T13:28:59Z</time>
      </trkpt>
      <trkpt lat="44.82859" lon="1.15343">
        <ele>110.2</ele>
        <time>2015-10-03T13:29:07Z</time>
      </trkpt>
      <trkpt lat="44.82868" lon="1.15339">
        <ele>110.2</ele>
        <time>2015-10-03T13:29:09Z</time>
      </trkpt>
      <trkpt lat="44.82906" lon="1.15322">
        <ele>109.4</ele>
        <time>2015-10-03T13:29:17Z</time>
      </trkpt>
      <trkpt lat="44.8292" lon="1.15315">
        <ele>109</ele>
        <time>2015-10-03T13:29:20Z</time>
      </trkpt>
      <trkpt lat="44.82955" lon="1.15301">
        <ele>108.4</ele>
        <time>2015-10-03T13:29:27Z</time>
      </trkpt>
      <trkpt lat="44.82965" lon="1.15298">
        <ele>108</ele>
        <time>2015-10-03T13:29:29Z</time>
      </trkpt>
      <trkpt lat="44.82992" lon="1.15293">
        <ele>107.4</ele>
        <time>2015-10-03T13:29:34Z</time>
      </trkpt>
      <trkpt lat="44.83015" lon="1.15294">
        <ele>106.8</ele>
        <time>2015-10-03T13:29:38Z</time>
      </trkpt>
      <trkpt lat="44.83027" lon="1.15294">
        <ele>106.4</ele>
        <time>2015-10-03T13:29:40Z</time>
      </trkpt>
      <trkpt lat="44.83063" lon="1.15295">
        <ele>105.8</ele>
        <time>2015-10-03T13:29:46Z</time>
      </trkpt>
      <trkpt lat="44.83069" lon="1.15294">
        <ele>105.6</ele>
        <time>2015-10-03T13:29:47Z</time>
      </trkpt>
      <trkpt lat="44.83123" lon="1.15295">
        <ele>104.8</ele>
        <time>2015-10-03T13:29:56Z</time>
      </trkpt>
      <trkpt lat="44.83134" lon="1.15295">
        <ele>104.6</ele>
        <time>2015-10-03T13:29:58Z</time>
      </trkpt>
      <trkpt lat="44.83145" lon="1.15295">
        <ele>104.8</ele>
        <time>2015-10-03T13:30:00Z</time>
      </trkpt>
      <trkpt lat="44.83179" lon="1.15295">
        <ele>104.4</ele>
        <time>2015-10-03T13:30:06Z</time>
      </trkpt>
      <trkpt lat="44.83216" lon="1.15294">
        <ele>104</ele>
        <time>2015-10-03T13:30:13Z</time>
      </trkpt>
      <trkpt lat="44.83243" lon="1.15295">
        <ele>103.8</ele>
        <time>2015-10-03T13:30:18Z</time>
      </trkpt>
      <trkpt lat="44.83248" lon="1.15298">
        <ele>103.8</ele>
        <time>2015-10-03T13:30:19Z</time>
      </trkpt>
      <trkpt lat="44.83253" lon="1.15301">
        <ele>103.6</ele>
        <time>2015-10-03T13:30:20Z</time>
      </trkpt>
      <trkpt lat="44.83267" lon="1.15315">
        <ele>104</ele>
        <time>2015-10-03T13:30:23Z</time>
      </trkpt>
      <trkpt lat="44.83298" lon="1.1536">
        <ele>104</ele>
        <time>2015-10-03T13:30:31Z</time>
      </trkpt>
      <trkpt lat="44.83326" lon="1.15401">
        <ele>103.8</ele>
        <time>2015-10-03T13:30:39Z</time>
      </trkpt>
      <trkpt lat="44.83335" lon="1.15411">
        <ele>103.6</ele>
        <time>2015-10-03T13:30:43Z</time>
      </trkpt>
      <trkpt lat="44.83338" lon="1.15412">
        <ele>103.6</ele>
        <time>2015-10-03T13:30:44Z</time>
      </trkpt>
      <trkpt lat="44.83346" lon="1.15408">
        <ele>103.2</ele>
        <time>2015-10-03T13:30:46Z</time>
      </trkpt>
      <trkpt lat="44.83366" lon="1.1539">
        <ele>103.4</ele>
        <time>2015-10-03T13:30:51Z</time>
      </trkpt>
      <trkpt lat="44.8337" lon="1.15386">
        <ele>103.4</ele>
        <time>2015-10-03T13:30:52Z</time>
      </trkpt>
      <trkpt lat="44.83382" lon="1.15359">
        <ele>103.6</ele>
        <time>2015-10-03T13:30:57Z</time>
      </trkpt>
      <trkpt lat="44.83384" lon="1.15352">
        <ele>103.6</ele>
        <time>2015-10-03T13:30:58Z</time>
      </trkpt>
      <trkpt lat="44.83391" lon="1.15309">
        <ele>103.4</ele>
        <time>2015-10-03T13:31:04Z</time>
      </trkpt>
      <trkpt lat="44.83395" lon="1.15295">
        <ele>103.4</ele>
        <time>2015-10-03T13:31:06Z</time>
      </trkpt>
      <trkpt lat="44.83408" lon="1.15262">
        <ele>103.4</ele>
        <time>2015-10-03T13:31:11Z</time>
      </trkpt>
      <trkpt lat="44.8342" lon="1.15246">
        <ele>103.6</ele>
        <time>2015-10-03T13:31:14Z</time>
      </trkpt>
      <trkpt lat="44.83429" lon="1.15238">
        <ele>103.4</ele>
        <time>2015-10-03T13:31:16Z</time>
      </trkpt>
      <trkpt lat="44.83439" lon="1.15233">
        <ele>103.4</ele>
        <time>2015-10-03T13:31:18Z</time>
      </trkpt>
      <trkpt lat="44.83448" lon="1.15228">
        <ele>103.4</ele>
        <time>2015-10-03T13:31:20Z</time>
      </trkpt>
      <trkpt lat="44.83458" lon="1.15225">
        <ele>103.6</ele>
        <time>2015-10-03T13:31:22Z</time>
      </trkpt>
      <trkpt lat="44.83509" lon="1.15207">
        <ele>103.4</ele>
        <time>2015-10-03T13:31:32Z</time>
      </trkpt>
      <trkpt lat="44.8355" lon="1.15191">
        <ele>103.4</ele>
        <time>2015-10-03T13:31:40Z</time>
      </trkpt>
      <trkpt lat="44.83587" lon="1.15177">
        <ele>103.2</ele>
        <time>2015-10-03T13:31:47Z</time>
      </trkpt>
      <trkpt lat="44.83639" lon="1.15158">
        <ele>103.2</ele>
        <time>2015-10-03T13:31:57Z</time>
      </trkpt>
      <trkpt lat="44.8367" lon="1.15143">
        <ele>103.2</ele>
        <time>2015-10-03T13:32:03Z</time>
      </trkpt>
      <trkpt lat="44.83685" lon="1.15132">
        <ele>103.2</ele>
        <time>2015-10-03T13:32:06Z</time>
      </trkpt>
      <trkpt lat="44.83728" lon="1.15094">
        <ele>102.8</ele>
        <time>2015-10-03T13:32:15Z</time>
      </trkpt>
      <trkpt lat="44.83759" lon="1.15048">
        <ele>103</ele>
        <time>2015-10-03T13:32:23Z</time>
      </trkpt>
      <trkpt lat="44.83785" lon="1.14987">
        <ele>102.8</ele>
        <time>2015-10-03T13:32:32Z</time>
      </trkpt>
      <trkpt lat="44.83802" lon="1.1494">
        <ele>103</ele>
        <time>2015-10-03T13:32:39Z</time>
      </trkpt>
      <trkpt lat="44.83819" lon="1.14899">
        <ele>103.2</ele>
        <time>2015-10-03T13:32:46Z</time>
      </trkpt>
      <trkpt lat="44.83834" lon="1.14863">
        <ele>103</ele>
        <time>2015-10-03T13:32:52Z</time>
      </trkpt>
      <trkpt lat="44.8384" lon="1.14855">
        <ele>103.2</ele>
        <time>2015-10-03T13:32:54Z</time>
      </trkpt>
      <trkpt lat="44.83847" lon="1.14841">
        <ele>103.2</ele>
        <time>2015-10-03T13:32:57Z</time>
      </trkpt>
      <trkpt lat="44.83852" lon="1.14825">
        <ele>103</ele>
        <time>2015-10-03T13:33:00Z</time>
      </trkpt>
      <trkpt lat="44.83865" lon="1.14795">
        <ele>103.2</ele>
        <time>2015-10-03T13:33:06Z</time>
      </trkpt>
      <trkpt lat="44.83872" lon="1.14783">
        <ele>103</ele>
        <time>2015-10-03T13:33:11Z</time>
      </trkpt>
      <trkpt lat="44.83876" lon="1.14776">
        <ele>103</ele>
        <time>2015-10-03T13:33:15Z</time>
      </trkpt>
      <trkpt lat="44.83878" lon="1.14773">
        <ele>103</ele>
        <time>2015-10-03T13:33:17Z</time>
      </trkpt>
      <trkpt lat="44.83887" lon="1.14756">
        <ele>103.2</ele>
        <time>2015-10-03T13:33:22Z</time>
      </trkpt>
      <trkpt lat="44.83896" lon="1.14732">
        <ele>103.2</ele>
        <time>2015-10-03T13:33:28Z</time>
      </trkpt>
      <trkpt lat="44.83909" lon="1.14707">
        <ele>103.2</ele>
        <time>2015-10-03T13:33:35Z</time>
      </trkpt>
      <trkpt lat="44.83922" lon="1.14681">
        <ele>103.4</ele>
        <time>2015-10-03T13:33:42Z</time>
      </trkpt>
      <trkpt lat="44.83926" lon="1.1467">
        <ele>103.6</ele>
        <time>2015-10-03T13:33:46Z</time>
      </trkpt>
      <trkpt lat="44.83926" lon="1.14666">
        <ele>103.6</ele>
        <time>2015-10-03T13:33:47Z</time>
      </trkpt>
      <trkpt lat="44.83926" lon="1.1464">
        <ele>103.8</ele>
        <time>2015-10-03T13:33:54Z</time>
      </trkpt>
      <trkpt lat="44.83928" lon="1.14621">
        <ele>103.8</ele>
        <time>2015-10-03T13:34:01Z</time>
      </trkpt>
      <trkpt lat="44.83928" lon="1.1462">
        <ele>103.8</ele>
        <time>2015-10-03T13:34:05Z</time>
      </trkpt>
      <trkpt lat="44.83931" lon="1.14616">
        <ele>104.4</ele>
        <time>2015-10-03T13:35:42Z</time>
      </trkpt>
      <trkpt lat="44.83931" lon="1.14614">
        <ele>104.6</ele>
        <time>2015-10-03T13:35:43Z</time>
      </trkpt>
      <trkpt lat="44.83932" lon="1.14612">
        <ele>104.6</ele>
        <time>2015-10-03T13:35:44Z</time>
      </trkpt>
      <trkpt lat="44.83933" lon="1.14606">
        <ele>105</ele>
        <time>2015-10-03T13:35:46Z</time>
      </trkpt>
      <trkpt lat="44.83933" lon="1.14601">
        <ele>105.8</ele>
        <time>2015-10-03T13:35:48Z</time>
      </trkpt>
      <trkpt lat="44.83934" lon="1.14598">
        <ele>106.4</ele>
        <time>2015-10-03T13:35:49Z</time>
      </trkpt>
      <trkpt lat="44.83936" lon="1.1459">
        <ele>107</ele>
        <time>2015-10-03T13:35:53Z</time>
      </trkpt>
      <trkpt lat="44.83938" lon="1.14583">
        <ele>108.2</ele>
        <time>2015-10-03T13:35:56Z</time>
      </trkpt>
      <trkpt lat="44.8394" lon="1.14574">
        <ele>109.4</ele>
        <time>2015-10-03T13:36:00Z</time>
      </trkpt>
      <trkpt lat="44.83944" lon="1.14566">
        <ele>110.6</ele>
        <time>2015-10-03T13:36:04Z</time>
      </trkpt>
      <trkpt lat="44.83945" lon="1.14555">
        <ele>112</ele>
        <time>2015-10-03T13:36:09Z</time>
      </trkpt>
      <trkpt lat="44.83945" lon="1.14553">
        <ele>112.2</ele>
        <time>2015-10-03T13:36:10Z</time>
      </trkpt>
      <trkpt lat="44.83946" lon="1.14549">
        <ele>113.2</ele>
        <time>2015-10-03T13:36:12Z</time>
      </trkpt>
      <trkpt lat="44.83949" lon="1.14539">
        <ele>114</ele>
        <time>2015-10-03T13:36:16Z</time>
      </trkpt>
      <trkpt lat="44.83949" lon="1.14534">
        <ele>114.4</ele>
        <time>2015-10-03T13:36:18Z</time>
      </trkpt>
      <trkpt lat="44.8395" lon="1.14526">
        <ele>115</ele>
        <time>2015-10-03T13:36:22Z</time>
      </trkpt>
      <trkpt lat="44.83949" lon="1.1452">
        <ele>115.4</ele>
        <time>2015-10-03T13:36:27Z</time>
      </trkpt>
      <trkpt lat="44.83949" lon="1.1452">
        <ele>115.4</ele>
        <time>2015-10-03T13:36:28Z</time>
      </trkpt>
      <trkpt lat="44.83949" lon="1.14511">
        <ele>115.4</ele>
        <time>2015-10-03T13:37:12Z</time>
      </trkpt>
      <trkpt lat="44.83949" lon="1.14506">
        <ele>115.8</ele>
        <time>2015-10-03T13:37:15Z</time>
      </trkpt>
      <trkpt lat="44.83949" lon="1.14503">
        <ele>115.8</ele>
        <time>2015-10-03T13:37:17Z</time>
      </trkpt>
      <trkpt lat="44.8395" lon="1.14497">
        <ele>115.8</ele>
        <time>2015-10-03T13:37:42Z</time>
      </trkpt>
      <trkpt lat="44.83953" lon="1.1449">
        <ele>116</ele>
        <time>2015-10-03T13:37:45Z</time>
      </trkpt>
      <trkpt lat="44.83953" lon="1.14479">
        <ele>116.4</ele>
        <time>2015-10-03T13:37:49Z</time>
      </trkpt>
      <trkpt lat="44.83955" lon="1.14475">
        <ele>116.4</ele>
        <time>2015-10-03T13:37:51Z</time>
      </trkpt>
      <trkpt lat="44.83955" lon="1.14473">
        <ele>116.6</ele>
        <time>2015-10-03T13:37:52Z</time>
      </trkpt>
      <trkpt lat="44.83956" lon="1.14467">
        <ele>116.8</ele>
        <time>2015-10-03T13:37:55Z</time>
      </trkpt>
      <trkpt lat="44.83957" lon="1.1446">
        <ele>117.2</ele>
        <time>2015-10-03T13:37:58Z</time>
      </trkpt>
      <trkpt lat="44.83956" lon="1.1445">
        <ele>117.6</ele>
        <time>2015-10-03T13:38:02Z</time>
      </trkpt>
      <trkpt lat="44.83954" lon="1.14441">
        <ele>117.8</ele>
        <time>2015-10-03T13:38:05Z</time>
      </trkpt>
      <trkpt lat="44.83953" lon="1.14427">
        <ele>118.4</ele>
        <time>2015-10-03T13:38:10Z</time>
      </trkpt>
      <trkpt lat="44.83955" lon="1.14416">
        <ele>118.8</ele>
        <time>2015-10-03T13:38:14Z</time>
      </trkpt>
      <trkpt lat="44.83954" lon="1.1441">
        <ele>119.2</ele>
        <time>2015-10-03T13:38:16Z</time>
      </trkpt>
      <trkpt lat="44.83955" lon="1.14393">
        <ele>119.6</ele>
        <time>2015-10-03T13:38:22Z</time>
      </trkpt>
      <trkpt lat="44.83957" lon="1.14378">
        <ele>120</ele>
        <time>2015-10-03T13:38:27Z</time>
      </trkpt>
      <trkpt lat="44.83959" lon="1.14371">
        <ele>120.2</ele>
        <time>2015-10-03T13:38:30Z</time>
      </trkpt>
      <trkpt lat="44.83963" lon="1.14357">
        <ele>121</ele>
        <time>2015-10-03T13:38:36Z</time>
      </trkpt>
      <trkpt lat="44.83964" lon="1.14354">
        <ele>121.2</ele>
        <time>2015-10-03T13:38:38Z</time>
      </trkpt>
      <trkpt lat="44.83966" lon="1.14347">
        <ele>119.6</ele>
        <time>2015-10-03T13:38:42Z</time>
      </trkpt>
      <trkpt lat="44.8397" lon="1.14343">
        <ele>121.4</ele>
        <time>2015-10-03T13:38:45Z</time>
      </trkpt>
      <trkpt lat="44.8397" lon="1.14342">
        <ele>122.6</ele>
        <time>2015-10-03T13:38:46Z</time>
      </trkpt>
      <trkpt lat="44.83972" lon="1.14339">
        <ele>125</ele>
        <time>2015-10-03T13:38:48Z</time>
      </trkpt>
      <trkpt lat="44.83971" lon="1.14338">
        <ele>123.4</ele>
        <time>2015-10-03T13:38:49Z</time>
      </trkpt>
      <trkpt lat="44.83971" lon="1.14339">
        <ele>123.8</ele>
        <time>2015-10-03T13:38:51Z</time>
      </trkpt>
      <trkpt lat="44.83978" lon="1.1433">
        <ele>124.2</ele>
        <time>2015-10-03T13:39:12Z</time>
      </trkpt>
      <trkpt lat="44.83979" lon="1.14328">
        <ele>124.4</ele>
        <time>2015-10-03T13:39:13Z</time>
      </trkpt>
      <trkpt lat="44.83981" lon="1.14326">
        <ele>125.2</ele>
        <time>2015-10-03T13:39:14Z</time>
      </trkpt>
      <trkpt lat="44.83982" lon="1.14324">
        <ele>125.6</ele>
        <time>2015-10-03T13:39:15Z</time>
      </trkpt>
      <trkpt lat="44.83986" lon="1.14318">
        <ele>126.6</ele>
        <time>2015-10-03T13:39:18Z</time>
      </trkpt>
      <trkpt lat="44.83989" lon="1.14316">
        <ele>127.2</ele>
        <time>2015-10-03T13:39:20Z</time>
      </trkpt>
      <trkpt lat="44.8399" lon="1.14314">
        <ele>127.8</ele>
        <time>2015-10-03T13:39:21Z</time>
      </trkpt>
      <trkpt lat="44.83989" lon="1.14314">
        <ele>128.2</ele>
        <time>2015-10-03T13:39:24Z</time>
      </trkpt>
      <trkpt lat="44.83995" lon="1.14313">
        <ele>128.8</ele>
        <time>2015-10-03T13:40:06Z</time>
      </trkpt>
      <trkpt lat="44.83997" lon="1.14313">
        <ele>129.2</ele>
        <time>2015-10-03T13:40:08Z</time>
      </trkpt>
      <trkpt lat="44.83999" lon="1.14313">
        <ele>129.8</ele>
        <time>2015-10-03T13:40:09Z</time>
      </trkpt>
      <trkpt lat="44.84003" lon="1.14313">
        <ele>131</ele>
        <time>2015-10-03T13:40:12Z</time>
      </trkpt>
      <trkpt lat="44.84006" lon="1.14313">
        <ele>131.8</ele>
        <time>2015-10-03T13:40:14Z</time>
      </trkpt>
      <trkpt lat="44.84006" lon="1.14315">
        <ele>132.2</ele>
        <time>2015-10-03T13:40:15Z</time>
      </trkpt>
      <trkpt lat="44.84005" lon="1.14317">
        <ele>132.4</ele>
        <time>2015-10-03T13:40:16Z</time>
      </trkpt>
      <trkpt lat="44.83999" lon="1.14321">
        <ele>133.4</ele>
        <time>2015-10-03T13:40:20Z</time>
      </trkpt>
      <trkpt lat="44.83997" lon="1.14322">
        <ele>133.8</ele>
        <time>2015-10-03T13:40:22Z</time>
      </trkpt>
      <trkpt lat="44.83998" lon="1.14325">
        <ele>134.2</ele>
        <time>2015-10-03T13:40:24Z</time>
      </trkpt>
      <trkpt lat="44.83999" lon="1.14326">
        <ele>134.4</ele>
        <time>2015-10-03T13:40:25Z</time>
      </trkpt>
      <trkpt lat="44.84001" lon="1.14326">
        <ele>134.6</ele>
        <time>2015-10-03T13:40:26Z</time>
      </trkpt>
      <trkpt lat="44.84003" lon="1.14327">
        <ele>135.2</ele>
        <time>2015-10-03T13:40:28Z</time>
      </trkpt>
      <trkpt lat="44.84003" lon="1.14327">
        <ele>135.8</ele>
        <time>2015-10-03T13:40:29Z</time>
      </trkpt>
      <trkpt lat="44.84003" lon="1.14327">
        <ele>136</ele>
        <time>2015-10-03T13:40:30Z</time>
      </trkpt>
      <trkpt lat="44.84005" lon="1.14326">
        <ele>137.8</ele>
        <time>2015-10-03T13:40:35Z</time>
      </trkpt>
      <trkpt lat="44.84005" lon="1.14326">
        <ele>136.8</ele>
        <time>2015-10-03T13:40:36Z</time>
      </trkpt>
      <trkpt lat="44.84005" lon="1.14325">
        <ele>137</ele>
        <time>2015-10-03T13:40:37Z</time>
      </trkpt>
      <trkpt lat="44.84007" lon="1.14327">
        <ele>137</ele>
        <time>2015-10-03T13:40:41Z</time>
      </trkpt>
      <trkpt lat="44.84009" lon="1.14327">
        <ele>137.6</ele>
        <time>2015-10-03T13:40:43Z</time>
      </trkpt>
      <trkpt lat="44.84012" lon="1.14327">
        <ele>138</ele>
        <time>2015-10-03T13:40:45Z</time>
      </trkpt>
      <trkpt lat="44.84015" lon="1.14328">
        <ele>139.2</ele>
        <time>2015-10-03T13:40:48Z</time>
      </trkpt>
      <trkpt lat="44.84016" lon="1.14329">
        <ele>139.4</ele>
        <time>2015-10-03T13:40:49Z</time>
      </trkpt>
      <trkpt lat="44.84017" lon="1.1433">
        <ele>140</ele>
        <time>2015-10-03T13:40:50Z</time>
      </trkpt>
      <trkpt lat="44.84019" lon="1.14331">
        <ele>140.4</ele>
        <time>2015-10-03T13:40:51Z</time>
      </trkpt>
      <trkpt lat="44.84025" lon="1.14334">
        <ele>141.8</ele>
        <time>2015-10-03T13:40:55Z</time>
      </trkpt>
      <trkpt lat="44.84028" lon="1.14335">
        <ele>142.6</ele>
        <time>2015-10-03T13:40:57Z</time>
      </trkpt>
      <trkpt lat="44.84029" lon="1.14337">
        <ele>142.8</ele>
        <time>2015-10-03T13:40:58Z</time>
      </trkpt>
      <trkpt lat="44.84032" lon="1.14339">
        <ele>143.8</ele>
        <time>2015-10-03T13:41:00Z</time>
      </trkpt>
      <trkpt lat="44.84034" lon="1.14341">
        <ele>144.6</ele>
        <time>2015-10-03T13:41:02Z</time>
      </trkpt>
      <trkpt lat="44.84035" lon="1.14342">
        <ele>145</ele>
        <time>2015-10-03T13:41:03Z</time>
      </trkpt>
      <trkpt lat="44.84038" lon="1.14345">
        <ele>146</ele>
        <time>2015-10-03T13:41:06Z</time>
      </trkpt>
      <trkpt lat="44.84039" lon="1.14347">
        <ele>147</ele>
        <time>2015-10-03T13:41:08Z</time>
      </trkpt>
      <trkpt lat="44.84039" lon="1.14349">
        <ele>147</ele>
        <time>2015-10-03T13:41:09Z</time>
      </trkpt>
      <trkpt lat="44.84043" lon="1.14353">
        <ele>148.6</ele>
        <time>2015-10-03T13:41:13Z</time>
      </trkpt>
      <trkpt lat="44.84046" lon="1.14356">
        <ele>149.6</ele>
        <time>2015-10-03T13:41:16Z</time>
      </trkpt>
      <trkpt lat="44.8405" lon="1.1436">
        <ele>150.8</ele>
        <time>2015-10-03T13:41:20Z</time>
      </trkpt>
      <trkpt lat="44.84052" lon="1.14363">
        <ele>152</ele>
        <time>2015-10-03T13:41:23Z</time>
      </trkpt>
      <trkpt lat="44.84053" lon="1.14364">
        <ele>152.2</ele>
        <time>2015-10-03T13:41:24Z</time>
      </trkpt>
      <trkpt lat="44.84055" lon="1.14365">
        <ele>153.4</ele>
        <time>2015-10-03T13:41:26Z</time>
      </trkpt>
      <trkpt lat="44.84058" lon="1.1437">
        <ele>154.2</ele>
        <time>2015-10-03T13:41:31Z</time>
      </trkpt>
      <trkpt lat="44.84059" lon="1.14372">
        <ele>154.2</ele>
        <time>2015-10-03T13:41:37Z</time>
      </trkpt>
      <trkpt lat="44.84022" lon="1.14326">
        <ele>143.8</ele>
        <time>2015-10-03T14:07:01Z</time>
      </trkpt>
      <trkpt lat="44.84016" lon="1.14324">
        <ele>142.6</ele>
        <time>2015-10-03T14:07:05Z</time>
      </trkpt>
      <trkpt lat="44.84011" lon="1.14322">
        <ele>141.4</ele>
        <time>2015-10-03T14:07:08Z</time>
      </trkpt>
      <trkpt lat="44.8401" lon="1.14321">
        <ele>141</ele>
        <time>2015-10-03T14:07:09Z</time>
      </trkpt>
      <trkpt lat="44.84007" lon="1.1432">
        <ele>140.2</ele>
        <time>2015-10-03T14:07:11Z</time>
      </trkpt>
      <trkpt lat="44.84004" lon="1.1432">
        <ele>139</ele>
        <time>2015-10-03T14:07:14Z</time>
      </trkpt>
      <trkpt lat="44.83999" lon="1.14323">
        <ele>137.4</ele>
        <time>2015-10-03T14:07:25Z</time>
      </trkpt>
      <trkpt lat="44.83996" lon="1.14321">
        <ele>136.4</ele>
        <time>2015-10-03T14:07:27Z</time>
      </trkpt>
      <trkpt lat="44.83994" lon="1.14316">
        <ele>135.4</ele>
        <time>2015-10-03T14:07:30Z</time>
      </trkpt>
      <trkpt lat="44.83995" lon="1.14314">
        <ele>135.2</ele>
        <time>2015-10-03T14:07:31Z</time>
      </trkpt>
      <trkpt lat="44.83999" lon="1.14311">
        <ele>134.6</ele>
        <time>2015-10-03T14:07:39Z</time>
      </trkpt>
      <trkpt lat="44.84" lon="1.1431">
        <ele>134.2</ele>
        <time>2015-10-03T14:07:40Z</time>
      </trkpt>
      <trkpt lat="44.83995" lon="1.14309">
        <ele>131.6</ele>
        <time>2015-10-03T14:07:48Z</time>
      </trkpt>
      <trkpt lat="44.83989" lon="1.1431">
        <ele>130</ele>
        <time>2015-10-03T14:07:51Z</time>
      </trkpt>
      <trkpt lat="44.83984" lon="1.14311">
        <ele>129.4</ele>
        <time>2015-10-03T14:07:53Z</time>
      </trkpt>
      <trkpt lat="44.83982" lon="1.14313">
        <ele>129</ele>
        <time>2015-10-03T14:07:54Z</time>
      </trkpt>
      <trkpt lat="44.83978" lon="1.14318">
        <ele>128</ele>
        <time>2015-10-03T14:07:56Z</time>
      </trkpt>
      <trkpt lat="44.83976" lon="1.14323">
        <ele>127</ele>
        <time>2015-10-03T14:07:58Z</time>
      </trkpt>
      <trkpt lat="44.83973" lon="1.14329">
        <ele>125.8</ele>
        <time>2015-10-03T14:08:01Z</time>
      </trkpt>
      <trkpt lat="44.8397" lon="1.14336">
        <ele>124.6</ele>
        <time>2015-10-03T14:08:04Z</time>
      </trkpt>
      <trkpt lat="44.83967" lon="1.1434">
        <ele>123.6</ele>
        <time>2015-10-03T14:08:06Z</time>
      </trkpt>
      <trkpt lat="44.83966" lon="1.14344">
        <ele>123.4</ele>
        <time>2015-10-03T14:08:07Z</time>
      </trkpt>
      <trkpt lat="44.83963" lon="1.14353">
        <ele>122.2</ele>
        <time>2015-10-03T14:08:12Z</time>
      </trkpt>
      <trkpt lat="44.83958" lon="1.1437">
        <ele>121.2</ele>
        <time>2015-10-03T14:08:17Z</time>
      </trkpt>
      <trkpt lat="44.83956" lon="1.14375">
        <ele>120.8</ele>
        <time>2015-10-03T14:08:18Z</time>
      </trkpt>
      <trkpt lat="44.83952" lon="1.14406">
        <ele>120</ele>
        <time>2015-10-03T14:08:23Z</time>
      </trkpt>
      <trkpt lat="44.83953" lon="1.14415">
        <ele>118.8</ele>
        <time>2015-10-03T14:08:24Z</time>
      </trkpt>
      <trkpt lat="44.83954" lon="1.14464">
        <ele>118</ele>
        <time>2015-10-03T14:08:31Z</time>
      </trkpt>
      <trkpt lat="44.83953" lon="1.14471">
        <ele>117.4</ele>
        <time>2015-10-03T14:08:32Z</time>
      </trkpt>
      <trkpt lat="44.83949" lon="1.14502">
        <ele>117</ele>
        <time>2015-10-03T14:08:36Z</time>
      </trkpt>
      <trkpt lat="44.83949" lon="1.14508">
        <ele>116.2</ele>
        <time>2015-10-03T14:08:37Z</time>
      </trkpt>
      <trkpt lat="44.83947" lon="1.1452">
        <ele>115.8</ele>
        <time>2015-10-03T14:08:40Z</time>
      </trkpt>
      <trkpt lat="44.83947" lon="1.14523">
        <ele>115.2</ele>
        <time>2015-10-03T14:08:58Z</time>
      </trkpt>
      <trkpt lat="44.83947" lon="1.14526">
        <ele>115.2</ele>
        <time>2015-10-03T14:08:59Z</time>
      </trkpt>
      <trkpt lat="44.83945" lon="1.14544">
        <ele>114.6</ele>
        <time>2015-10-03T14:09:05Z</time>
      </trkpt>
      <trkpt lat="44.83944" lon="1.14548">
        <ele>114.2</ele>
        <time>2015-10-03T14:09:06Z</time>
      </trkpt>
      <trkpt lat="44.83939" lon="1.14566">
        <ele>113</ele>
        <time>2015-10-03T14:09:10Z</time>
      </trkpt>
      <trkpt lat="44.83937" lon="1.14576">
        <ele>111.8</ele>
        <time>2015-10-03T14:09:12Z</time>
      </trkpt>
      <trkpt lat="44.83934" lon="1.14587">
        <ele>110.4</ele>
        <time>2015-10-03T14:09:14Z</time>
      </trkpt>
      <trkpt lat="44.83932" lon="1.14597">
        <ele>108.8</ele>
        <time>2015-10-03T14:09:16Z</time>
      </trkpt>
      <trkpt lat="44.83929" lon="1.14607">
        <ele>107</ele>
        <time>2015-10-03T14:09:18Z</time>
      </trkpt>
      <trkpt lat="44.83929" lon="1.14612">
        <ele>106.6</ele>
        <time>2015-10-03T14:09:19Z</time>
      </trkpt>
      <trkpt lat="44.83929" lon="1.14619">
        <ele>105.8</ele>
        <time>2015-10-03T14:09:21Z</time>
      </trkpt>
      <trkpt lat="44.83928" lon="1.14621">
        <ele>104.8</ele>
        <time>2015-10-03T14:09:23Z</time>
      </trkpt>
      <trkpt lat="44.83929" lon="1.14608">
        <ele>104.6</ele>
        <time>2015-10-03T14:09:45Z</time>
      </trkpt>
      <trkpt lat="44.8393" lon="1.146">
        <ele>104.6</ele>
        <time>2015-10-03T14:09:47Z</time>
      </trkpt>
      <trkpt lat="44.83935" lon="1.14567">
        <ele>104.8</ele>
        <time>2015-10-03T14:09:54Z</time>
      </trkpt>
      <trkpt lat="44.83937" lon="1.14542">
        <ele>105.2</ele>
        <time>2015-10-03T14:09:59Z</time>
      </trkpt>
      <trkpt lat="44.83937" lon="1.14511">
        <ele>105.2</ele>
        <time>2015-10-03T14:10:05Z</time>
      </trkpt>
      <trkpt lat="44.83938" lon="1.14464">
        <ele>105.2</ele>
        <time>2015-10-03T14:10:13Z</time>
      </trkpt>
      <trkpt lat="44.83937" lon="1.14421">
        <ele>105.4</ele>
        <time>2015-10-03T14:10:21Z</time>
      </trkpt>
      <trkpt lat="44.83937" lon="1.14403">
        <ele>105.4</ele>
        <time>2015-10-03T14:10:26Z</time>
      </trkpt>
      <trkpt lat="44.83936" lon="1.14397">
        <ele>105.2</ele>
        <time>2015-10-03T14:10:49Z</time>
      </trkpt>
      <trkpt lat="44.83936" lon="1.14394">
        <ele>105.4</ele>
        <time>2015-10-03T14:10:50Z</time>
      </trkpt>
      <trkpt lat="44.83938" lon="1.14374">
        <ele>105.6</ele>
        <time>2015-10-03T14:10:54Z</time>
      </trkpt>
      <trkpt lat="44.83938" lon="1.14368">
        <ele>105.6</ele>
        <time>2015-10-03T14:10:55Z</time>
      </trkpt>
      <trkpt lat="44.83943" lon="1.14338">
        <ele>106</ele>
        <time>2015-10-03T14:11:00Z</time>
      </trkpt>
      <trkpt lat="44.83956" lon="1.14292">
        <ele>106.4</ele>
        <time>2015-10-03T14:11:08Z</time>
      </trkpt>
      <trkpt lat="44.83965" lon="1.14271">
        <ele>106.2</ele>
        <time>2015-10-03T14:11:12Z</time>
      </trkpt>
      <trkpt lat="44.8397" lon="1.1426">
        <ele>106.2</ele>
        <time>2015-10-03T14:11:14Z</time>
      </trkpt>
      <trkpt lat="44.83981" lon="1.14224">
        <ele>106.2</ele>
        <time>2015-10-03T14:11:21Z</time>
      </trkpt>
      <trkpt lat="44.83986" lon="1.14214">
        <ele>106.2</ele>
        <time>2015-10-03T14:11:25Z</time>
      </trkpt>
      <trkpt lat="44.83992" lon="1.14192">
        <ele>106.4</ele>
        <time>2015-10-03T14:11:32Z</time>
      </trkpt>
      <trkpt lat="44.83995" lon="1.14186">
        <ele>106.6</ele>
        <time>2015-10-03T14:19:20Z</time>
      </trkpt>
      <trkpt lat="44.83995" lon="1.14184">
        <ele>106.6</ele>
        <time>2015-10-03T14:19:21Z</time>
      </trkpt>
      <trkpt lat="44.84" lon="1.14164">
        <ele>106.4</ele>
        <time>2015-10-03T14:19:27Z</time>
      </trkpt>
      <trkpt lat="44.84009" lon="1.14133">
        <ele>106.8</ele>
        <time>2015-10-03T14:19:34Z</time>
      </trkpt>
      <trkpt lat="44.84016" lon="1.141">
        <ele>107.4</ele>
        <time>2015-10-03T14:19:41Z</time>
      </trkpt>
      <trkpt lat="44.84025" lon="1.14056">
        <ele>107.6</ele>
        <time>2015-10-03T14:19:49Z</time>
      </trkpt>
      <trkpt lat="44.84026" lon="1.14049">
        <ele>107.8</ele>
        <time>2015-10-03T14:19:50Z</time>
      </trkpt>
      <trkpt lat="44.84032" lon="1.14009">
        <ele>107.8</ele>
        <time>2015-10-03T14:19:56Z</time>
      </trkpt>
      <trkpt lat="44.8404" lon="1.13936">
        <ele>106.2</ele>
        <time>2015-10-03T14:20:07Z</time>
      </trkpt>
      <trkpt lat="44.84043" lon="1.13916">
        <ele>107.4</ele>
        <time>2015-10-03T14:20:10Z</time>
      </trkpt>
      <trkpt lat="44.84043" lon="1.13909">
        <ele>108.4</ele>
        <time>2015-10-03T14:20:11Z</time>
      </trkpt>
      <trkpt lat="44.84047" lon="1.13883">
        <ele>108</ele>
        <time>2015-10-03T14:20:15Z</time>
      </trkpt>
      <trkpt lat="44.84051" lon="1.13864">
        <ele>108.2</ele>
        <time>2015-10-03T14:20:18Z</time>
      </trkpt>
      <trkpt lat="44.84055" lon="1.13846">
        <ele>108.2</ele>
        <time>2015-10-03T14:20:21Z</time>
      </trkpt>
      <trkpt lat="44.84057" lon="1.1384">
        <ele>108.2</ele>
        <time>2015-10-03T14:20:22Z</time>
      </trkpt>
      <trkpt lat="44.84077" lon="1.1379">
        <ele>108.6</ele>
        <time>2015-10-03T14:20:30Z</time>
      </trkpt>
      <trkpt lat="44.84085" lon="1.13747">
        <ele>108.8</ele>
        <time>2015-10-03T14:20:36Z</time>
      </trkpt>
      <trkpt lat="44.84086" lon="1.13732">
        <ele>108.8</ele>
        <time>2015-10-03T14:20:38Z</time>
      </trkpt>
      <trkpt lat="44.84083" lon="1.13704">
        <ele>109</ele>
        <time>2015-10-03T14:20:42Z</time>
      </trkpt>
      <trkpt lat="44.84081" lon="1.13692">
        <ele>109.4</ele>
        <time>2015-10-03T14:20:44Z</time>
      </trkpt>
      <trkpt lat="44.84076" lon="1.13668">
        <ele>109.8</ele>
        <time>2015-10-03T14:20:48Z</time>
      </trkpt>
      <trkpt lat="44.8407" lon="1.1364">
        <ele>110.6</ele>
        <time>2015-10-03T14:20:53Z</time>
      </trkpt>
      <trkpt lat="44.84068" lon="1.13628">
        <ele>111</ele>
        <time>2015-10-03T14:20:55Z</time>
      </trkpt>
      <trkpt lat="44.84064" lon="1.13604">
        <ele>111.6</ele>
        <time>2015-10-03T14:20:59Z</time>
      </trkpt>
      <trkpt lat="44.84059" lon="1.13588">
        <ele>112</ele>
        <time>2015-10-03T14:21:02Z</time>
      </trkpt>
      <trkpt lat="44.84052" lon="1.1356">
        <ele>112.8</ele>
        <time>2015-10-03T14:21:07Z</time>
      </trkpt>
      <trkpt lat="44.8405" lon="1.13549">
        <ele>113</ele>
        <time>2015-10-03T14:21:09Z</time>
      </trkpt>
      <trkpt lat="44.84042" lon="1.13521">
        <ele>113.8</ele>
        <time>2015-10-03T14:21:15Z</time>
      </trkpt>
      <trkpt lat="44.84041" lon="1.13516">
        <ele>114</ele>
        <time>2015-10-03T14:21:16Z</time>
      </trkpt>
      <trkpt lat="44.84036" lon="1.135">
        <ele>114.4</ele>
        <time>2015-10-03T14:21:19Z</time>
      </trkpt>
      <trkpt lat="44.84033" lon="1.13489">
        <ele>115</ele>
        <time>2015-10-03T14:21:21Z</time>
      </trkpt>
      <trkpt lat="44.84028" lon="1.13474">
        <ele>115.2</ele>
        <time>2015-10-03T14:21:24Z</time>
      </trkpt>
      <trkpt lat="44.84024" lon="1.13462">
        <ele>115.4</ele>
        <time>2015-10-03T14:21:27Z</time>
      </trkpt>
      <trkpt lat="44.84016" lon="1.13441">
        <ele>116</ele>
        <time>2015-10-03T14:21:32Z</time>
      </trkpt>
      <trkpt lat="44.84012" lon="1.13428">
        <ele>116.2</ele>
        <time>2015-10-03T14:21:35Z</time>
      </trkpt>
      <trkpt lat="44.84001" lon="1.13398">
        <ele>117</ele>
        <time>2015-10-03T14:21:42Z</time>
      </trkpt>
      <trkpt lat="44.83989" lon="1.13363">
        <ele>118</ele>
        <time>2015-10-03T14:21:50Z</time>
      </trkpt>
      <trkpt lat="44.83986" lon="1.13355">
        <ele>118</ele>
        <time>2015-10-03T14:21:52Z</time>
      </trkpt>
      <trkpt lat="44.83977" lon="1.13331">
        <ele>118.8</ele>
        <time>2015-10-03T14:21:58Z</time>
      </trkpt>
      <trkpt lat="44.83974" lon="1.13322">
        <ele>119.2</ele>
        <time>2015-10-03T14:22:00Z</time>
      </trkpt>
      <trkpt lat="44.83969" lon="1.13306">
        <ele>119.6</ele>
        <time>2015-10-03T14:22:04Z</time>
      </trkpt>
      <trkpt lat="44.83964" lon="1.13292">
        <ele>120.2</ele>
        <time>2015-10-03T14:22:07Z</time>
      </trkpt>
      <trkpt lat="44.8396" lon="1.1328">
        <ele>120.6</ele>
        <time>2015-10-03T14:22:10Z</time>
      </trkpt>
      <trkpt lat="44.83952" lon="1.13257">
        <ele>121.2</ele>
        <time>2015-10-03T14:22:16Z</time>
      </trkpt>
      <trkpt lat="44.83943" lon="1.13233">
        <ele>121.4</ele>
        <time>2015-10-03T14:22:22Z</time>
      </trkpt>
      <trkpt lat="44.83925" lon="1.13199">
        <ele>121</ele>
        <time>2015-10-03T14:22:29Z</time>
      </trkpt>
      <trkpt lat="44.83911" lon="1.13174">
        <ele>120</ele>
        <time>2015-10-03T14:22:33Z</time>
      </trkpt>
      <trkpt lat="44.83902" lon="1.13162">
        <ele>119.6</ele>
        <time>2015-10-03T14:22:35Z</time>
      </trkpt>
      <trkpt lat="44.83889" lon="1.13141">
        <ele>119</ele>
        <time>2015-10-03T14:22:38Z</time>
      </trkpt>
      <trkpt lat="44.83872" lon="1.13112">
        <ele>118.2</ele>
        <time>2015-10-03T14:22:42Z</time>
      </trkpt>
      <trkpt lat="44.83867" lon="1.13104">
        <ele>117.8</ele>
        <time>2015-10-03T14:22:43Z</time>
      </trkpt>
      <trkpt lat="44.83839" lon="1.13059">
        <ele>116.6</ele>
        <time>2015-10-03T14:22:49Z</time>
      </trkpt>
      <trkpt lat="44.83825" lon="1.13035">
        <ele>115.8</ele>
        <time>2015-10-03T14:22:52Z</time>
      </trkpt>
      <trkpt lat="44.8382" lon="1.13027">
        <ele>115.4</ele>
        <time>2015-10-03T14:22:53Z</time>
      </trkpt>
      <trkpt lat="44.83814" lon="1.13008">
        <ele>114.6</ele>
        <time>2015-10-03T14:22:55Z</time>
      </trkpt>
      <trkpt lat="44.8381" lon="1.12999">
        <ele>114.2</ele>
        <time>2015-10-03T14:22:56Z</time>
      </trkpt>
      <trkpt lat="44.83799" lon="1.12958">
        <ele>113</ele>
        <time>2015-10-03T14:23:00Z</time>
      </trkpt>
      <trkpt lat="44.83795" lon="1.12937">
        <ele>112.4</ele>
        <time>2015-10-03T14:23:02Z</time>
      </trkpt>
      <trkpt lat="44.83793" lon="1.12904">
        <ele>111.8</ele>
        <time>2015-10-03T14:23:05Z</time>
      </trkpt>
      <trkpt lat="44.83794" lon="1.12881">
        <ele>111.2</ele>
        <time>2015-10-03T14:23:07Z</time>
      </trkpt>
      <trkpt lat="44.83799" lon="1.12849">
        <ele>110.6</ele>
        <time>2015-10-03T14:23:10Z</time>
      </trkpt>
      <trkpt lat="44.83805" lon="1.12818">
        <ele>110.2</ele>
        <time>2015-10-03T14:23:13Z</time>
      </trkpt>
      <trkpt lat="44.83815" lon="1.1278">
        <ele>109.6</ele>
        <time>2015-10-03T14:23:17Z</time>
      </trkpt>
      <trkpt lat="44.83821" lon="1.12752">
        <ele>109.4</ele>
        <time>2015-10-03T14:23:20Z</time>
      </trkpt>
      <trkpt lat="44.83826" lon="1.12695">
        <ele>108.6</ele>
        <time>2015-10-03T14:23:26Z</time>
      </trkpt>
      <trkpt lat="44.83826" lon="1.12686">
        <ele>108.6</ele>
        <time>2015-10-03T14:23:27Z</time>
      </trkpt>
      <trkpt lat="44.83821" lon="1.12642">
        <ele>108.2</ele>
        <time>2015-10-03T14:23:32Z</time>
      </trkpt>
      <trkpt lat="44.83811" lon="1.12567">
        <ele>107.8</ele>
        <time>2015-10-03T14:23:41Z</time>
      </trkpt>
      <trkpt lat="44.83809" lon="1.12552">
        <ele>107.6</ele>
        <time>2015-10-03T14:23:43Z</time>
      </trkpt>
      <trkpt lat="44.83802" lon="1.12499">
        <ele>107</ele>
        <time>2015-10-03T14:23:50Z</time>
      </trkpt>
      <trkpt lat="44.838" lon="1.12491">
        <ele>107</ele>
        <time>2015-10-03T14:23:51Z</time>
      </trkpt>
      <trkpt lat="44.83792" lon="1.12427">
        <ele>107</ele>
        <time>2015-10-03T14:23:59Z</time>
      </trkpt>
      <trkpt lat="44.83781" lon="1.12347">
        <ele>106.4</ele>
        <time>2015-10-03T14:24:09Z</time>
      </trkpt>
      <trkpt lat="44.83772" lon="1.12284">
        <ele>106.4</ele>
        <time>2015-10-03T14:24:17Z</time>
      </trkpt>
      <trkpt lat="44.83765" lon="1.12234">
        <ele>106.4</ele>
        <time>2015-10-03T14:24:24Z</time>
      </trkpt>
      <trkpt lat="44.83754" lon="1.12156">
        <ele>105.8</ele>
        <time>2015-10-03T14:24:35Z</time>
      </trkpt>
      <trkpt lat="44.83753" lon="1.12149">
        <ele>105.8</ele>
        <time>2015-10-03T14:24:36Z</time>
      </trkpt>
      <trkpt lat="44.83743" lon="1.12074">
        <ele>106</ele>
        <time>2015-10-03T14:24:47Z</time>
      </trkpt>
      <trkpt lat="44.83734" lon="1.12018">
        <ele>106</ele>
        <time>2015-10-03T14:24:56Z</time>
      </trkpt>
      <trkpt lat="44.83728" lon="1.12001">
        <ele>105.8</ele>
        <time>2015-10-03T14:25:00Z</time>
      </trkpt>
      <trkpt lat="44.83726" lon="1.12">
        <ele>105.8</ele>
        <time>2015-10-03T14:25:01Z</time>
      </trkpt>
      <trkpt lat="44.8372" lon="1.12002">
        <ele>105.4</ele>
        <time>2015-10-03T14:25:07Z</time>
      </trkpt>
      <trkpt lat="44.83715" lon="1.12005">
        <ele>105.2</ele>
        <time>2015-10-03T14:25:09Z</time>
      </trkpt>
      <trkpt lat="44.83695" lon="1.12014">
        <ele>104.6</ele>
        <time>2015-10-03T14:25:16Z</time>
      </trkpt>
      <trkpt lat="44.83693" lon="1.12015">
        <ele>104.4</ele>
        <time>2015-10-03T14:25:17Z</time>
      </trkpt>
      <trkpt lat="44.83671" lon="1.12025">
        <ele>104</ele>
        <time>2015-10-03T14:25:25Z</time>
      </trkpt>
      <trkpt lat="44.83655" lon="1.12031">
        <ele>103.4</ele>
        <time>2015-10-03T14:25:32Z</time>
      </trkpt>
      <trkpt lat="44.83647" lon="1.12031">
        <ele>102.8</ele>
        <time>2015-10-03T14:36:43Z</time>
      </trkpt>
      <trkpt lat="44.83653" lon="1.12029">
        <ele>103</ele>
        <time>2015-10-03T14:36:46Z</time>
      </trkpt>
      <trkpt lat="44.83664" lon="1.12025">
        <ele>103.4</ele>
        <time>2015-10-03T14:36:51Z</time>
      </trkpt>
      <trkpt lat="44.83681" lon="1.12019">
        <ele>103.4</ele>
        <time>2015-10-03T14:36:58Z</time>
      </trkpt>
      <trkpt lat="44.83694" lon="1.12014">
        <ele>104.4</ele>
        <time>2015-10-03T14:37:03Z</time>
      </trkpt>
      <trkpt lat="44.83699" lon="1.12012">
        <ele>104.4</ele>
        <time>2015-10-03T14:37:05Z</time>
      </trkpt>
      <trkpt lat="44.83718" lon="1.12003">
        <ele>104.6</ele>
        <time>2015-10-03T14:37:13Z</time>
      </trkpt>
      <trkpt lat="44.83725" lon="1.12002">
        <ele>104.8</ele>
        <time>2015-10-03T14:37:17Z</time>
      </trkpt>
      <trkpt lat="44.83725" lon="1.12002">
        <ele>104.8</ele>
        <time>2015-10-03T14:37:18Z</time>
      </trkpt>
      <trkpt lat="44.8373" lon="1.11994">
        <ele>105.2</ele>
        <time>2015-10-03T14:37:32Z</time>
      </trkpt>
      <trkpt lat="44.83729" lon="1.11977">
        <ele>105.2</ele>
        <time>2015-10-03T14:37:35Z</time>
      </trkpt>
      <trkpt lat="44.83721" lon="1.11917">
        <ele>105.4</ele>
        <time>2015-10-03T14:37:44Z</time>
      </trkpt>
      <trkpt lat="44.83713" lon="1.11862">
        <ele>105</ele>
        <time>2015-10-03T14:37:52Z</time>
      </trkpt>
      <trkpt lat="44.83705" lon="1.11799">
        <ele>104.8</ele>
        <time>2015-10-03T14:37:59Z</time>
      </trkpt>
      <trkpt lat="44.83695" lon="1.11732">
        <ele>104.6</ele>
        <time>2015-10-03T14:38:06Z</time>
      </trkpt>
      <trkpt lat="44.83687" lon="1.11669">
        <ele>105</ele>
        <time>2015-10-03T14:38:13Z</time>
      </trkpt>
      <trkpt lat="44.83682" lon="1.11635">
        <ele>105</ele>
        <time>2015-10-03T14:38:18Z</time>
      </trkpt>
      <trkpt lat="44.83677" lon="1.11604">
        <ele>104.8</ele>
        <time>2015-10-03T14:38:25Z</time>
      </trkpt>
      <trkpt lat="44.83674" lon="1.11601">
        <ele>104.8</ele>
        <time>2015-10-03T14:38:26Z</time>
      </trkpt>
      <trkpt lat="44.83671" lon="1.11595">
        <ele>105</ele>
        <time>2015-10-03T14:38:28Z</time>
      </trkpt>
      <trkpt lat="44.8367" lon="1.11592">
        <ele>105.2</ele>
        <time>2015-10-03T14:38:29Z</time>
      </trkpt>
      <trkpt lat="44.83669" lon="1.11592">
        <ele>105</ele>
        <time>2015-10-03T14:38:30Z</time>
      </trkpt>
      <trkpt lat="44.83665" lon="1.11594">
        <ele>104.8</ele>
        <time>2015-10-03T14:38:33Z</time>
      </trkpt>
      <trkpt lat="44.83657" lon="1.11589">
        <ele>105</ele>
        <time>2015-10-03T14:38:36Z</time>
      </trkpt>
      <trkpt lat="44.8365" lon="1.11579">
        <ele>105</ele>
        <time>2015-10-03T14:38:39Z</time>
      </trkpt>
      <trkpt lat="44.83644" lon="1.11571">
        <ele>105.2</ele>
        <time>2015-10-03T14:38:42Z</time>
      </trkpt>
      <trkpt lat="44.83638" lon="1.11561">
        <ele>105.6</ele>
        <time>2015-10-03T14:38:46Z</time>
      </trkpt>
      <trkpt lat="44.83627" lon="1.11561">
        <ele>105</ele>
        <time>2015-10-03T14:38:50Z</time>
      </trkpt>
      <trkpt lat="44.83624" lon="1.11562">
        <ele>105.2</ele>
        <time>2015-10-03T14:38:51Z</time>
      </trkpt>
      <trkpt lat="44.83609" lon="1.11563">
        <ele>105.4</ele>
        <time>2015-10-03T14:38:57Z</time>
      </trkpt>
      <trkpt lat="44.83601" lon="1.11564">
        <ele>105.2</ele>
        <time>2015-10-03T14:39:02Z</time>
      </trkpt>
      <trkpt lat="44.83601" lon="1.11564">
        <ele>105.2</ele>
        <time>2015-10-03T14:39:03Z</time>
      </trkpt>
      <trkpt lat="44.83599" lon="1.11568">
        <ele>105</ele>
        <time>2015-10-03T14:39:08Z</time>
      </trkpt>
      <trkpt lat="44.83592" lon="1.11569">
        <ele>105</ele>
        <time>2015-10-03T14:39:30Z</time>
      </trkpt>
      <trkpt lat="44.83592" lon="1.11567">
        <ele>105</ele>
        <time>2015-10-03T14:39:33Z</time>
      </trkpt>
      <trkpt lat="44.83592" lon="1.11568">
        <ele>105</ele>
        <time>2015-10-03T14:40:03Z</time>
      </trkpt>
      <trkpt lat="44.8359" lon="1.11568">
        <ele>105</ele>
        <time>2015-10-03T14:40:04Z</time>
      </trkpt>
      <trkpt lat="44.83579" lon="1.11572">
        <ele>104.6</ele>
        <time>2015-10-03T14:40:08Z</time>
      </trkpt>
      <trkpt lat="44.83576" lon="1.11573">
        <ele>104.6</ele>
        <time>2015-10-03T14:40:09Z</time>
      </trkpt>
      <trkpt lat="44.83555" lon="1.11577">
        <ele>103.6</ele>
        <time>2015-10-03T14:40:14Z</time>
      </trkpt>
      <trkpt lat="44.8355" lon="1.11577">
        <ele>103.2</ele>
        <time>2015-10-03T14:40:15Z</time>
      </trkpt>
      <trkpt lat="44.83513" lon="1.11586">
        <ele>102.6</ele>
        <time>2015-10-03T14:40:23Z</time>
      </trkpt>
      <trkpt lat="44.83478" lon="1.11598">
        <ele>101.4</ele>
        <time>2015-10-03T14:40:30Z</time>
      </trkpt>
      <trkpt lat="44.83435" lon="1.11614">
        <ele>100.8</ele>
        <time>2015-10-03T14:40:38Z</time>
      </trkpt>
      <trkpt lat="44.83433" lon="1.11615">
        <ele>100.6</ele>
        <time>2015-10-03T14:40:41Z</time>
      </trkpt>
      <trkpt lat="44.83433" lon="1.11615">
        <ele>100.4</ele>
        <time>2015-10-03T14:40:42Z</time>
      </trkpt>
      <trkpt lat="44.83426" lon="1.11618">
        <ele>100.4</ele>
        <time>2015-10-03T14:41:09Z</time>
      </trkpt>
      <trkpt lat="44.8342" lon="1.11619">
        <ele>100.2</ele>
        <time>2015-10-03T14:41:11Z</time>
      </trkpt>
      <trkpt lat="44.83401" lon="1.11625">
        <ele>100.4</ele>
        <time>2015-10-03T14:41:16Z</time>
      </trkpt>
      <trkpt lat="44.83377" lon="1.1163">
        <ele>101.6</ele>
        <time>2015-10-03T14:41:23Z</time>
      </trkpt>
      <trkpt lat="44.83355" lon="1.11632">
        <ele>101.6</ele>
        <time>2015-10-03T14:41:29Z</time>
      </trkpt>
      <trkpt lat="44.83333" lon="1.11639">
        <ele>100.6</ele>
        <time>2015-10-03T14:41:34Z</time>
      </trkpt>
      <trkpt lat="44.83328" lon="1.11643">
        <ele>100.4</ele>
        <time>2015-10-03T14:41:35Z</time>
      </trkpt>
      <trkpt lat="44.83316" lon="1.11659">
        <ele>99.6</ele>
        <time>2015-10-03T14:41:38Z</time>
      </trkpt>
      <trkpt lat="44.83312" lon="1.11664">
        <ele>99.8</ele>
        <time>2015-10-03T14:41:39Z</time>
      </trkpt>
      <trkpt lat="44.833" lon="1.11678">
        <ele>99.6</ele>
        <time>2015-10-03T14:41:42Z</time>
      </trkpt>
      <trkpt lat="44.83295" lon="1.11681">
        <ele>99.8</ele>
        <time>2015-10-03T14:41:43Z</time>
      </trkpt>
      <trkpt lat="44.83291" lon="1.11682">
        <ele>99.2</ele>
        <time>2015-10-03T14:41:44Z</time>
      </trkpt>
      <trkpt lat="44.83282" lon="1.11688">
        <ele>99.2</ele>
        <time>2015-10-03T14:41:47Z</time>
      </trkpt>
      <trkpt lat="44.83281" lon="1.11689">
        <ele>99</ele>
        <time>2015-10-03T14:41:50Z</time>
      </trkpt>
      <trkpt lat="44.8328" lon="1.1169">
        <ele>99</ele>
        <time>2015-10-03T14:41:58Z</time>
      </trkpt>
      <trkpt lat="44.83275" lon="1.1169">
        <ele>98.8</ele>
        <time>2015-10-03T14:42:01Z</time>
      </trkpt>
      <trkpt lat="44.83261" lon="1.11695">
        <ele>98.8</ele>
        <time>2015-10-03T14:42:05Z</time>
      </trkpt>
      <trkpt lat="44.8324" lon="1.11704">
        <ele>98.8</ele>
        <time>2015-10-03T14:42:11Z</time>
      </trkpt>
      <trkpt lat="44.83232" lon="1.11706">
        <ele>98.8</ele>
        <time>2015-10-03T14:42:13Z</time>
      </trkpt>
      <trkpt lat="44.8322" lon="1.11711">
        <ele>99</ele>
        <time>2015-10-03T14:42:16Z</time>
      </trkpt>
      <trkpt lat="44.83197" lon="1.11722">
        <ele>100.2</ele>
        <time>2015-10-03T14:42:22Z</time>
      </trkpt>
      <trkpt lat="44.83194" lon="1.11723">
        <ele>100.4</ele>
        <time>2015-10-03T14:42:23Z</time>
      </trkpt>
      <trkpt lat="44.83175" lon="1.1173">
        <ele>101.4</ele>
        <time>2015-10-03T14:42:28Z</time>
      </trkpt>
      <trkpt lat="44.83163" lon="1.11733">
        <ele>101.6</ele>
        <time>2015-10-03T14:42:31Z</time>
      </trkpt>
      <trkpt lat="44.83126" lon="1.11743">
        <ele>101</ele>
        <time>2015-10-03T14:42:39Z</time>
      </trkpt>
      <trkpt lat="44.83121" lon="1.11745">
        <ele>101</ele>
        <time>2015-10-03T14:42:40Z</time>
      </trkpt>
      <trkpt lat="44.83117" lon="1.11745">
        <ele>101</ele>
        <time>2015-10-03T14:42:41Z</time>
      </trkpt>
      <trkpt lat="44.83104" lon="1.11749">
        <ele>101.2</ele>
        <time>2015-10-03T14:42:44Z</time>
      </trkpt>
      <trkpt lat="44.83095" lon="1.1175">
        <ele>101</ele>
        <time>2015-10-03T14:42:46Z</time>
      </trkpt>
      <trkpt lat="44.8309" lon="1.11751">
        <ele>101</ele>
        <time>2015-10-03T14:42:47Z</time>
      </trkpt>
      <trkpt lat="44.83081" lon="1.11753">
        <ele>100.8</ele>
        <time>2015-10-03T14:42:49Z</time>
      </trkpt>
      <trkpt lat="44.83069" lon="1.11758">
        <ele>101.2</ele>
        <time>2015-10-03T14:42:52Z</time>
      </trkpt>
      <trkpt lat="44.83061" lon="1.1176">
        <ele>101.4</ele>
        <time>2015-10-03T14:42:54Z</time>
      </trkpt>
      <trkpt lat="44.83033" lon="1.11768">
        <ele>101.2</ele>
        <time>2015-10-03T14:43:01Z</time>
      </trkpt>
      <trkpt lat="44.83018" lon="1.11771">
        <ele>100.6</ele>
        <time>2015-10-03T14:43:04Z</time>
      </trkpt>
      <trkpt lat="44.83009" lon="1.11765">
        <ele>100.4</ele>
        <time>2015-10-03T14:43:06Z</time>
      </trkpt>
      <trkpt lat="44.82996" lon="1.11744">
        <ele>100.6</ele>
        <time>2015-10-03T14:43:10Z</time>
      </trkpt>
      <trkpt lat="44.82994" lon="1.11738">
        <ele>100.6</ele>
        <time>2015-10-03T14:43:11Z</time>
      </trkpt>
      <trkpt lat="44.82985" lon="1.11711">
        <ele>101.6</ele>
        <time>2015-10-03T14:43:16Z</time>
      </trkpt>
      <trkpt lat="44.82966" lon="1.11668">
        <ele>101.2</ele>
        <time>2015-10-03T14:43:24Z</time>
      </trkpt>
      <trkpt lat="44.82941" lon="1.11618">
        <ele>101.2</ele>
        <time>2015-10-03T14:43:33Z</time>
      </trkpt>
      <trkpt lat="44.82917" lon="1.11565">
        <ele>100.8</ele>
        <time>2015-10-03T14:43:43Z</time>
      </trkpt>
      <trkpt lat="44.82907" lon="1.11543">
        <ele>100.2</ele>
        <time>2015-10-03T14:43:47Z</time>
      </trkpt>
      <trkpt lat="44.82892" lon="1.1151">
        <ele>100.4</ele>
        <time>2015-10-03T14:43:53Z</time>
      </trkpt>
      <trkpt lat="44.82869" lon="1.1146">
        <ele>99.6</ele>
        <time>2015-10-03T14:44:02Z</time>
      </trkpt>
      <trkpt lat="44.82859" lon="1.11437">
        <ele>99.2</ele>
        <time>2015-10-03T14:44:06Z</time>
      </trkpt>
      <trkpt lat="44.82841" lon="1.11395">
        <ele>99</ele>
        <time>2015-10-03T14:44:13Z</time>
      </trkpt>
      <trkpt lat="44.82821" lon="1.11352">
        <ele>99.2</ele>
        <time>2015-10-03T14:44:21Z</time>
      </trkpt>
      <trkpt lat="44.82801" lon="1.11308">
        <ele>98.6</ele>
        <time>2015-10-03T14:44:29Z</time>
      </trkpt>
      <trkpt lat="44.82777" lon="1.11261">
        <ele>98.4</ele>
        <time>2015-10-03T14:44:38Z</time>
      </trkpt>
      <trkpt lat="44.82755" lon="1.11211">
        <ele>98.4</ele>
        <time>2015-10-03T14:44:47Z</time>
      </trkpt>
      <trkpt lat="44.8275" lon="1.11199">
        <ele>98.2</ele>
        <time>2015-10-03T14:44:49Z</time>
      </trkpt>
      <trkpt lat="44.82732" lon="1.11158">
        <ele>98.4</ele>
        <time>2015-10-03T14:44:56Z</time>
      </trkpt>
      <trkpt lat="44.8271" lon="1.11109">
        <ele>98.2</ele>
        <time>2015-10-03T14:45:04Z</time>
      </trkpt>
      <trkpt lat="44.82689" lon="1.11059">
        <ele>98.4</ele>
        <time>2015-10-03T14:45:12Z</time>
      </trkpt>
      <trkpt lat="44.82673" lon="1.11019">
        <ele>97.8</ele>
        <time>2015-10-03T14:45:19Z</time>
      </trkpt>
      <trkpt lat="44.8266" lon="1.10965">
        <ele>97.6</ele>
        <time>2015-10-03T14:45:27Z</time>
      </trkpt>
      <trkpt lat="44.8265" lon="1.10918">
        <ele>97.4</ele>
        <time>2015-10-03T14:45:34Z</time>
      </trkpt>
      <trkpt lat="44.82646" lon="1.10898">
        <ele>98</ele>
        <time>2015-10-03T14:45:37Z</time>
      </trkpt>
      <trkpt lat="44.82636" lon="1.10832">
        <ele>97.8</ele>
        <time>2015-10-03T14:45:47Z</time>
      </trkpt>
      <trkpt lat="44.82624" lon="1.10776">
        <ele>97.6</ele>
        <time>2015-10-03T14:45:56Z</time>
      </trkpt>
      <trkpt lat="44.82611" lon="1.10721">
        <ele>98.2</ele>
        <time>2015-10-03T14:46:05Z</time>
      </trkpt>
      <trkpt lat="44.82593" lon="1.10662">
        <ele>98</ele>
        <time>2015-10-03T14:46:15Z</time>
      </trkpt>
      <trkpt lat="44.82577" lon="1.10624">
        <ele>98</ele>
        <time>2015-10-03T14:46:22Z</time>
      </trkpt>
      <trkpt lat="44.82559" lon="1.10576">
        <ele>98</ele>
        <time>2015-10-03T14:46:31Z</time>
      </trkpt>
      <trkpt lat="44.82548" lon="1.10528">
        <ele>97.4</ele>
        <time>2015-10-03T14:46:39Z</time>
      </trkpt>
      <trkpt lat="44.82544" lon="1.10477">
        <ele>97.8</ele>
        <time>2015-10-03T14:46:47Z</time>
      </trkpt>
      <trkpt lat="44.8254" lon="1.10423">
        <ele>97.6</ele>
        <time>2015-10-03T14:46:56Z</time>
      </trkpt>
      <trkpt lat="44.82538" lon="1.10384">
        <ele>96.8</ele>
        <time>2015-10-03T14:47:02Z</time>
      </trkpt>
      <trkpt lat="44.82537" lon="1.10377">
        <ele>96.6</ele>
        <time>2015-10-03T14:47:03Z</time>
      </trkpt>
      <trkpt lat="44.82535" lon="1.10341">
        <ele>96.8</ele>
        <time>2015-10-03T14:47:09Z</time>
      </trkpt>
      <trkpt lat="44.82531" lon="1.10324">
        <ele>96</ele>
        <time>2015-10-03T14:47:12Z</time>
      </trkpt>
      <trkpt lat="44.8253" lon="1.10317">
        <ele>95.8</ele>
        <time>2015-10-03T14:47:13Z</time>
      </trkpt>
      <trkpt lat="44.82528" lon="1.1031">
        <ele>95.2</ele>
        <time>2015-10-03T14:47:14Z</time>
      </trkpt>
      <trkpt lat="44.82525" lon="1.10294">
        <ele>94.4</ele>
        <time>2015-10-03T14:47:16Z</time>
      </trkpt>
      <trkpt lat="44.8252" lon="1.10259">
        <ele>94.2</ele>
        <time>2015-10-03T14:47:20Z</time>
      </trkpt>
      <trkpt lat="44.82512" lon="1.10203">
        <ele>94.4</ele>
        <time>2015-10-03T14:47:27Z</time>
      </trkpt>
      <trkpt lat="44.82506" lon="1.10162">
        <ele>93.4</ele>
        <time>2015-10-03T14:47:33Z</time>
      </trkpt>
      <trkpt lat="44.82505" lon="1.10155">
        <ele>93.4</ele>
        <time>2015-10-03T14:47:34Z</time>
      </trkpt>
      <trkpt lat="44.82502" lon="1.1011">
        <ele>93.4</ele>
        <time>2015-10-03T14:47:41Z</time>
      </trkpt>
      <trkpt lat="44.82499" lon="1.10073">
        <ele>93.8</ele>
        <time>2015-10-03T14:47:47Z</time>
      </trkpt>
      <trkpt lat="44.82499" lon="1.10061">
        <ele>94</ele>
        <time>2015-10-03T14:47:49Z</time>
      </trkpt>
      <trkpt lat="44.82501" lon="1.10005">
        <ele>94</ele>
        <time>2015-10-03T14:47:58Z</time>
      </trkpt>
      <trkpt lat="44.82502" lon="1.09999">
        <ele>94.4</ele>
        <time>2015-10-03T14:47:59Z</time>
      </trkpt>
      <trkpt lat="44.82502" lon="1.09987">
        <ele>94.4</ele>
        <time>2015-10-03T14:48:01Z</time>
      </trkpt>
      <trkpt lat="44.82503" lon="1.09971">
        <ele>94.4</ele>
        <time>2015-10-03T14:48:04Z</time>
      </trkpt>
      <trkpt lat="44.82511" lon="1.09922">
        <ele>94.4</ele>
        <time>2015-10-03T14:48:12Z</time>
      </trkpt>
      <trkpt lat="44.82522" lon="1.09876">
        <ele>94.2</ele>
        <time>2015-10-03T14:48:20Z</time>
      </trkpt>
      <trkpt lat="44.82533" lon="1.09835">
        <ele>94.2</ele>
        <time>2015-10-03T14:48:27Z</time>
      </trkpt>
      <trkpt lat="44.82541" lon="1.09811">
        <ele>94</ele>
        <time>2015-10-03T14:48:31Z</time>
      </trkpt>
      <trkpt lat="44.82545" lon="1.098">
        <ele>94</ele>
        <time>2015-10-03T14:48:33Z</time>
      </trkpt>
      <trkpt lat="44.82556" lon="1.0977">
        <ele>93.4</ele>
        <time>2015-10-03T14:48:39Z</time>
      </trkpt>
      <trkpt lat="44.8256" lon="1.0976">
        <ele>93.2</ele>
        <time>2015-10-03T14:48:41Z</time>
      </trkpt>
      <trkpt lat="44.82577" lon="1.09734">
        <ele>93.2</ele>
        <time>2015-10-03T14:48:47Z</time>
      </trkpt>
      <trkpt lat="44.82588" lon="1.09736">
        <ele>93.4</ele>
        <time>2015-10-03T14:48:50Z</time>
      </trkpt>
      <trkpt lat="44.82599" lon="1.09742">
        <ele>94.4</ele>
        <time>2015-10-03T14:48:53Z</time>
      </trkpt>
      <trkpt lat="44.82612" lon="1.09751">
        <ele>95.4</ele>
        <time>2015-10-03T14:48:57Z</time>
      </trkpt>
      <trkpt lat="44.82615" lon="1.09753">
        <ele>95.4</ele>
        <time>2015-10-03T14:48:58Z</time>
      </trkpt>
      <trkpt lat="44.82632" lon="1.09762">
        <ele>96.2</ele>
        <time>2015-10-03T14:49:03Z</time>
      </trkpt>
      <trkpt lat="44.82649" lon="1.09771">
        <ele>96</ele>
        <time>2015-10-03T14:49:09Z</time>
      </trkpt>
      <trkpt lat="44.82665" lon="1.0978">
        <ele>95.8</ele>
        <time>2015-10-03T14:49:15Z</time>
      </trkpt>
      <trkpt lat="44.82683" lon="1.09789">
        <ele>95.8</ele>
        <time>2015-10-03T14:49:21Z</time>
      </trkpt>
      <trkpt lat="44.82705" lon="1.098">
        <ele>95.4</ele>
        <time>2015-10-03T14:49:28Z</time>
      </trkpt>
      <trkpt lat="44.82721" lon="1.09809">
        <ele>95.8</ele>
        <time>2015-10-03T14:49:33Z</time>
      </trkpt>
      <trkpt lat="44.82725" lon="1.09811">
        <ele>95.4</ele>
        <time>2015-10-03T14:49:34Z</time>
      </trkpt>
      <trkpt lat="44.82739" lon="1.09819">
        <ele>95.2</ele>
        <time>2015-10-03T14:49:37Z</time>
      </trkpt>
      <trkpt lat="44.82744" lon="1.09821">
        <ele>95.2</ele>
        <time>2015-10-03T14:49:38Z</time>
      </trkpt>
      <trkpt lat="44.82783" lon="1.09841">
        <ele>95</ele>
        <time>2015-10-03T14:49:46Z</time>
      </trkpt>
      <trkpt lat="44.82814" lon="1.0985">
        <ele>95</ele>
        <time>2015-10-03T14:49:52Z</time>
      </trkpt>
      <trkpt lat="44.82834" lon="1.09872">
        <ele>95.4</ele>
        <time>2015-10-03T14:49:57Z</time>
      </trkpt>
      <trkpt lat="44.82841" lon="1.0989">
        <ele>95.8</ele>
        <time>2015-10-03T14:50:00Z</time>
      </trkpt>
      <trkpt lat="44.82848" lon="1.0991">
        <ele>95.8</ele>
        <time>2015-10-03T14:50:03Z</time>
      </trkpt>
      <trkpt lat="44.82861" lon="1.0994">
        <ele>95.4</ele>
        <time>2015-10-03T14:50:08Z</time>
      </trkpt>
      <trkpt lat="44.82869" lon="1.0995">
        <ele>95</ele>
        <time>2015-10-03T14:50:10Z</time>
      </trkpt>
      <trkpt lat="44.82885" lon="1.09958">
        <ele>94.4</ele>
        <time>2015-10-03T14:50:13Z</time>
      </trkpt>
      <trkpt lat="44.82897" lon="1.0996">
        <ele>94.4</ele>
        <time>2015-10-03T14:50:15Z</time>
      </trkpt>
      <trkpt lat="44.82921" lon="1.09964">
        <ele>94</ele>
        <time>2015-10-03T14:50:19Z</time>
      </trkpt>
      <trkpt lat="44.8297" lon="1.09973">
        <ele>94</ele>
        <time>2015-10-03T14:50:28Z</time>
      </trkpt>
      <trkpt lat="44.82981" lon="1.09972">
        <ele>94.4</ele>
        <time>2015-10-03T14:50:30Z</time>
      </trkpt>
      <trkpt lat="44.82992" lon="1.09966">
        <ele>94.4</ele>
        <time>2015-10-03T14:50:32Z</time>
      </trkpt>
      <trkpt lat="44.83006" lon="1.09942">
        <ele>94.2</ele>
        <time>2015-10-03T14:50:36Z</time>
      </trkpt>
      <trkpt lat="44.83018" lon="1.09907">
        <ele>94.4</ele>
        <time>2015-10-03T14:50:41Z</time>
      </trkpt>
      <trkpt lat="44.83019" lon="1.09893">
        <ele>94.4</ele>
        <time>2015-10-03T14:50:43Z</time>
      </trkpt>
      <trkpt lat="44.83019" lon="1.09879">
        <ele>94.2</ele>
        <time>2015-10-03T14:50:45Z</time>
      </trkpt>
      <trkpt lat="44.83016" lon="1.09852">
        <ele>94.8</ele>
        <time>2015-10-03T14:50:49Z</time>
      </trkpt>
      <trkpt lat="44.83015" lon="1.09818">
        <ele>94</ele>
        <time>2015-10-03T14:50:54Z</time>
      </trkpt>
      <trkpt lat="44.83017" lon="1.09812">
        <ele>94</ele>
        <time>2015-10-03T14:50:55Z</time>
      </trkpt>
      <trkpt lat="44.8303" lon="1.09801">
        <ele>94</ele>
        <time>2015-10-03T14:50:58Z</time>
      </trkpt>
      <trkpt lat="44.83044" lon="1.09805">
        <ele>94.2</ele>
        <time>2015-10-03T14:51:01Z</time>
      </trkpt>
      <trkpt lat="44.83074" lon="1.09814">
        <ele>94.4</ele>
        <time>2015-10-03T14:51:08Z</time>
      </trkpt>
      <trkpt lat="44.83093" lon="1.09819">
        <ele>94.4</ele>
        <time>2015-10-03T14:51:14Z</time>
      </trkpt>
      <trkpt lat="44.83109" lon="1.09823">
        <ele>94.6</ele>
        <time>2015-10-03T14:51:19Z</time>
      </trkpt>
      <trkpt lat="44.83132" lon="1.09827">
        <ele>95.4</ele>
        <time>2015-10-03T14:51:24Z</time>
      </trkpt>
      <trkpt lat="44.83136" lon="1.09829">
        <ele>95.2</ele>
        <time>2015-10-03T14:51:25Z</time>
      </trkpt>
      <trkpt lat="44.83149" lon="1.09833">
        <ele>95.4</ele>
        <time>2015-10-03T14:51:28Z</time>
      </trkpt>
      <trkpt lat="44.83158" lon="1.09834">
        <ele>95.8</ele>
        <time>2015-10-03T14:51:30Z</time>
      </trkpt>
      <trkpt lat="44.83189" lon="1.09841">
        <ele>95.6</ele>
        <time>2015-10-03T14:51:37Z</time>
      </trkpt>
      <trkpt lat="44.8322" lon="1.09849">
        <ele>95.8</ele>
        <time>2015-10-03T14:51:44Z</time>
      </trkpt>
      <trkpt lat="44.83256" lon="1.09859">
        <ele>95.4</ele>
        <time>2015-10-03T14:51:52Z</time>
      </trkpt>
      <trkpt lat="44.83283" lon="1.09869">
        <ele>95.2</ele>
        <time>2015-10-03T14:51:58Z</time>
      </trkpt>
      <trkpt lat="44.83309" lon="1.09877">
        <ele>96</ele>
        <time>2015-10-03T14:52:03Z</time>
      </trkpt>
      <trkpt lat="44.83328" lon="1.09881">
        <ele>96.6</ele>
        <time>2015-10-03T14:52:07Z</time>
      </trkpt>
      <trkpt lat="44.83337" lon="1.09884">
        <ele>96.4</ele>
        <time>2015-10-03T14:52:09Z</time>
      </trkpt>
      <trkpt lat="44.8337" lon="1.09894">
        <ele>96.4</ele>
        <time>2015-10-03T14:52:16Z</time>
      </trkpt>
      <trkpt lat="44.83406" lon="1.09904">
        <ele>97</ele>
        <time>2015-10-03T14:52:24Z</time>
      </trkpt>
      <trkpt lat="44.83431" lon="1.09911">
        <ele>97.6</ele>
        <time>2015-10-03T14:52:30Z</time>
      </trkpt>
      <trkpt lat="44.83434" lon="1.0991">
        <ele>97.6</ele>
        <time>2015-10-03T14:52:31Z</time>
      </trkpt>
      <trkpt lat="44.8344" lon="1.09905">
        <ele>98.2</ele>
        <time>2015-10-03T14:52:34Z</time>
      </trkpt>
      <trkpt lat="44.8344" lon="1.09902">
        <ele>98</ele>
        <time>2015-10-03T14:52:39Z</time>
      </trkpt>
      <trkpt lat="44.83442" lon="1.09893">
        <ele>98.2</ele>
        <time>2015-10-03T14:53:22Z</time>
      </trkpt>
      <trkpt lat="44.83443" lon="1.09887">
        <ele>98.2</ele>
        <time>2015-10-03T14:53:24Z</time>
      </trkpt>
      <trkpt lat="44.83447" lon="1.09869">
        <ele>98.6</ele>
        <time>2015-10-03T14:53:28Z</time>
      </trkpt>
      <trkpt lat="44.8345" lon="1.0986">
        <ele>98.6</ele>
        <time>2015-10-03T14:53:30Z</time>
      </trkpt>
      <trkpt lat="44.83457" lon="1.09818">
        <ele>99.4</ele>
        <time>2015-10-03T14:53:39Z</time>
      </trkpt>
      <trkpt lat="44.8346" lon="1.09791">
        <ele>99.8</ele>
        <time>2015-10-03T14:53:44Z</time>
      </trkpt>
      <trkpt lat="44.83462" lon="1.09763">
        <ele>99.6</ele>
        <time>2015-10-03T14:53:49Z</time>
      </trkpt>
      <trkpt lat="44.83469" lon="1.09703">
        <ele>99.6</ele>
        <time>2015-10-03T14:53:59Z</time>
      </trkpt>
      <trkpt lat="44.83481" lon="1.09638">
        <ele>100</ele>
        <time>2015-10-03T14:54:09Z</time>
      </trkpt>
      <trkpt lat="44.83492" lon="1.0958">
        <ele>100</ele>
        <time>2015-10-03T14:54:17Z</time>
      </trkpt>
      <trkpt lat="44.83497" lon="1.09542">
        <ele>100.4</ele>
        <time>2015-10-03T14:54:22Z</time>
      </trkpt>
      <trkpt lat="44.83495" lon="1.09525">
        <ele>100.6</ele>
        <time>2015-10-03T14:54:24Z</time>
      </trkpt>
      <trkpt lat="44.83489" lon="1.09501">
        <ele>100.2</ele>
        <time>2015-10-03T14:54:27Z</time>
      </trkpt>
      <trkpt lat="44.83485" lon="1.09485">
        <ele>100.4</ele>
        <time>2015-10-03T14:54:29Z</time>
      </trkpt>
      <trkpt lat="44.83468" lon="1.09411">
        <ele>99.8</ele>
        <time>2015-10-03T14:54:38Z</time>
      </trkpt>
      <trkpt lat="44.83472" lon="1.09377">
        <ele>99.6</ele>
        <time>2015-10-03T14:54:42Z</time>
      </trkpt>
      <trkpt lat="44.83473" lon="1.09368">
        <ele>99.4</ele>
        <time>2015-10-03T14:54:43Z</time>
      </trkpt>
      <trkpt lat="44.83476" lon="1.09302">
        <ele>99.2</ele>
        <time>2015-10-03T14:54:51Z</time>
      </trkpt>
      <trkpt lat="44.83473" lon="1.09243">
        <ele>98.6</ele>
        <time>2015-10-03T14:54:58Z</time>
      </trkpt>
      <trkpt lat="44.83471" lon="1.09227">
        <ele>98.2</ele>
        <time>2015-10-03T14:55:00Z</time>
      </trkpt>
      <trkpt lat="44.83469" lon="1.0922">
        <ele>98</ele>
        <time>2015-10-03T14:55:01Z</time>
      </trkpt>
      <trkpt lat="44.83464" lon="1.0921">
        <ele>97.4</ele>
        <time>2015-10-03T14:55:03Z</time>
      </trkpt>
      <trkpt lat="44.83461" lon="1.09206">
        <ele>97.4</ele>
        <time>2015-10-03T14:55:04Z</time>
      </trkpt>
      <trkpt lat="44.83459" lon="1.0919">
        <ele>96.8</ele>
        <time>2015-10-03T14:55:08Z</time>
      </trkpt>
      <trkpt lat="44.83461" lon="1.09168">
        <ele>96.2</ele>
        <time>2015-10-03T14:55:12Z</time>
      </trkpt>
      <trkpt lat="44.83461" lon="1.09156">
        <ele>95.8</ele>
        <time>2015-10-03T14:55:14Z</time>
      </trkpt>
      <trkpt lat="44.83456" lon="1.09137">
        <ele>95.2</ele>
        <time>2015-10-03T14:55:18Z</time>
      </trkpt>
      <trkpt lat="44.83456" lon="1.09134">
        <ele>95.2</ele>
        <time>2015-10-03T14:55:19Z</time>
      </trkpt>
      <trkpt lat="44.83466" lon="1.09122">
        <ele>95.2</ele>
        <time>2015-10-03T14:55:23Z</time>
      </trkpt>
      <trkpt lat="44.83483" lon="1.09105">
        <ele>95.4</ele>
        <time>2015-10-03T14:55:29Z</time>
      </trkpt>
      <trkpt lat="44.83508" lon="1.0908">
        <ele>95.4</ele>
        <time>2015-10-03T14:55:36Z</time>
      </trkpt>
      <trkpt lat="44.83537" lon="1.09056">
        <ele>95.6</ele>
        <time>2015-10-03T14:55:42Z</time>
      </trkpt>
      <trkpt lat="44.83574" lon="1.0903">
        <ele>95.2</ele>
        <time>2015-10-03T14:55:50Z</time>
      </trkpt>
      <trkpt lat="44.83621" lon="1.08996">
        <ele>95.4</ele>
        <time>2015-10-03T14:56:00Z</time>
      </trkpt>
      <trkpt lat="44.83653" lon="1.08985">
        <ele>96</ele>
        <time>2015-10-03T14:56:07Z</time>
      </trkpt>
      <trkpt lat="44.83694" lon="1.08982">
        <ele>96.2</ele>
        <time>2015-10-03T14:56:15Z</time>
      </trkpt>
      <trkpt lat="44.83739" lon="1.08977">
        <ele>96.8</ele>
        <time>2015-10-03T14:56:25Z</time>
      </trkpt>
      <trkpt lat="44.83781" lon="1.08976">
        <ele>97.2</ele>
        <time>2015-10-03T14:56:35Z</time>
      </trkpt>
      <trkpt lat="44.83784" lon="1.08976">
        <ele>97.4</ele>
        <time>2015-10-03T14:56:36Z</time>
      </trkpt>
      <trkpt lat="44.83796" lon="1.08973">
        <ele>97.8</ele>
        <time>2015-10-03T14:56:40Z</time>
      </trkpt>
      <trkpt lat="44.83811" lon="1.08956">
        <ele>97.4</ele>
        <time>2015-10-03T14:56:45Z</time>
      </trkpt>
      <trkpt lat="44.83837" lon="1.08925">
        <ele>96.4</ele>
        <time>2015-10-03T14:56:53Z</time>
      </trkpt>
      <trkpt lat="44.8384" lon="1.08921">
        <ele>96.4</ele>
        <time>2015-10-03T14:56:54Z</time>
      </trkpt>
      <trkpt lat="44.83865" lon="1.0888">
        <ele>96</ele>
        <time>2015-10-03T14:57:03Z</time>
      </trkpt>
      <trkpt lat="44.83891" lon="1.08834">
        <ele>96.4</ele>
        <time>2015-10-03T14:57:13Z</time>
      </trkpt>
      <trkpt lat="44.83907" lon="1.08828">
        <ele>97</ele>
        <time>2015-10-03T14:57:18Z</time>
      </trkpt>
      <trkpt lat="44.83914" lon="1.08823">
        <ele>97</ele>
        <time>2015-10-03T14:57:24Z</time>
      </trkpt>
      <trkpt lat="44.83915" lon="1.08822">
        <ele>97</ele>
        <time>2015-10-03T14:57:25Z</time>
      </trkpt>
      <trkpt lat="44.83922" lon="1.08809">
        <ele>97</ele>
        <time>2015-10-03T14:57:30Z</time>
      </trkpt>
      <trkpt lat="44.83937" lon="1.08782">
        <ele>96.8</ele>
        <time>2015-10-03T14:57:36Z</time>
      </trkpt>
      <trkpt lat="44.83967" lon="1.08749">
        <ele>96</ele>
        <time>2015-10-03T14:57:44Z</time>
      </trkpt>
      <trkpt lat="44.84006" lon="1.08715">
        <ele>96</ele>
        <time>2015-10-03T14:57:53Z</time>
      </trkpt>
      <trkpt lat="44.84037" lon="1.08688">
        <ele>96</ele>
        <time>2015-10-03T14:58:00Z</time>
      </trkpt>
      <trkpt lat="44.84069" lon="1.08653">
        <ele>95.8</ele>
        <time>2015-10-03T14:58:08Z</time>
      </trkpt>
      <trkpt lat="44.84095" lon="1.08619">
        <ele>95.8</ele>
        <time>2015-10-03T14:58:15Z</time>
      </trkpt>
      <trkpt lat="44.84138" lon="1.08567">
        <ele>95.6</ele>
        <time>2015-10-03T14:58:26Z</time>
      </trkpt>
      <trkpt lat="44.84142" lon="1.08562">
        <ele>95.6</ele>
        <time>2015-10-03T14:58:27Z</time>
      </trkpt>
      <trkpt lat="44.84181" lon="1.08508">
        <ele>95.4</ele>
        <time>2015-10-03T14:58:38Z</time>
      </trkpt>
      <trkpt lat="44.84185" lon="1.08503">
        <ele>95.4</ele>
        <time>2015-10-03T14:58:39Z</time>
      </trkpt>
      <trkpt lat="44.84188" lon="1.08498">
        <ele>95.4</ele>
        <time>2015-10-03T14:58:40Z</time>
      </trkpt>
      <trkpt lat="44.84215" lon="1.08449">
        <ele>95.4</ele>
        <time>2015-10-03T14:58:49Z</time>
      </trkpt>
      <trkpt lat="44.84249" lon="1.08383">
        <ele>95</ele>
        <time>2015-10-03T14:59:01Z</time>
      </trkpt>
      <trkpt lat="44.84265" lon="1.08357">
        <ele>94</ele>
        <time>2015-10-03T14:59:06Z</time>
      </trkpt>
      <trkpt lat="44.84272" lon="1.08349">
        <ele>94.8</ele>
        <time>2015-10-03T14:59:08Z</time>
      </trkpt>
      <trkpt lat="44.84275" lon="1.08346">
        <ele>95.4</ele>
        <time>2015-10-03T14:59:09Z</time>
      </trkpt>
      <trkpt lat="44.8428" lon="1.08343">
        <ele>94.8</ele>
        <time>2015-10-03T14:59:10Z</time>
      </trkpt>
      <trkpt lat="44.84298" lon="1.08333">
        <ele>95</ele>
        <time>2015-10-03T14:59:14Z</time>
      </trkpt>
      <trkpt lat="44.84308" lon="1.08329">
        <ele>95</ele>
        <time>2015-10-03T14:59:16Z</time>
      </trkpt>
      <trkpt lat="44.84313" lon="1.08328">
        <ele>95.2</ele>
        <time>2015-10-03T14:59:17Z</time>
      </trkpt>
      <trkpt lat="44.84347" lon="1.08324">
        <ele>95</ele>
        <time>2015-10-03T14:59:24Z</time>
      </trkpt>
      <trkpt lat="44.84386" lon="1.08314">
        <ele>94.8</ele>
        <time>2015-10-03T14:59:33Z</time>
      </trkpt>
      <trkpt lat="44.84413" lon="1.08297">
        <ele>95.2</ele>
        <time>2015-10-03T14:59:40Z</time>
      </trkpt>
      <trkpt lat="44.84442" lon="1.08264">
        <ele>95.6</ele>
        <time>2015-10-03T14:59:49Z</time>
      </trkpt>
      <trkpt lat="44.84469" lon="1.08231">
        <ele>96</ele>
        <time>2015-10-03T14:59:58Z</time>
      </trkpt>
      <trkpt lat="44.84484" lon="1.08219">
        <ele>96.2</ele>
        <time>2015-10-03T15:00:04Z</time>
      </trkpt>
      <trkpt lat="44.84487" lon="1.08212">
        <ele>96.2</ele>
        <time>2015-10-03T15:01:19Z</time>
      </trkpt>
      <trkpt lat="44.84488" lon="1.0821">
        <ele>96.2</ele>
        <time>2015-10-03T15:01:20Z</time>
      </trkpt>
      <trkpt lat="44.84491" lon="1.08198">
        <ele>95.6</ele>
        <time>2015-10-03T15:01:23Z</time>
      </trkpt>
      <trkpt lat="44.84492" lon="1.08193">
        <ele>95.6</ele>
        <time>2015-10-03T15:01:24Z</time>
      </trkpt>
      <trkpt lat="44.84496" lon="1.08188">
        <ele>95.4</ele>
        <time>2015-10-03T15:01:25Z</time>
      </trkpt>
      <trkpt lat="44.84503" lon="1.08182">
        <ele>95.2</ele>
        <time>2015-10-03T15:01:27Z</time>
      </trkpt>
      <trkpt lat="44.84511" lon="1.08178">
        <ele>95.2</ele>
        <time>2015-10-03T15:01:29Z</time>
      </trkpt>
      <trkpt lat="44.84528" lon="1.08169">
        <ele>94.4</ele>
        <time>2015-10-03T15:01:33Z</time>
      </trkpt>
      <trkpt lat="44.84548" lon="1.08154">
        <ele>94.2</ele>
        <time>2015-10-03T15:01:39Z</time>
      </trkpt>
      <trkpt lat="44.8455" lon="1.08154">
        <ele>94</ele>
        <time>2015-10-03T15:01:43Z</time>
      </trkpt>
      <trkpt lat="44.84554" lon="1.0815">
        <ele>94.2</ele>
        <time>2015-10-03T15:02:12Z</time>
      </trkpt>
      <trkpt lat="44.84555" lon="1.08149">
        <ele>94.2</ele>
        <time>2015-10-03T15:02:13Z</time>
      </trkpt>
      <trkpt lat="44.84561" lon="1.08146">
        <ele>94.2</ele>
        <time>2015-10-03T15:02:34Z</time>
      </trkpt>
      <trkpt lat="44.84566" lon="1.0814">
        <ele>94.2</ele>
        <time>2015-10-03T15:02:36Z</time>
      </trkpt>
      <trkpt lat="44.84584" lon="1.08124">
        <ele>94.2</ele>
        <time>2015-10-03T15:02:41Z</time>
      </trkpt>
      <trkpt lat="44.84616" lon="1.08087">
        <ele>94.4</ele>
        <time>2015-10-03T15:02:50Z</time>
      </trkpt>
      <trkpt lat="44.8466" lon="1.08036">
        <ele>94.2</ele>
        <time>2015-10-03T15:03:02Z</time>
      </trkpt>
      <trkpt lat="44.84688" lon="1.08006">
        <ele>93.4</ele>
        <time>2015-10-03T15:03:09Z</time>
      </trkpt>
      <trkpt lat="44.84696" lon="1.07997">
        <ele>93.8</ele>
        <time>2015-10-03T15:03:11Z</time>
      </trkpt>
      <trkpt lat="44.8474" lon="1.07949">
        <ele>94</ele>
        <time>2015-10-03T15:03:22Z</time>
      </trkpt>
      <trkpt lat="44.84748" lon="1.0794">
        <ele>94</ele>
        <time>2015-10-03T15:03:24Z</time>
      </trkpt>
      <trkpt lat="44.84784" lon="1.07899">
        <ele>93.8</ele>
        <time>2015-10-03T15:03:34Z</time>
      </trkpt>
      <trkpt lat="44.84826" lon="1.07853">
        <ele>93.4</ele>
        <time>2015-10-03T15:03:46Z</time>
      </trkpt>
      <trkpt lat="44.84847" lon="1.0783">
        <ele>93</ele>
        <time>2015-10-03T15:03:53Z</time>
      </trkpt>
      <trkpt lat="44.8485" lon="1.07827">
        <ele>93</ele>
        <time>2015-10-03T15:03:54Z</time>
      </trkpt>
      <trkpt lat="44.84879" lon="1.07794">
        <ele>93.4</ele>
        <time>2015-10-03T15:04:04Z</time>
      </trkpt>
      <trkpt lat="44.84906" lon="1.07767">
        <ele>92.6</ele>
        <time>2015-10-03T15:04:13Z</time>
      </trkpt>
      <trkpt lat="44.84918" lon="1.07753">
        <ele>92.6</ele>
        <time>2015-10-03T15:04:17Z</time>
      </trkpt>
      <trkpt lat="44.84941" lon="1.07731">
        <ele>92.8</ele>
        <time>2015-10-03T15:04:24Z</time>
      </trkpt>
      <trkpt lat="44.8497" lon="1.077">
        <ele>93</ele>
        <time>2015-10-03T15:04:33Z</time>
      </trkpt>
      <trkpt lat="44.85006" lon="1.07659">
        <ele>92.8</ele>
        <time>2015-10-03T15:04:44Z</time>
      </trkpt>
      <trkpt lat="44.85046" lon="1.07616">
        <ele>92.6</ele>
        <time>2015-10-03T15:04:56Z</time>
      </trkpt>
      <trkpt lat="44.85072" lon="1.07587">
        <ele>92.6</ele>
        <time>2015-10-03T15:05:05Z</time>
      </trkpt>
      <trkpt lat="44.8508" lon="1.07578">
        <ele>92.2</ele>
        <time>2015-10-03T15:05:08Z</time>
      </trkpt>
      <trkpt lat="44.85101" lon="1.07556">
        <ele>92.6</ele>
        <time>2015-10-03T15:05:16Z</time>
      </trkpt>
      <trkpt lat="44.85128" lon="1.07525">
        <ele>92.6</ele>
        <time>2015-10-03T15:05:25Z</time>
      </trkpt>
      <trkpt lat="44.8515" lon="1.07494">
        <ele>93.2</ele>
        <time>2015-10-03T15:05:33Z</time>
      </trkpt>
      <trkpt lat="44.85152" lon="1.0749">
        <ele>93.2</ele>
        <time>2015-10-03T15:05:34Z</time>
      </trkpt>
      <trkpt lat="44.85165" lon="1.07467">
        <ele>93.8</ele>
        <time>2015-10-03T15:05:41Z</time>
      </trkpt>
      <trkpt lat="44.85177" lon="1.07448">
        <ele>93.2</ele>
        <time>2015-10-03T15:05:47Z</time>
      </trkpt>
      <trkpt lat="44.85198" lon="1.0743">
        <ele>92.6</ele>
        <time>2015-10-03T15:05:54Z</time>
      </trkpt>
      <trkpt lat="44.85231" lon="1.07409">
        <ele>92.2</ele>
        <time>2015-10-03T15:06:03Z</time>
      </trkpt>
      <trkpt lat="44.85252" lon="1.07389">
        <ele>92.2</ele>
        <time>2015-10-03T15:06:09Z</time>
      </trkpt>
      <trkpt lat="44.85258" lon="1.07382">
        <ele>92.4</ele>
        <time>2015-10-03T15:06:11Z</time>
      </trkpt>
      <trkpt lat="44.8528" lon="1.07357">
        <ele>92</ele>
        <time>2015-10-03T15:06:19Z</time>
      </trkpt>
      <trkpt lat="44.85309" lon="1.07327">
        <ele>92.6</ele>
        <time>2015-10-03T15:06:28Z</time>
      </trkpt>
      <trkpt lat="44.85337" lon="1.07298">
        <ele>92.2</ele>
        <time>2015-10-03T15:06:36Z</time>
      </trkpt>
      <trkpt lat="44.8537" lon="1.07264">
        <ele>92.2</ele>
        <time>2015-10-03T15:06:45Z</time>
      </trkpt>
      <trkpt lat="44.85399" lon="1.07232">
        <ele>92</ele>
        <time>2015-10-03T15:06:53Z</time>
      </trkpt>
      <trkpt lat="44.85433" lon="1.07195">
        <ele>92.4</ele>
        <time>2015-10-03T15:07:03Z</time>
      </trkpt>
      <trkpt lat="44.85454" lon="1.07167">
        <ele>92.2</ele>
        <time>2015-10-03T15:07:10Z</time>
      </trkpt>
      <trkpt lat="44.85473" lon="1.07141">
        <ele>92.4</ele>
        <time>2015-10-03T15:07:17Z</time>
      </trkpt>
      <trkpt lat="44.85496" lon="1.0711">
        <ele>92.4</ele>
        <time>2015-10-03T15:07:25Z</time>
      </trkpt>
      <trkpt lat="44.85517" lon="1.07076">
        <ele>92.6</ele>
        <time>2015-10-03T15:07:33Z</time>
      </trkpt>
      <trkpt lat="44.85538" lon="1.07039">
        <ele>93</ele>
        <time>2015-10-03T15:07:42Z</time>
      </trkpt>
      <trkpt lat="44.85555" lon="1.0701">
        <ele>92.4</ele>
        <time>2015-10-03T15:07:48Z</time>
      </trkpt>
      <trkpt lat="44.85577" lon="1.06969">
        <ele>92.4</ele>
        <time>2015-10-03T15:07:56Z</time>
      </trkpt>
      <trkpt lat="44.85596" lon="1.0693">
        <ele>92</ele>
        <time>2015-10-03T15:08:04Z</time>
      </trkpt>
      <trkpt lat="44.8562" lon="1.06876">
        <ele>92.2</ele>
        <time>2015-10-03T15:08:15Z</time>
      </trkpt>
      <trkpt lat="44.85639" lon="1.06835">
        <ele>92</ele>
        <time>2015-10-03T15:08:23Z</time>
      </trkpt>
      <trkpt lat="44.85649" lon="1.06808">
        <ele>92.6</ele>
        <time>2015-10-03T15:08:29Z</time>
      </trkpt>
      <trkpt lat="44.85669" lon="1.06769">
        <ele>92</ele>
        <time>2015-10-03T15:08:38Z</time>
      </trkpt>
      <trkpt lat="44.85682" lon="1.06739">
        <ele>91.8</ele>
        <time>2015-10-03T15:08:44Z</time>
      </trkpt>
      <trkpt lat="44.85699" lon="1.06699">
        <ele>91.6</ele>
        <time>2015-10-03T15:08:52Z</time>
      </trkpt>
      <trkpt lat="44.8571" lon="1.06661">
        <ele>92.2</ele>
        <time>2015-10-03T15:09:00Z</time>
      </trkpt>
      <trkpt lat="44.85718" lon="1.06638">
        <ele>93.2</ele>
        <time>2015-10-03T15:09:06Z</time>
      </trkpt>
      <trkpt lat="44.85719" lon="1.06636">
        <ele>93.4</ele>
        <time>2015-10-03T15:09:07Z</time>
      </trkpt>
      <trkpt lat="44.85721" lon="1.06621">
        <ele>93.2</ele>
        <time>2015-10-03T15:09:12Z</time>
      </trkpt>
      <trkpt lat="44.85729" lon="1.06599">
        <ele>92.6</ele>
        <time>2015-10-03T15:09:17Z</time>
      </trkpt>
      <trkpt lat="44.85736" lon="1.06585">
        <ele>92.2</ele>
        <time>2015-10-03T15:09:20Z</time>
      </trkpt>
      <trkpt lat="44.85745" lon="1.06563">
        <ele>92</ele>
        <time>2015-10-03T15:09:24Z</time>
      </trkpt>
      <trkpt lat="44.85761" lon="1.06531">
        <ele>91.8</ele>
        <time>2015-10-03T15:09:31Z</time>
      </trkpt>
      <trkpt lat="44.85772" lon="1.0652">
        <ele>92.2</ele>
        <time>2015-10-03T15:09:36Z</time>
      </trkpt>
      <trkpt lat="44.85785" lon="1.06506">
        <ele>91.6</ele>
        <time>2015-10-03T15:09:41Z</time>
      </trkpt>
      <trkpt lat="44.85802" lon="1.06477">
        <ele>91.8</ele>
        <time>2015-10-03T15:09:48Z</time>
      </trkpt>
      <trkpt lat="44.85817" lon="1.06445">
        <ele>91.6</ele>
        <time>2015-10-03T15:09:55Z</time>
      </trkpt>
      <trkpt lat="44.85829" lon="1.06418">
        <ele>91.6</ele>
        <time>2015-10-03T15:10:01Z</time>
      </trkpt>
      <trkpt lat="44.85847" lon="1.06379">
        <ele>92</ele>
        <time>2015-10-03T15:10:09Z</time>
      </trkpt>
      <trkpt lat="44.85859" lon="1.06354">
        <ele>92</ele>
        <time>2015-10-03T15:10:15Z</time>
      </trkpt>
      <trkpt lat="44.85875" lon="1.06318">
        <ele>92.4</ele>
        <time>2015-10-03T15:10:23Z</time>
      </trkpt>
      <trkpt lat="44.85889" lon="1.06285">
        <ele>92.4</ele>
        <time>2015-10-03T15:10:30Z</time>
      </trkpt>
      <trkpt lat="44.85904" lon="1.06254">
        <ele>92.6</ele>
        <time>2015-10-03T15:10:37Z</time>
      </trkpt>
      <trkpt lat="44.85917" lon="1.06224">
        <ele>92.8</ele>
        <time>2015-10-03T15:10:44Z</time>
      </trkpt>
      <trkpt lat="44.85929" lon="1.06198">
        <ele>92.4</ele>
        <time>2015-10-03T15:10:51Z</time>
      </trkpt>
      <trkpt lat="44.8594" lon="1.06171">
        <ele>92.4</ele>
        <time>2015-10-03T15:10:58Z</time>
      </trkpt>
      <trkpt lat="44.85948" lon="1.06154">
        <ele>92.2</ele>
        <time>2015-10-03T15:11:03Z</time>
      </trkpt>
      <trkpt lat="44.85953" lon="1.06143">
        <ele>92.2</ele>
        <time>2015-10-03T15:11:07Z</time>
      </trkpt>
      <trkpt lat="44.85956" lon="1.06136">
        <ele>91.6</ele>
        <time>2015-10-03T15:11:50Z</time>
      </trkpt>
      <trkpt lat="44.85957" lon="1.06132">
        <ele>91.8</ele>
        <time>2015-10-03T15:11:51Z</time>
      </trkpt>
      <trkpt lat="44.85968" lon="1.06109">
        <ele>91.4</ele>
        <time>2015-10-03T15:11:56Z</time>
      </trkpt>
      <trkpt lat="44.85984" lon="1.0607">
        <ele>91</ele>
        <time>2015-10-03T15:12:03Z</time>
      </trkpt>
      <trkpt lat="44.85992" lon="1.06054">
        <ele>91</ele>
        <time>2015-10-03T15:12:06Z</time>
      </trkpt>
      <trkpt lat="44.86" lon="1.06041">
        <ele>91.4</ele>
        <time>2015-10-03T15:12:09Z</time>
      </trkpt>
      <trkpt lat="44.86015" lon="1.06009">
        <ele>91</ele>
        <time>2015-10-03T15:12:15Z</time>
      </trkpt>
      <trkpt lat="44.86029" lon="1.05976">
        <ele>91.4</ele>
        <time>2015-10-03T15:12:21Z</time>
      </trkpt>
      <trkpt lat="44.86038" lon="1.05954">
        <ele>91.6</ele>
        <time>2015-10-03T15:12:25Z</time>
      </trkpt>
      <trkpt lat="44.8604" lon="1.05942">
        <ele>91.8</ele>
        <time>2015-10-03T15:12:27Z</time>
      </trkpt>
      <trkpt lat="44.86041" lon="1.05931">
        <ele>92.2</ele>
        <time>2015-10-03T15:12:29Z</time>
      </trkpt>
      <trkpt lat="44.8604" lon="1.05908">
        <ele>92.4</ele>
        <time>2015-10-03T15:12:33Z</time>
      </trkpt>
      <trkpt lat="44.8604" lon="1.0585">
        <ele>92.6</ele>
        <time>2015-10-03T15:12:43Z</time>
      </trkpt>
      <trkpt lat="44.86049" lon="1.05811">
        <ele>92.2</ele>
        <time>2015-10-03T15:12:50Z</time>
      </trkpt>
      <trkpt lat="44.86069" lon="1.05763">
        <ele>92.2</ele>
        <time>2015-10-03T15:12:59Z</time>
      </trkpt>
      <trkpt lat="44.86091" lon="1.05717">
        <ele>92.6</ele>
        <time>2015-10-03T15:13:08Z</time>
      </trkpt>
      <trkpt lat="44.8611" lon="1.05669">
        <ele>92.2</ele>
        <time>2015-10-03T15:13:17Z</time>
      </trkpt>
      <trkpt lat="44.86129" lon="1.05627">
        <ele>91.8</ele>
        <time>2015-10-03T15:13:25Z</time>
      </trkpt>
      <trkpt lat="44.86132" lon="1.05622">
        <ele>91.8</ele>
        <time>2015-10-03T15:13:26Z</time>
      </trkpt>
      <trkpt lat="44.86157" lon="1.05592">
        <ele>91.6</ele>
        <time>2015-10-03T15:13:33Z</time>
      </trkpt>
      <trkpt lat="44.86186" lon="1.05567">
        <ele>91.2</ele>
        <time>2015-10-03T15:13:41Z</time>
      </trkpt>
      <trkpt lat="44.86208" lon="1.05543">
        <ele>91.2</ele>
        <time>2015-10-03T15:13:48Z</time>
      </trkpt>
      <trkpt lat="44.86241" lon="1.05504">
        <ele>91.2</ele>
        <time>2015-10-03T15:13:58Z</time>
      </trkpt>
      <trkpt lat="44.86258" lon="1.05473">
        <ele>91.4</ele>
        <time>2015-10-03T15:14:05Z</time>
      </trkpt>
      <trkpt lat="44.86278" lon="1.05426">
        <ele>90.6</ele>
        <time>2015-10-03T15:14:13Z</time>
      </trkpt>
      <trkpt lat="44.86308" lon="1.05359">
        <ele>90.6</ele>
        <time>2015-10-03T15:14:25Z</time>
      </trkpt>
      <trkpt lat="44.86337" lon="1.05296">
        <ele>90.8</ele>
        <time>2015-10-03T15:14:37Z</time>
      </trkpt>
      <trkpt lat="44.86351" lon="1.05264">
        <ele>91.8</ele>
        <time>2015-10-03T15:14:44Z</time>
      </trkpt>
      <trkpt lat="44.86369" lon="1.05221">
        <ele>91.8</ele>
        <time>2015-10-03T15:14:54Z</time>
      </trkpt>
      <trkpt lat="44.86379" lon="1.05199">
        <ele>91</ele>
        <time>2015-10-03T15:15:00Z</time>
      </trkpt>
      <trkpt lat="44.86395" lon="1.05163">
        <ele>90.8</ele>
        <time>2015-10-03T15:15:08Z</time>
      </trkpt>
      <trkpt lat="44.86418" lon="1.05107">
        <ele>90.8</ele>
        <time>2015-10-03T15:15:20Z</time>
      </trkpt>
      <trkpt lat="44.86433" lon="1.0506">
        <ele>90.6</ele>
        <time>2015-10-03T15:15:29Z</time>
      </trkpt>
      <trkpt lat="44.86444" lon="1.05016">
        <ele>91.2</ele>
        <time>2015-10-03T15:15:37Z</time>
      </trkpt>
      <trkpt lat="44.86453" lon="1.04965">
        <ele>91.2</ele>
        <time>2015-10-03T15:15:46Z</time>
      </trkpt>
      <trkpt lat="44.86455" lon="1.04928">
        <ele>92.2</ele>
        <time>2015-10-03T15:15:53Z</time>
      </trkpt>
      <trkpt lat="44.86459" lon="1.04911">
        <ele>92.6</ele>
        <time>2015-10-03T15:15:59Z</time>
      </trkpt>
      <trkpt lat="44.8646" lon="1.0491">
        <ele>92.6</ele>
        <time>2015-10-03T15:16:00Z</time>
      </trkpt>
      <trkpt lat="44.86466" lon="1.04906">
        <ele>93</ele>
        <time>2015-10-03T15:16:04Z</time>
      </trkpt>
      <trkpt lat="44.86468" lon="1.04904">
        <ele>93.2</ele>
        <time>2015-10-03T15:16:06Z</time>
      </trkpt>
      <trkpt lat="44.86472" lon="1.049">
        <ele>92.8</ele>
        <time>2015-10-03T15:16:12Z</time>
      </trkpt>
      <trkpt lat="44.86479" lon="1.04897">
        <ele>93.2</ele>
        <time>2015-10-03T15:16:30Z</time>
      </trkpt>
      <trkpt lat="44.86482" lon="1.04893">
        <ele>93.2</ele>
        <time>2015-10-03T15:16:32Z</time>
      </trkpt>
      <trkpt lat="44.86486" lon="1.0487">
        <ele>93.2</ele>
        <time>2015-10-03T15:16:39Z</time>
      </trkpt>
      <trkpt lat="44.86489" lon="1.0483">
        <ele>93</ele>
        <time>2015-10-03T15:16:47Z</time>
      </trkpt>
      <trkpt lat="44.86485" lon="1.04766">
        <ele>92.6</ele>
        <time>2015-10-03T15:16:56Z</time>
      </trkpt>
      <trkpt lat="44.86471" lon="1.04711">
        <ele>92.4</ele>
        <time>2015-10-03T15:17:03Z</time>
      </trkpt>
      <trkpt lat="44.86468" lon="1.04697">
        <ele>92.2</ele>
        <time>2015-10-03T15:17:05Z</time>
      </trkpt>
      <trkpt lat="44.86469" lon="1.04675">
        <ele>92.2</ele>
        <time>2015-10-03T15:17:09Z</time>
      </trkpt>
      <trkpt lat="44.86483" lon="1.04661">
        <ele>91.8</ele>
        <time>2015-10-03T15:17:14Z</time>
      </trkpt>
      <trkpt lat="44.86503" lon="1.04637">
        <ele>91.8</ele>
        <time>2015-10-03T15:17:22Z</time>
      </trkpt>
      <trkpt lat="44.86524" lon="1.04593">
        <ele>91.6</ele>
        <time>2015-10-03T15:17:32Z</time>
      </trkpt>
      <trkpt lat="44.86539" lon="1.04532">
        <ele>91.6</ele>
        <time>2015-10-03T15:17:44Z</time>
      </trkpt>
      <trkpt lat="44.86555" lon="1.0446">
        <ele>91.4</ele>
        <time>2015-10-03T15:17:58Z</time>
      </trkpt>
      <trkpt lat="44.86567" lon="1.04445">
        <ele>91.2</ele>
        <time>2015-10-03T15:18:04Z</time>
      </trkpt>
      <trkpt lat="44.86586" lon="1.04452">
        <ele>91.4</ele>
        <time>2015-10-03T15:18:10Z</time>
      </trkpt>
      <trkpt lat="44.86624" lon="1.04464">
        <ele>91.6</ele>
        <time>2015-10-03T15:18:19Z</time>
      </trkpt>
      <trkpt lat="44.86664" lon="1.0448">
        <ele>91.4</ele>
        <time>2015-10-03T15:18:29Z</time>
      </trkpt>
      <trkpt lat="44.86701" lon="1.04502">
        <ele>91.6</ele>
        <time>2015-10-03T15:18:37Z</time>
      </trkpt>
      <trkpt lat="44.86727" lon="1.04506">
        <ele>91.8</ele>
        <time>2015-10-03T15:18:44Z</time>
      </trkpt>
      <trkpt lat="44.86735" lon="1.04499">
        <ele>91.4</ele>
        <time>2015-10-03T15:18:47Z</time>
      </trkpt>
      <trkpt lat="44.8674" lon="1.04494">
        <ele>91.6</ele>
        <time>2015-10-03T15:18:49Z</time>
      </trkpt>
      <trkpt lat="44.86748" lon="1.04462">
        <ele>91.8</ele>
        <time>2015-10-03T15:18:54Z</time>
      </trkpt>
      <trkpt lat="44.86749" lon="1.04455">
        <ele>91.8</ele>
        <time>2015-10-03T15:18:55Z</time>
      </trkpt>
      <trkpt lat="44.86756" lon="1.04412">
        <ele>91.8</ele>
        <time>2015-10-03T15:19:03Z</time>
      </trkpt>
      <trkpt lat="44.86763" lon="1.04403">
        <ele>91.6</ele>
        <time>2015-10-03T15:19:07Z</time>
      </trkpt>
      <trkpt lat="44.86769" lon="1.04404">
        <ele>91.8</ele>
        <time>2015-10-03T15:19:09Z</time>
      </trkpt>
      <trkpt lat="44.86796" lon="1.04417">
        <ele>92.4</ele>
        <time>2015-10-03T15:19:15Z</time>
      </trkpt>
      <trkpt lat="44.86841" lon="1.04453">
        <ele>92.6</ele>
        <time>2015-10-03T15:19:25Z</time>
      </trkpt>
      <trkpt lat="44.86886" lon="1.04485">
        <ele>93.2</ele>
        <time>2015-10-03T15:19:36Z</time>
      </trkpt>
      <trkpt lat="44.86891" lon="1.04495">
        <ele>94.6</ele>
        <time>2015-10-03T15:19:39Z</time>
      </trkpt>
      <trkpt lat="44.86897" lon="1.04512">
        <ele>96</ele>
        <time>2015-10-03T15:19:43Z</time>
      </trkpt>
      <trkpt lat="44.86901" lon="1.04526">
        <ele>97.2</ele>
        <time>2015-10-03T15:19:46Z</time>
      </trkpt>
      <trkpt lat="44.86904" lon="1.04538">
        <ele>97.8</ele>
        <time>2015-10-03T15:19:50Z</time>
      </trkpt>
      <trkpt lat="44.86907" lon="1.0454">
        <ele>98.2</ele>
        <time>2015-10-03T15:19:53Z</time>
      </trkpt>
      <trkpt lat="44.86913" lon="1.0454">
        <ele>98</ele>
        <time>2015-10-03T15:19:57Z</time>
      </trkpt>
      <trkpt lat="44.86919" lon="1.04532">
        <ele>98</ele>
        <time>2015-10-03T15:20:05Z</time>
      </trkpt>
      <trkpt lat="44.86923" lon="1.04535">
        <ele>97.8</ele>
        <time>2015-10-03T15:20:14Z</time>
      </trkpt>
      <trkpt lat="44.8693" lon="1.04543">
        <ele>97.8</ele>
        <time>2015-10-03T15:20:26Z</time>
      </trkpt>
      <trkpt lat="44.86939" lon="1.04545">
        <ele>97.8</ele>
        <time>2015-10-03T15:20:39Z</time>
      </trkpt>
      <trkpt lat="44.86938" lon="1.0456">
        <ele>98</ele>
        <time>2015-10-03T15:21:15Z</time>
      </trkpt>
      <trkpt lat="44.86938" lon="1.04562">
        <ele>98</ele>
        <time>2015-10-03T15:21:16Z</time>
      </trkpt>
      <trkpt lat="44.86922" lon="1.04564">
        <ele>98</ele>
        <time>2015-10-03T15:21:28Z</time>
      </trkpt>
      <trkpt lat="44.86922" lon="1.04564">
        <ele>97.8</ele>
        <time>2015-10-03T15:21:29Z</time>
      </trkpt>
      <trkpt lat="44.86909" lon="1.04534">
        <ele>97.8</ele>
        <time>2015-10-03T15:21:34Z</time>
      </trkpt>
      <trkpt lat="44.86908" lon="1.04528">
        <ele>98</ele>
        <time>2015-10-03T15:21:35Z</time>
      </trkpt>
      <trkpt lat="44.86905" lon="1.04506">
        <ele>97.6</ele>
        <time>2015-10-03T15:21:39Z</time>
      </trkpt>
      <trkpt lat="44.86905" lon="1.04487">
        <ele>97.8</ele>
        <time>2015-10-03T15:21:42Z</time>
      </trkpt>
      <trkpt lat="44.86911" lon="1.04417">
        <ele>97.2</ele>
        <time>2015-10-03T15:21:53Z</time>
      </trkpt>
      <trkpt lat="44.86918" lon="1.04365">
        <ele>97</ele>
        <time>2015-10-03T15:22:02Z</time>
      </trkpt>
      <trkpt lat="44.86918" lon="1.04361">
        <ele>97</ele>
        <time>2015-10-03T15:22:03Z</time>
      </trkpt>
      <trkpt lat="44.86917" lon="1.04343">
        <ele>97</ele>
        <time>2015-10-03T15:22:11Z</time>
      </trkpt>
      <trkpt lat="44.86918" lon="1.04318">
        <ele>96.8</ele>
        <time>2015-10-03T15:22:21Z</time>
      </trkpt>
      <trkpt lat="44.8692" lon="1.04275">
        <ele>96.4</ele>
        <time>2015-10-03T15:22:31Z</time>
      </trkpt>
      <trkpt lat="44.86923" lon="1.04247">
        <ele>96.4</ele>
        <time>2015-10-03T15:22:41Z</time>
      </trkpt>
      <trkpt lat="44.86925" lon="1.04233">
        <ele>96.2</ele>
        <time>2015-10-03T15:22:50Z</time>
      </trkpt>
      <trkpt lat="44.86925" lon="1.04233">
        <ele>96.4</ele>
        <time>2015-10-03T15:23:16Z</time>
      </trkpt>
      <trkpt lat="44.86926" lon="1.04232">
        <ele>96.2</ele>
        <time>2015-10-03T15:23:20Z</time>
      </trkpt>
      <trkpt lat="44.86923" lon="1.0422">
        <ele>96.4</ele>
        <time>2015-10-03T15:23:28Z</time>
      </trkpt>
      <trkpt lat="44.86921" lon="1.04208">
        <ele>96.2</ele>
        <time>2015-10-03T15:23:36Z</time>
      </trkpt>
      <trkpt lat="44.86917" lon="1.0421">
        <ele>96.2</ele>
        <time>2015-10-03T15:23:51Z</time>
      </trkpt>
      <trkpt lat="44.86917" lon="1.0421">
        <ele>96.6</ele>
        <time>2015-10-03T15:23:55Z</time>
      </trkpt>
      <trkpt lat="44.86934" lon="1.04216">
        <ele>98.2</ele>
        <time>2015-10-03T15:24:01Z</time>
      </trkpt>
      <trkpt lat="44.8694" lon="1.0422">
        <ele>98.8</ele>
        <time>2015-10-03T15:24:03Z</time>
      </trkpt>
      <trkpt lat="44.86942" lon="1.04229">
        <ele>99.2</ele>
        <time>2015-10-03T15:24:06Z</time>
      </trkpt>
      <trkpt lat="44.86942" lon="1.04234">
        <ele>99.4</ele>
        <time>2015-10-03T15:24:09Z</time>
      </trkpt>
      <trkpt lat="44.86941" lon="1.04248">
        <ele>99.4</ele>
        <time>2015-10-03T15:24:15Z</time>
      </trkpt>
      <trkpt lat="44.86941" lon="1.04256">
        <ele>99.4</ele>
        <time>2015-10-03T15:24:18Z</time>
      </trkpt>
      <trkpt lat="44.86941" lon="1.04273">
        <ele>99.2</ele>
        <time>2015-10-03T15:24:27Z</time>
      </trkpt>
      <trkpt lat="44.86939" lon="1.04292">
        <ele>98.8</ele>
        <time>2015-10-03T15:24:35Z</time>
      </trkpt>
      <trkpt lat="44.86931" lon="1.04329">
        <ele>99</ele>
        <time>2015-10-03T15:24:46Z</time>
      </trkpt>
      <trkpt lat="44.8693" lon="1.04333">
        <ele>98.8</ele>
        <time>2015-10-03T15:24:47Z</time>
      </trkpt>
      <trkpt lat="44.86931" lon="1.04359">
        <ele>99.2</ele>
        <time>2015-10-03T15:24:53Z</time>
      </trkpt>
      <trkpt lat="44.86931" lon="1.04365">
        <ele>99</ele>
        <time>2015-10-03T15:24:58Z</time>
      </trkpt>
      <trkpt lat="44.8693" lon="1.04366">
        <ele>99</ele>
        <time>2015-10-03T15:25:04Z</time>
      </trkpt>
      <trkpt lat="44.86926" lon="1.04366">
        <ele>98.2</ele>
        <time>2015-10-03T15:25:09Z</time>
      </trkpt>
      <trkpt lat="44.86926" lon="1.04366">
        <ele>98</ele>
        <time>2015-10-03T15:25:10Z</time>
      </trkpt>
      <trkpt lat="44.8692" lon="1.04369">
        <ele>96.8</ele>
        <time>2015-10-03T15:25:18Z</time>
      </trkpt>
      <trkpt lat="44.86919" lon="1.04374">
        <ele>97</ele>
        <time>2015-10-03T15:25:21Z</time>
      </trkpt>
      <trkpt lat="44.86919" lon="1.04379">
        <ele>97</ele>
        <time>2015-10-03T15:25:23Z</time>
      </trkpt>
      <trkpt lat="44.86917" lon="1.04401">
        <ele>97.2</ele>
        <time>2015-10-03T15:25:32Z</time>
      </trkpt>
      <trkpt lat="44.86917" lon="1.04421">
        <ele>97.2</ele>
        <time>2015-10-03T15:25:38Z</time>
      </trkpt>
      <trkpt lat="44.86915" lon="1.04438">
        <ele>97.2</ele>
        <time>2015-10-03T15:25:45Z</time>
      </trkpt>
      <trkpt lat="44.86913" lon="1.04462">
        <ele>97.4</ele>
        <time>2015-10-03T15:25:51Z</time>
      </trkpt>
      <trkpt lat="44.86913" lon="1.04489">
        <ele>97.6</ele>
        <time>2015-10-03T15:25:57Z</time>
      </trkpt>
      <trkpt lat="44.8691" lon="1.04503">
        <ele>97.4</ele>
        <time>2015-10-03T15:26:02Z</time>
      </trkpt>
      <trkpt lat="44.8691" lon="1.04516">
        <ele>97.4</ele>
        <time>2015-10-03T15:26:07Z</time>
      </trkpt>
      <trkpt lat="44.8691" lon="1.0452">
        <ele>97.6</ele>
        <time>2015-10-03T15:26:12Z</time>
      </trkpt>
      <trkpt lat="44.86911" lon="1.04526">
        <ele>97.4</ele>
        <time>2015-10-03T15:32:11Z</time>
      </trkpt>
      <trkpt lat="44.8691" lon="1.04531">
        <ele>97.4</ele>
        <time>2015-10-03T15:32:13Z</time>
      </trkpt>
      <trkpt lat="44.86909" lon="1.04534">
        <ele>97.6</ele>
        <time>2015-10-03T15:32:16Z</time>
      </trkpt>
      <trkpt lat="44.86906" lon="1.04535">
        <ele>97.6</ele>
        <time>2015-10-03T15:32:18Z</time>
      </trkpt>
      <trkpt lat="44.86903" lon="1.04533">
        <ele>97.6</ele>
        <time>2015-10-03T15:32:20Z</time>
      </trkpt>
      <trkpt lat="44.86898" lon="1.04523">
        <ele>97.2</ele>
        <time>2015-10-03T15:32:25Z</time>
      </trkpt>
      <trkpt lat="44.86891" lon="1.04501">
        <ele>96</ele>
        <time>2015-10-03T15:32:29Z</time>
      </trkpt>
      <trkpt lat="44.86888" lon="1.04495">
        <ele>95.2</ele>
        <time>2015-10-03T15:32:30Z</time>
      </trkpt>
      <trkpt lat="44.86882" lon="1.04483">
        <ele>94.4</ele>
        <time>2015-10-03T15:32:32Z</time>
      </trkpt>
      <trkpt lat="44.86877" lon="1.04477">
        <ele>94</ele>
        <time>2015-10-03T15:32:33Z</time>
      </trkpt>
      <trkpt lat="44.86871" lon="1.04471">
        <ele>93.6</ele>
        <time>2015-10-03T15:32:34Z</time>
      </trkpt>
      <trkpt lat="44.86861" lon="1.0446">
        <ele>92.4</ele>
        <time>2015-10-03T15:32:36Z</time>
      </trkpt>
      <trkpt lat="44.86845" lon="1.04449">
        <ele>92.6</ele>
        <time>2015-10-03T15:32:39Z</time>
      </trkpt>
      <trkpt lat="44.86839" lon="1.04447">
        <ele>92.4</ele>
        <time>2015-10-03T15:32:40Z</time>
      </trkpt>
      <trkpt lat="44.86807" lon="1.04434">
        <ele>92</ele>
        <time>2015-10-03T15:32:46Z</time>
      </trkpt>
      <trkpt lat="44.86772" lon="1.04419">
        <ele>91.6</ele>
        <time>2015-10-03T15:32:53Z</time>
      </trkpt>
      <trkpt lat="44.86757" lon="1.04411">
        <ele>91.4</ele>
        <time>2015-10-03T15:32:57Z</time>
      </trkpt>
      <trkpt lat="44.86755" lon="1.04412">
        <ele>91.4</ele>
        <time>2015-10-03T15:32:58Z</time>
      </trkpt>
      <trkpt lat="44.86753" lon="1.04413">
        <ele>91.4</ele>
        <time>2015-10-03T15:32:59Z</time>
      </trkpt>
      <trkpt lat="44.86751" lon="1.04419">
        <ele>91.6</ele>
        <time>2015-10-03T15:33:02Z</time>
      </trkpt>
      <trkpt lat="44.86748" lon="1.04433">
        <ele>91.4</ele>
        <time>2015-10-03T15:33:06Z</time>
      </trkpt>
      <trkpt lat="44.8674" lon="1.04434">
        <ele>91.2</ele>
        <time>2015-10-03T15:33:10Z</time>
      </trkpt>
      <trkpt lat="44.8673" lon="1.04426">
        <ele>91.4</ele>
        <time>2015-10-03T15:33:15Z</time>
      </trkpt>
      <trkpt lat="44.8673" lon="1.04423">
        <ele>91.4</ele>
        <time>2015-10-03T15:33:16Z</time>
      </trkpt>
      <trkpt lat="44.86728" lon="1.04416">
        <ele>91.4</ele>
        <time>2015-10-03T15:33:19Z</time>
      </trkpt>
      <trkpt lat="44.86727" lon="1.04414">
        <ele>91.4</ele>
        <time>2015-10-03T15:33:21Z</time>
      </trkpt>
      <trkpt lat="44.86727" lon="1.04413">
        <ele>91.4</ele>
        <time>2015-10-03T15:33:30Z</time>
      </trkpt>
      <trkpt lat="44.86727" lon="1.04413">
        <ele>91.4</ele>
        <time>2015-10-03T15:33:31Z</time>
      </trkpt>
      <trkpt lat="44.86725" lon="1.04401">
        <ele>91.2</ele>
        <time>2015-10-03T15:37:10Z</time>
      </trkpt>
      <trkpt lat="44.86727" lon="1.04397">
        <ele>91.2</ele>
        <time>2015-10-03T15:37:12Z</time>
      </trkpt>
      <trkpt lat="44.86734" lon="1.04367">
        <ele>91.4</ele>
        <time>2015-10-03T15:37:20Z</time>
      </trkpt>
      <trkpt lat="44.86752" lon="1.04334">
        <ele>91.2</ele>
        <time>2015-10-03T15:37:27Z</time>
      </trkpt>
      <trkpt lat="44.86774" lon="1.04277">
        <ele>91.2</ele>
        <time>2015-10-03T15:37:35Z</time>
      </trkpt>
      <trkpt lat="44.86713" lon="1.04407">
        <ele>91.2</ele>
        <time>2015-10-03T15:38:16Z</time>
      </trkpt>
      <trkpt lat="44.86719" lon="1.04384">
        <ele>91</ele>
        <time>2015-10-03T15:38:28Z</time>
      </trkpt>
      <trkpt lat="44.86739" lon="1.04372">
        <ele>91</ele>
        <time>2015-10-03T15:38:37Z</time>
      </trkpt>
      <trkpt lat="44.86772" lon="1.04337">
        <ele>90.8</ele>
        <time>2015-10-03T15:38:50Z</time>
      </trkpt>
      <trkpt lat="44.86789" lon="1.04308">
        <ele>91</ele>
        <time>2015-10-03T15:39:00Z</time>
      </trkpt>
      <trkpt lat="44.86793" lon="1.04263">
        <ele>90.6</ele>
        <time>2015-10-03T15:39:06Z</time>
      </trkpt>
      <trkpt lat="44.86813" lon="1.04234">
        <ele>90.8</ele>
        <time>2015-10-03T15:39:17Z</time>
      </trkpt>
      <trkpt lat="44.86816" lon="1.04232">
        <ele>90.8</ele>
        <time>2015-10-03T15:39:18Z</time>
      </trkpt>
      <trkpt lat="44.86849" lon="1.04196">
        <ele>90.8</ele>
        <time>2015-10-03T15:39:28Z</time>
      </trkpt>
      <trkpt lat="44.86892" lon="1.04151">
        <ele>90.6</ele>
        <time>2015-10-03T15:39:39Z</time>
      </trkpt>
      <trkpt lat="44.86934" lon="1.0413">
        <ele>90.2</ele>
        <time>2015-10-03T15:39:46Z</time>
      </trkpt>
      <trkpt lat="44.86946" lon="1.0412">
        <ele>91.2</ele>
        <time>2015-10-03T15:39:48Z</time>
      </trkpt>
      <trkpt lat="44.86952" lon="1.04114">
        <ele>91.8</ele>
        <time>2015-10-03T15:39:49Z</time>
      </trkpt>
      <trkpt lat="44.86993" lon="1.0406">
        <ele>90.8</ele>
        <time>2015-10-03T15:39:58Z</time>
      </trkpt>
      <trkpt lat="44.8701" lon="1.04034">
        <ele>90.8</ele>
        <time>2015-10-03T15:40:03Z</time>
      </trkpt>
      <trkpt lat="44.87045" lon="1.03983">
        <ele>90.8</ele>
        <time>2015-10-03T15:40:09Z</time>
      </trkpt>
      <trkpt lat="44.87106" lon="1.03922">
        <ele>91</ele>
        <time>2015-10-03T15:40:20Z</time>
      </trkpt>
      <trkpt lat="44.8711" lon="1.03918">
        <ele>91.2</ele>
        <time>2015-10-03T15:40:22Z</time>
      </trkpt>
      <trkpt lat="44.87092" lon="1.03948">
        <ele>91</ele>
        <time>2015-10-03T15:40:29Z</time>
      </trkpt>
      <trkpt lat="44.87063" lon="1.04">
        <ele>91</ele>
        <time>2015-10-03T15:40:35Z</time>
      </trkpt>
      <trkpt lat="44.8702" lon="1.04006">
        <ele>91</ele>
        <time>2015-10-03T15:40:42Z</time>
      </trkpt>
      <trkpt lat="44.86974" lon="1.04032">
        <ele>91</ele>
        <time>2015-10-03T15:40:52Z</time>
      </trkpt>
      <trkpt lat="44.8693" lon="1.04075">
        <ele>90.8</ele>
        <time>2015-10-03T15:40:59Z</time>
      </trkpt>
      <trkpt lat="44.86883" lon="1.04123">
        <ele>91.2</ele>
        <time>2015-10-03T15:41:04Z</time>
      </trkpt>
      <trkpt lat="44.86871" lon="1.04141">
        <ele>91</ele>
        <time>2015-10-03T15:41:08Z</time>
      </trkpt>
      <trkpt lat="44.86872" lon="1.04137">
        <ele>91.2</ele>
        <time>2015-10-03T15:41:18Z</time>
      </trkpt>
      <trkpt lat="44.86847" lon="1.04173">
        <ele>91</ele>
        <time>2015-10-03T15:41:28Z</time>
      </trkpt>
      <trkpt lat="44.86823" lon="1.0422">
        <ele>90.8</ele>
        <time>2015-10-03T15:41:38Z</time>
      </trkpt>
      <trkpt lat="44.8682" lon="1.04225">
        <ele>90</ele>
        <time>2015-10-03T15:41:39Z</time>
      </trkpt>
      <trkpt lat="44.86814" lon="1.04237">
        <ele>91.4</ele>
        <time>2015-10-03T15:41:41Z</time>
      </trkpt>
      <trkpt lat="44.86813" lon="1.04238">
        <ele>91.2</ele>
        <time>2015-10-03T15:41:48Z</time>
      </trkpt>
      <trkpt lat="44.86804" lon="1.04256">
        <ele>91</ele>
        <time>2015-10-03T15:41:57Z</time>
      </trkpt>
      <trkpt lat="44.86726" lon="1.04385">
        <ele>91.2</ele>
        <time>2015-10-03T15:42:38Z</time>
      </trkpt>
      <trkpt lat="44.86728" lon="1.04382">
        <ele>91.2</ele>
        <time>2015-10-03T15:42:40Z</time>
      </trkpt>
      <trkpt lat="44.86737" lon="1.04363">
        <ele>91.4</ele>
        <time>2015-10-03T15:42:50Z</time>
      </trkpt>
      <trkpt lat="44.86756" lon="1.04341">
        <ele>91.2</ele>
        <time>2015-10-03T15:42:59Z</time>
      </trkpt>
      <trkpt lat="44.86781" lon="1.04304">
        <ele>91.6</ele>
        <time>2015-10-03T15:43:12Z</time>
      </trkpt>
      <trkpt lat="44.86792" lon="1.04279">
        <ele>91.2</ele>
        <time>2015-10-03T15:43:20Z</time>
      </trkpt>
      <trkpt lat="44.86803" lon="1.04246">
        <ele>91</ele>
        <time>2015-10-03T15:43:28Z</time>
      </trkpt>
      <trkpt lat="44.86815" lon="1.0423">
        <ele>91.4</ele>
        <time>2015-10-03T15:43:33Z</time>
      </trkpt>
      <trkpt lat="44.86822" lon="1.04214">
        <ele>90.8</ele>
        <time>2015-10-03T15:43:37Z</time>
      </trkpt>
      <trkpt lat="44.86838" lon="1.04185">
        <ele>91.2</ele>
        <time>2015-10-03T15:43:47Z</time>
      </trkpt>
      <trkpt lat="44.8684" lon="1.04172">
        <ele>91.2</ele>
        <time>2015-10-03T15:43:53Z</time>
      </trkpt>
      <trkpt lat="44.86833" lon="1.04148">
        <ele>91.2</ele>
        <time>2015-10-03T15:44:03Z</time>
      </trkpt>
      <trkpt lat="44.86819" lon="1.04095">
        <ele>91</ele>
        <time>2015-10-03T15:44:15Z</time>
      </trkpt>
      <trkpt lat="44.86821" lon="1.04015">
        <ele>91</ele>
        <time>2015-10-03T15:44:25Z</time>
      </trkpt>
      <trkpt lat="44.86828" lon="1.03982">
        <ele>90.8</ele>
        <time>2015-10-03T15:44:30Z</time>
      </trkpt>
      <trkpt lat="44.86868" lon="1.03947">
        <ele>91.2</ele>
        <time>2015-10-03T15:44:39Z</time>
      </trkpt>
      <trkpt lat="44.86948" lon="1.03943">
        <ele>91.4</ele>
        <time>2015-10-03T15:44:49Z</time>
      </trkpt>
      <trkpt lat="44.86962" lon="1.03941">
        <ele>91.2</ele>
        <time>2015-10-03T15:44:52Z</time>
      </trkpt>
      <trkpt lat="44.87" lon="1.03918">
        <ele>91</ele>
        <time>2015-10-03T15:45:03Z</time>
      </trkpt>
      <trkpt lat="44.87017" lon="1.03894">
        <ele>91</ele>
        <time>2015-10-03T15:45:13Z</time>
      </trkpt>
      <trkpt lat="44.86999" lon="1.03913">
        <ele>91</ele>
        <time>2015-10-03T15:45:22Z</time>
      </trkpt>
      <trkpt lat="44.8694" lon="1.04036">
        <ele>91</ele>
        <time>2015-10-03T15:45:29Z</time>
      </trkpt>
      <trkpt lat="44.86853" lon="1.04179">
        <ele>90.8</ele>
        <time>2015-10-03T15:45:37Z</time>
      </trkpt>
      <trkpt lat="44.8674" lon="1.04391">
        <ele>90.8</ele>
        <time>2015-10-03T15:46:24Z</time>
      </trkpt>
      <trkpt lat="44.86738" lon="1.04395">
        <ele>90.8</ele>
        <time>2015-10-03T15:46:25Z</time>
      </trkpt>
      <trkpt lat="44.86727" lon="1.04424">
        <ele>91</ele>
        <time>2015-10-03T15:46:38Z</time>
      </trkpt>
      <trkpt lat="44.8673" lon="1.04405">
        <ele>90.8</ele>
        <time>2015-10-03T16:04:24Z</time>
      </trkpt>
      <trkpt lat="44.86731" lon="1.04403">
        <ele>90.8</ele>
        <time>2015-10-03T16:04:25Z</time>
      </trkpt>
      <trkpt lat="44.86736" lon="1.04386">
        <ele>90.8</ele>
        <time>2015-10-03T16:04:37Z</time>
      </trkpt>
      <trkpt lat="44.86736" lon="1.04383">
        <ele>91</ele>
        <time>2015-10-03T16:04:38Z</time>
      </trkpt>
      <trkpt lat="44.86733" lon="1.04377">
        <ele>91</ele>
        <time>2015-10-03T16:04:40Z</time>
      </trkpt>
      <trkpt lat="44.86723" lon="1.04356">
        <ele>90.8</ele>
        <time>2015-10-03T16:04:46Z</time>
      </trkpt>
      <trkpt lat="44.86712" lon="1.04333">
        <ele>91</ele>
        <time>2015-10-03T16:04:51Z</time>
      </trkpt>
      <trkpt lat="44.86687" lon="1.04296">
        <ele>90.8</ele>
        <time>2015-10-03T16:04:59Z</time>
      </trkpt>
      <trkpt lat="44.86674" lon="1.04273">
        <ele>90.8</ele>
        <time>2015-10-03T16:05:04Z</time>
      </trkpt>
      <trkpt lat="44.86666" lon="1.04258">
        <ele>90.6</ele>
        <time>2015-10-03T16:05:07Z</time>
      </trkpt>
      <trkpt lat="44.86656" lon="1.04243">
        <ele>90.6</ele>
        <time>2015-10-03T16:05:10Z</time>
      </trkpt>
      <trkpt lat="44.86642" lon="1.04224">
        <ele>90.4</ele>
        <time>2015-10-03T16:05:14Z</time>
      </trkpt>
      <trkpt lat="44.86631" lon="1.04211">
        <ele>90.6</ele>
        <time>2015-10-03T16:05:17Z</time>
      </trkpt>
      <trkpt lat="44.86623" lon="1.04203">
        <ele>90.2</ele>
        <time>2015-10-03T16:05:19Z</time>
      </trkpt>
      <trkpt lat="44.86608" lon="1.04188">
        <ele>90.2</ele>
        <time>2015-10-03T16:05:23Z</time>
      </trkpt>
      <trkpt lat="44.86605" lon="1.04183">
        <ele>90.2</ele>
        <time>2015-10-03T16:05:24Z</time>
      </trkpt>
      <trkpt lat="44.86601" lon="1.04167">
        <ele>90.2</ele>
        <time>2015-10-03T16:05:27Z</time>
      </trkpt>
      <trkpt lat="44.86608" lon="1.04151">
        <ele>90.2</ele>
        <time>2015-10-03T16:05:30Z</time>
      </trkpt>
      <trkpt lat="44.86623" lon="1.04144">
        <ele>90.2</ele>
        <time>2015-10-03T16:05:33Z</time>
      </trkpt>
      <trkpt lat="44.86628" lon="1.04142">
        <ele>90.2</ele>
        <time>2015-10-03T16:05:34Z</time>
      </trkpt>
      <trkpt lat="44.86644" lon="1.04137">
        <ele>90.2</ele>
        <time>2015-10-03T16:05:37Z</time>
      </trkpt>
      <trkpt lat="44.8666" lon="1.04135">
        <ele>90.2</ele>
        <time>2015-10-03T16:05:40Z</time>
      </trkpt>
      <trkpt lat="44.86692" lon="1.04132">
        <ele>90.2</ele>
        <time>2015-10-03T16:05:46Z</time>
      </trkpt>
      <trkpt lat="44.86697" lon="1.04133">
        <ele>90.2</ele>
        <time>2015-10-03T16:05:47Z</time>
      </trkpt>
      <trkpt lat="44.86745" lon="1.04138">
        <ele>90.8</ele>
        <time>2015-10-03T16:05:56Z</time>
      </trkpt>
      <trkpt lat="44.86777" lon="1.04143">
        <ele>91.2</ele>
        <time>2015-10-03T16:06:02Z</time>
      </trkpt>
      <trkpt lat="44.86792" lon="1.04145">
        <ele>91.4</ele>
        <time>2015-10-03T16:06:05Z</time>
      </trkpt>
      <trkpt lat="44.86813" lon="1.04148">
        <ele>91.4</ele>
        <time>2015-10-03T16:06:09Z</time>
      </trkpt>
      <trkpt lat="44.86839" lon="1.04152">
        <ele>92</ele>
        <time>2015-10-03T16:06:14Z</time>
      </trkpt>
      <trkpt lat="44.86858" lon="1.04155">
        <ele>92.4</ele>
        <time>2015-10-03T16:06:18Z</time>
      </trkpt>
      <trkpt lat="44.86874" lon="1.04156">
        <ele>93</ele>
        <time>2015-10-03T16:06:22Z</time>
      </trkpt>
      <trkpt lat="44.86883" lon="1.04157">
        <ele>93.4</ele>
        <time>2015-10-03T16:06:24Z</time>
      </trkpt>
      <trkpt lat="44.86909" lon="1.04159">
        <ele>94.2</ele>
        <time>2015-10-03T16:06:30Z</time>
      </trkpt>
      <trkpt lat="44.86919" lon="1.0416">
        <ele>94.6</ele>
        <time>2015-10-03T16:06:33Z</time>
      </trkpt>
      <trkpt lat="44.86928" lon="1.04152">
        <ele>95</ele>
        <time>2015-10-03T16:06:36Z</time>
      </trkpt>
      <trkpt lat="44.8693" lon="1.04133">
        <ele>95.2</ele>
        <time>2015-10-03T16:06:40Z</time>
      </trkpt>
      <trkpt lat="44.86932" lon="1.04095">
        <ele>94.8</ele>
        <time>2015-10-03T16:06:47Z</time>
      </trkpt>
      <trkpt lat="44.86933" lon="1.04079">
        <ele>94.8</ele>
        <time>2015-10-03T16:06:50Z</time>
      </trkpt>
      <trkpt lat="44.86933" lon="1.04062">
        <ele>94.8</ele>
        <time>2015-10-03T16:06:53Z</time>
      </trkpt>
      <trkpt lat="44.86934" lon="1.0405">
        <ele>94.8</ele>
        <time>2015-10-03T16:06:55Z</time>
      </trkpt>
      <trkpt lat="44.86936" lon="1.04026">
        <ele>94.6</ele>
        <time>2015-10-03T16:06:59Z</time>
      </trkpt>
      <trkpt lat="44.86938" lon="1.03979">
        <ele>94.6</ele>
        <time>2015-10-03T16:07:06Z</time>
      </trkpt>
      <trkpt lat="44.8694" lon="1.0392">
        <ele>94.2</ele>
        <time>2015-10-03T16:07:14Z</time>
      </trkpt>
      <trkpt lat="44.86943" lon="1.03866">
        <ele>94.2</ele>
        <time>2015-10-03T16:07:21Z</time>
      </trkpt>
      <trkpt lat="44.86937" lon="1.03818">
        <ele>94</ele>
        <time>2015-10-03T16:07:27Z</time>
      </trkpt>
      <trkpt lat="44.86933" lon="1.03802">
        <ele>94</ele>
        <time>2015-10-03T16:07:29Z</time>
      </trkpt>
      <trkpt lat="44.86926" lon="1.03772">
        <ele>94</ele>
        <time>2015-10-03T16:07:33Z</time>
      </trkpt>
      <trkpt lat="44.86915" lon="1.03724">
        <ele>93.6</ele>
        <time>2015-10-03T16:07:40Z</time>
      </trkpt>
      <trkpt lat="44.86906" lon="1.03673">
        <ele>93.8</ele>
        <time>2015-10-03T16:07:48Z</time>
      </trkpt>
      <trkpt lat="44.86904" lon="1.03667">
        <ele>93.8</ele>
        <time>2015-10-03T16:07:49Z</time>
      </trkpt>
      <trkpt lat="44.86897" lon="1.03633">
        <ele>93.8</ele>
        <time>2015-10-03T16:07:54Z</time>
      </trkpt>
      <trkpt lat="44.86884" lon="1.03579">
        <ele>93.6</ele>
        <time>2015-10-03T16:08:02Z</time>
      </trkpt>
      <trkpt lat="44.86865" lon="1.03519">
        <ele>93.4</ele>
        <time>2015-10-03T16:08:11Z</time>
      </trkpt>
      <trkpt lat="44.86839" lon="1.03453">
        <ele>93.2</ele>
        <time>2015-10-03T16:08:21Z</time>
      </trkpt>
      <trkpt lat="44.86819" lon="1.03402">
        <ele>93</ele>
        <time>2015-10-03T16:08:29Z</time>
      </trkpt>
      <trkpt lat="44.86812" lon="1.03385">
        <ele>93.2</ele>
        <time>2015-10-03T16:08:32Z</time>
      </trkpt>
      <trkpt lat="44.86802" lon="1.03358">
        <ele>93</ele>
        <time>2015-10-03T16:08:37Z</time>
      </trkpt>
      <trkpt lat="44.86794" lon="1.03338">
        <ele>92.8</ele>
        <time>2015-10-03T16:08:41Z</time>
      </trkpt>
      <trkpt lat="44.86789" lon="1.03324">
        <ele>92.6</ele>
        <time>2015-10-03T16:08:44Z</time>
      </trkpt>
      <trkpt lat="44.86787" lon="1.03319">
        <ele>92.6</ele>
        <time>2015-10-03T16:08:45Z</time>
      </trkpt>
      <trkpt lat="44.86783" lon="1.0331">
        <ele>92.6</ele>
        <time>2015-10-03T16:08:47Z</time>
      </trkpt>
      <trkpt lat="44.86777" lon="1.03295">
        <ele>92.6</ele>
        <time>2015-10-03T16:08:50Z</time>
      </trkpt>
      <trkpt lat="44.86771" lon="1.03276">
        <ele>92.4</ele>
        <time>2015-10-03T16:08:53Z</time>
      </trkpt>
      <trkpt lat="44.86766" lon="1.03264">
        <ele>92.4</ele>
        <time>2015-10-03T16:08:55Z</time>
      </trkpt>
      <trkpt lat="44.86763" lon="1.03258">
        <ele>92.8</ele>
        <time>2015-10-03T16:08:56Z</time>
      </trkpt>
      <trkpt lat="44.86755" lon="1.03234">
        <ele>92.6</ele>
        <time>2015-10-03T16:09:00Z</time>
      </trkpt>
      <trkpt lat="44.86737" lon="1.03184">
        <ele>92.2</ele>
        <time>2015-10-03T16:09:08Z</time>
      </trkpt>
      <trkpt lat="44.86713" lon="1.03123">
        <ele>92.4</ele>
        <time>2015-10-03T16:09:17Z</time>
      </trkpt>
      <trkpt lat="44.86688" lon="1.03055">
        <ele>92.2</ele>
        <time>2015-10-03T16:09:27Z</time>
      </trkpt>
      <trkpt lat="44.86667" lon="1.03001">
        <ele>91.8</ele>
        <time>2015-10-03T16:09:35Z</time>
      </trkpt>
      <trkpt lat="44.86646" lon="1.02946">
        <ele>91.2</ele>
        <time>2015-10-03T16:09:43Z</time>
      </trkpt>
      <trkpt lat="44.86629" lon="1.029">
        <ele>91.6</ele>
        <time>2015-10-03T16:09:50Z</time>
      </trkpt>
      <trkpt lat="44.86624" lon="1.02886">
        <ele>91.6</ele>
        <time>2015-10-03T16:09:52Z</time>
      </trkpt>
      <trkpt lat="44.86614" lon="1.0286">
        <ele>91.4</ele>
        <time>2015-10-03T16:09:56Z</time>
      </trkpt>
      <trkpt lat="44.86606" lon="1.0284">
        <ele>91.4</ele>
        <time>2015-10-03T16:09:59Z</time>
      </trkpt>
      <trkpt lat="44.86596" lon="1.02813">
        <ele>91.4</ele>
        <time>2015-10-03T16:10:03Z</time>
      </trkpt>
      <trkpt lat="44.86575" lon="1.0276">
        <ele>91.2</ele>
        <time>2015-10-03T16:10:11Z</time>
      </trkpt>
      <trkpt lat="44.86556" lon="1.02717">
        <ele>91.4</ele>
        <time>2015-10-03T16:10:18Z</time>
      </trkpt>
      <trkpt lat="44.86524" lon="1.02658">
        <ele>91.6</ele>
        <time>2015-10-03T16:10:28Z</time>
      </trkpt>
      <trkpt lat="44.86492" lon="1.02611">
        <ele>91.8</ele>
        <time>2015-10-03T16:10:37Z</time>
      </trkpt>
      <trkpt lat="44.86464" lon="1.02577">
        <ele>92</ele>
        <time>2015-10-03T16:10:44Z</time>
      </trkpt>
      <trkpt lat="44.86434" lon="1.02548">
        <ele>92</ele>
        <time>2015-10-03T16:10:51Z</time>
      </trkpt>
      <trkpt lat="44.8643" lon="1.02545">
        <ele>92.2</ele>
        <time>2015-10-03T16:10:52Z</time>
      </trkpt>
      <trkpt lat="44.86403" lon="1.02522">
        <ele>92.8</ele>
        <time>2015-10-03T16:10:58Z</time>
      </trkpt>
      <trkpt lat="44.86364" lon="1.02497">
        <ele>92</ele>
        <time>2015-10-03T16:11:06Z</time>
      </trkpt>
      <trkpt lat="44.86359" lon="1.02495">
        <ele>92</ele>
        <time>2015-10-03T16:11:07Z</time>
      </trkpt>
      <trkpt lat="44.8634" lon="1.02484">
        <ele>92.2</ele>
        <time>2015-10-03T16:11:11Z</time>
      </trkpt>
      <trkpt lat="44.86307" lon="1.02466">
        <ele>91.6</ele>
        <time>2015-10-03T16:11:18Z</time>
      </trkpt>
      <trkpt lat="44.86267" lon="1.02447">
        <ele>91.4</ele>
        <time>2015-10-03T16:11:26Z</time>
      </trkpt>
      <trkpt lat="44.86223" lon="1.02424">
        <ele>91.4</ele>
        <time>2015-10-03T16:11:35Z</time>
      </trkpt>
      <trkpt lat="44.86219" lon="1.02422">
        <ele>91.2</ele>
        <time>2015-10-03T16:11:36Z</time>
      </trkpt>
      <trkpt lat="44.86188" lon="1.02409">
        <ele>91</ele>
        <time>2015-10-03T16:11:42Z</time>
      </trkpt>
      <trkpt lat="44.86152" lon="1.02393">
        <ele>90.8</ele>
        <time>2015-10-03T16:11:49Z</time>
      </trkpt>
      <trkpt lat="44.86123" lon="1.0238">
        <ele>91.2</ele>
        <time>2015-10-03T16:11:55Z</time>
      </trkpt>
      <trkpt lat="44.86118" lon="1.02378">
        <ele>91</ele>
        <time>2015-10-03T16:11:56Z</time>
      </trkpt>
      <trkpt lat="44.86088" lon="1.02364">
        <ele>91</ele>
        <time>2015-10-03T16:12:02Z</time>
      </trkpt>
      <trkpt lat="44.86083" lon="1.02362">
        <ele>91</ele>
        <time>2015-10-03T16:12:03Z</time>
      </trkpt>
      <trkpt lat="44.86052" lon="1.02347">
        <ele>90.8</ele>
        <time>2015-10-03T16:12:09Z</time>
      </trkpt>
      <trkpt lat="44.86003" lon="1.02324">
        <ele>90.8</ele>
        <time>2015-10-03T16:12:19Z</time>
      </trkpt>
      <trkpt lat="44.85971" lon="1.02308">
        <ele>90.8</ele>
        <time>2015-10-03T16:12:26Z</time>
      </trkpt>
      <trkpt lat="44.85931" lon="1.0229">
        <ele>90.6</ele>
        <time>2015-10-03T16:12:34Z</time>
      </trkpt>
      <trkpt lat="44.85883" lon="1.02267">
        <ele>90.4</ele>
        <time>2015-10-03T16:12:44Z</time>
      </trkpt>
      <trkpt lat="44.85843" lon="1.02249">
        <ele>90.2</ele>
        <time>2015-10-03T16:12:52Z</time>
      </trkpt>
      <trkpt lat="44.85838" lon="1.02247">
        <ele>90.2</ele>
        <time>2015-10-03T16:12:53Z</time>
      </trkpt>
      <trkpt lat="44.85799" lon="1.02228">
        <ele>90</ele>
        <time>2015-10-03T16:13:01Z</time>
      </trkpt>
      <trkpt lat="44.85757" lon="1.02208">
        <ele>89.8</ele>
        <time>2015-10-03T16:13:10Z</time>
      </trkpt>
      <trkpt lat="44.85732" lon="1.02197">
        <ele>89.6</ele>
        <time>2015-10-03T16:13:15Z</time>
      </trkpt>
      <trkpt lat="44.85718" lon="1.0219">
        <ele>89.8</ele>
        <time>2015-10-03T16:13:18Z</time>
      </trkpt>
      <trkpt lat="44.8568" lon="1.0217">
        <ele>89.4</ele>
        <time>2015-10-03T16:13:26Z</time>
      </trkpt>
      <trkpt lat="44.85649" lon="1.02148">
        <ele>89.8</ele>
        <time>2015-10-03T16:13:33Z</time>
      </trkpt>
      <trkpt lat="44.85641" lon="1.02141">
        <ele>90</ele>
        <time>2015-10-03T16:13:35Z</time>
      </trkpt>
      <trkpt lat="44.85625" lon="1.02126">
        <ele>90.2</ele>
        <time>2015-10-03T16:13:39Z</time>
      </trkpt>
      <trkpt lat="44.85604" lon="1.02107">
        <ele>90.4</ele>
        <time>2015-10-03T16:13:44Z</time>
      </trkpt>
      <trkpt lat="44.85592" lon="1.02096">
        <ele>90.6</ele>
        <time>2015-10-03T16:13:47Z</time>
      </trkpt>
      <trkpt lat="44.85554" lon="1.02066">
        <ele>91</ele>
        <time>2015-10-03T16:13:56Z</time>
      </trkpt>
      <trkpt lat="44.85532" lon="1.02053">
        <ele>91.2</ele>
        <time>2015-10-03T16:14:01Z</time>
      </trkpt>
      <trkpt lat="44.85518" lon="1.02045">
        <ele>91.2</ele>
        <time>2015-10-03T16:14:04Z</time>
      </trkpt>
      <trkpt lat="44.8548" lon="1.0203">
        <ele>91.4</ele>
        <time>2015-10-03T16:14:12Z</time>
      </trkpt>
      <trkpt lat="44.8547" lon="1.02027">
        <ele>91.4</ele>
        <time>2015-10-03T16:14:14Z</time>
      </trkpt>
      <trkpt lat="44.85439" lon="1.02018">
        <ele>91.4</ele>
        <time>2015-10-03T16:14:20Z</time>
      </trkpt>
      <trkpt lat="44.85393" lon="1.02004">
        <ele>91.2</ele>
        <time>2015-10-03T16:14:29Z</time>
      </trkpt>
      <trkpt lat="44.85349" lon="1.01995">
        <ele>90.6</ele>
        <time>2015-10-03T16:14:37Z</time>
      </trkpt>
      <trkpt lat="44.85331" lon="1.01994">
        <ele>90.2</ele>
        <time>2015-10-03T16:14:40Z</time>
      </trkpt>
      <trkpt lat="44.85308" lon="1.01992">
        <ele>89.8</ele>
        <time>2015-10-03T16:14:44Z</time>
      </trkpt>
      <trkpt lat="44.85275" lon="1.01982">
        <ele>89.6</ele>
        <time>2015-10-03T16:14:50Z</time>
      </trkpt>
      <trkpt lat="44.8526" lon="1.01978">
        <ele>89.8</ele>
        <time>2015-10-03T16:14:53Z</time>
      </trkpt>
      <trkpt lat="44.8525" lon="1.01979">
        <ele>90</ele>
        <time>2015-10-03T16:14:55Z</time>
      </trkpt>
      <trkpt lat="44.85226" lon="1.01991">
        <ele>90.2</ele>
        <time>2015-10-03T16:15:00Z</time>
      </trkpt>
      <trkpt lat="44.85221" lon="1.01993">
        <ele>90</ele>
        <time>2015-10-03T16:15:01Z</time>
      </trkpt>
      <trkpt lat="44.8521" lon="1.01995">
        <ele>90</ele>
        <time>2015-10-03T16:15:03Z</time>
      </trkpt>
      <trkpt lat="44.85195" lon="1.01994">
        <ele>90</ele>
        <time>2015-10-03T16:15:06Z</time>
      </trkpt>
      <trkpt lat="44.85164" lon="1.01986">
        <ele>90.2</ele>
        <time>2015-10-03T16:15:12Z</time>
      </trkpt>
      <trkpt lat="44.85122" lon="1.01968">
        <ele>90</ele>
        <time>2015-10-03T16:15:20Z</time>
      </trkpt>
      <trkpt lat="44.85076" lon="1.01958">
        <ele>89.4</ele>
        <time>2015-10-03T16:15:29Z</time>
      </trkpt>
      <trkpt lat="44.85039" lon="1.0195">
        <ele>89.6</ele>
        <time>2015-10-03T16:15:36Z</time>
      </trkpt>
      <trkpt lat="44.84995" lon="1.01933">
        <ele>89.8</ele>
        <time>2015-10-03T16:15:45Z</time>
      </trkpt>
      <trkpt lat="44.84965" lon="1.0193">
        <ele>90.2</ele>
        <time>2015-10-03T16:15:51Z</time>
      </trkpt>
      <trkpt lat="44.84926" lon="1.01922">
        <ele>90.4</ele>
        <time>2015-10-03T16:15:59Z</time>
      </trkpt>
      <trkpt lat="44.84921" lon="1.01919">
        <ele>90.4</ele>
        <time>2015-10-03T16:16:00Z</time>
      </trkpt>
      <trkpt lat="44.84899" lon="1.01904">
        <ele>90.2</ele>
        <time>2015-10-03T16:16:05Z</time>
      </trkpt>
      <trkpt lat="44.84891" lon="1.01898">
        <ele>90</ele>
        <time>2015-10-03T16:16:07Z</time>
      </trkpt>
      <trkpt lat="44.84874" lon="1.01884">
        <ele>90</ele>
        <time>2015-10-03T16:16:11Z</time>
      </trkpt>
      <trkpt lat="44.84869" lon="1.01879">
        <ele>90</ele>
        <time>2015-10-03T16:16:12Z</time>
      </trkpt>
      <trkpt lat="44.84842" lon="1.01854">
        <ele>89.4</ele>
        <time>2015-10-03T16:16:18Z</time>
      </trkpt>
      <trkpt lat="44.84814" lon="1.01829">
        <ele>89.2</ele>
        <time>2015-10-03T16:16:24Z</time>
      </trkpt>
      <trkpt lat="44.84805" lon="1.01819">
        <ele>89</ele>
        <time>2015-10-03T16:16:26Z</time>
      </trkpt>
      <trkpt lat="44.84762" lon="1.01776">
        <ele>88.8</ele>
        <time>2015-10-03T16:16:36Z</time>
      </trkpt>
      <trkpt lat="44.8473" lon="1.01741">
        <ele>89</ele>
        <time>2015-10-03T16:16:44Z</time>
      </trkpt>
      <trkpt lat="44.847" lon="1.01705">
        <ele>89</ele>
        <time>2015-10-03T16:16:53Z</time>
      </trkpt>
      <trkpt lat="44.84694" lon="1.01696">
        <ele>89.2</ele>
        <time>2015-10-03T16:16:55Z</time>
      </trkpt>
      <trkpt lat="44.84662" lon="1.01654">
        <ele>89</ele>
        <time>2015-10-03T16:17:04Z</time>
      </trkpt>
      <trkpt lat="44.84633" lon="1.01617">
        <ele>89</ele>
        <time>2015-10-03T16:17:12Z</time>
      </trkpt>
      <trkpt lat="44.84603" lon="1.01575">
        <ele>89</ele>
        <time>2015-10-03T16:17:21Z</time>
      </trkpt>
      <trkpt lat="44.84575" lon="1.01534">
        <ele>89</ele>
        <time>2015-10-03T16:17:29Z</time>
      </trkpt>
      <trkpt lat="44.84551" lon="1.01492">
        <ele>88.8</ele>
        <time>2015-10-03T16:17:37Z</time>
      </trkpt>
      <trkpt lat="44.8453" lon="1.01455">
        <ele>88.8</ele>
        <time>2015-10-03T16:17:44Z</time>
      </trkpt>
      <trkpt lat="44.84506" lon="1.01403">
        <ele>89.2</ele>
        <time>2015-10-03T16:17:53Z</time>
      </trkpt>
      <trkpt lat="44.84501" lon="1.01393">
        <ele>89</ele>
        <time>2015-10-03T16:17:55Z</time>
      </trkpt>
      <trkpt lat="44.84494" lon="1.01377">
        <ele>89.2</ele>
        <time>2015-10-03T16:17:58Z</time>
      </trkpt>
      <trkpt lat="44.84491" lon="1.01372">
        <ele>89.2</ele>
        <time>2015-10-03T16:17:59Z</time>
      </trkpt>
      <trkpt lat="44.84475" lon="1.01336">
        <ele>89.2</ele>
        <time>2015-10-03T16:18:06Z</time>
      </trkpt>
      <trkpt lat="44.84454" lon="1.01299">
        <ele>89</ele>
        <time>2015-10-03T16:18:13Z</time>
      </trkpt>
      <trkpt lat="44.84424" lon="1.01252">
        <ele>89.4</ele>
        <time>2015-10-03T16:18:22Z</time>
      </trkpt>
      <trkpt lat="44.84392" lon="1.01203">
        <ele>89.2</ele>
        <time>2015-10-03T16:18:31Z</time>
      </trkpt>
      <trkpt lat="44.84354" lon="1.01147">
        <ele>89.2</ele>
        <time>2015-10-03T16:18:41Z</time>
      </trkpt>
      <trkpt lat="44.84321" lon="1.01098">
        <ele>89.2</ele>
        <time>2015-10-03T16:18:50Z</time>
      </trkpt>
      <trkpt lat="44.84296" lon="1.01059">
        <ele>89.2</ele>
        <time>2015-10-03T16:18:58Z</time>
      </trkpt>
      <trkpt lat="44.84274" lon="1.01025">
        <ele>89.6</ele>
        <time>2015-10-03T16:19:06Z</time>
      </trkpt>
      <trkpt lat="44.84256" lon="1.00995">
        <ele>89.8</ele>
        <time>2015-10-03T16:19:13Z</time>
      </trkpt>
      <trkpt lat="44.84238" lon="1.00964">
        <ele>89.8</ele>
        <time>2015-10-03T16:19:20Z</time>
      </trkpt>
      <trkpt lat="44.84233" lon="1.00954">
        <ele>89.8</ele>
        <time>2015-10-03T16:19:22Z</time>
      </trkpt>
      <trkpt lat="44.84211" lon="1.00913">
        <ele>90.2</ele>
        <time>2015-10-03T16:19:30Z</time>
      </trkpt>
      <trkpt lat="44.84204" lon="1.00898">
        <ele>90.2</ele>
        <time>2015-10-03T16:19:33Z</time>
      </trkpt>
      <trkpt lat="44.84187" lon="1.00866">
        <ele>90.4</ele>
        <time>2015-10-03T16:19:39Z</time>
      </trkpt>
      <trkpt lat="44.84163" lon="1.00817">
        <ele>90.6</ele>
        <time>2015-10-03T16:19:48Z</time>
      </trkpt>
      <trkpt lat="44.84136" lon="1.00762">
        <ele>91.2</ele>
        <time>2015-10-03T16:19:58Z</time>
      </trkpt>
      <trkpt lat="44.8413" lon="1.00752">
        <ele>91.4</ele>
        <time>2015-10-03T16:20:00Z</time>
      </trkpt>
      <trkpt lat="44.84109" lon="1.00712">
        <ele>91.8</ele>
        <time>2015-10-03T16:20:08Z</time>
      </trkpt>
      <trkpt lat="44.84102" lon="1.007">
        <ele>92.4</ele>
        <time>2015-10-03T16:20:11Z</time>
      </trkpt>
      <trkpt lat="44.84091" lon="1.00684">
        <ele>92</ele>
        <time>2015-10-03T16:20:15Z</time>
      </trkpt>
      <trkpt lat="44.84067" lon="1.00651">
        <ele>91.8</ele>
        <time>2015-10-03T16:20:22Z</time>
      </trkpt>
      <trkpt lat="44.84032" lon="1.006">
        <ele>91.8</ele>
        <time>2015-10-03T16:20:32Z</time>
      </trkpt>
      <trkpt lat="44.84025" lon="1.0059">
        <ele>91.4</ele>
        <time>2015-10-03T16:20:34Z</time>
      </trkpt>
      <trkpt lat="44.83995" lon="1.00547">
        <ele>91.2</ele>
        <time>2015-10-03T16:20:42Z</time>
      </trkpt>
      <trkpt lat="44.83956" lon="1.00495">
        <ele>91.2</ele>
        <time>2015-10-03T16:20:52Z</time>
      </trkpt>
      <trkpt lat="44.83952" lon="1.00489">
        <ele>91</ele>
        <time>2015-10-03T16:20:53Z</time>
      </trkpt>
      <trkpt lat="44.83923" lon="1.0045">
        <ele>91</ele>
        <time>2015-10-03T16:21:01Z</time>
      </trkpt>
      <trkpt lat="44.8391" lon="1.00432">
        <ele>91</ele>
        <time>2015-10-03T16:21:05Z</time>
      </trkpt>
      <trkpt lat="44.83901" lon="1.0042">
        <ele>90.8</ele>
        <time>2015-10-03T16:21:08Z</time>
      </trkpt>
      <trkpt lat="44.83892" lon="1.00408">
        <ele>90.8</ele>
        <time>2015-10-03T16:21:11Z</time>
      </trkpt>
      <trkpt lat="44.83884" lon="1.00396">
        <ele>90.8</ele>
        <time>2015-10-03T16:21:14Z</time>
      </trkpt>
      <trkpt lat="44.8386" lon="1.00365">
        <ele>90.4</ele>
        <time>2015-10-03T16:21:21Z</time>
      </trkpt>
      <trkpt lat="44.83832" lon="1.00329">
        <ele>90.4</ele>
        <time>2015-10-03T16:21:29Z</time>
      </trkpt>
      <trkpt lat="44.83801" lon="1.00288">
        <ele>90.2</ele>
        <time>2015-10-03T16:21:38Z</time>
      </trkpt>
      <trkpt lat="44.8377" lon="1.00245">
        <ele>90</ele>
        <time>2015-10-03T16:21:47Z</time>
      </trkpt>
      <trkpt lat="44.83742" lon="1.00208">
        <ele>90</ele>
        <time>2015-10-03T16:21:55Z</time>
      </trkpt>
      <trkpt lat="44.83714" lon="1.00169">
        <ele>89.8</ele>
        <time>2015-10-03T16:22:03Z</time>
      </trkpt>
      <trkpt lat="44.8371" lon="1.00165">
        <ele>89.8</ele>
        <time>2015-10-03T16:22:04Z</time>
      </trkpt>
      <trkpt lat="44.83679" lon="1.0012">
        <ele>89.8</ele>
        <time>2015-10-03T16:22:13Z</time>
      </trkpt>
      <trkpt lat="44.83649" lon="1.00074">
        <ele>89.8</ele>
        <time>2015-10-03T16:22:22Z</time>
      </trkpt>
      <trkpt lat="44.8362" lon="1.00027">
        <ele>89.6</ele>
        <time>2015-10-03T16:22:31Z</time>
      </trkpt>
      <trkpt lat="44.83602" lon="0.99996">
        <ele>89.4</ele>
        <time>2015-10-03T16:22:37Z</time>
      </trkpt>
      <trkpt lat="44.83586" lon="0.99971">
        <ele>89.4</ele>
        <time>2015-10-03T16:22:42Z</time>
      </trkpt>
      <trkpt lat="44.83558" lon="0.99923">
        <ele>89</ele>
        <time>2015-10-03T16:22:51Z</time>
      </trkpt>
      <trkpt lat="44.83532" lon="0.99879">
        <ele>89</ele>
        <time>2015-10-03T16:22:59Z</time>
      </trkpt>
      <trkpt lat="44.83503" lon="0.99828">
        <ele>89.2</ele>
        <time>2015-10-03T16:23:08Z</time>
      </trkpt>
      <trkpt lat="44.83474" lon="0.99777">
        <ele>89</ele>
        <time>2015-10-03T16:23:17Z</time>
      </trkpt>
      <trkpt lat="44.83441" lon="0.99721">
        <ele>89</ele>
        <time>2015-10-03T16:23:27Z</time>
      </trkpt>
      <trkpt lat="44.83415" lon="0.99676">
        <ele>88.6</ele>
        <time>2015-10-03T16:23:35Z</time>
      </trkpt>
      <trkpt lat="44.83389" lon="0.99629">
        <ele>88.4</ele>
        <time>2015-10-03T16:23:43Z</time>
      </trkpt>
      <trkpt lat="44.83382" lon="0.99618">
        <ele>88.4</ele>
        <time>2015-10-03T16:23:45Z</time>
      </trkpt>
      <trkpt lat="44.83355" lon="0.99572">
        <ele>88.4</ele>
        <time>2015-10-03T16:23:53Z</time>
      </trkpt>
      <trkpt lat="44.83322" lon="0.99514">
        <ele>87.8</ele>
        <time>2015-10-03T16:24:03Z</time>
      </trkpt>
      <trkpt lat="44.83296" lon="0.99469">
        <ele>87.6</ele>
        <time>2015-10-03T16:24:11Z</time>
      </trkpt>
      <trkpt lat="44.83279" lon="0.99439">
        <ele>87.4</ele>
        <time>2015-10-03T16:24:17Z</time>
      </trkpt>
      <trkpt lat="44.83276" lon="0.99434">
        <ele>87.4</ele>
        <time>2015-10-03T16:24:18Z</time>
      </trkpt>
      <trkpt lat="44.83259" lon="0.99403">
        <ele>87.2</ele>
        <time>2015-10-03T16:24:24Z</time>
      </trkpt>
      <trkpt lat="44.83242" lon="0.99373">
        <ele>86.8</ele>
        <time>2015-10-03T16:24:30Z</time>
      </trkpt>
      <trkpt lat="44.8323" lon="0.99353">
        <ele>87</ele>
        <time>2015-10-03T16:24:34Z</time>
      </trkpt>
      <trkpt lat="44.83221" lon="0.99338">
        <ele>87</ele>
        <time>2015-10-03T16:24:37Z</time>
      </trkpt>
      <trkpt lat="44.83198" lon="0.99297">
        <ele>86.6</ele>
        <time>2015-10-03T16:24:45Z</time>
      </trkpt>
      <trkpt lat="44.83172" lon="0.99252">
        <ele>86.4</ele>
        <time>2015-10-03T16:24:53Z</time>
      </trkpt>
      <trkpt lat="44.83162" lon="0.99235">
        <ele>86.4</ele>
        <time>2015-10-03T16:24:56Z</time>
      </trkpt>
      <trkpt lat="44.83141" lon="0.99199">
        <ele>86.2</ele>
        <time>2015-10-03T16:25:03Z</time>
      </trkpt>
      <trkpt lat="44.83122" lon="0.99164">
        <ele>86.4</ele>
        <time>2015-10-03T16:25:11Z</time>
      </trkpt>
      <trkpt lat="44.83107" lon="0.99138">
        <ele>86.2</ele>
        <time>2015-10-03T16:25:18Z</time>
      </trkpt>
      <trkpt lat="44.83092" lon="0.99111">
        <ele>86.2</ele>
        <time>2015-10-03T16:25:24Z</time>
      </trkpt>
      <trkpt lat="44.83078" lon="0.99084">
        <ele>86.4</ele>
        <time>2015-10-03T16:25:31Z</time>
      </trkpt>
      <trkpt lat="44.83071" lon="0.99058">
        <ele>86.6</ele>
        <time>2015-10-03T16:25:39Z</time>
      </trkpt>
      <trkpt lat="44.83074" lon="0.99045">
        <ele>86.4</ele>
        <time>2015-10-03T16:25:43Z</time>
      </trkpt>
      <trkpt lat="44.83076" lon="0.99041">
        <ele>86.6</ele>
        <time>2015-10-03T16:25:44Z</time>
      </trkpt>
      <trkpt lat="44.83089" lon="0.99023">
        <ele>86.6</ele>
        <time>2015-10-03T16:25:49Z</time>
      </trkpt>
      <trkpt lat="44.83105" lon="0.98996">
        <ele>86.4</ele>
        <time>2015-10-03T16:25:55Z</time>
      </trkpt>
      <trkpt lat="44.8312" lon="0.98961">
        <ele>86.8</ele>
        <time>2015-10-03T16:26:01Z</time>
      </trkpt>
      <trkpt lat="44.83129" lon="0.98933">
        <ele>86.8</ele>
        <time>2015-10-03T16:26:06Z</time>
      </trkpt>
      <trkpt lat="44.83132" lon="0.98922">
        <ele>86.8</ele>
        <time>2015-10-03T16:26:08Z</time>
      </trkpt>
      <trkpt lat="44.83135" lon="0.98903">
        <ele>86.8</ele>
        <time>2015-10-03T16:26:11Z</time>
      </trkpt>
      <trkpt lat="44.83138" lon="0.98878">
        <ele>87</ele>
        <time>2015-10-03T16:26:15Z</time>
      </trkpt>
      <trkpt lat="44.83139" lon="0.98832">
        <ele>86.8</ele>
        <time>2015-10-03T16:26:22Z</time>
      </trkpt>
      <trkpt lat="44.83141" lon="0.98775">
        <ele>86.8</ele>
        <time>2015-10-03T16:26:30Z</time>
      </trkpt>
      <trkpt lat="44.83143" lon="0.98712">
        <ele>86.8</ele>
        <time>2015-10-03T16:26:39Z</time>
      </trkpt>
      <trkpt lat="44.83146" lon="0.98634">
        <ele>86.8</ele>
        <time>2015-10-03T16:26:50Z</time>
      </trkpt>
      <trkpt lat="44.83147" lon="0.98583">
        <ele>86.8</ele>
        <time>2015-10-03T16:26:58Z</time>
      </trkpt>
      <trkpt lat="44.83149" lon="0.98518">
        <ele>87</ele>
        <time>2015-10-03T16:27:08Z</time>
      </trkpt>
      <trkpt lat="44.83151" lon="0.98454">
        <ele>87</ele>
        <time>2015-10-03T16:27:17Z</time>
      </trkpt>
      <trkpt lat="44.83153" lon="0.98377">
        <ele>87.2</ele>
        <time>2015-10-03T16:27:28Z</time>
      </trkpt>
      <trkpt lat="44.83155" lon="0.98323">
        <ele>87</ele>
        <time>2015-10-03T16:27:36Z</time>
      </trkpt>
      <trkpt lat="44.83158" lon="0.9825">
        <ele>87.2</ele>
        <time>2015-10-03T16:27:47Z</time>
      </trkpt>
      <trkpt lat="44.8316" lon="0.98177">
        <ele>87.2</ele>
        <time>2015-10-03T16:27:58Z</time>
      </trkpt>
      <trkpt lat="44.83162" lon="0.98121">
        <ele>87</ele>
        <time>2015-10-03T16:28:07Z</time>
      </trkpt>
      <trkpt lat="44.83164" lon="0.98068">
        <ele>87</ele>
        <time>2015-10-03T16:28:16Z</time>
      </trkpt>
      <trkpt lat="44.83166" lon="0.98047">
        <ele>87</ele>
        <time>2015-10-03T16:28:22Z</time>
      </trkpt>
      <trkpt lat="44.83168" lon="0.98054">
        <ele>87</ele>
        <time>2015-10-03T16:29:59Z</time>
      </trkpt>
      <trkpt lat="44.83167" lon="0.98051">
        <ele>86.8</ele>
        <time>2015-10-03T16:32:02Z</time>
      </trkpt>
      <trkpt lat="44.83164" lon="0.98044">
        <ele>86.6</ele>
        <time>2015-10-03T16:32:05Z</time>
      </trkpt>
      <trkpt lat="44.83164" lon="0.98032">
        <ele>86.8</ele>
        <time>2015-10-03T16:32:08Z</time>
      </trkpt>
      <trkpt lat="44.83164" lon="0.98006">
        <ele>86.8</ele>
        <time>2015-10-03T16:32:13Z</time>
      </trkpt>
      <trkpt lat="44.83165" lon="0.97966">
        <ele>87</ele>
        <time>2015-10-03T16:32:19Z</time>
      </trkpt>
      <trkpt lat="44.83167" lon="0.97922">
        <ele>87</ele>
        <time>2015-10-03T16:32:25Z</time>
      </trkpt>
      <trkpt lat="44.83169" lon="0.97872">
        <ele>87.2</ele>
        <time>2015-10-03T16:32:32Z</time>
      </trkpt>
      <trkpt lat="44.8317" lon="0.97857">
        <ele>87.4</ele>
        <time>2015-10-03T16:32:34Z</time>
      </trkpt>
      <trkpt lat="44.83171" lon="0.97805">
        <ele>87.4</ele>
        <time>2015-10-03T16:32:41Z</time>
      </trkpt>
      <trkpt lat="44.83173" lon="0.97729">
        <ele>87.4</ele>
        <time>2015-10-03T16:32:51Z</time>
      </trkpt>
      <trkpt lat="44.83176" lon="0.9766">
        <ele>87.4</ele>
        <time>2015-10-03T16:33:00Z</time>
      </trkpt>
      <trkpt lat="44.8318" lon="0.97595">
        <ele>88</ele>
        <time>2015-10-03T16:33:09Z</time>
      </trkpt>
      <trkpt lat="44.8318" lon="0.97581">
        <ele>88.4</ele>
        <time>2015-10-03T16:33:11Z</time>
      </trkpt>
      <trkpt lat="44.83185" lon="0.97534">
        <ele>89.6</ele>
        <time>2015-10-03T16:33:18Z</time>
      </trkpt>
      <trkpt lat="44.83188" lon="0.97505">
        <ele>90.6</ele>
        <time>2015-10-03T16:33:22Z</time>
      </trkpt>
      <trkpt lat="44.83189" lon="0.97498">
        <ele>90.8</ele>
        <time>2015-10-03T16:33:23Z</time>
      </trkpt>
      <trkpt lat="44.83192" lon="0.9746">
        <ele>92</ele>
        <time>2015-10-03T16:33:29Z</time>
      </trkpt>
      <trkpt lat="44.83193" lon="0.97448">
        <ele>92.6</ele>
        <time>2015-10-03T16:33:31Z</time>
      </trkpt>
      <trkpt lat="44.83195" lon="0.97435">
        <ele>93.2</ele>
        <time>2015-10-03T16:33:33Z</time>
      </trkpt>
      <trkpt lat="44.83197" lon="0.97408">
        <ele>94.2</ele>
        <time>2015-10-03T16:33:37Z</time>
      </trkpt>
      <trkpt lat="44.832" lon="0.97381">
        <ele>95.4</ele>
        <time>2015-10-03T16:33:41Z</time>
      </trkpt>
      <trkpt lat="44.83203" lon="0.97357">
        <ele>96.4</ele>
        <time>2015-10-03T16:33:45Z</time>
      </trkpt>
      <trkpt lat="44.83204" lon="0.97352">
        <ele>96.6</ele>
        <time>2015-10-03T16:33:46Z</time>
      </trkpt>
      <trkpt lat="44.83213" lon="0.97331">
        <ele>97.4</ele>
        <time>2015-10-03T16:33:51Z</time>
      </trkpt>
      <trkpt lat="44.83215" lon="0.97329">
        <ele>97.8</ele>
        <time>2015-10-03T16:33:52Z</time>
      </trkpt>
      <trkpt lat="44.83226" lon="0.97321">
        <ele>98.4</ele>
        <time>2015-10-03T16:33:56Z</time>
      </trkpt>
      <trkpt lat="44.83229" lon="0.9732">
        <ele>98.8</ele>
        <time>2015-10-03T16:33:57Z</time>
      </trkpt>
      <trkpt lat="44.8325" lon="0.97312">
        <ele>99.8</ele>
        <time>2015-10-03T16:34:03Z</time>
      </trkpt>
      <trkpt lat="44.83253" lon="0.9731">
        <ele>100.2</ele>
        <time>2015-10-03T16:34:04Z</time>
      </trkpt>
      <trkpt lat="44.8327" lon="0.97305">
        <ele>101</ele>
        <time>2015-10-03T16:34:09Z</time>
      </trkpt>
      <trkpt lat="44.83284" lon="0.97301">
        <ele>101.8</ele>
        <time>2015-10-03T16:34:13Z</time>
      </trkpt>
      <trkpt lat="44.83287" lon="0.973">
        <ele>102</ele>
        <time>2015-10-03T16:34:14Z</time>
      </trkpt>
      <trkpt lat="44.83308" lon="0.97296">
        <ele>103</ele>
        <time>2015-10-03T16:34:20Z</time>
      </trkpt>
      <trkpt lat="44.83311" lon="0.97295">
        <ele>103.4</ele>
        <time>2015-10-03T16:34:21Z</time>
      </trkpt>
      <trkpt lat="44.83327" lon="0.97292">
        <ele>104</ele>
        <time>2015-10-03T16:34:27Z</time>
      </trkpt>
      <trkpt lat="44.8334" lon="0.97292">
        <ele>104.6</ele>
        <time>2015-10-03T16:34:33Z</time>
      </trkpt>
      <trkpt lat="44.8334" lon="0.97291">
        <ele>105</ele>
        <time>2015-10-03T16:34:37Z</time>
      </trkpt>
      <trkpt lat="44.83346" lon="0.97289">
        <ele>105.2</ele>
        <time>2015-10-03T16:35:31Z</time>
      </trkpt>
      <trkpt lat="44.8335" lon="0.9729">
        <ele>105.4</ele>
        <time>2015-10-03T16:35:33Z</time>
      </trkpt>
      <trkpt lat="44.8335" lon="0.97289">
        <ele>105.4</ele>
        <time>2015-10-03T16:35:37Z</time>
      </trkpt>
      <trkpt lat="44.83356" lon="0.97288">
        <ele>105.8</ele>
        <time>2015-10-03T16:36:16Z</time>
      </trkpt>
      <trkpt lat="44.83362" lon="0.97288">
        <ele>106.2</ele>
        <time>2015-10-03T16:36:18Z</time>
      </trkpt>
      <trkpt lat="44.83364" lon="0.97289">
        <ele>106.4</ele>
        <time>2015-10-03T16:36:19Z</time>
      </trkpt>
      <trkpt lat="44.83378" lon="0.97291">
        <ele>107</ele>
        <time>2015-10-03T16:36:25Z</time>
      </trkpt>
      <trkpt lat="44.8338" lon="0.97292">
        <ele>107.4</ele>
        <time>2015-10-03T16:36:26Z</time>
      </trkpt>
      <trkpt lat="44.83395" lon="0.97293">
        <ele>108.8</ele>
        <time>2015-10-03T16:36:32Z</time>
      </trkpt>
      <trkpt lat="44.83398" lon="0.97292">
        <ele>108.6</ele>
        <time>2015-10-03T16:36:33Z</time>
      </trkpt>
      <trkpt lat="44.83414" lon="0.97297">
        <ele>109</ele>
        <time>2015-10-03T16:36:40Z</time>
      </trkpt>
      <trkpt lat="44.83424" lon="0.97296">
        <ele>109.8</ele>
        <time>2015-10-03T16:36:46Z</time>
      </trkpt>
      <trkpt lat="44.83429" lon="0.97298">
        <ele>110</ele>
        <time>2015-10-03T16:36:49Z</time>
      </trkpt>
      <trkpt lat="44.83435" lon="0.97299">
        <ele>110.2</ele>
        <time>2015-10-03T16:36:52Z</time>
      </trkpt>
      <trkpt lat="44.83452" lon="0.97302">
        <ele>111.2</ele>
        <time>2015-10-03T16:36:58Z</time>
      </trkpt>
      <trkpt lat="44.83468" lon="0.97302">
        <ele>112</ele>
        <time>2015-10-03T16:37:03Z</time>
      </trkpt>
      <trkpt lat="44.8347" lon="0.97303">
        <ele>112.4</ele>
        <time>2015-10-03T16:37:04Z</time>
      </trkpt>
      <trkpt lat="44.83477" lon="0.97305">
        <ele>112.4</ele>
        <time>2015-10-03T16:37:07Z</time>
      </trkpt>
      <trkpt lat="44.83495" lon="0.97309">
        <ele>113.4</ele>
        <time>2015-10-03T16:37:14Z</time>
      </trkpt>
      <trkpt lat="44.835" lon="0.9731">
        <ele>113.8</ele>
        <time>2015-10-03T16:37:16Z</time>
      </trkpt>
      <trkpt lat="44.83511" lon="0.97312">
        <ele>114.4</ele>
        <time>2015-10-03T16:37:20Z</time>
      </trkpt>
      <trkpt lat="44.83523" lon="0.97316">
        <ele>115</ele>
        <time>2015-10-03T16:37:25Z</time>
      </trkpt>
      <trkpt lat="44.83529" lon="0.97319">
        <ele>115.6</ele>
        <time>2015-10-03T16:37:28Z</time>
      </trkpt>
      <trkpt lat="44.83539" lon="0.97322">
        <ele>116</ele>
        <time>2015-10-03T16:37:33Z</time>
      </trkpt>
      <trkpt lat="44.83545" lon="0.97325">
        <ele>116.4</ele>
        <time>2015-10-03T16:37:39Z</time>
      </trkpt>
      <trkpt lat="44.83547" lon="0.97325">
        <ele>116.2</ele>
        <time>2015-10-03T16:37:49Z</time>
      </trkpt>
      <trkpt lat="44.83552" lon="0.97326">
        <ele>116.4</ele>
        <time>2015-10-03T16:37:52Z</time>
      </trkpt>
      <trkpt lat="44.83555" lon="0.97326">
        <ele>116.6</ele>
        <time>2015-10-03T16:37:53Z</time>
      </trkpt>
      <trkpt lat="44.8356" lon="0.97327">
        <ele>117.2</ele>
        <time>2015-10-03T16:37:57Z</time>
      </trkpt>
      <trkpt lat="44.83563" lon="0.97334">
        <ele>117.4</ele>
        <time>2015-10-03T16:38:02Z</time>
      </trkpt>
      <trkpt lat="44.83566" lon="0.97335">
        <ele>117.2</ele>
        <time>2015-10-03T16:38:32Z</time>
      </trkpt>
      <trkpt lat="44.83573" lon="0.97339">
        <ele>117.8</ele>
        <time>2015-10-03T16:38:35Z</time>
      </trkpt>
      <trkpt lat="44.83582" lon="0.97344">
        <ele>118.2</ele>
        <time>2015-10-03T16:38:38Z</time>
      </trkpt>
      <trkpt lat="44.83593" lon="0.97348">
        <ele>118.8</ele>
        <time>2015-10-03T16:38:42Z</time>
      </trkpt>
      <trkpt lat="44.83602" lon="0.97351">
        <ele>119</ele>
        <time>2015-10-03T16:38:45Z</time>
      </trkpt>
      <trkpt lat="44.83615" lon="0.97358">
        <ele>120</ele>
        <time>2015-10-03T16:38:50Z</time>
      </trkpt>
      <trkpt lat="44.83619" lon="0.9736">
        <ele>120</ele>
        <time>2015-10-03T16:38:52Z</time>
      </trkpt>
      <trkpt lat="44.8363" lon="0.97364">
        <ele>120.6</ele>
        <time>2015-10-03T16:38:57Z</time>
      </trkpt>
      <trkpt lat="44.83637" lon="0.97368">
        <ele>121.2</ele>
        <time>2015-10-03T16:39:00Z</time>
      </trkpt>
      <trkpt lat="44.83651" lon="0.97375">
        <ele>121.8</ele>
        <time>2015-10-03T16:39:05Z</time>
      </trkpt>
      <trkpt lat="44.83662" lon="0.97381">
        <ele>122.4</ele>
        <time>2015-10-03T16:39:09Z</time>
      </trkpt>
      <trkpt lat="44.83679" lon="0.97391">
        <ele>123.4</ele>
        <time>2015-10-03T16:39:15Z</time>
      </trkpt>
      <trkpt lat="44.83682" lon="0.97392">
        <ele>123.4</ele>
        <time>2015-10-03T16:39:16Z</time>
      </trkpt>
      <trkpt lat="44.83701" lon="0.974">
        <ele>124.6</ele>
        <time>2015-10-03T16:39:23Z</time>
      </trkpt>
      <trkpt lat="44.83709" lon="0.97404">
        <ele>125</ele>
        <time>2015-10-03T16:39:26Z</time>
      </trkpt>
      <trkpt lat="44.83714" lon="0.97406">
        <ele>125.4</ele>
        <time>2015-10-03T16:39:31Z</time>
      </trkpt>
      <trkpt lat="44.83717" lon="0.97407">
        <ele>125.6</ele>
        <time>2015-10-03T16:39:34Z</time>
      </trkpt>
      <trkpt lat="44.83725" lon="0.97409">
        <ele>126</ele>
        <time>2015-10-03T16:39:39Z</time>
      </trkpt>
      <trkpt lat="44.83738" lon="0.97414">
        <ele>126.6</ele>
        <time>2015-10-03T16:39:44Z</time>
      </trkpt>
      <trkpt lat="44.83746" lon="0.97417">
        <ele>127.2</ele>
        <time>2015-10-03T16:39:47Z</time>
      </trkpt>
      <trkpt lat="44.83758" lon="0.97419">
        <ele>127.8</ele>
        <time>2015-10-03T16:39:51Z</time>
      </trkpt>
      <trkpt lat="44.83767" lon="0.97422">
        <ele>128.2</ele>
        <time>2015-10-03T16:39:54Z</time>
      </trkpt>
      <trkpt lat="44.83779" lon="0.97424">
        <ele>129</ele>
        <time>2015-10-03T16:39:58Z</time>
      </trkpt>
      <trkpt lat="44.83792" lon="0.97427">
        <ele>129.6</ele>
        <time>2015-10-03T16:40:02Z</time>
      </trkpt>
      <trkpt lat="44.83795" lon="0.97427">
        <ele>130</ele>
        <time>2015-10-03T16:40:03Z</time>
      </trkpt>
      <trkpt lat="44.83811" lon="0.9743">
        <ele>130.6</ele>
        <time>2015-10-03T16:40:07Z</time>
      </trkpt>
      <trkpt lat="44.8382" lon="0.97431">
        <ele>131.2</ele>
        <time>2015-10-03T16:40:09Z</time>
      </trkpt>
      <trkpt lat="44.83842" lon="0.97436">
        <ele>132.2</ele>
        <time>2015-10-03T16:40:14Z</time>
      </trkpt>
      <trkpt lat="44.83847" lon="0.97436">
        <ele>132.4</ele>
        <time>2015-10-03T16:40:15Z</time>
      </trkpt>
      <trkpt lat="44.83868" lon="0.97445">
        <ele>133.4</ele>
        <time>2015-10-03T16:40:20Z</time>
      </trkpt>
      <trkpt lat="44.83877" lon="0.97448">
        <ele>133.8</ele>
        <time>2015-10-03T16:40:22Z</time>
      </trkpt>
      <trkpt lat="44.83889" lon="0.97455">
        <ele>134.4</ele>
        <time>2015-10-03T16:40:25Z</time>
      </trkpt>
      <trkpt lat="44.83909" lon="0.9747">
        <ele>135.6</ele>
        <time>2015-10-03T16:40:30Z</time>
      </trkpt>
      <trkpt lat="44.83926" lon="0.97492">
        <ele>137</ele>
        <time>2015-10-03T16:40:35Z</time>
      </trkpt>
      <trkpt lat="44.83932" lon="0.97502">
        <ele>137.6</ele>
        <time>2015-10-03T16:40:37Z</time>
      </trkpt>
      <trkpt lat="44.83937" lon="0.97512">
        <ele>138</ele>
        <time>2015-10-03T16:40:39Z</time>
      </trkpt>
      <trkpt lat="44.83953" lon="0.97539">
        <ele>139</ele>
        <time>2015-10-03T16:40:44Z</time>
      </trkpt>
      <trkpt lat="44.83956" lon="0.97545">
        <ele>139.2</ele>
        <time>2015-10-03T16:40:45Z</time>
      </trkpt>
      <trkpt lat="44.83964" lon="0.9756">
        <ele>140</ele>
        <time>2015-10-03T16:40:48Z</time>
      </trkpt>
      <trkpt lat="44.83976" lon="0.97579">
        <ele>141</ele>
        <time>2015-10-03T16:40:52Z</time>
      </trkpt>
      <trkpt lat="44.83978" lon="0.97584">
        <ele>141.4</ele>
        <time>2015-10-03T16:40:53Z</time>
      </trkpt>
      <trkpt lat="44.83995" lon="0.97609">
        <ele>142.4</ele>
        <time>2015-10-03T16:40:59Z</time>
      </trkpt>
      <trkpt lat="44.83998" lon="0.97613">
        <ele>142.8</ele>
        <time>2015-10-03T16:41:00Z</time>
      </trkpt>
      <trkpt lat="44.84012" lon="0.97628">
        <ele>143.4</ele>
        <time>2015-10-03T16:41:04Z</time>
      </trkpt>
      <trkpt lat="44.84027" lon="0.97641">
        <ele>144.4</ele>
        <time>2015-10-03T16:41:08Z</time>
      </trkpt>
      <trkpt lat="44.84031" lon="0.97644">
        <ele>144.6</ele>
        <time>2015-10-03T16:41:09Z</time>
      </trkpt>
      <trkpt lat="44.84048" lon="0.97655">
        <ele>145.6</ele>
        <time>2015-10-03T16:41:13Z</time>
      </trkpt>
      <trkpt lat="44.84053" lon="0.97657">
        <ele>146</ele>
        <time>2015-10-03T16:41:14Z</time>
      </trkpt>
      <trkpt lat="44.84076" lon="0.97661">
        <ele>147.2</ele>
        <time>2015-10-03T16:41:19Z</time>
      </trkpt>
      <trkpt lat="44.84081" lon="0.97661">
        <ele>147.4</ele>
        <time>2015-10-03T16:41:20Z</time>
      </trkpt>
      <trkpt lat="44.84099" lon="0.97655">
        <ele>148.4</ele>
        <time>2015-10-03T16:41:24Z</time>
      </trkpt>
      <trkpt lat="44.84103" lon="0.97652">
        <ele>148.6</ele>
        <time>2015-10-03T16:41:25Z</time>
      </trkpt>
      <trkpt lat="44.84107" lon="0.97649">
        <ele>148.8</ele>
        <time>2015-10-03T16:41:26Z</time>
      </trkpt>
      <trkpt lat="44.84122" lon="0.97636">
        <ele>149.4</ele>
        <time>2015-10-03T16:41:30Z</time>
      </trkpt>
      <trkpt lat="44.84139" lon="0.97624">
        <ele>150.4</ele>
        <time>2015-10-03T16:41:34Z</time>
      </trkpt>
      <trkpt lat="44.84143" lon="0.97622">
        <ele>150.6</ele>
        <time>2015-10-03T16:41:35Z</time>
      </trkpt>
      <trkpt lat="44.84156" lon="0.97616">
        <ele>151.6</ele>
        <time>2015-10-03T16:41:38Z</time>
      </trkpt>
      <trkpt lat="44.84172" lon="0.97612">
        <ele>152.2</ele>
        <time>2015-10-03T16:41:42Z</time>
      </trkpt>
      <trkpt lat="44.8418" lon="0.97612">
        <ele>152.6</ele>
        <time>2015-10-03T16:41:44Z</time>
      </trkpt>
      <trkpt lat="44.84198" lon="0.97613">
        <ele>153.6</ele>
        <time>2015-10-03T16:41:49Z</time>
      </trkpt>
      <trkpt lat="44.84201" lon="0.97612">
        <ele>153.8</ele>
        <time>2015-10-03T16:41:50Z</time>
      </trkpt>
      <trkpt lat="44.84222" lon="0.97616">
        <ele>154.8</ele>
        <time>2015-10-03T16:41:56Z</time>
      </trkpt>
      <trkpt lat="44.84228" lon="0.97618">
        <ele>155.4</ele>
        <time>2015-10-03T16:41:58Z</time>
      </trkpt>
      <trkpt lat="44.84237" lon="0.97624">
        <ele>156</ele>
        <time>2015-10-03T16:42:01Z</time>
      </trkpt>
      <trkpt lat="44.84249" lon="0.97636">
        <ele>156.6</ele>
        <time>2015-10-03T16:42:05Z</time>
      </trkpt>
      <trkpt lat="44.84257" lon="0.97647">
        <ele>157.4</ele>
        <time>2015-10-03T16:42:08Z</time>
      </trkpt>
      <trkpt lat="44.84264" lon="0.97659">
        <ele>157.8</ele>
        <time>2015-10-03T16:42:11Z</time>
      </trkpt>
      <trkpt lat="44.84267" lon="0.97667">
        <ele>158.4</ele>
        <time>2015-10-03T16:42:13Z</time>
      </trkpt>
      <trkpt lat="44.8427" lon="0.97686">
        <ele>159</ele>
        <time>2015-10-03T16:42:17Z</time>
      </trkpt>
      <trkpt lat="44.84271" lon="0.977">
        <ele>159.6</ele>
        <time>2015-10-03T16:42:20Z</time>
      </trkpt>
      <trkpt lat="44.84273" lon="0.9772">
        <ele>160.4</ele>
        <time>2015-10-03T16:42:24Z</time>
      </trkpt>
      <trkpt lat="44.84275" lon="0.9773">
        <ele>160.6</ele>
        <time>2015-10-03T16:42:26Z</time>
      </trkpt>
      <trkpt lat="44.84283" lon="0.97752">
        <ele>161.6</ele>
        <time>2015-10-03T16:42:31Z</time>
      </trkpt>
      <trkpt lat="44.84286" lon="0.97757">
        <ele>161.6</ele>
        <time>2015-10-03T16:42:32Z</time>
      </trkpt>
      <trkpt lat="44.84291" lon="0.97765">
        <ele>162</ele>
        <time>2015-10-03T16:42:34Z</time>
      </trkpt>
      <trkpt lat="44.843" lon="0.97775">
        <ele>162.6</ele>
        <time>2015-10-03T16:42:37Z</time>
      </trkpt>
      <trkpt lat="44.84303" lon="0.97777">
        <ele>162.8</ele>
        <time>2015-10-03T16:42:38Z</time>
      </trkpt>
      <trkpt lat="44.84319" lon="0.97785">
        <ele>163.4</ele>
        <time>2015-10-03T16:42:43Z</time>
      </trkpt>
      <trkpt lat="44.84323" lon="0.97785">
        <ele>163.8</ele>
        <time>2015-10-03T16:42:44Z</time>
      </trkpt>
      <trkpt lat="44.8434" lon="0.97783">
        <ele>164.6</ele>
        <time>2015-10-03T16:42:50Z</time>
      </trkpt>
      <trkpt lat="44.84345" lon="0.97782">
        <ele>164.8</ele>
        <time>2015-10-03T16:42:53Z</time>
      </trkpt>
      <trkpt lat="44.84347" lon="0.97781">
        <ele>165</ele>
        <time>2015-10-03T16:42:55Z</time>
      </trkpt>
      <trkpt lat="44.84347" lon="0.9778">
        <ele>165</ele>
        <time>2015-10-03T16:44:18Z</time>
      </trkpt>
      <trkpt lat="44.8435" lon="0.97776">
        <ele>165</ele>
        <time>2015-10-03T16:44:20Z</time>
      </trkpt>
      <trkpt lat="44.84357" lon="0.97772">
        <ele>165.2</ele>
        <time>2015-10-03T16:44:22Z</time>
      </trkpt>
      <trkpt lat="44.84364" lon="0.97767">
        <ele>165.8</ele>
        <time>2015-10-03T16:44:24Z</time>
      </trkpt>
      <trkpt lat="44.84375" lon="0.97758">
        <ele>166.6</ele>
        <time>2015-10-03T16:44:27Z</time>
      </trkpt>
      <trkpt lat="44.84389" lon="0.97744">
        <ele>167</ele>
        <time>2015-10-03T16:44:31Z</time>
      </trkpt>
      <trkpt lat="44.844" lon="0.97733">
        <ele>168</ele>
        <time>2015-10-03T16:44:34Z</time>
      </trkpt>
      <trkpt lat="44.84404" lon="0.97729">
        <ele>168</ele>
        <time>2015-10-03T16:44:35Z</time>
      </trkpt>
      <trkpt lat="44.84416" lon="0.97718">
        <ele>168.6</ele>
        <time>2015-10-03T16:44:38Z</time>
      </trkpt>
      <trkpt lat="44.84425" lon="0.97712">
        <ele>169.2</ele>
        <time>2015-10-03T16:44:40Z</time>
      </trkpt>
      <trkpt lat="44.84429" lon="0.97709">
        <ele>169.2</ele>
        <time>2015-10-03T16:44:41Z</time>
      </trkpt>
      <trkpt lat="44.84434" lon="0.97708">
        <ele>169.4</ele>
        <time>2015-10-03T16:44:42Z</time>
      </trkpt>
      <trkpt lat="44.84448" lon="0.97704">
        <ele>170.6</ele>
        <time>2015-10-03T16:44:45Z</time>
      </trkpt>
      <trkpt lat="44.84453" lon="0.97704">
        <ele>170.6</ele>
        <time>2015-10-03T16:44:46Z</time>
      </trkpt>
      <trkpt lat="44.84472" lon="0.97705">
        <ele>171.6</ele>
        <time>2015-10-03T16:44:50Z</time>
      </trkpt>
      <trkpt lat="44.84486" lon="0.97707">
        <ele>172.6</ele>
        <time>2015-10-03T16:44:53Z</time>
      </trkpt>
      <trkpt lat="44.84491" lon="0.97707">
        <ele>172.6</ele>
        <time>2015-10-03T16:44:54Z</time>
      </trkpt>
      <trkpt lat="44.84513" lon="0.97707">
        <ele>173.8</ele>
        <time>2015-10-03T16:44:59Z</time>
      </trkpt>
      <trkpt lat="44.84527" lon="0.97707">
        <ele>174.6</ele>
        <time>2015-10-03T16:45:02Z</time>
      </trkpt>
      <trkpt lat="44.84531" lon="0.97706">
        <ele>175</ele>
        <time>2015-10-03T16:45:03Z</time>
      </trkpt>
      <trkpt lat="44.84552" lon="0.97705">
        <ele>176</ele>
        <time>2015-10-03T16:45:08Z</time>
      </trkpt>
      <trkpt lat="44.84556" lon="0.97705">
        <ele>176.2</ele>
        <time>2015-10-03T16:45:09Z</time>
      </trkpt>
      <trkpt lat="44.84575" lon="0.97702">
        <ele>177.2</ele>
        <time>2015-10-03T16:45:14Z</time>
      </trkpt>
      <trkpt lat="44.84586" lon="0.97701">
        <ele>177.8</ele>
        <time>2015-10-03T16:45:17Z</time>
      </trkpt>
      <trkpt lat="44.84601" lon="0.977">
        <ele>178.4</ele>
        <time>2015-10-03T16:45:21Z</time>
      </trkpt>
      <trkpt lat="44.84619" lon="0.97698">
        <ele>179.4</ele>
        <time>2015-10-03T16:45:26Z</time>
      </trkpt>
      <trkpt lat="44.84623" lon="0.97698">
        <ele>179.6</ele>
        <time>2015-10-03T16:45:27Z</time>
      </trkpt>
      <trkpt lat="44.84638" lon="0.97697">
        <ele>180.4</ele>
        <time>2015-10-03T16:45:31Z</time>
      </trkpt>
      <trkpt lat="44.8466" lon="0.97695">
        <ele>181.6</ele>
        <time>2015-10-03T16:45:37Z</time>
      </trkpt>
      <trkpt lat="44.84686" lon="0.97702">
        <ele>182.8</ele>
        <time>2015-10-03T16:45:44Z</time>
      </trkpt>
      <trkpt lat="44.84707" lon="0.97716">
        <ele>184</ele>
        <time>2015-10-03T16:45:50Z</time>
      </trkpt>
      <trkpt lat="44.84712" lon="0.97722">
        <ele>184.2</ele>
        <time>2015-10-03T16:45:52Z</time>
      </trkpt>
      <trkpt lat="44.84722" lon="0.97736">
        <ele>185.2</ele>
        <time>2015-10-03T16:45:56Z</time>
      </trkpt>
      <trkpt lat="44.84731" lon="0.97752">
        <ele>185.8</ele>
        <time>2015-10-03T16:46:00Z</time>
      </trkpt>
      <trkpt lat="44.84738" lon="0.97764">
        <ele>186.4</ele>
        <time>2015-10-03T16:46:03Z</time>
      </trkpt>
      <trkpt lat="44.84749" lon="0.97783">
        <ele>187.4</ele>
        <time>2015-10-03T16:46:08Z</time>
      </trkpt>
      <trkpt lat="44.84752" lon="0.97787">
        <ele>187.6</ele>
        <time>2015-10-03T16:46:09Z</time>
      </trkpt>
      <trkpt lat="44.84765" lon="0.9781">
        <ele>188.6</ele>
        <time>2015-10-03T16:46:15Z</time>
      </trkpt>
      <trkpt lat="44.84779" lon="0.97833">
        <ele>189.8</ele>
        <time>2015-10-03T16:46:21Z</time>
      </trkpt>
      <trkpt lat="44.84783" lon="0.97841">
        <ele>190.2</ele>
        <time>2015-10-03T16:46:23Z</time>
      </trkpt>
      <trkpt lat="44.84791" lon="0.97856">
        <ele>190.8</ele>
        <time>2015-10-03T16:46:27Z</time>
      </trkpt>
      <trkpt lat="44.84801" lon="0.9787">
        <ele>191.6</ele>
        <time>2015-10-03T16:46:31Z</time>
      </trkpt>
      <trkpt lat="44.84806" lon="0.97877">
        <ele>192</ele>
        <time>2015-10-03T16:46:33Z</time>
      </trkpt>
      <trkpt lat="44.84816" lon="0.97895">
        <ele>192.8</ele>
        <time>2015-10-03T16:46:38Z</time>
      </trkpt>
      <trkpt lat="44.84819" lon="0.97898">
        <ele>193.2</ele>
        <time>2015-10-03T16:46:39Z</time>
      </trkpt>
      <trkpt lat="44.84834" lon="0.97923">
        <ele>194.2</ele>
        <time>2015-10-03T16:46:46Z</time>
      </trkpt>
      <trkpt lat="44.84839" lon="0.97933">
        <ele>194.6</ele>
        <time>2015-10-03T16:46:49Z</time>
      </trkpt>
      <trkpt lat="44.84849" lon="0.97951">
        <ele>195.6</ele>
        <time>2015-10-03T16:46:54Z</time>
      </trkpt>
      <trkpt lat="44.84857" lon="0.97962">
        <ele>196</ele>
        <time>2015-10-03T16:46:57Z</time>
      </trkpt>
      <trkpt lat="44.84865" lon="0.97972">
        <ele>196.8</ele>
        <time>2015-10-03T16:47:00Z</time>
      </trkpt>
      <trkpt lat="44.84884" lon="0.97989">
        <ele>197.8</ele>
        <time>2015-10-03T16:47:06Z</time>
      </trkpt>
      <trkpt lat="44.84898" lon="0.97998">
        <ele>199.2</ele>
        <time>2015-10-03T16:47:10Z</time>
      </trkpt>
      <trkpt lat="44.84912" lon="0.98003">
        <ele>199</ele>
        <time>2015-10-03T16:47:14Z</time>
      </trkpt>
      <trkpt lat="44.8493" lon="0.98009">
        <ele>200.2</ele>
        <time>2015-10-03T16:47:19Z</time>
      </trkpt>
      <trkpt lat="44.84941" lon="0.9801">
        <ele>200.4</ele>
        <time>2015-10-03T16:47:22Z</time>
      </trkpt>
      <trkpt lat="44.84955" lon="0.9801">
        <ele>201.2</ele>
        <time>2015-10-03T16:47:26Z</time>
      </trkpt>
      <trkpt lat="44.84973" lon="0.98006">
        <ele>202</ele>
        <time>2015-10-03T16:47:31Z</time>
      </trkpt>
      <trkpt lat="44.8498" lon="0.98003">
        <ele>202.2</ele>
        <time>2015-10-03T16:47:33Z</time>
      </trkpt>
      <trkpt lat="44.84998" lon="0.97996">
        <ele>203.4</ele>
        <time>2015-10-03T16:47:38Z</time>
      </trkpt>
      <trkpt lat="44.85005" lon="0.97993">
        <ele>203.8</ele>
        <time>2015-10-03T16:47:40Z</time>
      </trkpt>
      <trkpt lat="44.85018" lon="0.97986">
        <ele>204.4</ele>
        <time>2015-10-03T16:47:44Z</time>
      </trkpt>
      <trkpt lat="44.85033" lon="0.97976">
        <ele>205.4</ele>
        <time>2015-10-03T16:47:49Z</time>
      </trkpt>
      <trkpt lat="44.85053" lon="0.97963">
        <ele>206.4</ele>
        <time>2015-10-03T16:47:56Z</time>
      </trkpt>
      <trkpt lat="44.85072" lon="0.97953">
        <ele>207.6</ele>
        <time>2015-10-03T16:48:03Z</time>
      </trkpt>
      <trkpt lat="44.85074" lon="0.97952">
        <ele>207.6</ele>
        <time>2015-10-03T16:48:04Z</time>
      </trkpt>
      <trkpt lat="44.85092" lon="0.97944">
        <ele>208.6</ele>
        <time>2015-10-03T16:48:10Z</time>
      </trkpt>
      <trkpt lat="44.85098" lon="0.97942">
        <ele>209</ele>
        <time>2015-10-03T16:48:12Z</time>
      </trkpt>
      <trkpt lat="44.85114" lon="0.97937">
        <ele>209.8</ele>
        <time>2015-10-03T16:48:17Z</time>
      </trkpt>
      <trkpt lat="44.85125" lon="0.97932">
        <ele>210.2</ele>
        <time>2015-10-03T16:48:21Z</time>
      </trkpt>
      <trkpt lat="44.85133" lon="0.97929">
        <ele>210.8</ele>
        <time>2015-10-03T16:48:24Z</time>
      </trkpt>
      <trkpt lat="44.85147" lon="0.97923">
        <ele>211.4</ele>
        <time>2015-10-03T16:48:29Z</time>
      </trkpt>
      <trkpt lat="44.85152" lon="0.9792">
        <ele>211.8</ele>
        <time>2015-10-03T16:48:31Z</time>
      </trkpt>
      <trkpt lat="44.85162" lon="0.97915">
        <ele>212.6</ele>
        <time>2015-10-03T16:48:35Z</time>
      </trkpt>
      <trkpt lat="44.85165" lon="0.97916">
        <ele>212.8</ele>
        <time>2015-10-03T16:48:36Z</time>
      </trkpt>
      <trkpt lat="44.85166" lon="0.97918">
        <ele>212.8</ele>
        <time>2015-10-03T16:48:37Z</time>
      </trkpt>
      <trkpt lat="44.8517" lon="0.97929">
        <ele>214.2</ele>
        <time>2015-10-03T16:48:41Z</time>
      </trkpt>
      <trkpt lat="44.8517" lon="0.97932">
        <ele>214.6</ele>
        <time>2015-10-03T16:48:42Z</time>
      </trkpt>
      <trkpt lat="44.85172" lon="0.97939">
        <ele>215.2</ele>
        <time>2015-10-03T16:48:44Z</time>
      </trkpt>
      <trkpt lat="44.85175" lon="0.97951">
        <ele>216.4</ele>
        <time>2015-10-03T16:48:48Z</time>
      </trkpt>
      <trkpt lat="44.85176" lon="0.97954">
        <ele>217</ele>
        <time>2015-10-03T16:48:49Z</time>
      </trkpt>
      <trkpt lat="44.85178" lon="0.97961">
        <ele>217.6</ele>
        <time>2015-10-03T16:48:51Z</time>
      </trkpt>
      <trkpt lat="44.85181" lon="0.97974">
        <ele>219</ele>
        <time>2015-10-03T16:48:55Z</time>
      </trkpt>
      <trkpt lat="44.85183" lon="0.9798">
        <ele>219.8</ele>
        <time>2015-10-03T16:48:57Z</time>
      </trkpt>
      <trkpt lat="44.85185" lon="0.97987">
        <ele>220.2</ele>
        <time>2015-10-03T16:48:59Z</time>
      </trkpt>
      <trkpt lat="44.85189" lon="0.98002">
        <ele>221.4</ele>
        <time>2015-10-03T16:49:04Z</time>
      </trkpt>
      <trkpt lat="44.8519" lon="0.98008">
        <ele>221.6</ele>
        <time>2015-10-03T16:49:06Z</time>
      </trkpt>
      <trkpt lat="44.85192" lon="0.98027">
        <ele>222.4</ele>
        <time>2015-10-03T16:49:11Z</time>
      </trkpt>
      <trkpt lat="44.85193" lon="0.98033">
        <ele>222.6</ele>
        <time>2015-10-03T16:49:13Z</time>
      </trkpt>
      <trkpt lat="44.85196" lon="0.98046">
        <ele>222.8</ele>
        <time>2015-10-03T16:49:18Z</time>
      </trkpt>
      <trkpt lat="44.85197" lon="0.98046">
        <ele>222.8</ele>
        <time>2015-10-03T16:49:19Z</time>
      </trkpt>
      <trkpt lat="44.85196" lon="0.98047">
        <ele>222.8</ele>
        <time>2015-10-03T16:49:25Z</time>
      </trkpt>
      <trkpt lat="44.85194" lon="0.98057">
        <ele>222.4</ele>
        <time>2015-10-03T16:53:07Z</time>
      </trkpt>
      <trkpt lat="44.85194" lon="0.9806">
        <ele>222.6</ele>
        <time>2015-10-03T16:53:09Z</time>
      </trkpt>
      <trkpt lat="44.85195" lon="0.98064">
        <ele>222.4</ele>
        <time>2015-10-03T16:53:11Z</time>
      </trkpt>
      <trkpt lat="44.85194" lon="0.9807">
        <ele>222.4</ele>
        <time>2015-10-03T16:53:16Z</time>
      </trkpt>
      <trkpt lat="44.85195" lon="0.98083">
        <ele>222</ele>
        <time>2015-10-03T16:53:23Z</time>
      </trkpt>
      <trkpt lat="44.85203" lon="0.98095">
        <ele>222.8</ele>
        <time>2015-10-03T16:53:33Z</time>
      </trkpt>
      <trkpt lat="44.85209" lon="0.98104">
        <ele>223</ele>
        <time>2015-10-03T16:53:42Z</time>
      </trkpt>
    </trkseg>
  </trk>
</gpx>